# Wetter Temperatur Luftdruck Luftfeuchtigkeit Sichtweite Windgeschwindigkeit Windrichtung Zeit
1 Clouds 9 1020 57 10000 9.26 290 12:44 22.04.2021
2 Clouds 9 1020 53 10000 9.26 300 12:20 22.04.2021
3 Clouds 9 1020 53 10000 8.75 300 11:45 22.04.2021
4 Clouds 9 1020 57 10000 8.75 290 11:23 22.04.2021
5 Clouds 9 1020 57 10000 8.75 290 11:23 22.04.2021
6 Clouds 8 1020 61 10000 7.72 310 10:45 22.04.2021
7 Clouds 8 1020 57 10000 9.77 310 10:24 22.04.2021
8 Clouds 8 1019 61 10000 9.26 300 09:45 22.04.2021
9 Clouds 7 1019 65 10000 6.69 300 09:20 22.04.2021
10 Clouds 6 1019 65 10000 7.2 290 08:39 22.04.2021
11 Clouds 6 1019 65 10000 7.2 290 08:19 22.04.2021
12 Clouds 6 1018 70 10000 6.69 300 07:45 22.04.2021
13 Clouds 6 1018 70 10000 7.2 290 07:24 22.04.2021
14 Clouds 6 1018 65 10000 6.17 290 06:27 22.04.2021
15 Clouds 6 1018 61 10000 7.2 290 05:26 22.04.2021
16 Clouds 6 1018 65 10000 6.17 280 04:30 22.04.2021
17 Clouds 5 1017 65 10000 6.17 300 01:23 22.04.2021
18 Clouds 5 1017 65 10000 6.17 290 23:53 21.04.2021
19 Clouds 5 1017 65 10000 6.17 290 23:32 21.04.2021
20 Clouds 6 1017 65 10000 5.14 290 22:44 21.04.2021
21 Clouds 6 1017 65 10000 5.66 290 22:24 21.04.2021
22 Clouds 6 1017 56 10000 6.17 290 21:50 21.04.2021
23 Clouds 6 1017 53 10000 6.69 300 21:25 21.04.2021
24 Clouds 7 1017 57 10000 8.23 300 20:59 21.04.2021
25 Clouds 8 1017 53 10000 8.23 300 20:21 21.04.2021
26 Clouds 8 1017 57 10000 7.72 300 19:45 21.04.2021
27 Clouds 8 1016 53 10000 9.77 310 19:25 21.04.2021
28 Clouds 9 1016 49 10000 8.23 290 18:49 21.04.2021
29 Clouds 9 1016 46 10000 9.77 310 18:30 21.04.2021
30 Clouds 10 1016 50 10000 8.75 290 17:49 21.04.2021
31 Clouds 10 1016 50 10000 8.75 280 17:25 21.04.2021
32 Clouds 11 1016 53 10000 9.26 290 16:57 21.04.2021
33 Clouds 11 1016 50 10000 7.72 280 16:32 21.04.2021
34 Clouds 11 1016 50 10000 8.75 290 15:43 21.04.2021
35 Clouds 12 1016 50 10000 8.23 280 15:18 21.04.2021
36 Clouds 11 1016 58 10000 8.75 300 14:44 21.04.2021
37 Clouds 11 1016 54 10000 8.75 290 14:23 21.04.2021
38 Clouds 11 1016 58 10000 7.72 290 13:48 21.04.2021
39 Clouds 10 1016 66 10000 7.2 300 13:21 21.04.2021
40 Clouds 10 1016 71 10000 6.69 300 12:41 21.04.2021
41 Clouds 11 1016 71 10000 5.66 300 12:18 21.04.2021
42 Clouds 11 1015 76 10000 4.63 300 11:41 21.04.2021
43 Clouds 10 1016 76 10000 5.14 290 11:22 21.04.2021
44 Clouds 11 1015 71 10000 6.17 310 10:39 21.04.2021
45 Clear 10 1015 66 10000 4.12 300 09:56 21.04.2021
46 Clear 9 1015 71 10000 3.6 300 09:21 21.04.2021
47 Clear 8 1015 71 10000 2.06 320 08:46 21.04.2021
48 Clear 6 1015 76 10000 0.51 0 08:24 21.04.2021
49 Clear 5 1014 81 10000 1.54 300 07:52 21.04.2021
50 Clear 4 1014 81 10000 1.03 320 07:28 21.04.2021
51 Clear 3 1014 93 10000 1.03 300 06:21 21.04.2021
52 Clear 5 1015 81 10000 1.03 320 02:28 21.04.2021
53 Clear 6 1015 81 10000 1.03 320 00:20 21.04.2021
54 Clear 8 1016 70 10000 1.03 0 23:40 20.04.2021
55 Clear 9 1016 61 10000 1.03 0 22:49 20.04.2021
56 Clear 10 1016 66 10000 1.03 330 22:24 20.04.2021
57 Clear 11 1016 50 10000 1.03 360 21:59 20.04.2021
58 Clear 11 1016 46 10000 1.03 0 21:40 20.04.2021
59 Clear 12 1016 46 10000 1.03 0 21:22 20.04.2021
60 Clear 14 1015 38 10000 3.09 10 20:41 20.04.2021
61 Clear 14 1015 38 10000 3.09 10 20:21 20.04.2021
62 Clear 15 1015 36 10000 3.09 30 19:50 20.04.2021
63 Clear 15 1015 36 10000 3.09 30 19:50 20.04.2021
64 Clear 15 1015 36 10000 4.12 40 19:29 20.04.2021
65 Clear 16 1015 33 10000 3.6 20 18:50 20.04.2021
66 Clear 16 1015 33 10000 4.12 10 18:31 20.04.2021
67 Clear 17 1015 33 10000 3.6 350 17:43 20.04.2021
68 Clear 16 1016 36 10000 4.63 330 16:55 20.04.2021
69 Clear 17 1016 34 10000 3.6 40 16:35 20.04.2021
70 Clear 17 1016 33 10000 3.09 0 15:42 20.04.2021
71 Clear 16 1017 33 10000 2.57 0 15:23 20.04.2021
72 Clear 17 1017 33 10000 4.12 40 14:49 20.04.2021
73 Clear 16 1017 33 10000 4.12 80 14:24 20.04.2021
74 Clear 16 1017 39 10000 5.14 70 13:31 20.04.2021
75 Clear 15 1017 41 10000 3.6 40 12:55 20.04.2021
76 Clear 15 1017 41 10000 5.66 70 12:31 20.04.2021
77 Clear 14 1017 47 10000 4.12 50 11:58 20.04.2021
78 Clear 13 1018 47 10000 3.6 50 11:38 20.04.2021
79 Clear 13 1018 47 10000 3.6 50 11:19 20.04.2021
80 Clear 12 1018 50 10000 4.63 80 10:42 20.04.2021
81 Clear 11 1018 58 10000 2.57 50 10:20 20.04.2021
82 Clear 9 1018 66 10000 3.09 50 09:20 20.04.2021
83 Clear 7 1018 70 10000 2.57 30 08:53 20.04.2021
84 Clear 5 1018 81 10000 1.54 330 08:19 20.04.2021
85 Clear 3 1018 93 10000 2.57 320 07:35 20.04.2021
86 Clear 2 1018 100 10000 2.06 320 06:35 20.04.2021
87 Clear 3 1018 93 10000 2.06 320 05:37 20.04.2021
88 Clear 4 1019 93 10000 1.54 320 04:41 20.04.2021
89 Clear 6 1019 70 10000 2.06 30 00:53 20.04.2021
90 Clear 7 1019 65 10000 3.09 20 00:27 20.04.2021
91 Clear 9 1020 53 10000 3.09 40 23:33 19.04.2021
92 Clear 9 1020 57 10000 3.09 30 22:51 19.04.2021
93 Clear 9 1020 57 10000 3.09 20 22:29 19.04.2021
94 Clear 10 1020 57 10000 2.57 20 21:47 19.04.2021
95 Clear 11 1020 58 10000 2.57 30 21:25 19.04.2021
96 Clear 11 1020 58 10000 3.09 40 20:42 19.04.2021
97 Clear 13 1020 58 10000 3.09 40 20:22 19.04.2021
98 Clear 14 1020 62 10000 4.12 60 19:54 19.04.2021
99 Clear 15 1020 54 10000 4.63 50 19:36 19.04.2021
100 Clear 15 1020 54 10000 4.63 50 19:18 19.04.2021
101 Clouds 16 1020 47 10000 3.6 50 18:44 19.04.2021
102 Clouds 16 1020 41 10000 5.14 60 18:21 19.04.2021
103 Clouds 17 1020 41 10000 6.17 70 17:46 19.04.2021
104 Clouds 17 1020 48 10000 4.12 50 17:26 19.04.2021
105 Clouds 17 1020 55 10000 3.6 60 16:45 19.04.2021
106 Clouds 16 1020 59 10000 3.6 60 16:26 19.04.2021
107 Clouds 17 1020 59 10000 3.09 50 15:44 19.04.2021
108 Clouds 17 1021 59 10000 3.6 70 15:24 19.04.2021
109 Clouds 16 1021 63 10000 3.6 50 14:52 19.04.2021
110 Clouds 15 1021 67 10000 3.6 50 14:32 19.04.2021
111 Clouds 14 1022 71 10000 2.57 90 13:53 19.04.2021
112 Clouds 14 1022 76 10000 2.57 70 13:28 19.04.2021
113 Clouds 13 1022 76 10000 1.54 70 12:49 19.04.2021
114 Clouds 12 1022 82 10000 1.54 70 12:28 19.04.2021
115 Clouds 10 1022 93 9000 2.57 70 11:59 19.04.2021
116 Clouds 10 1022 93 9000 2.57 70 11:59 19.04.2021
117 Clouds 9 1022 93 9000 2.57 70 11:39 19.04.2021
118 Mist 9 1022 93 5000 2.06 40 11:19 19.04.2021
119 Mist 8 1022 100 2600 1.54 90 10:43 19.04.2021
120 Mist 8 1022 100 1500 1.54 30 10:19 19.04.2021
121 Mist 7 1022 93 1500 2.06 50 09:42 19.04.2021
122 Mist 6 1022 100 1000 1.54 100 09:23 19.04.2021
123 Fog 6 1022 100 600 1.54 90 08:34 19.04.2021
124 Fog 6 1022 100 600 2.57 80 07:50 19.04.2021
125 Fog 6 1022 100 700 2.57 80 07:24 19.04.2021
126 Fog 6 1022 100 900 3.09 60 06:52 19.04.2021
127 Fog 6 1022 93 3500 1.03 0 04:47 19.04.2021
128 Clouds 7 1022 93 10000 2.06 30 01:49 19.04.2021
129 Clear 7 1022 93 10000 3.09 50 00:42 19.04.2021
130 Clouds 8 1022 93 10000 3.09 20 23:21 18.04.2021
131 Clouds 8 1022 81 10000 2.57 30 22:58 18.04.2021
132 Rain 9 1022 71 10000 3.09 50 22:34 18.04.2021
133 Rain 10 1022 71 10000 4.12 60 21:56 18.04.2021
134 Rain 10 1022 66 10000 4.12 40 21:28 18.04.2021
135 Rain 11 1022 62 10000 2.57 30 20:45 18.04.2021
136 Rain 11 1022 54 10000 4.12 40 20:26 18.04.2021
137 Rain 12 1021 58 10000 5.14 60 19:59 18.04.2021
138 Rain 12 1021 58 10000 5.14 60 19:39 18.04.2021
139 Clear 13 1021 62 10000 6.17 60 19:19 18.04.2021
140 Clear 14 1021 62 10000 4.12 60 18:45 18.04.2021
141 Clear 14 1021 67 10000 4.63 60 18:25 18.04.2021
142 Clouds 15 1021 62 10000 5.14 50 17:46 18.04.2021
143 Clouds 15 1021 58 10000 5.14 40 17:27 18.04.2021
144 Clouds 15 1021 58 10000 5.66 60 16:47 18.04.2021
145 Clouds 16 1021 55 10000 4.63 70 16:29 18.04.2021
146 Clouds 16 1021 58 10000 4.12 50 15:49 18.04.2021
147 Clouds 16 1021 58 10000 4.12 40 15:28 18.04.2021
148 Clouds 15 1021 58 10000 4.63 50 14:53 18.04.2021
149 Clouds 15 1021 58 10000 5.14 40 14:28 18.04.2021
150 Clouds 15 1021 58 10000 4.63 50 13:56 18.04.2021
151 Clouds 15 1021 58 10000 4.63 50 13:38 18.04.2021
152 Clouds 14 1022 58 10000 3.6 40 13:19 18.04.2021
153 Clouds 13 1022 62 10000 4.12 60 12:33 18.04.2021
154 Clouds 12 1022 71 10000 3.6 50 11:45 18.04.2021
155 Clouds 11 1022 66 10000 2.06 20 11:22 18.04.2021
156 Clouds 10 1022 71 10000 3.09 70 10:48 18.04.2021
157 Clear 10 1022 71 10000 3.6 40 10:28 18.04.2021
158 Clear 9 1022 71 10000 3.09 30 09:57 18.04.2021
159 Clear 8 1022 76 10000 3.09 50 09:38 18.04.2021
160 Clear 8 1022 76 10000 3.09 50 09:19 18.04.2021
161 Clear 7 1022 76 10000 2.57 50 08:39 18.04.2021
162 Clear 7 1022 76 10000 3.09 60 08:18 18.04.2021
163 Clear 5 1022 81 10000 1.54 20 07:39 18.04.2021
164 Clear 6 1022 75 10000 2.06 30 05:45 18.04.2021
165 Clear 6 1022 81 10000 2.57 30 05:24 18.04.2021
166 Clear 8 1022 76 10000 2.57 20 03:26 18.04.2021
167 Clear 8 1023 76 10000 2.57 30 02:22 18.04.2021
168 Clear 8 1023 71 10000 2.57 50 00:40 18.04.2021
169 Clear 7 1023 70 10000 1.03 0 23:39 17.04.2021
170 Clear 7 1023 70 10000 2.06 20 22:59 17.04.2021
171 Clear 7 1023 70 10000 2.06 20 22:39 17.04.2021
172 Clear 8 1023 61 10000 2.57 40 22:20 17.04.2021
173 Clear 9 1023 57 10000 3.09 50 21:38 17.04.2021
174 Clear 9 1023 57 10000 3.09 50 21:19 17.04.2021
175 Clear 11 1023 53 10000 5.66 60 20:28 17.04.2021
176 Clear 11 1023 57 10000 5.66 50 19:46 17.04.2021
177 Clear 12 1022 54 10000 5.66 60 19:22 17.04.2021
178 Clear 13 1022 54 10000 5.66 60 18:58 17.04.2021
179 Clouds 14 1022 50 10000 5.14 60 18:37 17.04.2021
180 Clouds 14 1022 50 10000 5.14 60 18:18 17.04.2021
181 Clouds 14 1022 50 10000 5.14 60 17:41 17.04.2021
182 Clouds 14 1023 47 10000 5.66 50 16:55 17.04.2021
183 Clouds 14 1023 47 10000 4.12 70 16:29 17.04.2021
184 Clouds 14 1023 47 10000 4.12 70 16:29 17.04.2021
185 Clouds 14 1023 44 10000 4.63 40 15:55 17.04.2021
186 Clouds 13 1023 44 10000 4.63 60 14:51 17.04.2021
187 Clouds 13 1023 44 10000 4.63 60 14:33 17.04.2021
188 Clouds 13 1023 47 10000 3.6 40 13:50 17.04.2021
189 Clouds 12 1023 47 10000 4.12 20 13:27 17.04.2021
190 Clear 11 1023 50 10000 3.6 30 12:42 17.04.2021
191 Clear 11 1024 50 10000 3.6 30 12:21 17.04.2021
192 Clear 10 1024 53 10000 4.12 30 11:50 17.04.2021
193 Clear 10 1024 53 10000 3.6 350 11:30 17.04.2021
194 Clear 8 1024 61 10000 3.09 10 10:47 17.04.2021
195 Clear 7 1024 65 10000 3.09 360 10:29 17.04.2021
196 Clear 6 1024 70 10000 2.57 340 09:44 17.04.2021
197 Clear 5 1024 75 10000 2.57 330 08:41 17.04.2021
198 Clear 4 1024 70 10000 3.09 320 08:22 17.04.2021
199 Clear 3 1025 80 10000 2.06 320 06:59 17.04.2021
200 Clear 3 1025 80 10000 2.57 320 03:56 17.04.2021
201 Clear 3 1025 80 10000 2.57 320 03:38 17.04.2021
202 Clear 3 1027 86 10000 2.57 320 00:49 17.04.2021
203 Clear 3 1027 80 10000 2.57 330 00:29 17.04.2021
204 Clear 4 1027 80 10000 2.06 330 23:48 16.04.2021
205 Clear 4 1027 81 10000 1.54 320 23:29 16.04.2021
206 Clear 5 1027 75 10000 1.03 0 22:51 16.04.2021
207 Clear 6 1027 65 10000 1.03 350 22:22 16.04.2021
208 Clear 7 1027 52 10000 1.54 10 21:54 16.04.2021
209 Clear 7 1027 49 10000 2.06 10 21:35 16.04.2021
210 Clear 8 1027 49 10000 3.09 20 20:54 16.04.2021
211 Clear 9 1027 46 10000 4.63 30 20:29 16.04.2021
212 Clear 10 1026 43 10000 4.12 10 19:55 16.04.2021
213 Clear 10 1026 46 10000 4.63 30 19:31 16.04.2021
214 Clear 10 1026 46 10000 4.12 30 18:47 16.04.2021
215 Clear 11 1026 43 10000 4.63 30 18:21 16.04.2021
216 Clear 11 1027 37 10000 5.66 10 17:46 16.04.2021
217 Clear 11 1027 37 10000 5.66 20 17:19 16.04.2021
218 Clear 11 1027 40 10000 5.66 40 16:44 16.04.2021
219 Clear 11 1027 40 10000 5.66 40 16:44 16.04.2021
220 Clear 11 1027 43 10000 5.66 10 16:25 16.04.2021
221 Clear 11 1027 40 10000 4.12 360 15:51 16.04.2021
222 Clear 11 1027 43 10000 4.12 40 15:23 16.04.2021
223 Clear 11 1027 43 10000 5.14 60 14:43 16.04.2021
224 Clear 11 1027 40 10000 5.14 70 14:20 16.04.2021
225 Clear 11 1027 43 10000 6.17 70 13:54 16.04.2021
226 Clear 11 1027 40 10000 5.66 50 13:21 16.04.2021
227 Clear 10 1028 43 10000 6.17 50 12:51 16.04.2021
228 Clear 9 1028 46 10000 4.12 30 12:29 16.04.2021
229 Clear 9 1028 46 10000 5.14 40 11:58 16.04.2021
230 Clear 9 1028 46 10000 6.17 40 11:27 16.04.2021
231 Clear 9 1028 53 10000 5.14 30 10:59 16.04.2021
232 Clear 8 1028 53 10000 5.14 30 10:39 16.04.2021
233 Clear 8 1028 57 10000 3.6 50 10:19 16.04.2021
234 Clear 6 1028 65 10000 3.09 50 09:43 16.04.2021
235 Clear 5 1028 75 10000 2.06 20 09:20 16.04.2021
236 Clear 3 1028 81 10000 1.54 40 08:42 16.04.2021
237 Clear 3 1028 75 10000 2.06 320 08:18 16.04.2021
238 Clear 2 1028 80 10000 1.54 330 07:37 16.04.2021
239 Clear 2 1028 75 10000 2.06 320 06:59 16.04.2021
240 Clear 3 1028 75 10000 2.06 320 06:28 16.04.2021
241 Clear 3 1028 75 10000 2.06 330 04:23 16.04.2021
242 Rain 5 1029 65 10000 2.57 340 01:38 16.04.2021
243 Clear 5 1029 65 10000 2.06 360 00:42 16.04.2021
244 Clear 5 1029 65 10000 2.06 350 00:20 16.04.2021
245 Clear 5 1029 56 10000 2.06 340 23:45 15.04.2021
246 Clear 5 1029 52 10000 2.57 330 23:25 15.04.2021
247 Clear 6 1029 52 10000 2.57 330 22:47 15.04.2021
248 Clear 6 1029 56 10000 2.06 350 22:23 15.04.2021
249 Clear 7 1029 49 10000 1.54 10 21:43 15.04.2021
250 Clear 6 1029 56 10000 2.06 360 21:24 15.04.2021
251 Clear 7 1029 49 10000 2.57 10 20:48 15.04.2021
252 Clear 7 1029 49 10000 4.12 20 20:25 15.04.2021
253 Clear 8 1029 39 10000 3.6 10 19:47 15.04.2021
254 Clear 9 1029 37 10000 4.12 20 19:28 15.04.2021
255 Clear 9 1029 37 10000 4.63 30 18:59 15.04.2021
256 Clear 9 1029 37 10000 4.63 30 18:37 15.04.2021
257 Clear 10 1029 40 10000 4.12 360 18:18 15.04.2021
258 Clear 10 1029 49 10000 4.12 360 17:51 15.04.2021
259 Clear 10 1029 46 10000 5.14 20 17:29 15.04.2021
260 Clear 10 1029 43 10000 4.63 20 16:44 15.04.2021
261 Clear 10 1029 43 10000 4.63 20 16:24 15.04.2021
262 Clear 10 1030 46 10000 5.66 10 15:50 15.04.2021
263 Clear 10 1030 32 10000 4.63 30 15:27 15.04.2021
264 Clear 9 1030 43 10000 4.12 30 14:44 15.04.2021
265 Clear 9 1030 43 10000 4.12 30 14:44 15.04.2021
266 Clear 9 1030 43 10000 4.12 10 14:26 15.04.2021
267 Clear 9 1030 46 10000 3.09 10 13:49 15.04.2021
268 Clouds 9 1030 43 10000 5.14 10 13:25 15.04.2021
269 Clouds 9 1030 43 10000 4.12 360 12:50 15.04.2021
270 Clear 9 1030 43 10000 5.14 360 12:27 15.04.2021
271 Clouds 9 1030 43 10000 2.57 0 11:48 15.04.2021
272 Clouds 8 1031 53 10000 4.12 10 11:30 15.04.2021
273 Clear 7 1031 61 10000 2.57 10 10:59 15.04.2021
274 Clear 7 1031 61 10000 2.57 10 10:40 15.04.2021
275 Clear 6 1031 70 10000 3.09 50 10:22 15.04.2021
276 Clear 3 1031 81 10000 1.54 320 09:31 15.04.2021
277 Clear 1 1031 86 10000 1.03 320 08:53 15.04.2021
278 Clear 0 1030 93 10000 1.03 310 08:35 15.04.2021
279 Clear -1 1030 100 10000 1.54 330 07:47 15.04.2021
280 Fog -1 1030 100 10000 1.03 330 07:20 15.04.2021
281 Clear -2 1030 100 10000 1.54 340 06:36 15.04.2021
282 Clear -1 1030 100 10000 1.03 310 05:47 15.04.2021
283 Fog -1 1029 93 10000 1.03 330 04:23 15.04.2021
284 Clear 1 1029 100 10000 1.66 75 00:23 15.04.2021
285 Clear 2 1029 100 10000 1.03 320 23:36 14.04.2021
286 Clear 2 1029 93 10000 0.51 0 22:59 14.04.2021
287 Clear 2 1029 93 10000 0.51 0 22:41 14.04.2021
288 Clear 3 1029 87 10000 1.54 330 22:21 14.04.2021
289 Clear 4 1029 81 10000 2.06 330 21:42 14.04.2021
290 Clear 4 1028 75 10000 3.09 320 21:23 14.04.2021
291 Clear 5 1028 75 10000 3.09 310 20:55 14.04.2021
292 Clouds 5 1028 75 10000 3.6 300 20:32 14.04.2021
293 Clouds 6 1028 70 10000 4.63 300 19:51 14.04.2021
294 Clouds 6 1028 65 10000 4.12 310 19:20 14.04.2021
295 Clouds 6 1028 65 10000 4.63 300 18:56 14.04.2021
296 Clouds 7 1028 65 10000 4.63 280 18:21 14.04.2021
297 Clouds 7 1028 61 10000 4.63 280 17:58 14.04.2021
298 Clouds 7 1028 61 10000 3.09 290 17:25 14.04.2021
299 Clouds 7 1028 57 10000 2.06 0 16:54 14.04.2021
300 Clouds 6 1028 65 10000 4.12 60 16:25 14.04.2021
301 Clouds 8 1028 49 10000 5.14 320 15:42 14.04.2021
302 Clouds 7 1028 53 10000 3.09 290 15:23 14.04.2021
303 Rain 8 1028 49 10000 5.14 290 14:49 14.04.2021
304 Clouds 9 1028 46 10000 3.09 360 14:25 14.04.2021
305 Clouds 9 1028 46 10000 3.09 360 14:25 14.04.2021
306 Clouds 7 1028 61 10000 3.6 300 13:57 14.04.2021
307 Clouds 8 1028 61 10000 6.69 290 13:36 14.04.2021
308 Clouds 8 1028 46 10000 2.57 0 12:39 14.04.2021
309 Clouds 7 1029 70 10000 4.12 340 11:44 14.04.2021
310 Clouds 6 1029 65 10000 4.63 320 11:25 14.04.2021
311 Clouds 5 1029 75 10000 5.66 330 10:55 14.04.2021
312 Clouds 5 1029 70 10000 4.63 330 10:33 14.04.2021
313 Clouds 5 1029 81 10000 4.12 310 09:42 14.04.2021
314 Clouds 4 1029 81 10000 4.12 300 09:21 14.04.2021
315 Clouds 3 1029 87 10000 2.57 280 08:47 14.04.2021
316 Clouds 2 1029 87 10000 3.09 270 08:22 14.04.2021
317 Clouds 1 1029 93 10000 2.06 260 07:26 14.04.2021
318 Clouds 1 1028 93 10000 3.09 270 06:26 14.04.2021
319 Clear 1 1028 93 10000 2.06 270 05:20 14.04.2021
320 Clouds 2 1029 87 10000 3.09 290 01:54 14.04.2021
321 Clouds 2 1029 93 10000 2.57 270 00:49 14.04.2021
322 Clouds 2 1029 87 10000 2.57 270 00:25 14.04.2021
323 Clear 3 1029 87 10000 2.06 260 23:31 13.04.2021
324 Clouds 4 1029 81 10000 2.06 280 22:44 13.04.2021
325 Clouds 4 1029 81 10000 4.63 300 22:20 13.04.2021
326 Clouds 4 1029 70 10000 5.14 280 21:48 13.04.2021
327 Clouds 4 1029 70 10000 5.14 290 21:29 13.04.2021
328 Clouds 5 1028 65 10000 4.63 290 20:48 13.04.2021
329 Clouds 6 1028 65 10000 6.17 300 20:24 13.04.2021
330 Clouds 6 1028 65 10000 6.69 290 19:56 13.04.2021
331 Clouds 7 1028 61 10000 7.72 290 19:25 13.04.2021
332 Clouds 7 1028 61 10000 5.66 300 18:48 13.04.2021
333 Clouds 7 1028 61 10000 9.26 290 18:30 13.04.2021
334 Clouds 7 1028 61 10000 9.26 290 18:30 13.04.2021
335 Clouds 8 1028 57 10000 9.26 300 17:40 13.04.2021
336 Clouds 8 1027 61 10000 8.23 290 17:21 13.04.2021
337 Clouds 8 1028 61 10000 8.75 290 16:45 13.04.2021
338 Clouds 8 1028 53 10000 8.75 280 16:27 13.04.2021
339 Clouds 9 1028 57 10000 9.77 290 15:55 13.04.2021
340 Clouds 9 1028 57 10000 9.77 290 15:37 13.04.2021
341 Clouds 8 1028 57 10000 9.26 300 14:58 13.04.2021
342 Clouds 9 1027 53 10000 9.26 290 14:25 13.04.2021
343 Clouds 9 1027 57 10000 8.23 300 13:55 13.04.2021
344 Clouds 9 1027 57 10000 8.23 300 13:36 13.04.2021
345 Clouds 9 1027 57 10000 7.2 280 13:18 13.04.2021
346 Clouds 8 1027 53 10000 8.23 290 12:44 13.04.2021
347 Clouds 8 1027 61 10000 6.69 280 12:22 13.04.2021
348 Clouds 8 1028 70 10000 5.66 300 11:37 13.04.2021
349 Clouds 7 1028 75 10000 5.14 270 10:58 13.04.2021
350 Clouds 7 1028 75 10000 5.14 270 10:58 13.04.2021
351 Clouds 6 1028 75 10000 5.14 270 10:40 13.04.2021
352 Clouds 5 1028 81 10000 5.14 260 10:19 13.04.2021
353 Clouds 4 1027 81 10000 6.17 250 09:49 13.04.2021
354 Clouds 4 1027 87 10000 4.63 260 09:26 13.04.2021
355 Clouds 3 1027 87 10000 4.12 240 08:44 13.04.2021
356 Clouds 2 1027 93 10000 4.12 230 08:22 13.04.2021
357 Clouds 1 1027 93 10000 2.06 250 07:48 13.04.2021
358 Clouds 1 1026 93 10000 4.12 230 07:26 13.04.2021
359 Clouds 1 1026 93 10000 3.09 240 06:24 13.04.2021
360 Clouds 1 1026 87 10000 3.6 250 03:44 13.04.2021
361 Clear 2 1026 87 10000 4.12 230 01:32 13.04.2021
362 Clouds 2 1026 86 10000 3.6 230 23:55 12.04.2021
363 Clouds 2 1025 87 10000 2.57 220 23:32 12.04.2021
364 Clouds 2 1025 86 10000 3.09 220 22:55 12.04.2021
365 Clouds 2 1025 86 10000 3.09 220 22:36 12.04.2021
366 Clouds 3 1025 81 10000 3.6 240 21:55 12.04.2021
367 Clouds 3 1025 81 10000 3.6 240 21:36 12.04.2021
368 Clouds 3 1025 75 10000 5.14 250 21:18 12.04.2021
369 Clouds 5 1024 65 10000 3.6 260 20:36 12.04.2021
370 Clouds 5 1024 65 10000 3.6 260 20:18 12.04.2021
371 Clouds 6 1024 65 10000 6.17 280 19:41 12.04.2021
372 Clouds 6 1024 65 10000 6.69 280 19:21 12.04.2021
373 Clouds 7 1024 49 10000 7.72 270 18:52 12.04.2021
374 Clouds 7 1024 49 10000 7.72 270 18:34 12.04.2021
375 Clouds 8 1023 61 10000 6.69 290 17:59 12.04.2021
376 Clouds 8 1023 61 10000 6.69 290 17:41 12.04.2021
377 Rain 8 1023 53 10000 5.66 260 17:19 12.04.2021
378 Clouds 8 1023 57 10000 6.69 260 16:42 12.04.2021
379 Clouds 9 1023 49 10000 6.17 280 16:24 12.04.2021
380 Clouds 9 1023 57 10000 4.12 260 15:45 12.04.2021
381 Clouds 8 1023 65 10000 2.06 200 15:21 12.04.2021
382 Clouds 7 1023 75 10000 1.54 170 14:49 12.04.2021
383 Rain 7 1023 81 10000 1.03 0 14:29 12.04.2021
384 Rain 6 1023 87 10000 3.09 320 13:43 12.04.2021
385 Rain 6 1023 75 10000 7.2 310 13:21 12.04.2021
386 Clouds 7 1023 61 10000 4.63 270 12:44 12.04.2021
387 Clouds 7 1023 57 10000 5.66 260 12:23 12.04.2021
388 Clouds 7 1022 61 10000 6.17 260 11:51 12.04.2021
389 Clouds 6 1022 70 10000 5.66 260 10:56 12.04.2021
390 Clouds 6 1022 70 10000 5.66 260 10:38 12.04.2021
391 Clouds 5 1021 70 10000 4.63 270 10:20 12.04.2021
392 Clouds 5 1021 75 10000 4.12 260 09:40 12.04.2021
393 Clouds 4 1021 75 10000 4.12 260 09:18 12.04.2021
394 Clouds 2 1020 87 10000 3.6 260 08:35 12.04.2021
395 Clouds 1 1020 87 10000 3.09 270 07:32 12.04.2021
396 Clouds 1 1020 93 10000 3.09 250 06:57 12.04.2021
397 Clouds 1 1019 93 10000 3.09 260 05:51 12.04.2021
398 Clouds 2 1018 87 10000 3.09 260 04:28 12.04.2021
399 Clouds 4 1016 81 10000 5.14 300 00:52 12.04.2021
400 Clouds 4 1016 81 10000 5.66 300 00:24 12.04.2021
401 Clouds 4 1016 81 10000 6.17 290 23:46 11.04.2021
402 Clouds 4 1016 81 10000 6.17 290 23:46 11.04.2021
403 Clouds 4 1015 81 10000 5.14 290 23:27 11.04.2021
404 Clouds 4 1015 81 10000 5.66 280 22:46 11.04.2021
405 Clouds 4 1015 81 10000 5.14 290 22:23 11.04.2021
406 Clouds 4 1014 81 10000 4.63 280 21:46 11.04.2021
407 Clouds 4 1014 81 10000 4.12 290 21:27 11.04.2021
408 Clouds 5 1013 75 10000 6.17 290 20:55 11.04.2021
409 Clouds 5 1013 75 10000 7.2 300 20:30 11.04.2021
410 Clouds 5 1012 75 10000 6.69 290 19:56 11.04.2021
411 Clouds 5 1012 75 10000 6.69 290 19:37 11.04.2021
412 Rain 5 1012 75 10000 6.69 290 19:18 11.04.2021
413 Rain 5 1011 75 10000 6.17 280 18:42 11.04.2021
414 Rain 5 1011 75 10000 6.17 280 18:24 11.04.2021
415 Clouds 5 1011 75 10000 4.63 270 17:46 11.04.2021
416 Clouds 5 1011 81 10000 6.17 260 17:28 11.04.2021
417 Clouds 5 1010 81 10000 6.69 250 16:51 11.04.2021
418 Clouds 6 1010 81 10000 6.69 250 16:23 11.04.2021
419 Clouds 6 1009 87 10000 6.17 260 15:57 11.04.2021
420 Clouds 6 1009 87 10000 6.17 240 15:38 11.04.2021
421 Rain 6 1009 87 10000 6.17 240 15:19 11.04.2021
422 Clouds 7 1008 87 10000 7.2 240 14:46 11.04.2021
423 Clouds 7 1007 87 10000 7.72 230 13:53 11.04.2021
424 Clouds 8 1007 81 10000 6.17 220 13:31 11.04.2021
425 Clouds 8 1007 81 10000 6.17 220 13:31 11.04.2021
426 Clouds 9 1007 93 10000 6.69 240 12:54 11.04.2021
427 Clouds 10 1006 87 10000 5.14 210 12:22 11.04.2021
428 Clouds 10 1006 93 10000 3.6 190 11:53 11.04.2021
429 Clouds 10 1006 93 10000 3.6 190 11:53 11.04.2021
430 Clouds 10 1006 100 7000 4.63 170 11:29 11.04.2021
431 Clouds 9 1006 93 4500 4.63 160 10:56 11.04.2021
432 Clouds 9 1006 93 4500 4.63 160 10:38 11.04.2021
433 Rain 9 1005 100 4400 4.63 150 10:19 11.04.2021
434 Rain 8 1006 93 4000 4.63 150 09:37 11.04.2021
435 Rain 8 1006 93 2800 5.66 140 09:19 11.04.2021
436 Rain 7 1006 100 4000 5.66 140 08:30 11.04.2021
437 Rain 7 1006 93 4400 4.63 130 07:25 11.04.2021
438 Rain 7 1006 93 4800 5.14 120 06:56 11.04.2021
439 Rain 6 1007 100 5000 5.14 110 05:44 11.04.2021
440 Rain 6 1007 93 4500 5.14 110 05:21 11.04.2021
441 Rain 6 1008 93 4500 5.14 110 04:35 11.04.2021
442 Clouds 4 1010 93 4800 5.14 70 02:58 11.04.2021
443 Rain 4 1013 81 10000 5.14 60 00:40 11.04.2021
444 Rain 4 1013 81 10000 5.14 60 00:40 11.04.2021
445 Rain 4 1013 81 10000 5.14 60 00:40 11.04.2021
446 Rain 5 1013 70 10000 4.63 70 23:52 10.04.2021
447 Rain 5 1014 70 10000 4.12 60 23:30 10.04.2021
448 Rain 6 1014 61 10000 4.12 80 22:51 10.04.2021
449 Rain 6 1014 61 10000 5.14 70 22:25 10.04.2021
450 Rain 7 1014 57 10000 5.66 70 21:52 10.04.2021
451 Rain 8 1014 57 10000 5.14 110 21:23 10.04.2021
452 Rain 8 1014 53 10000 6.17 110 20:53 10.04.2021
453 Clouds 8 1014 53 10000 5.14 90 20:32 10.04.2021
454 Clouds 8 1015 53 10000 4.12 110 19:48 10.04.2021
455 Clouds 9 1015 46 10000 4.63 80 19:28 10.04.2021
456 Clouds 9 1015 46 10000 4.63 100 18:57 10.04.2021
457 Clear 9 1015 46 10000 3.09 100 18:39 10.04.2021
458 Clear 9 1015 46 10000 3.09 100 18:20 10.04.2021
459 Clear 10 1015 40 10000 2.06 0 17:34 10.04.2021
460 Clear 10 1016 37 10000 1.54 0 16:32 10.04.2021
461 Clear 10 1016 37 10000 1.54 0 15:56 10.04.2021
462 Clear 9 1016 40 10000 2.06 120 15:36 10.04.2021
463 Clouds 9 1016 40 10000 1.54 0 14:51 10.04.2021
464 Clouds 8 1016 46 10000 1.54 0 14:30 10.04.2021
465 Clouds 8 1016 46 10000 2.57 70 13:54 10.04.2021
466 Clouds 8 1016 46 10000 2.57 70 13:34 10.04.2021
467 Clouds 7 1017 53 10000 1.03 0 12:39 10.04.2021
468 Clouds 7 1017 53 10000 1.03 0 12:20 10.04.2021
469 Clouds 7 1016 56 10000 2.06 20 11:45 10.04.2021
470 Clouds 6 1016 61 10000 2.57 20 11:21 10.04.2021
471 Clouds 6 1016 61 10000 2.57 10 10:50 10.04.2021
472 Clouds 5 1016 65 10000 2.06 20 10:30 10.04.2021
473 Clear 5 1016 70 10000 1.54 20 09:37 10.04.2021
474 Clear 4 1015 87 10000 1.03 0 09:18 10.04.2021
475 Clear 4 1015 87 10000 1.03 0 09:18 10.04.2021
476 Clear 4 1015 87 10000 1.54 320 08:34 10.04.2021
477 Clear 4 1014 100 10000 0.51 300 07:56 10.04.2021
478 Clouds 4 1014 100 10000 1.03 310 07:26 10.04.2021
479 Clouds 4 1013 93 10000 1.54 330 06:27 10.04.2021
480 Clear 4 1013 93 10000 1.54 320 05:28 10.04.2021
481 Clouds 4 1013 93 10000 1.03 0 03:41 10.04.2021
482 Clouds 4 1013 93 10000 1.03 330 02:42 10.04.2021
483 Clouds 5 1013 93 10000 1.54 280 01:27 10.04.2021
484 Clouds 5 1013 93 10000 2.06 270 00:32 10.04.2021
485 Clouds 5 1013 93 10000 2.06 270 00:32 10.04.2021
486 Clouds 5 1013 93 10000 1.54 240 23:53 09.04.2021
487 Clouds 5 1012 93 10000 2.06 240 23:30 09.04.2021
488 Clouds 5 1012 93 10000 2.06 240 22:54 09.04.2021
489 Clouds 5 1012 93 10000 2.06 230 22:36 09.04.2021
490 Clouds 5 1012 93 10000 2.57 230 21:41 09.04.2021
491 Clouds 5 1012 93 10000 2.57 220 21:22 09.04.2021
492 Clouds 5 1012 93 10000 3.09 230 20:57 09.04.2021
493 Clouds 5 1012 93 10000 3.09 220 20:39 09.04.2021
494 Clouds 5 1012 93 10000 3.09 220 20:20 09.04.2021
495 Rain 5 1012 93 10000 3.09 240 19:43 09.04.2021
496 Rain 5 1012 87 10000 3.09 260 19:22 09.04.2021
497 Rain 6 1011 93 10000 3.09 270 18:44 09.04.2021
498 Clouds 6 1011 93 10000 3.6 280 18:25 09.04.2021
499 Clouds 6 1012 93 6000 5.66 290 17:49 09.04.2021
500 Clouds 6 1011 87 10000 6.69 300 17:30 09.04.2021
501 Clouds 7 1011 93 10000 8.75 310 16:55 09.04.2021
502 Clouds 9 1010 62 10000 7.2 250 16:30 09.04.2021
503 Clouds 10 1010 62 10000 6.17 250 15:47 09.04.2021
504 Clouds 10 1010 62 10000 6.17 250 15:24 09.04.2021
505 Clouds 11 1010 58 10000 8.23 240 14:47 09.04.2021
506 Clouds 10 1010 62 10000 6.17 240 14:29 09.04.2021
507 Clouds 10 1010 62 10000 8.23 240 13:47 09.04.2021
508 Clouds 10 1010 66 10000 6.69 250 13:22 09.04.2021
509 Clouds 10 1010 61 10000 8.23 240 12:48 09.04.2021
510 Clouds 9 1010 61 10000 9.26 230 12:27 09.04.2021
511 Clouds 9 1010 61 10000 7.72 230 11:44 09.04.2021
512 Clear 9 1010 66 10000 7.72 230 11:21 09.04.2021
513 Clear 7 1010 65 10000 7.72 230 10:40 09.04.2021
514 Clear 6 1010 65 10000 7.72 230 10:18 09.04.2021
515 Clouds 5 1010 65 10000 8.23 220 09:29 09.04.2021
516 Clouds 5 1010 65 10000 7.72 220 08:56 09.04.2021
517 Clouds 5 1010 65 10000 7.72 220 08:37 09.04.2021
518 Clouds 5 1011 60 10000 7.72 220 07:35 09.04.2021
519 Clouds 4 1011 65 10000 7.72 210 06:33 09.04.2021
520 Clouds 4 1011 65 10000 7.72 210 05:47 09.04.2021
521 Clouds 5 1013 60 10000 7.2 210 03:48 09.04.2021
522 Clouds 5 1015 60 10000 7.2 210 01:27 09.04.2021
523 Clouds 5 1016 60 10000 7.72 220 00:36 09.04.2021
524 Clouds 5 1016 60 10000 6.69 220 00:18 09.04.2021
525 Clouds 5 1017 56 10000 7.2 210 22:59 08.04.2021
526 Clouds 5 1017 56 10000 7.2 210 22:40 08.04.2021
527 Clouds 5 1017 65 10000 5.66 210 22:40 08.04.2021
528 Clouds 5 1017 65 10000 5.66 210 22:20 08.04.2021
529 Clouds 5 1017 61 10000 6.69 210 21:54 08.04.2021
530 Clouds 5 1017 61 10000 6.69 210 21:36 08.04.2021
531 Clouds 5 1017 65 10000 6.17 210 21:18 08.04.2021
532 Clouds 6 1017 61 10000 7.2 210 20:47 08.04.2021
533 Clear 6 1018 61 10000 6.69 210 20:25 08.04.2021
534 Clouds 6 1018 61 10000 6.69 210 19:42 08.04.2021
535 Clouds 6 1018 61 10000 6.69 210 19:19 08.04.2021
536 Clouds 6 1018 61 10000 7.2 230 18:45 08.04.2021
537 Clouds 6 1018 56 10000 8.75 230 18:21 08.04.2021
538 Clouds 6 1019 61 10000 6.69 240 17:49 08.04.2021
539 Clouds 6 1019 61 10000 6.69 240 17:24 08.04.2021
540 Clouds 6 1019 61 10000 5.14 250 16:51 08.04.2021
541 Clouds 6 1019 56 10000 6.69 250 16:31 08.04.2021
542 Clouds 6 1020 61 10000 6.17 250 15:48 08.04.2021
543 Clouds 6 1020 61 10000 6.69 250 15:28 08.04.2021
544 Clouds 6 1020 65 10000 6.17 260 14:46 08.04.2021
545 Clouds 5 1020 75 10000 7.72 250 14:27 08.04.2021
546 Rain 6 1019 61 10000 6.69 260 13:59 08.04.2021
547 Clouds 6 1019 61 10000 6.69 260 13:41 08.04.2021
548 Clouds 6 1019 70 10000 5.14 250 13:22 08.04.2021
549 Clouds 6 1019 70 10000 5.14 250 13:22 08.04.2021
550 Clouds 5 1019 65 10000 6.69 250 12:43 08.04.2021
551 Rain 6 1019 70 10000 5.66 250 12:24 08.04.2021
552 Clouds 6 1019 75 10000 5.66 250 11:43 08.04.2021
553 Clouds 5 1019 81 10000 5.14 240 11:18 08.04.2021
554 Clouds 4 1019 75 10000 4.63 250 10:42 08.04.2021
555 Clouds 4 1019 81 10000 4.63 260 10:18 08.04.2021
556 Clouds 3 1019 81 10000 4.12 260 09:43 08.04.2021
557 Clouds 2 1018 80 10000 3.09 250 08:47 08.04.2021
558 Clouds 2 1018 80 10000 3.09 260 08:28 08.04.2021
559 Snow 2 1017 80 10000 4.12 250 07:59 08.04.2021
560 Snow 2 1017 80 10000 4.12 250 07:35 08.04.2021
561 Clouds 2 1015 75 10000 5.14 280 04:18 08.04.2021
562 Snow 2 1013 87 10000 4.63 260 01:21 08.04.2021
563 Snow 2 1013 87 10000 4.63 260 01:21 08.04.2021
564 Clouds 2 1013 87 10000 4.12 270 00:29 08.04.2021
565 Clouds 2 1013 87 10000 4.63 280 23:45 07.04.2021
566 Clouds 2 1012 81 10000 8.75 290 23:22 07.04.2021
567 Rain 3 1012 75 10000 6.17 290 22:54 07.04.2021
568 Clouds 3 1012 75 10000 6.17 290 22:35 07.04.2021
569 Clouds 3 1011 81 10000 4.63 290 21:48 07.04.2021
570 Clouds 3 1011 75 10000 6.69 290 21:26 07.04.2021
571 Clouds 4 1011 70 10000 7.2 290 20:47 07.04.2021
572 Clouds 4 1010 75 10000 7.2 290 20:27 07.04.2021
573 Clouds 4 1010 81 10000 6.69 290 19:50 07.04.2021
574 Clouds 4 1010 75 10000 9.26 300 19:31 07.04.2021
575 Rain 4 1009 75 10000 9.26 280 18:56 07.04.2021
576 Clouds 5 1009 81 10000 7.72 290 18:22 07.04.2021
577 Clouds 5 1009 75 10000 10.8 290 17:59 07.04.2021
578 Clouds 6 1008 70 10000 9.26 290 17:40 07.04.2021
579 Clouds 7 1008 70 10000 9.26 300 16:59 07.04.2021
580 Clouds 7 1008 70 10000 9.26 300 16:40 07.04.2021
581 Clouds 6 1008 75 10000 9.77 290 16:20 07.04.2021
582 Clouds 6 1008 87 10000 5.14 320 15:51 07.04.2021
583 Clouds 6 1007 81 10000 6.69 260 15:25 07.04.2021
584 Clouds 5 1008 87 9000 5.66 250 14:37 07.04.2021
585 Rain 5 1008 87 9000 5.66 250 14:18 07.04.2021
586 Clouds 5 1007 87 10000 6.69 230 13:37 07.04.2021
587 Clouds 4 1007 87 10000 6.69 230 13:19 07.04.2021
588 Clouds 4 1008 87 10000 6.69 230 12:42 07.04.2021
589 Drizzle 2 1008 93 10000 6.69 230 12:18 07.04.2021
590 Clouds 2 1008 93 10000 6.17 240 11:41 07.04.2021
591 Clouds 2 1008 87 10000 5.14 240 11:21 07.04.2021
592 Clouds 1 1008 93 10000 6.17 230 10:47 07.04.2021
593 Clouds 1 1007 86 10000 5.14 250 09:47 07.04.2021
594 Clouds 1 1007 86 10000 4.63 250 09:28 07.04.2021
595 Clouds 0 1007 86 10000 5.14 250 08:52 07.04.2021
596 Clouds 0 1007 93 10000 5.14 240 08:30 07.04.2021
597 Clouds 0 1007 93 10000 5.14 240 07:52 07.04.2021
598 Clouds 0 1007 86 10000 5.14 240 07:28 07.04.2021
599 Clouds 0 1006 86 10000 4.12 250 06:42 07.04.2021
600 Clouds 0 1006 86 8000 4.63 250 05:42 07.04.2021
601 Clouds 1 1005 86 10000 3.09 240 01:52 07.04.2021
602 Snow 1 1005 93 10000 3.6 250 23:48 06.04.2021
603 Clouds 1 1005 93 10000 3.6 250 23:22 06.04.2021
604 Snow 1 1005 93 10000 3.6 260 22:57 06.04.2021
605 Snow 1 1005 93 10000 3.6 260 22:57 06.04.2021
606 Snow 1 1005 93 8000 4.12 300 22:21 06.04.2021
607 Clouds 1 1004 86 10000 2.57 250 21:57 06.04.2021
608 Snow 1 1004 86 10000 2.57 250 21:37 06.04.2021
609 Clouds 1 1004 87 10000 3.6 250 21:19 06.04.2021
610 Clouds 1 1004 80 10000 4.12 280 20:45 06.04.2021
611 Snow 1 1004 87 10000 3.6 290 20:21 06.04.2021
612 Snow 2 1003 93 9000 4.12 290 19:47 06.04.2021
613 Snow 2 1003 93 5000 4.12 290 19:29 06.04.2021
614 Clouds 3 1003 75 9000 9.26 300 18:45 06.04.2021
615 Clouds 3 1003 75 10000 5.66 270 18:23 06.04.2021
616 Clouds 3 1003 81 10000 6.17 270 17:45 06.04.2021
617 Snow 4 1003 70 10000 7.72 270 17:27 06.04.2021
618 Clouds 4 1003 65 10000 7.72 270 16:49 06.04.2021
619 Clouds 4 1003 65 10000 7.72 290 16:30 06.04.2021
620 Rain 4 1003 61 10000 9.26 290 15:28 06.04.2021
621 Clouds 4 1003 70 10000 7.2 250 14:58 06.04.2021
622 Clouds 4 1003 70 10000 7.2 250 14:39 06.04.2021
623 Clouds 4 1003 75 10000 6.69 270 14:18 06.04.2021
624 Clouds 3 1004 80 10000 5.14 260 13:41 06.04.2021
625 Rain 4 1004 81 10000 6.69 240 13:23 06.04.2021
626 Clouds 2 1004 75 10000 6.69 270 12:41 06.04.2021
627 Clouds 3 1004 87 10000 4.63 250 12:21 06.04.2021
628 Clouds 2 1004 87 10000 6.17 240 11:49 06.04.2021
629 Rain 2 1004 87 10000 4.12 270 11:21 06.04.2021
630 Clouds 3 1005 93 5000 5.66 280 10:47 06.04.2021
631 Snow 3 1004 87 10000 5.14 250 10:27 06.04.2021
632 Clouds 2 1004 87 4500 4.12 260 09:49 06.04.2021
633 Snow 2 1004 93 10000 4.12 250 09:29 06.04.2021
634 Snow 1 1004 75 10000 4.12 270 08:43 06.04.2021
635 Clouds 1 1004 86 10000 3.6 270 07:59 06.04.2021
636 Clouds 0 1004 93 10000 3.6 260 06:55 06.04.2021
637 Clouds 0 1004 100 10000 3.6 250 05:40 06.04.2021
638 Clouds 0 1004 86 10000 4.63 250 02:57 06.04.2021
639 Clouds 0 1004 86 10000 5.66 250 00:44 06.04.2021
640 Clear 0 1004 86 10000 4.12 250 00:21 06.04.2021
641 Clouds 0 1004 80 10000 3.6 260 23:43 05.04.2021
642 Clouds 1 1004 80 10000 3.09 320 23:20 05.04.2021
643 Clouds 1 1004 80 10000 6.69 270 22:48 05.04.2021
644 Clouds 2 1004 69 10000 5.14 270 22:26 05.04.2021
645 Clouds 2 1004 65 10000 6.17 270 21:44 05.04.2021
646 Clouds 2 1004 65 10000 6.69 280 21:22 05.04.2021
647 Clouds 3 1003 65 10000 6.69 280 20:45 05.04.2021
648 Clouds 3 1003 60 10000 9.26 290 20:26 05.04.2021
649 Clouds 4 1003 60 10000 9.77 280 19:43 05.04.2021
650 Clouds 4 1002 60 10000 11.83 290 19:23 05.04.2021
651 Clouds 4 1002 52 10000 9.77 290 18:55 05.04.2021
652 Clouds 4 1002 52 10000 9.77 290 18:36 05.04.2021
653 Clouds 4 1002 56 10000 10.8 300 18:18 05.04.2021
654 Clouds 4 1001 56 10000 10.29 300 17:43 05.04.2021
655 Clouds 4 1002 65 9000 11.32 300 17:20 05.04.2021
656 Clouds 4 1001 65 10000 9.26 280 16:44 05.04.2021
657 Clouds 4 1001 75 10000 8.23 270 16:21 05.04.2021
658 Clouds 2 1002 93 4000 9.77 280 15:52 05.04.2021
659 Snow 3 1001 80 5000 9.26 300 15:30 05.04.2021
660 Clouds 3 1001 69 9000 12.35 300 14:54 05.04.2021
661 Clouds 3 1001 56 10000 10.29 290 14:34 05.04.2021
662 Clouds 4 1000 52 10000 12.35 290 13:32 05.04.2021
663 Clouds 4 1000 48 10000 11.83 290 12:57 05.04.2021
664 Clouds 4 1000 48 10000 11.83 290 12:37 05.04.2021
665 Clouds 3 1000 65 10000 7.72 300 12:19 05.04.2021
666 Clouds 1 1000 80 10000 6.69 320 11:42 05.04.2021
667 Snow 1 1000 86 2800 13.89 320 11:22 05.04.2021
668 Snow 2 999 86 10000 9.26 300 10:45 05.04.2021
669 Snow 3 999 87 10000 9.26 280 10:27 05.04.2021
670 Snow 3 998 93 10000 4.63 270 09:48 05.04.2021
671 Snow 2 999 87 6000 8.23 290 09:24 05.04.2021
672 Rain 3 998 87 10000 7.2 300 08:45 05.04.2021
673 Rain 3 998 87 10000 7.72 310 08:26 05.04.2021
674 Rain 3 998 87 10000 7.72 310 08:26 05.04.2021
675 Rain 4 998 93 7000 6.69 290 07:37 05.04.2021
676 Rain 5 998 87 4800 9.77 290 06:40 05.04.2021
677 Clear 5 1004 75 10000 9.26 230 02:32 05.04.2021
678 Clouds 6 1007 75 10000 8.23 240 00:52 05.04.2021
679 Clouds 6 1009 75 10000 6.69 240 23:52 04.04.2021
680 Clouds 6 1010 81 10000 7.72 240 23:29 04.04.2021
681 Clouds 7 1011 76 10000 7.72 240 22:53 04.04.2021
682 Clouds 7 1011 76 10000 6.17 240 22:30 04.04.2021
683 Clouds 7 1012 76 10000 5.66 240 21:48 04.04.2021
684 Clouds 7 1013 76 10000 4.63 240 21:21 04.04.2021
685 Clouds 7 1014 76 10000 5.14 250 20:37 04.04.2021
686 Clouds 7 1014 76 10000 5.14 250 20:19 04.04.2021
687 Clouds 7 1015 76 10000 7.72 260 19:38 04.04.2021
688 Clouds 7 1015 76 10000 5.66 260 19:19 04.04.2021
689 Clouds 7 1016 76 10000 6.69 250 18:47 04.04.2021
690 Clouds 7 1016 76 10000 5.14 260 18:24 04.04.2021
691 Clouds 7 1016 76 10000 5.14 260 18:24 04.04.2021
692 Clouds 7 1017 76 10000 5.66 270 17:56 04.04.2021
693 Clouds 7 1017 76 10000 6.17 260 17:24 04.04.2021
694 Clouds 7 1018 76 10000 6.69 270 16:54 04.04.2021
695 Clouds 8 1018 71 10000 6.69 270 16:33 04.04.2021
696 Clouds 8 1019 76 10000 6.17 260 15:46 04.04.2021
697 Clouds 7 1019 76 10000 6.17 260 15:28 04.04.2021
698 Clouds 7 1020 70 10000 6.69 270 14:38 04.04.2021
699 Clouds 7 1020 70 10000 6.69 270 14:19 04.04.2021
700 Clouds 7 1021 70 10000 6.17 280 13:27 04.04.2021
701 Clouds 7 1021 76 10000 5.66 270 12:51 04.04.2021
702 Clouds 6 1021 81 10000 5.66 260 12:28 04.04.2021
703 Clouds 6 1021 75 10000 4.63 260 11:49 04.04.2021
704 Clouds 6 1022 81 10000 4.63 260 11:30 04.04.2021
705 Clouds 5 1022 87 10000 4.12 260 10:47 04.04.2021
706 Clouds 5 1022 87 10000 3.6 260 10:24 04.04.2021
707 Drizzle 5 1022 81 10000 4.12 260 09:48 04.04.2021
708 Clouds 5 1022 81 10000 3.09 260 09:21 04.04.2021
709 Clouds 4 1022 81 10000 2.57 260 08:45 04.04.2021
710 Clouds 4 1022 87 10000 2.57 260 08:26 04.04.2021
711 Clouds 3 1023 93 10000 2.06 240 06:40 04.04.2021
712 Clouds 2 1023 93 10000 2.57 240 05:44 04.04.2021
713 Fog 2 1024 100 10000 2.06 210 02:39 04.04.2021
714 Fog 3 1024 93 9000 0.51 0 00:55 04.04.2021
715 Clouds 4 1024 93 9000 1.54 250 00:18 04.04.2021
716 Clouds 4 1025 93 9000 2.06 240 23:41 03.04.2021
717 Clouds 5 1025 87 10000 1.03 0 22:56 03.04.2021
718 Clouds 5 1025 87 10000 1.03 0 22:38 03.04.2021
719 Clouds 5 1025 87 10000 2.57 290 22:19 03.04.2021
720 Clouds 6 1025 81 10000 4.12 310 21:46 03.04.2021
721 Clouds 6 1025 75 10000 4.63 300 21:22 03.04.2021
722 Clouds 7 1024 70 10000 5.14 300 20:48 03.04.2021
723 Clouds 8 1024 76 10000 5.14 300 20:26 03.04.2021
724 Clouds 9 1024 66 10000 4.63 300 19:48 03.04.2021
725 Clouds 9 1024 62 10000 5.66 290 19:24 03.04.2021
726 Clouds 11 1024 58 10000 6.17 290 18:46 03.04.2021
727 Clouds 11 1024 50 10000 6.69 300 18:23 03.04.2021
728 Clear 11 1024 40 10000 5.14 330 17:50 03.04.2021
729 Clear 11 1024 40 10000 4.12 320 17:21 03.04.2021
730 Clear 12 1024 40 10000 4.12 340 16:49 03.04.2021
731 Clear 11 1024 43 10000 6.17 320 16:21 03.04.2021
732 Clear 11 1024 40 10000 5.14 330 15:48 03.04.2021
733 Clear 12 1025 40 10000 5.14 320 15:22 03.04.2021
734 Clear 11 1025 43 10000 4.63 340 14:44 03.04.2021
735 Clear 11 1025 40 10000 6.17 330 14:23 03.04.2021
736 Clear 11 1025 40 10000 5.14 330 13:50 03.04.2021
737 Clouds 10 1025 43 10000 6.17 340 13:24 03.04.2021
738 Clouds 10 1025 46 10000 5.14 350 12:56 03.04.2021
739 Clouds 10 1025 43 10000 5.14 330 12:31 03.04.2021
740 Clear 9 1025 46 10000 4.12 360 11:39 03.04.2021
741 Clear 9 1025 46 10000 4.63 330 11:39 03.04.2021
742 Clear 8 1025 46 10000 4.12 360 11:19 03.04.2021
743 Clear 7 1025 49 10000 3.6 360 10:43 03.04.2021
744 Clear 7 1025 61 10000 3.09 10 10:22 03.04.2021
745 Clear 5 1024 81 10000 2.57 310 09:29 03.04.2021
746 Clear 4 1024 87 10000 2.06 320 08:59 03.04.2021
747 Clear 2 1024 93 10000 1.03 0 08:31 03.04.2021
748 Fog 1 1023 100 10000 1.03 0 07:30 03.04.2021
749 Fog 1 1023 100 10000 2.06 320 06:50 03.04.2021
750 Clear 2 1022 93 10000 2.57 310 03:53 03.04.2021
751 Clear 3 1021 93 10000 2.57 300 02:54 03.04.2021
752 Clear 3 1021 93 10000 2.06 310 02:27 03.04.2021
753 Clouds 5 1021 81 10000 4.63 310 00:31 03.04.2021
754 Clouds 5 1021 81 10000 4.63 310 23:59 02.04.2021
755 Clouds 5 1020 81 10000 5.14 300 23:29 02.04.2021
756 Clouds 5 1020 81 10000 5.66 300 22:56 02.04.2021
757 Clear 6 1020 75 10000 5.66 300 22:37 02.04.2021
758 Clear 6 1020 75 10000 5.66 300 21:56 02.04.2021
759 Clouds 6 1020 75 10000 6.17 300 21:38 02.04.2021
760 Clouds 6 1020 75 10000 6.17 300 21:18 02.04.2021
761 Clouds 7 1019 70 10000 8.23 300 20:38 02.04.2021
762 Clouds 7 1019 70 10000 7.2 300 20:20 02.04.2021
763 Clouds 7 1019 71 10000 7.72 300 19:41 02.04.2021
764 Clouds 7 1019 71 10000 6.69 300 19:22 02.04.2021
765 Clouds 8 1019 76 10000 6.69 290 18:46 02.04.2021
766 Clouds 8 1019 76 10000 6.69 290 18:28 02.04.2021
767 Clouds 8 1019 76 10000 7.2 290 17:54 02.04.2021
768 Clouds 7 1020 81 10000 6.17 290 17:24 02.04.2021
769 Clouds 7 1020 81 7000 6.69 310 16:24 02.04.2021
770 Clouds 7 1020 76 10000 7.2 300 15:43 02.04.2021
771 Clouds 7 1020 76 10000 7.72 290 15:20 02.04.2021
772 Clouds 7 1021 70 10000 7.2 290 14:33 02.04.2021
773 Clouds 7 1021 70 10000 7.2 300 13:50 02.04.2021
774 Clouds 7 1021 70 10000 7.2 290 13:28 02.04.2021
775 Clouds 7 1022 70 10000 8.23 300 12:55 02.04.2021
776 Clouds 7 1022 70 10000 8.75 290 12:36 02.04.2021
777 Clouds 7 1022 70 10000 8.75 290 12:18 02.04.2021
778 Clouds 6 1022 75 10000 6.69 300 11:44 02.04.2021
779 Clouds 6 1022 75 10000 7.2 300 11:18 02.04.2021
780 Clouds 6 1022 75 10000 6.69 290 10:42 02.04.2021
781 Clouds 5 1022 75 10000 5.66 290 10:21 02.04.2021
782 Clouds 5 1023 87 10000 4.12 280 09:39 02.04.2021
783 Clouds 4 1023 87 10000 3.6 290 09:21 02.04.2021
784 Clouds 4 1023 87 10000 3.6 290 09:21 02.04.2021
785 Clouds 3 1023 93 10000 2.57 300 08:45 02.04.2021
786 Clouds 3 1023 100 9000 4.12 310 08:26 02.04.2021
787 Fog 2 1023 100 900 4.12 300 07:20 02.04.2021
788 Fog 3 1023 100 200 1.54 280 06:34 02.04.2021
789 Fog 3 1024 100 250 1.03 0 03:39 02.04.2021
790 Clouds 5 1024 93 10000 1.03 300 01:37 02.04.2021
791 Clouds 6 1024 87 10000 2.06 20 00:41 02.04.2021
792 Clouds 7 1024 87 10000 2.57 10 23:44 01.04.2021
793 Clouds 7 1024 87 10000 2.57 360 23:26 01.04.2021
794 Clouds 7 1024 81 10000 2.57 20 22:23 01.04.2021
795 Clouds 7 1024 81 10000 4.12 10 21:59 01.04.2021
796 Clouds 7 1024 81 10000 4.12 10 21:41 01.04.2021
797 Clouds 7 1023 81 10000 3.09 350 21:22 01.04.2021
798 Clouds 7 1023 81 10000 3.6 340 20:41 01.04.2021
799 Clouds 7 1023 81 10000 3.6 340 20:21 01.04.2021
800 Clouds 8 1022 76 10000 4.63 350 19:41 01.04.2021
801 Clouds 8 1022 76 10000 4.63 350 19:20 01.04.2021
802 Clouds 8 1022 71 10000 4.63 340 18:44 01.04.2021
803 Clouds 9 1021 71 10000 5.14 360 18:18 01.04.2021
804 Clouds 9 1021 71 10000 6.17 340 17:41 01.04.2021
805 Clouds 9 1021 71 10000 5.14 360 17:23 01.04.2021
806 Clouds 9 1021 76 10000 5.66 360 16:48 01.04.2021
807 Clouds 9 1021 76 10000 5.66 350 16:18 01.04.2021
808 Clouds 10 1021 76 10000 6.17 10 15:40 01.04.2021
809 Clouds 10 1020 76 10000 6.17 360 15:19 01.04.2021
810 Clouds 11 1020 71 10000 5.66 350 14:40 01.04.2021
811 Clouds 11 1020 71 10000 5.66 350 14:40 01.04.2021
812 Clouds 11 1020 71 10000 5.66 350 14:40 01.04.2021
813 Clouds 11 1020 71 10000 5.66 350 14:40 01.04.2021
814 Clouds 11 1020 66 10000 4.12 350 14:40 01.04.2021
815 Clouds 11 1020 66 10000 4.12 350 14:21 01.04.2021
816 Clouds 10 1020 76 10000 6.69 340 13:50 01.04.2021
817 Clouds 10 1020 81 10000 5.14 350 13:30 01.04.2021
818 Clouds 10 1019 81 10000 8.23 330 12:47 01.04.2021
819 Clouds 11 1019 71 10000 7.2 340 12:29 01.04.2021
820 Clouds 12 1018 71 10000 5.14 330 11:45 01.04.2021
821 Clouds 11 1018 71 9000 6.69 320 11:24 01.04.2021
822 Clouds 10 1018 71 8000 6.69 320 10:53 01.04.2021
823 Clouds 10 1017 71 7000 4.63 300 10:33 01.04.2021
824 Clouds 10 1017 71 8000 2.57 290 09:54 01.04.2021
825 Clouds 10 1017 66 9000 2.57 300 09:24 01.04.2021
826 Clear 10 1017 71 10000 1.03 250 08:33 01.04.2021
827 Rain 10 1017 66 10000 1.54 310 07:57 01.04.2021
828 Clear 10 1017 66 10000 2.57 320 07:19 01.04.2021
829 Rain 11 1017 62 10000 2.57 320 06:47 01.04.2021
830 Rain 10 1017 71 10000 0.51 20 03:30 01.04.2021
831 Clear 11 1018 71 10000 0.51 120 00:59 01.04.2021
832 Clear 13 1018 71 10000 1.85 287 23:51 31.03.2021
833 Clear 13 1018 62 10000 1.03 0 23:31 31.03.2021
834 Clear 13 1018 66 10000 1.03 320 22:41 31.03.2021
835 Clear 13 1019 62 10000 1.03 340 22:21 31.03.2021
836 Clear 14 1019 58 10000 1.03 340 21:47 31.03.2021
837 Clear 15 1019 51 10000 1.54 330 21:24 31.03.2021
838 Clear 16 1019 44 10000 2.57 320 20:58 31.03.2021
839 Clear 16 1019 44 10000 2.57 320 20:40 31.03.2021
840 Clear 17 1019 42 10000 2.06 320 20:18 31.03.2021
841 Clear 20 1019 30 10000 3.6 330 19:41 31.03.2021
842 Clear 20 1019 30 10000 3.6 330 19:19 31.03.2021
843 Clear 21 1019 28 10000 4.12 330 18:51 31.03.2021
844 Clear 22 1019 30 10000 4.63 320 18:22 31.03.2021
845 Clear 23 1019 28 10000 3.6 300 17:37 31.03.2021
846 Clear 23 1019 25 10000 2.57 310 17:19 31.03.2021
847 Clear 23 1019 27 10000 3.09 230 16:49 31.03.2021
848 Clear 23 1020 27 10000 4.12 280 16:29 31.03.2021
849 Clear 23 1020 25 10000 2.57 270 15:52 31.03.2021
850 Clear 23 1020 27 10000 2.57 280 15:20 31.03.2021
851 Clear 23 1021 28 10000 2.57 0 14:49 31.03.2021
852 Clear 22 1021 30 10000 2.06 220 14:24 31.03.2021
853 Clear 22 1021 30 10000 2.06 220 14:24 31.03.2021
854 Clear 22 1021 28 10000 2.06 210 13:53 31.03.2021
855 Clear 21 1022 30 10000 1.54 150 13:19 31.03.2021
856 Clear 20 1022 32 10000 2.06 200 12:37 31.03.2021
857 Clear 19 1022 30 10000 2.06 190 12:18 31.03.2021
858 Clear 19 1022 30 10000 2.06 190 12:18 31.03.2021
859 Clear 17 1023 36 10000 2.57 150 11:22 31.03.2021
860 Clear 15 1023 44 10000 2.06 150 10:48 31.03.2021
861 Clear 14 1023 54 10000 1.54 150 10:27 31.03.2021
862 Clear 12 1023 62 10000 0.51 0 09:54 31.03.2021
863 Clear 11 1024 71 10000 0.51 0 09:29 31.03.2021
864 Clear 8 1024 81 10000 1.03 130 08:46 31.03.2021
865 Clear 7 1024 81 10000 1.54 80 08:26 31.03.2021
866 Clear 6 1024 93 10000 2.06 70 07:36 31.03.2021
867 Fog 6 1025 100 10000 0.51 0 05:21 31.03.2021
868 Clear 7 1026 93 10000 1.03 350 02:37 31.03.2021
869 Clear 9 1027 93 10000 0.51 360 00:54 31.03.2021
870 Clear 9 1027 93 10000 1.03 30 00:25 31.03.2021
871 Clear 9 1027 87 10000 1.03 340 23:57 30.03.2021
872 Clear 9 1027 81 10000 0.51 0 23:25 30.03.2021
873 Clear 11 1027 76 10000 0.51 0 22:50 30.03.2021
874 Clear 11 1027 71 10000 1.03 60 22:31 30.03.2021
875 Clear 12 1027 71 10000 0.51 0 21:59 30.03.2021
876 Clear 12 1027 71 10000 0.51 0 21:38 30.03.2021
877 Clear 12 1027 67 10000 0.51 20 21:18 30.03.2021
878 Clear 14 1027 62 10000 0.51 0 20:45 30.03.2021
879 Clear 16 1027 48 10000 1.03 300 20:26 30.03.2021
880 Clear 17 1027 42 10000 2.06 280 19:43 30.03.2021
881 Clear 18 1027 39 10000 3.09 280 19:22 30.03.2021
882 Clear 19 1028 40 10000 3.6 300 18:34 30.03.2021
883 Clear 19 1028 42 10000 4.12 280 17:51 30.03.2021
884 Clear 19 1028 42 10000 4.12 280 17:32 30.03.2021
885 Clear 20 1028 45 10000 6.17 290 16:48 30.03.2021
886 Clear 20 1028 42 10000 6.17 280 16:28 30.03.2021
887 Clear 20 1029 45 10000 5.14 280 15:43 30.03.2021
888 Clear 20 1029 49 10000 4.63 260 15:20 30.03.2021
889 Clear 20 1029 52 10000 3.6 250 14:48 30.03.2021
890 Clear 19 1029 55 10000 4.12 250 14:21 30.03.2021
891 Clear 18 1029 59 10000 4.63 250 13:57 30.03.2021
892 Clear 18 1029 59 10000 4.63 250 13:36 30.03.2021
893 Clear 17 1029 63 10000 4.63 230 12:45 30.03.2021
894 Clear 16 1030 67 10000 3.6 240 12:27 30.03.2021
895 Clear 15 1030 67 10000 3.6 240 11:53 30.03.2021
896 Clear 15 1030 67 10000 3.09 250 11:23 30.03.2021
897 Clear 14 1029 67 10000 3.6 240 10:46 30.03.2021
898 Clear 13 1029 67 10000 3.6 260 10:25 30.03.2021
899 Clear 12 1029 71 10000 3.6 240 09:44 30.03.2021
900 Clear 11 1029 71 10000 3.6 220 09:26 30.03.2021
901 Clear 10 1029 81 10000 2.57 230 08:55 30.03.2021
902 Clear 9 1029 81 10000 2.57 230 08:37 30.03.2021
903 Clear 8 1028 81 10000 1.54 220 07:51 30.03.2021
904 Clear 8 1028 81 10000 1.54 250 07:22 30.03.2021
905 Clear 8 1028 87 10000 2.06 220 05:26 30.03.2021
906 Clear 8 1028 87 10000 2.57 220 04:58 30.03.2021
907 Clear 9 1028 93 10000 2.06 230 00:33 30.03.2021
908 Clear 10 1028 93 10000 2.06 220 23:34 29.03.2021
909 Clear 10 1028 87 10000 1.54 240 22:51 29.03.2021
910 Clear 11 1027 93 10000 1.54 230 22:30 29.03.2021
911 Clear 11 1027 93 10000 1.03 300 21:47 29.03.2021
912 Clear 12 1027 82 10000 2.06 310 21:29 29.03.2021
913 Clear 13 1027 76 10000 3.09 300 20:48 29.03.2021
914 Clear 13 1027 76 10000 3.6 300 20:27 29.03.2021
915 Clouds 14 1026 77 10000 4.63 310 19:49 29.03.2021
916 Clouds 15 1026 72 10000 6.17 290 19:24 29.03.2021
917 Clouds 15 1026 72 10000 6.17 290 18:44 29.03.2021
918 Clouds 16 1026 72 10000 6.17 310 18:26 29.03.2021
919 Clouds 17 1025 67 10000 5.66 290 17:51 29.03.2021
920 Clouds 17 1025 67 10000 7.2 300 17:32 29.03.2021
921 Clouds 17 1025 63 10000 5.66 300 16:42 29.03.2021
922 Clouds 17 1025 63 10000 6.17 280 16:24 29.03.2021
923 Clouds 18 1025 63 10000 6.17 270 15:36 29.03.2021
924 Clouds 17 1025 59 10000 6.69 270 15:18 29.03.2021
925 Clouds 17 1025 59 10000 6.69 270 14:46 29.03.2021
926 Clouds 16 1025 63 10000 5.66 260 13:55 29.03.2021
927 Clouds 16 1024 63 10000 6.17 240 13:33 29.03.2021
928 Clouds 15 1024 62 10000 7.2 250 12:55 29.03.2021
929 Clouds 14 1024 67 10000 5.66 240 12:36 29.03.2021
930 Clouds 13 1024 67 10000 6.17 240 11:43 29.03.2021
931 Clouds 12 1024 66 10000 6.69 240 11:25 29.03.2021
932 Clouds 12 1023 66 10000 6.69 240 10:45 29.03.2021
933 Clouds 12 1023 66 10000 5.14 230 10:19 29.03.2021
934 Clouds 11 1023 71 10000 5.14 220 09:32 29.03.2021
935 Clouds 10 1023 76 10000 5.14 220 08:34 29.03.2021
936 Clouds 10 1023 76 10000 4.63 220 07:54 29.03.2021
937 Clouds 10 1023 76 10000 5.14 230 06:57 29.03.2021
938 Rain 10 1023 76 10000 5.66 230 06:22 29.03.2021
939 Clouds 10 1023 76 10000 5.14 230 02:33 29.03.2021
940 Clouds 9 1023 87 10000 6.17 230 00:30 29.03.2021
941 Clouds 9 1023 93 7000 6.17 230 23:59 28.03.2021
942 Mist 9 1023 87 5000 7.72 230 23:25 28.03.2021
943 Clouds 9 1023 87 10000 6.69 230 22:48 28.03.2021
944 Clouds 9 1023 87 10000 6.69 230 22:48 28.03.2021
945 Clouds 9 1023 87 10000 6.69 230 22:29 28.03.2021
946 Drizzle 9 1023 87 10000 6.17 230 21:47 28.03.2021
947 Drizzle 9 1023 87 10000 7.2 230 21:25 28.03.2021
948 Clouds 9 1022 87 10000 7.72 230 20:58 28.03.2021
949 Clouds 9 1022 87 10000 7.72 230 20:39 28.03.2021
950 Clouds 9 1022 93 9000 6.17 230 20:19 28.03.2021
951 Clouds 9 1022 93 8000 6.17 230 19:42 28.03.2021
952 Clouds 9 1022 87 6000 7.72 230 19:21 28.03.2021
953 Clouds 9 1022 87 10000 7.72 240 18:49 28.03.2021
954 Clouds 9 1022 87 10000 6.69 230 18:24 28.03.2021
955 Clouds 9 1022 87 10000 7.2 230 17:42 28.03.2021
956 Clouds 9 1022 87 10000 7.2 220 17:22 28.03.2021
957 Rain 10 1022 87 10000 6.69 230 16:43 28.03.2021
958 Rain 10 1022 87 10000 6.69 230 16:22 28.03.2021
959 Rain 10 1022 76 10000 7.2 240 15:25 28.03.2021
960 Rain 11 1022 66 10000 6.69 220 14:50 28.03.2021
961 Clouds 11 1022 66 10000 7.72 230 14:27 28.03.2021
962 Clouds 11 1022 62 10000 8.75 230 13:38 28.03.2021
963 Clouds 11 1022 66 10000 9.26 220 13:19 28.03.2021
964 Clouds 10 1022 66 10000 8.75 230 12:43 28.03.2021
965 Clouds 10 1022 66 10000 8.75 230 12:43 28.03.2021
966 Clouds 11 1022 66 10000 8.23 220 12:25 28.03.2021
967 Clouds 9 1023 71 10000 7.72 220 11:39 28.03.2021
968 Clear 8 1023 71 10000 8.23 220 11:18 28.03.2021
969 Clear 7 1023 70 10000 7.2 220 10:43 28.03.2021
970 Clear 6 1023 75 10000 7.2 220 10:21 28.03.2021
971 Clear 6 1023 75 10000 7.72 220 09:44 28.03.2021
972 Clear 5 1023 75 10000 5.66 220 09:23 28.03.2021
973 Clear 5 1023 75 10000 5.66 220 08:42 28.03.2021
974 Clear 4 1023 81 10000 5.14 220 07:45 28.03.2021
975 Clear 3 1024 87 10000 5.14 220 06:23 28.03.2021
976 Clear 3 1024 87 10000 4.63 230 03:51 28.03.2021
977 Clear 3 1024 93 10000 3.6 230 00:52 28.03.2021
978 Clouds 3 1023 87 10000 4.12 230 00:19 28.03.2021
979 Clouds 4 1023 87 10000 3.6 230 23:40 27.03.2021
980 Clouds 4 1023 81 10000 4.12 240 22:54 27.03.2021
981 Clouds 4 1023 81 10000 4.12 240 22:36 27.03.2021
982 Clouds 5 1022 75 10000 3.09 250 21:55 27.03.2021
983 Clouds 5 1022 75 10000 3.09 250 21:36 27.03.2021
984 Clouds 5 1022 75 10000 4.12 260 21:18 27.03.2021
985 Clouds 5 1021 70 10000 4.63 270 20:38 27.03.2021
986 Clouds 5 1021 70 10000 4.63 270 20:19 27.03.2021
987 Rain 6 1021 70 10000 5.66 280 19:42 27.03.2021
988 Clouds 6 1020 70 10000 6.17 280 19:23 27.03.2021
989 Clouds 6 1020 65 10000 5.66 280 18:48 27.03.2021
990 Clouds 7 1019 65 10000 7.2 280 18:27 27.03.2021
991 Clouds 7 1018 61 10000 8.23 280 17:50 27.03.2021
992 Clouds 8 1018 61 10000 9.26 280 17:23 27.03.2021
993 Clouds 7 1018 61 10000 7.2 270 16:49 27.03.2021
994 Clouds 8 1017 61 10000 7.2 270 16:28 27.03.2021
995 Rain 8 1017 57 10000 8.23 270 15:48 27.03.2021
996 Rain 8 1016 61 10000 7.72 280 15:24 27.03.2021
997 Clouds 7 1016 70 10000 7.2 260 14:49 27.03.2021
998 Clouds 6 1015 81 10000 9.77 270 13:51 27.03.2021
999 Rain 7 1014 71 10000 6.69 270 13:24 27.03.2021
1000 Clouds 7 1014 76 10000 8.75 270 12:55 27.03.2021
1001 Clouds 6 1013 87 10000 4.12 250 12:24 27.03.2021
1002 Rain 6 1013 87 7000 8.23 250 11:42 27.03.2021
1003 Rain 8 1012 71 10000 7.72 250 11:20 27.03.2021
1004 Clouds 8 1012 76 10000 7.72 250 10:45 27.03.2021
1005 Clouds 7 1012 87 10000 7.72 240 10:23 27.03.2021
1006 Clouds 6 1012 87 10000 4.63 270 09:28 27.03.2021
1007 Rain 6 1011 87 9000 5.14 240 08:43 27.03.2021
1008 Rain 6 1010 87 10000 5.66 240 08:21 27.03.2021
1009 Clouds 6 1010 93 10000 5.14 250 07:35 27.03.2021
1010 Rain 6 1009 93 10000 7.72 270 06:47 27.03.2021
1011 Rain 6 1009 93 8000 9.26 270 06:28 27.03.2021
1012 Clear 9 1007 71 10000 4.12 160 04:40 27.03.2021
1013 Clear 10 1010 66 10000 3.09 220 00:55 27.03.2021
1014 Clear 10 1010 71 10000 3.6 180 00:31 27.03.2021
1015 Clear 11 1011 66 10000 4.12 160 23:54 26.03.2021
1016 Clear 11 1011 66 10000 5.14 160 23:22 26.03.2021
1017 Clouds 11 1012 62 10000 3.6 180 22:35 26.03.2021
1018 Clear 12 1012 58 10000 3.6 150 21:38 26.03.2021
1019 Clear 11 1012 58 10000 3.09 150 21:20 26.03.2021
1020 Clear 12 1013 54 10000 2.57 150 20:44 26.03.2021
1021 Clear 12 1013 58 10000 2.57 160 20:24 26.03.2021
1022 Clear 12 1013 58 10000 2.57 180 19:49 26.03.2021
1023 Clear 12 1013 58 10000 3.09 190 19:30 26.03.2021
1024 Clear 14 1013 54 10000 3.6 200 18:45 26.03.2021
1025 Clear 14 1013 51 10000 4.63 190 18:26 26.03.2021
1026 Clear 15 1013 47 10000 6.69 190 17:47 26.03.2021
1027 Clouds 15 1014 51 10000 7.2 210 16:58 26.03.2021
1028 Clouds 15 1014 51 10000 7.2 200 16:33 26.03.2021
1029 Clouds 15 1014 51 10000 6.17 180 15:58 26.03.2021
1030 Clouds 15 1014 51 10000 6.17 180 15:58 26.03.2021
1031 Clouds 16 1015 51 10000 5.66 190 15:24 26.03.2021
1032 Clouds 15 1015 51 10000 4.12 220 14:34 26.03.2021
1033 Clouds 15 1016 51 10000 5.66 210 13:43 26.03.2021
1034 Clouds 14 1016 54 10000 5.66 220 13:21 26.03.2021
1035 Clouds 14 1017 58 10000 6.69 220 12:35 26.03.2021
1036 Clouds 14 1017 58 10000 7.2 220 11:47 26.03.2021
1037 Clouds 13 1017 58 10000 7.72 230 11:27 26.03.2021
1038 Clouds 13 1017 62 10000 5.66 170 10:42 26.03.2021
1039 Clear 12 1017 71 10000 4.12 160 10:19 26.03.2021
1040 Clear 11 1017 76 10000 4.63 160 09:40 26.03.2021
1041 Clear 8 1018 87 9000 3.6 170 08:46 26.03.2021
1042 Clear 8 1017 87 8000 2.57 160 08:25 26.03.2021
1043 Clear 6 1018 93 8000 1.54 160 07:43 26.03.2021
1044 Fog 5 1018 93 7000 2.06 150 07:21 26.03.2021
1045 Clouds 5 1018 93 7000 1.54 150 06:55 26.03.2021
1046 Clear 5 1018 100 10000 1.54 160 05:32 26.03.2021
1047 Clouds 6 1018 93 8000 2.06 210 03:28 26.03.2021
1048 Clouds 8 1019 87 9000 3.09 230 00:50 26.03.2021
1049 Clouds 9 1018 81 10000 3.6 230 23:51 25.03.2021
1050 Clouds 9 1018 81 10000 3.09 220 23:33 25.03.2021
1051 Clouds 10 1018 71 10000 4.12 230 22:40 25.03.2021
1052 Clouds 10 1018 71 10000 4.12 230 22:19 25.03.2021
1053 Clear 10 1018 71 10000 3.6 220 21:45 25.03.2021
1054 Clear 10 1018 71 10000 3.6 210 21:24 25.03.2021
1055 Clear 10 1018 71 10000 3.09 210 20:38 25.03.2021
1056 Clear 10 1018 71 10000 2.57 220 20:18 25.03.2021
1057 Clear 10 1018 71 10000 2.06 220 19:40 25.03.2021
1058 Clear 11 1018 71 10000 2.57 230 19:21 25.03.2021
1059 Clouds 12 1018 66 10000 3.6 210 18:44 25.03.2021
1060 Clouds 12 1018 66 10000 3.6 210 18:25 25.03.2021
1061 Clouds 12 1018 62 10000 5.66 230 17:40 25.03.2021
1062 Clouds 13 1018 58 10000 2.06 250 17:21 25.03.2021
1063 Clouds 13 1018 50 10000 4.63 250 16:38 25.03.2021
1064 Clouds 13 1018 50 10000 4.63 250 16:19 25.03.2021
1065 Clouds 13 1018 54 10000 2.57 270 15:42 25.03.2021
1066 Clouds 14 1018 54 10000 4.12 280 15:19 25.03.2021
1067 Clouds 13 1018 51 10000 2.57 260 14:42 25.03.2021
1068 Clouds 13 1019 58 10000 4.12 250 13:40 25.03.2021
1069 Clouds 13 1019 58 10000 4.12 240 13:22 25.03.2021
1070 Clouds 12 1019 62 10000 4.12 240 12:41 25.03.2021
1071 Clouds 12 1019 71 10000 3.6 220 12:20 25.03.2021
1072 Clouds 11 1019 71 10000 2.06 230 11:48 25.03.2021
1073 Clouds 9 1020 76 10000 2.06 180 11:26 25.03.2021
1074 Clouds 8 1020 81 8000 2.57 200 10:52 25.03.2021
1075 Clouds 8 1020 87 7000 1.54 200 10:24 25.03.2021
1076 Clouds 7 1020 87 7000 2.06 240 09:56 25.03.2021
1077 Clouds 7 1020 87 7000 2.06 240 09:38 25.03.2021
1078 Clouds 7 1019 87 7000 2.57 250 08:54 25.03.2021
1079 Clouds 6 1019 87 7000 2.57 270 08:21 25.03.2021
1080 Mist 6 1019 87 5000 2.06 270 07:19 25.03.2021
1081 Mist 6 1019 87 5000 1.54 270 06:26 25.03.2021
1082 Clouds 5 1018 93 6000 1.03 260 05:49 25.03.2021
1083 Mist 4 1019 100 3500 0.51 0 03:55 25.03.2021
1084 Clouds 6 1019 93 10000 0.51 200 00:34 25.03.2021
1085 Clouds 7 1019 87 10000 0.51 0 23:53 24.03.2021
1086 Clouds 7 1019 87 10000 2.57 300 23:30 24.03.2021
1087 Clear 8 1019 81 10000 2.57 300 22:50 24.03.2021
1088 Clouds 8 1019 87 10000 1.03 310 22:28 24.03.2021
1089 Clouds 7 1019 81 10000 0.51 0 21:46 24.03.2021
1090 Clouds 8 1019 76 10000 0.51 0 21:24 24.03.2021
1091 Clouds 9 1019 76 10000 1.54 310 20:45 24.03.2021
1092 Clouds 10 1019 66 10000 1.54 260 20:20 24.03.2021
1093 Clouds 10 1019 66 10000 1.54 260 19:52 24.03.2021
1094 Clouds 11 1019 58 10000 1.54 250 19:29 24.03.2021
1095 Clouds 11 1019 58 10000 2.57 250 18:51 24.03.2021
1096 Clouds 12 1019 58 10000 3.6 230 18:24 24.03.2021
1097 Clouds 14 1019 58 10000 4.63 220 17:52 24.03.2021
1098 Clouds 14 1019 58 10000 4.63 230 17:32 24.03.2021
1099 Clouds 14 1019 58 10000 4.63 230 17:32 24.03.2021
1100 Clouds 14 1019 51 10000 4.63 240 16:53 24.03.2021
1101 Clouds 14 1019 58 10000 5.66 230 16:31 24.03.2021
1102 Clouds 14 1019 54 10000 6.17 220 15:55 24.03.2021
1103 Clouds 14 1019 54 10000 6.17 220 15:33 24.03.2021
1104 Clouds 14 1020 58 10000 5.14 230 14:55 24.03.2021
1105 Clouds 13 1020 58 10000 5.14 240 14:28 24.03.2021
1106 Clouds 13 1021 58 10000 6.17 230 13:57 24.03.2021
1107 Clouds 13 1021 62 10000 6.17 220 13:28 24.03.2021
1108 Clouds 11 1021 66 9000 4.63 240 12:48 24.03.2021
1109 Clouds 11 1021 71 9000 3.09 220 12:27 24.03.2021
1110 Clouds 10 1022 71 8000 4.63 220 11:49 24.03.2021
1111 Clouds 11 1022 71 8000 4.63 220 11:20 24.03.2021
1112 Clouds 10 1022 76 8000 4.63 220 10:44 24.03.2021
1113 Clouds 9 1022 76 8000 4.12 220 10:25 24.03.2021
1114 Clouds 8 1022 76 8000 3.6 220 09:54 24.03.2021
1115 Clouds 7 1022 81 8000 4.63 220 09:23 24.03.2021
1116 Clouds 7 1022 81 8000 2.57 210 08:55 24.03.2021
1117 Clouds 6 1022 81 8000 2.06 210 08:29 24.03.2021
1118 Clouds 6 1022 87 7000 3.09 220 07:42 24.03.2021
1119 Clouds 6 1022 81 7000 2.57 220 06:54 24.03.2021
1120 Clouds 6 1022 81 7000 2.57 220 06:34 24.03.2021
1121 Clouds 5 1022 87 10000 3.6 220 01:20 24.03.2021
1122 Clouds 6 1022 87 10000 3.09 220 00:32 24.03.2021
1123 Clouds 6 1023 81 10000 2.06 220 23:43 23.03.2021
1124 Clouds 6 1023 81 10000 2.06 220 23:18 23.03.2021
1125 Clouds 6 1023 81 10000 2.06 210 22:40 23.03.2021
1126 Clouds 7 1023 81 10000 2.06 230 21:59 23.03.2021
1127 Clouds 7 1023 81 10000 2.06 230 21:41 23.03.2021
1128 Clouds 7 1023 81 10000 2.06 230 21:41 23.03.2021
1129 Clouds 7 1023 81 10000 2.57 240 21:20 23.03.2021
1130 Clouds 7 1023 81 10000 2.57 230 20:43 23.03.2021
1131 Clouds 7 1023 81 10000 2.57 240 20:25 23.03.2021
1132 Clouds 7 1023 81 10000 3.6 230 19:45 23.03.2021
1133 Clouds 7 1023 81 10000 3.09 220 19:25 23.03.2021
1134 Clouds 7 1023 76 10000 2.57 240 18:43 23.03.2021
1135 Clouds 7 1023 76 10000 2.57 240 18:22 23.03.2021
1136 Clouds 7 1023 81 10000 4.12 230 17:45 23.03.2021
1137 Clouds 7 1023 76 10000 3.6 240 17:21 23.03.2021
1138 Clouds 7 1023 76 10000 3.6 260 16:39 23.03.2021
1139 Clouds 7 1023 76 10000 3.09 260 16:19 23.03.2021
1140 Clouds 8 1023 76 10000 4.12 260 15:38 23.03.2021
1141 Clouds 7 1023 76 10000 4.12 260 14:52 23.03.2021
1142 Clouds 7 1023 81 10000 3.09 270 14:21 23.03.2021
1143 Clouds 7 1023 81 10000 3.09 270 14:21 23.03.2021
1144 Clouds 7 1023 81 9000 4.12 280 13:55 23.03.2021
1145 Clouds 7 1023 81 9000 4.12 280 13:37 23.03.2021
1146 Clouds 7 1023 81 9000 3.6 260 13:18 23.03.2021
1147 Clouds 6 1024 87 9000 3.6 270 12:41 23.03.2021
1148 Drizzle 6 1024 87 8000 3.09 260 12:20 23.03.2021
1149 Drizzle 6 1023 87 6000 4.12 270 11:44 23.03.2021
1150 Drizzle 6 1023 93 6000 4.12 260 10:44 23.03.2021
1151 Drizzle 5 1023 93 6000 4.63 270 10:25 23.03.2021
1152 Drizzle 5 1023 93 6000 4.12 260 09:58 23.03.2021
1153 Drizzle 5 1023 93 6000 3.6 260 09:39 23.03.2021
1154 Drizzle 5 1023 93 6000 3.6 260 09:19 23.03.2021
1155 Drizzle 5 1023 93 8000 3.6 260 08:40 23.03.2021
1156 Drizzle 5 1023 93 9000 3.6 250 08:22 23.03.2021
1157 Clouds 5 1022 87 10000 3.6 240 07:40 23.03.2021
1158 Clouds 5 1022 87 10000 4.12 240 07:19 23.03.2021
1159 Clouds 5 1022 87 10000 3.6 240 06:33 23.03.2021
1160 Clouds 4 1023 93 10000 2.57 270 03:23 23.03.2021
1161 Clouds 4 1023 87 10000 5.14 290 02:18 23.03.2021
1162 Clouds 5 1023 93 10000 3.6 290 23:43 22.03.2021
1163 Clouds 5 1023 100 3500 3.6 290 22:56 22.03.2021
1164 Clouds 5 1023 100 3500 3.6 290 22:38 22.03.2021
1165 Clouds 5 1023 100 4000 4.12 280 22:20 22.03.2021
1166 Clouds 5 1023 93 10000 4.12 290 21:41 22.03.2021
1167 Clouds 6 1023 87 10000 4.12 280 21:22 22.03.2021
1168 Clouds 6 1023 87 10000 5.14 280 20:41 22.03.2021
1169 Clouds 6 1022 87 10000 4.12 280 20:22 22.03.2021
1170 Clouds 6 1022 87 10000 4.63 280 19:54 22.03.2021
1171 Clouds 6 1022 87 10000 4.63 290 19:34 22.03.2021
1172 Clouds 6 1022 87 10000 5.14 280 18:58 22.03.2021
1173 Clouds 6 1022 87 10000 5.14 280 18:39 22.03.2021
1174 Clouds 6 1021 81 10000 5.66 290 18:20 22.03.2021
1175 Drizzle 7 1021 76 10000 7.2 290 17:42 22.03.2021
1176 Clouds 7 1021 76 10000 5.66 280 17:20 22.03.2021
1177 Clouds 7 1021 76 10000 5.14 290 16:45 22.03.2021
1178 Clouds 8 1021 71 10000 6.69 290 16:19 22.03.2021
1179 Clouds 8 1021 61 10000 5.66 290 15:38 22.03.2021
1180 Clouds 8 1021 71 10000 7.2 300 15:18 22.03.2021
1181 Clouds 8 1021 66 10000 5.66 290 14:53 22.03.2021
1182 Clouds 8 1021 66 10000 5.66 290 14:34 22.03.2021
1183 Clouds 9 1021 57 10000 4.12 310 13:48 22.03.2021
1184 Clouds 9 1021 57 10000 4.12 310 13:27 22.03.2021
1185 Clouds 9 1021 61 10000 4.12 330 12:55 22.03.2021
1186 Clouds 9 1021 61 10000 4.12 330 12:26 22.03.2021
1187 Clouds 7 1021 70 10000 5.14 310 11:49 22.03.2021
1188 Clouds 7 1021 70 10000 5.14 310 11:29 22.03.2021
1189 Clouds 7 1021 75 10000 4.12 320 10:46 22.03.2021
1190 Clouds 6 1021 81 10000 5.66 320 10:25 22.03.2021
1191 Clouds 5 1021 81 10000 4.63 320 09:53 22.03.2021
1192 Clouds 4 1021 93 10000 4.63 330 09:32 22.03.2021
1193 Clouds 4 1021 93 10000 3.6 340 08:47 22.03.2021
1194 Clouds 4 1021 93 10000 4.12 310 08:28 22.03.2021
1195 Clouds 3 1020 100 8000 3.6 320 07:50 22.03.2021
1196 Clouds 3 1020 100 8000 2.57 310 07:31 22.03.2021
1197 Clouds 2 1020 100 8000 2.06 300 06:51 22.03.2021
1198 Clear 2 1019 93 10000 2.06 320 02:51 22.03.2021
1199 Clear 2 1019 87 10000 1.54 310 00:49 22.03.2021
1200 Clear 3 1018 87 10000 3.6 280 23:59 21.03.2021
1201 Clear 3 1018 87 10000 2.06 290 23:40 21.03.2021
1202 Clear 3 1018 87 10000 2.06 290 23:18 21.03.2021
1203 Clear 3 1018 87 10000 3.09 300 22:43 21.03.2021
1204 Clear 3 1018 87 10000 3.09 300 21:43 21.03.2021
1205 Clear 4 1018 81 10000 2.57 290 21:25 21.03.2021
1206 Clear 4 1018 81 10000 3.6 300 20:57 21.03.2021
1207 Clear 4 1018 81 10000 3.6 300 20:39 21.03.2021
1208 Clear 4 1018 75 10000 4.63 300 20:21 21.03.2021
1209 Clear 5 1017 75 10000 5.66 300 19:46 21.03.2021
1210 Clouds 5 1017 75 10000 5.66 300 19:20 21.03.2021
1211 Clouds 6 1017 75 10000 6.17 300 18:44 21.03.2021
1212 Clouds 7 1016 70 10000 6.17 290 18:25 21.03.2021
1213 Clouds 7 1016 66 10000 7.72 300 17:43 21.03.2021
1214 Clouds 8 1016 61 10000 7.2 290 17:19 21.03.2021
1215 Clouds 9 1016 53 10000 6.17 290 16:51 21.03.2021
1216 Clouds 9 1016 53 10000 5.66 310 16:27 21.03.2021
1217 Clouds 10 1016 57 10000 5.14 320 15:48 21.03.2021
1218 Clouds 10 1016 49 10000 5.66 320 15:22 21.03.2021
1219 Clouds 10 1016 46 10000 4.63 350 14:58 21.03.2021
1220 Clouds 10 1016 46 10000 4.63 350 14:39 21.03.2021
1221 Clouds 9 1016 53 10000 4.63 340 14:20 21.03.2021
1222 Clouds 9 1016 53 10000 4.63 340 13:51 21.03.2021
1223 Clouds 8 1016 61 10000 6.69 330 12:46 21.03.2021
1224 Clouds 8 1016 61 10000 6.69 330 12:26 21.03.2021
1225 Clouds 8 1016 66 10000 7.2 330 11:49 21.03.2021
1226 Clouds 8 1016 70 10000 7.2 330 11:27 21.03.2021
1227 Clouds 7 1015 70 10000 8.23 320 10:53 21.03.2021
1228 Clouds 7 1015 70 10000 7.72 310 10:32 21.03.2021
1229 Clouds 6 1015 70 10000 7.72 320 09:57 21.03.2021
1230 Clouds 6 1014 75 10000 8.23 310 09:38 21.03.2021
1231 Clouds 6 1014 75 10000 8.23 310 09:19 21.03.2021
1232 Clouds 6 1015 75 10000 7.72 310 08:38 21.03.2021
1233 Clouds 5 1014 75 10000 8.23 310 08:19 21.03.2021
1234 Clouds 5 1014 75 10000 7.2 310 07:31 21.03.2021
1235 Clouds 5 1014 81 10000 7.2 310 06:50 21.03.2021
1236 Drizzle 6 1014 93 10000 9.26 290 04:58 21.03.2021
1237 Drizzle 6 1014 93 10000 9.26 290 04:58 21.03.2021
1238 Drizzle 5 1017 93 3500 6.69 280 00:59 21.03.2021
1239 Drizzle 5 1017 93 3500 6.69 280 00:39 21.03.2021
1240 Drizzle 5 1018 93 6000 5.14 270 00:21 21.03.2021
1241 Drizzle 5 1018 93 6000 6.69 280 23:47 20.03.2021
1242 Drizzle 5 1018 93 7000 5.66 270 23:20 20.03.2021
1243 Drizzle 5 1019 93 7000 6.17 270 22:50 20.03.2021
1244 Drizzle 5 1019 93 4000 6.17 270 22:21 20.03.2021
1245 Drizzle 5 1020 93 10000 6.69 280 21:45 20.03.2021
1246 Drizzle 5 1020 93 9000 6.69 280 21:24 20.03.2021
1247 Drizzle 5 1020 93 6000 7.2 280 20:44 20.03.2021
1248 Drizzle 5 1020 93 3500 4.63 260 20:22 20.03.2021
1249 Drizzle 4 1020 100 3500 4.63 250 19:49 20.03.2021
1250 Drizzle 4 1020 100 3500 5.14 250 19:26 20.03.2021
1251 Drizzle 4 1021 100 3500 5.66 240 18:49 20.03.2021
1252 Drizzle 4 1021 100 4000 6.17 240 18:26 20.03.2021
1253 Drizzle 5 1022 93 4000 5.66 250 17:54 20.03.2021
1254 Clouds 5 1022 81 10000 6.17 240 17:32 20.03.2021
1255 Clouds 5 1023 75 10000 6.69 250 16:56 20.03.2021
1256 Clouds 5 1023 75 10000 7.2 240 16:37 20.03.2021
1257 Clouds 5 1023 75 10000 7.2 240 16:18 20.03.2021
1258 Clouds 5 1023 70 10000 4.63 260 15:39 20.03.2021
1259 Clouds 5 1024 65 10000 5.66 240 14:53 20.03.2021
1260 Clouds 5 1025 65 10000 6.17 230 14:29 20.03.2021
1261 Clouds 5 1026 65 10000 6.69 250 13:43 20.03.2021
1262 Clouds 5 1026 56 10000 5.66 240 13:21 20.03.2021
1263 Clouds 4 1027 56 10000 6.69 230 12:28 20.03.2021
1264 Clouds 3 1027 56 10000 6.17 230 11:55 20.03.2021
1265 Clouds 3 1027 56 10000 6.17 230 11:36 20.03.2021
1266 Clouds 2 1028 56 10000 4.63 240 11:18 20.03.2021
1267 Clouds 2 1028 60 10000 5.14 240 10:38 20.03.2021
1268 Clouds 1 1028 60 10000 5.14 240 10:19 20.03.2021
1269 Clouds 1 1028 60 10000 4.63 240 09:43 20.03.2021
1270 Clouds 0 1028 64 10000 4.12 230 09:21 20.03.2021
1271 Clouds 0 1028 69 10000 3.09 230 08:49 20.03.2021
1272 Clouds -1 1028 69 10000 2.57 240 08:18 20.03.2021
1273 Clear -2 1028 80 10000 1.54 230 07:41 20.03.2021
1274 Clear -2 1028 74 10000 2.06 260 07:20 20.03.2021
1275 Clear -2 1029 74 10000 1.03 0 06:39 20.03.2021
1276 Clear -2 1029 74 10000 1.03 0 05:28 20.03.2021
1277 Clear -3 1029 86 10000 1.54 320 03:43 20.03.2021
1278 Clear -3 1029 86 10000 0.51 0 01:31 20.03.2021
1279 Clear -3 1030 80 10000 0.51 210 23:46 19.03.2021
1280 Clear -2 1030 80 10000 0.51 0 23:19 19.03.2021
1281 Clear -2 1029 69 10000 1.03 0 22:43 19.03.2021
1282 Clear -2 1029 59 10000 2.06 60 22:22 19.03.2021
1283 Clear -1 1029 59 10000 1.54 60 21:42 19.03.2021
1284 Clear -1 1029 59 10000 2.57 50 21:20 19.03.2021
1285 Clear -1 1029 59 10000 3.6 60 20:46 19.03.2021
1286 Clouds 0 1028 55 10000 2.57 40 20:26 19.03.2021
1287 Clouds 0 1028 59 10000 3.6 50 19:50 19.03.2021
1288 Clouds 1 1028 60 10000 3.6 40 19:24 19.03.2021
1289 Clouds 1 1028 60 10000 4.63 40 18:56 19.03.2021
1290 Clouds 2 1028 60 10000 4.63 40 18:36 19.03.2021
1291 Clouds 2 1027 60 10000 5.14 60 18:18 19.03.2021
1292 Clouds 3 1027 60 10000 6.17 50 17:42 19.03.2021
1293 Clouds 4 1027 60 10000 5.14 50 17:22 19.03.2021
1294 Clouds 4 1027 65 10000 6.17 50 16:44 19.03.2021
1295 Clouds 4 1027 56 10000 6.69 60 16:26 19.03.2021
1296 Clouds 4 1027 60 10000 5.14 40 15:34 19.03.2021
1297 Clouds 5 1026 65 10000 6.69 40 14:54 19.03.2021
1298 Clouds 5 1026 65 10000 6.69 40 14:35 19.03.2021
1299 Clouds 5 1026 60 10000 5.14 30 13:59 19.03.2021
1300 Clouds 6 1026 60 10000 5.14 40 13:24 19.03.2021
1301 Clouds 6 1025 61 10000 6.17 50 12:48 19.03.2021
1302 Clouds 6 1025 65 10000 7.2 50 12:29 19.03.2021
1303 Clouds 5 1025 65 10000 4.12 20 11:36 19.03.2021
1304 Clouds 5 1025 70 10000 5.14 30 10:53 19.03.2021
1305 Clouds 4 1025 75 10000 4.63 40 10:27 19.03.2021
1306 Clouds 3 1024 81 10000 4.12 30 09:48 19.03.2021
1307 Clear 2 1024 87 10000 3.09 360 09:29 19.03.2021
1308 Clear 2 1024 93 10000 2.57 360 08:54 19.03.2021
1309 Clear 1 1023 93 10000 2.57 340 08:32 19.03.2021
1310 Clear 0 1023 86 10000 2.57 320 07:52 19.03.2021
1311 Clear -1 1023 100 10000 2.57 320 07:34 19.03.2021
1312 Clear -1 1022 100 10000 2.57 320 06:43 19.03.2021
1313 Clear -1 1021 93 10000 2.06 10 02:45 19.03.2021
1314 Clear 0 1020 80 10000 2.57 360 00:26 19.03.2021
1315 Clear 1 1020 74 10000 2.57 360 23:30 18.03.2021
1316 Clear 1 1020 80 10000 2.57 360 22:58 18.03.2021
1317 Clear 1 1020 80 10000 2.57 360 22:38 18.03.2021
1318 Clear 1 1020 74 10000 2.06 350 22:18 18.03.2021
1319 Clear 1 1020 74 10000 2.06 360 21:39 18.03.2021
1320 Clear 1 1020 74 10000 2.06 360 21:39 18.03.2021
1321 Clear 3 1020 75 10000 1.54 360 20:47 18.03.2021
1322 Clear 3 1020 65 10000 2.06 20 20:27 18.03.2021
1323 Clouds 4 1020 60 10000 2.06 30 19:45 18.03.2021
1324 Clouds 4 1020 56 10000 3.09 20 19:27 18.03.2021
1325 Clouds 5 1019 48 10000 3.6 20 18:57 18.03.2021
1326 Clouds 5 1019 48 10000 3.6 20 18:33 18.03.2021
1327 Clouds 6 1019 65 10000 2.57 30 17:50 18.03.2021
1328 Clouds 6 1019 65 10000 2.57 30 17:25 18.03.2021
1329 Clouds 6 1020 65 10000 2.06 10 16:49 18.03.2021
1330 Clouds 6 1020 65 10000 3.09 20 16:30 18.03.2021
1331 Clouds 6 1020 65 10000 3.09 340 15:48 18.03.2021
1332 Clouds 6 1020 65 10000 3.09 340 15:28 18.03.2021
1333 Clouds 6 1021 70 10000 2.06 330 14:55 18.03.2021
1334 Clouds 6 1021 70 10000 2.57 310 14:33 18.03.2021
1335 Clouds 6 1021 75 10000 3.09 320 13:53 18.03.2021
1336 Clouds 6 1021 70 10000 1.03 0 13:27 18.03.2021
1337 Clouds 6 1022 70 10000 1.54 250 12:45 18.03.2021
1338 Clouds 6 1022 75 10000 2.57 250 12:27 18.03.2021
1339 Clouds 6 1022 75 10000 2.57 250 12:27 18.03.2021
1340 Clouds 5 1022 87 10000 2.57 310 11:55 18.03.2021
1341 Clouds 4 1023 93 10000 3.09 280 11:34 18.03.2021
1342 Clouds 3 1023 93 10000 3.09 310 10:49 18.03.2021
1343 Clouds 3 1023 93 10000 3.09 310 10:49 18.03.2021
1344 Clouds 3 1023 93 10000 2.57 290 10:28 18.03.2021
1345 Mist 2 1023 100 2500 2.57 290 09:58 18.03.2021
1346 Fog 2 1023 100 600 1.54 270 09:30 18.03.2021
1347 Fog 2 1023 100 600 1.54 250 08:57 18.03.2021
1348 Fog 2 1023 100 600 1.54 250 08:33 18.03.2021
1349 Fog 1 1023 100 450 2.06 270 07:58 18.03.2021
1350 Fog 1 1023 100 450 2.06 270 07:40 18.03.2021
1351 Fog 0 1024 100 600 2.06 250 06:40 18.03.2021
1352 Fog 0 1024 100 600 2.06 250 06:21 18.03.2021
1353 Fog 0 1024 100 500 2.57 280 04:42 18.03.2021
1354 Clear 0 1025 93 10000 0.51 0 00:40 18.03.2021
1355 Clear 1 1026 93 10000 1.03 0 23:19 17.03.2021
1356 Clear 1 1026 93 10000 1.03 0 22:38 17.03.2021
1357 Clear 1 1026 93 10000 1.03 320 22:20 17.03.2021
1358 Clear 2 1026 93 10000 1.54 320 21:49 17.03.2021
1359 Clear 3 1026 86 10000 2.06 330 21:30 17.03.2021
1360 Clear 3 1026 87 10000 2.06 320 20:48 17.03.2021
1361 Clear 3 1026 80 10000 2.06 330 20:26 17.03.2021
1362 Clear 4 1025 80 10000 2.06 340 19:58 17.03.2021
1363 Clear 4 1025 80 10000 2.06 340 19:39 17.03.2021
1364 Clouds 4 1025 75 10000 1.54 320 19:19 17.03.2021
1365 Clouds 5 1024 70 10000 1.54 280 18:47 17.03.2021
1366 Clouds 6 1025 61 10000 2.06 320 18:29 17.03.2021
1367 Clouds 7 1025 61 10000 2.57 300 17:33 17.03.2021
1368 Clouds 7 1024 65 10000 2.06 300 16:58 17.03.2021
1369 Clouds 6 1024 65 10000 2.06 300 16:39 17.03.2021
1370 Clouds 6 1024 65 10000 2.06 300 16:39 17.03.2021
1371 Clouds 6 1024 70 10000 1.03 0 16:20 17.03.2021
1372 Rain 7 1025 75 10000 6.17 60 15:45 17.03.2021
1373 Rain 7 1024 65 10000 8.75 50 15:26 17.03.2021
1374 Clouds 8 1023 53 10000 1.54 0 14:40 17.03.2021
1375 Clouds 8 1023 53 10000 2.06 0 14:19 17.03.2021
1376 Clouds 8 1023 61 10000 3.09 90 13:54 17.03.2021
1377 Clouds 8 1023 66 10000 1.54 0 13:24 17.03.2021
1378 Clouds 7 1023 70 10000 2.06 0 12:48 17.03.2021
1379 Clouds 6 1023 81 10000 2.57 300 12:27 17.03.2021
1380 Clouds 5 1023 81 10000 2.57 300 11:42 17.03.2021
1381 Clouds 4 1023 81 10000 2.06 310 11:23 17.03.2021
1382 Clouds 4 1023 87 10000 2.57 310 10:53 17.03.2021
1383 Clouds 3 1023 87 10000 2.06 340 10:24 17.03.2021
1384 Clouds 3 1023 93 10000 1.54 330 09:46 17.03.2021
1385 Clouds 2 1022 93 10000 1.54 330 09:20 17.03.2021
1386 Clouds 2 1022 100 10000 0.51 0 08:55 17.03.2021
1387 Clouds 1 1022 100 10000 0.51 0 08:35 17.03.2021
1388 Clouds -1 1022 100 10000 0.51 0 07:48 17.03.2021
1389 Clear -1 1022 100 10000 0.51 310 07:19 17.03.2021
1390 Clear 0 1021 93 10000 0.51 0 06:38 17.03.2021
1391 Clear 0 1021 93 10000 3.09 280 04:20 17.03.2021
1392 Clear 0 1021 93 10000 0.51 310 02:49 17.03.2021
1393 Clouds 2 1021 80 10000 1.03 310 00:40 17.03.2021
1394 Clouds 2 1021 80 10000 1.54 310 23:29 16.03.2021
1395 Clouds 3 1021 75 10000 2.57 310 22:51 16.03.2021
1396 Clouds 3 1021 70 10000 3.09 320 22:33 16.03.2021
1397 Clouds 3 1020 70 10000 3.6 310 21:49 16.03.2021
1398 Clouds 3 1020 65 10000 4.63 300 21:31 16.03.2021
1399 Clouds 4 1020 70 10000 4.63 300 20:59 16.03.2021
1400 Clouds 4 1020 70 10000 4.12 300 20:20 16.03.2021
1401 Clouds 4 1020 70 10000 4.12 300 19:58 16.03.2021
1402 Clouds 4 1020 65 10000 4.12 300 19:40 16.03.2021
1403 Clouds 4 1020 65 10000 4.12 300 19:20 16.03.2021
1404 Clouds 5 1020 60 10000 5.14 300 18:44 16.03.2021
1405 Clouds 5 1020 61 10000 6.69 290 18:26 16.03.2021
1406 Clouds 6 1019 65 10000 6.69 290 17:50 16.03.2021
1407 Clouds 6 1019 61 10000 6.17 290 17:31 16.03.2021
1408 Clouds 7 1019 61 10000 6.17 300 16:53 16.03.2021
1409 Clouds 7 1019 61 10000 6.17 300 16:30 16.03.2021
1410 Clouds 7 1019 61 10000 6.69 300 15:47 16.03.2021
1411 Clouds 7 1019 61 10000 6.69 300 15:22 16.03.2021
1412 Clouds 7 1019 61 10000 7.2 300 14:59 16.03.2021
1413 Clouds 7 1019 61 10000 7.2 300 14:40 16.03.2021
1414 Clouds 7 1019 65 10000 6.17 300 14:21 16.03.2021
1415 Clouds 7 1019 65 10000 6.69 290 13:55 16.03.2021
1416 Clouds 7 1019 70 10000 5.66 310 13:28 16.03.2021
1417 Clouds 6 1019 75 10000 5.66 300 12:55 16.03.2021
1418 Clouds 6 1019 70 10000 6.17 320 12:36 16.03.2021
1419 Clouds 6 1018 75 10000 6.17 300 11:55 16.03.2021
1420 Clouds 6 1018 75 10000 5.66 310 11:29 16.03.2021
1421 Clouds 6 1018 75 10000 5.66 300 10:46 16.03.2021
1422 Clouds 5 1018 81 10000 5.66 310 10:20 16.03.2021
1423 Clouds 5 1018 75 10000 5.66 300 09:40 16.03.2021
1424 Clouds 5 1018 81 10000 6.69 300 09:20 16.03.2021
1425 Clouds 5 1017 87 10000 4.63 300 08:53 16.03.2021
1426 Clouds 4 1017 87 10000 4.63 300 08:35 16.03.2021
1427 Clouds 4 1017 93 10000 4.63 300 07:51 16.03.2021
1428 Clouds 3 1017 93 10000 4.12 300 07:24 16.03.2021
1429 Clouds 3 1017 93 10000 4.12 300 07:24 16.03.2021
1430 Clouds 3 1017 100 7000 5.14 290 06:38 16.03.2021
1431 Clouds 2 1016 100 10000 3.09 280 05:36 16.03.2021
1432 Clear 1 1015 86 10000 1.54 300 02:46 16.03.2021
1433 Clear 1 1015 86 10000 1.54 300 02:26 16.03.2021
1434 Clouds 2 1014 87 10000 4.63 310 00:39 16.03.2021
1435 Clouds 3 1013 87 10000 4.12 300 23:54 15.03.2021
1436 Clouds 4 1013 81 10000 5.14 300 23:19 15.03.2021
1437 Clouds 4 1012 81 10000 5.14 290 22:43 15.03.2021
1438 Clouds 4 1012 81 10000 5.14 300 22:25 15.03.2021
1439 Clouds 5 1012 81 10000 4.63 300 21:51 15.03.2021
1440 Clouds 5 1011 81 10000 4.63 300 21:29 15.03.2021
1441 Clouds 5 1011 75 10000 5.66 300 20:55 15.03.2021
1442 Clouds 5 1011 75 10000 5.66 300 20:37 15.03.2021
1443 Clouds 5 1010 75 10000 6.17 310 20:19 15.03.2021
1444 Clouds 5 1010 81 10000 5.66 310 19:43 15.03.2021
1445 Clouds 5 1009 81 10000 6.17 300 19:24 15.03.2021
1446 Clouds 5 1008 87 10000 5.66 300 18:47 15.03.2021
1447 Clouds 5 1008 87 10000 6.17 300 18:23 15.03.2021
1448 Clouds 5 1007 81 10000 6.69 300 17:55 15.03.2021
1449 Clouds 5 1007 81 10000 6.69 290 17:28 15.03.2021
1450 Clouds 6 1006 81 10000 7.2 300 16:50 15.03.2021
1451 Clouds 6 1006 81 10000 6.69 300 16:31 15.03.2021
1452 Clouds 6 1006 81 10000 7.2 300 15:45 15.03.2021
1453 Clouds 6 1005 81 10000 8.23 300 15:25 15.03.2021
1454 Clouds 6 1005 76 10000 8.75 300 14:43 15.03.2021
1455 Clouds 6 1004 81 10000 8.23 300 14:22 15.03.2021
1456 Clouds 6 1004 81 10000 8.23 300 13:46 15.03.2021
1457 Clouds 6 1004 81 10000 8.23 300 13:46 15.03.2021
1458 Clouds 6 1004 87 10000 7.72 290 13:24 15.03.2021
1459 Clouds 7 1003 87 10000 9.26 290 12:47 15.03.2021
1460 Clouds 7 1003 81 10000 7.72 280 12:19 15.03.2021
1461 Clouds 6 1003 87 10000 8.75 280 11:49 15.03.2021
1462 Rain 6 1003 87 10000 6.69 270 11:30 15.03.2021
1463 Clouds 6 1003 87 9000 6.69 260 10:54 15.03.2021
1464 Clouds 6 1003 87 9000 5.66 260 10:30 15.03.2021
1465 Clouds 5 1003 93 9000 6.17 250 09:52 15.03.2021
1466 Rain 5 1003 93 6000 5.66 250 09:34 15.03.2021
1467 Rain 4 1003 100 8000 6.17 230 08:54 15.03.2021
1468 Rain 4 1003 100 8000 6.17 230 08:32 15.03.2021
1469 Rain 4 1003 93 10000 5.14 240 07:55 15.03.2021
1470 Clouds 4 1003 93 10000 5.14 240 07:32 15.03.2021
1471 Clouds 4 1004 93 10000 5.14 240 06:41 15.03.2021
1472 Clouds 4 1004 93 10000 5.14 240 05:33 15.03.2021
1473 Clouds 4 1005 93 10000 6.17 250 01:47 15.03.2021
1474 Clouds 5 1006 87 10000 4.12 240 23:59 14.03.2021
1475 Clouds 5 1006 81 10000 4.63 250 23:21 14.03.2021
1476 Clouds 5 1006 81 10000 5.66 270 22:47 14.03.2021
1477 Clouds 5 1006 81 10000 4.63 270 22:23 14.03.2021
1478 Clouds 5 1006 81 10000 4.63 270 22:23 14.03.2021
1479 Clouds 5 1006 81 10000 4.63 260 21:50 14.03.2021
1480 Clouds 6 1006 81 10000 4.12 260 21:21 14.03.2021
1481 Clouds 6 1006 81 10000 4.12 270 20:50 14.03.2021
1482 Clouds 6 1006 81 10000 4.63 270 20:27 14.03.2021
1483 Clouds 6 1006 81 10000 5.14 270 19:56 14.03.2021
1484 Clouds 6 1006 81 10000 5.14 270 19:37 14.03.2021
1485 Clouds 6 1006 75 10000 6.17 280 19:18 14.03.2021
1486 Clouds 7 1005 70 10000 7.2 280 18:31 14.03.2021
1487 Clouds 8 1005 61 10000 7.72 270 17:43 14.03.2021
1488 Clouds 8 1005 57 10000 8.23 290 17:24 14.03.2021
1489 Clouds 8 1005 57 10000 7.2 290 16:54 14.03.2021
1490 Clouds 9 1005 57 10000 7.72 300 16:35 14.03.2021
1491 Clouds 9 1005 61 10000 8.75 300 15:59 14.03.2021
1492 Clouds 9 1005 61 10000 8.75 300 15:40 14.03.2021
1493 Clouds 9 1004 62 10000 9.26 280 14:51 14.03.2021
1494 Clouds 9 1004 62 10000 7.2 290 14:30 14.03.2021
1495 Clouds 9 1004 71 10000 9.26 280 13:52 14.03.2021
1496 Clouds 9 1004 71 10000 9.26 280 13:52 14.03.2021
1497 Clouds 8 1004 71 10000 9.26 280 13:33 14.03.2021
1498 Clouds 8 1004 81 10000 7.2 260 12:56 14.03.2021
1499 Clouds 8 1004 81 10000 7.2 260 12:37 14.03.2021
1500 Rain 7 1004 71 10000 6.69 290 12:18 14.03.2021
1501 Clouds 8 1003 71 10000 6.69 300 11:38 14.03.2021
1502 Clouds 7 1003 76 10000 7.2 280 11:18 14.03.2021
1503 Clouds 7 1002 76 10000 5.66 280 10:38 14.03.2021
1504 Clouds 6 1002 81 10000 6.69 280 10:19 14.03.2021
1505 Clouds 6 1001 81 10000 5.66 280 09:56 14.03.2021
1506 Clouds 5 1001 87 10000 4.63 280 09:37 14.03.2021
1507 Clouds 5 1001 87 10000 4.63 280 09:19 14.03.2021
1508 Clouds 5 1000 87 10000 5.14 280 08:36 14.03.2021
1509 Clouds 5 998 81 10000 5.14 300 07:56 14.03.2021
1510 Clouds 5 998 81 10000 6.17 300 07:26 14.03.2021
1511 Clouds 4 995 81 10000 7.72 280 05:34 14.03.2021
1512 Clouds 4 989 93 10000 9.26 270 01:25 14.03.2021
1513 Rain 4 988 87 10000 9.77 260 00:20 14.03.2021
1514 Rain 4 988 93 10000 8.23 260 23:59 13.03.2021
1515 Rain 4 988 93 10000 8.23 260 23:39 13.03.2021
1516 Rain 4 987 93 10000 10.8 260 23:18 13.03.2021
1517 Rain 4 987 93 7000 8.75 250 22:46 13.03.2021
1518 Rain 5 986 93 7000 10.29 250 22:21 13.03.2021
1519 Rain 5 986 93 8000 9.26 240 21:35 13.03.2021
1520 Rain 5 985 87 9000 12.35 230 20:59 13.03.2021
1521 Rain 5 985 87 9000 12.35 230 20:41 13.03.2021
1522 Rain 5 985 87 10000 11.83 220 20:23 13.03.2021
1523 Rain 5 985 87 10000 9.77 220 19:44 13.03.2021
1524 Clouds 5 986 87 10000 10.8 230 19:24 13.03.2021
1525 Rain 6 985 81 10000 12.35 210 18:43 13.03.2021
1526 Clouds 6 985 87 10000 6.69 190 18:20 13.03.2021
1527 Rain 6 986 81 10000 8.75 200 17:51 13.03.2021
1528 Rain 6 986 81 10000 7.2 210 17:32 13.03.2021
1529 Rain 6 987 87 10000 8.75 220 16:55 13.03.2021
1530 Clouds 6 987 87 10000 8.75 220 16:37 13.03.2021
1531 Rain 6 987 81 10000 9.77 230 15:57 13.03.2021
1532 Rain 7 987 76 10000 8.75 210 15:21 13.03.2021
1533 Rain 8 987 76 10000 11.83 220 14:42 13.03.2021
1534 Clouds 8 987 81 10000 5.66 220 14:23 13.03.2021
1535 Clouds 8 987 81 10000 5.66 220 14:23 13.03.2021
1536 Rain 8 987 76 10000 9.26 220 13:30 13.03.2021
1537 Rain 8 987 76 10000 10.29 220 12:54 13.03.2021
1538 Rain 8 987 76 10000 10.29 220 12:36 13.03.2021
1539 Clouds 7 988 87 10000 8.75 220 11:58 13.03.2021
1540 Clouds 6 988 87 10000 8.75 220 11:39 13.03.2021
1541 Rain 6 988 87 9000 14.92 210 11:21 13.03.2021
1542 Rain 5 988 93 10000 6.69 170 10:36 13.03.2021
1543 Rain 5 988 93 10000 8.23 170 10:18 13.03.2021
1544 Rain 5 989 93 10000 8.23 160 09:34 13.03.2021
1545 Rain 5 991 93 9000 7.72 160 08:55 13.03.2021
1546 Rain 5 992 93 9000 6.69 160 08:36 13.03.2021
1547 Rain 5 992 93 9000 6.69 160 08:18 13.03.2021
1548 Rain 4 992 93 10000 6.69 170 07:39 13.03.2021
1549 Clear 3 995 93 10000 4.63 200 05:31 13.03.2021
1550 Clear 3 997 93 10000 6.69 220 02:42 13.03.2021
1551 Clouds 4 997 87 10000 5.66 220 00:44 13.03.2021
1552 Clouds 4 997 87 10000 6.69 230 23:49 12.03.2021
1553 Clear 4 997 87 10000 7.72 230 23:30 12.03.2021
1554 Clouds 4 997 87 10000 6.69 240 22:42 12.03.2021
1555 Clouds 4 997 81 10000 7.2 230 22:23 12.03.2021
1556 Clouds 4 997 87 10000 6.69 230 21:42 12.03.2021
1557 Clouds 4 997 93 10000 7.2 220 21:24 12.03.2021
1558 Clouds 4 997 93 10000 7.72 220 20:55 12.03.2021
1559 Clouds 4 997 93 10000 7.72 210 20:32 12.03.2021
1560 Clouds 4 997 93 8000 6.69 250 19:56 12.03.2021
1561 Rain 6 996 81 10000 6.69 190 19:38 12.03.2021
1562 Rain 7 997 81 10000 7.2 200 18:59 12.03.2021
1563 Rain 7 997 81 10000 7.2 200 18:35 12.03.2021
1564 Clouds 7 998 81 10000 6.17 220 17:49 12.03.2021
1565 Clouds 7 999 81 10000 4.63 230 17:30 12.03.2021
1566 Clouds 7 999 81 10000 6.17 210 16:55 12.03.2021
1567 Clouds 6 999 87 8000 8.23 230 16:36 12.03.2021
1568 Rain 7 999 71 10000 7.2 220 15:52 12.03.2021
1569 Rain 8 1000 66 10000 8.23 210 15:28 12.03.2021
1570 Rain 8 1000 71 10000 8.75 220 14:48 12.03.2021
1571 Clouds 8 1001 61 10000 8.23 240 14:21 12.03.2021
1572 Clouds 8 1001 66 10000 8.75 230 13:44 12.03.2021
1573 Clouds 8 1001 66 10000 7.72 240 13:21 12.03.2021
1574 Clouds 8 1001 66 10000 8.75 240 12:57 12.03.2021
1575 Clouds 8 1001 66 10000 8.75 240 12:38 12.03.2021
1576 Clouds 8 1002 66 10000 8.23 230 12:19 12.03.2021
1577 Clouds 7 1001 70 10000 7.2 240 11:49 12.03.2021
1578 Clouds 7 1001 70 10000 8.75 240 11:22 12.03.2021
1579 Clouds 7 1001 70 10000 8.75 240 10:50 12.03.2021
1580 Clouds 7 1001 70 10000 8.75 240 10:25 12.03.2021
1581 Clouds 6 1001 75 10000 7.72 250 09:52 12.03.2021
1582 Clouds 6 1001 70 10000 7.72 250 09:20 12.03.2021
1583 Clouds 6 1001 75 10000 6.69 250 08:44 12.03.2021
1584 Clouds 6 1000 75 10000 7.2 260 07:56 12.03.2021
1585 Clouds 6 999 75 10000 7.72 260 07:31 12.03.2021
1586 Clouds 6 999 75 10000 7.72 260 06:49 12.03.2021
1587 Clouds 6 998 75 10000 7.2 260 06:26 12.03.2021
1588 Clouds 6 996 81 10000 5.66 240 02:20 12.03.2021
1589 Clear 6 995 81 10000 5.66 240 00:19 12.03.2021
1590 Clouds 6 994 76 10000 6.69 250 23:25 11.03.2021
1591 Clouds 6 994 76 10000 5.14 240 22:43 11.03.2021
1592 Clouds 6 993 76 10000 4.63 240 22:24 11.03.2021
1593 Clouds 7 993 71 10000 5.66 240 21:46 11.03.2021
1594 Clouds 7 993 66 10000 6.17 250 21:27 11.03.2021
1595 Clouds 7 993 66 10000 6.17 250 20:53 11.03.2021
1596 Clouds 8 993 66 10000 7.2 260 20:35 11.03.2021
1597 Clouds 8 992 66 10000 8.23 260 19:58 11.03.2021
1598 Clouds 8 992 66 10000 8.23 260 19:39 11.03.2021
1599 Clouds 8 992 71 10000 8.75 270 19:19 11.03.2021
1600 Clouds 8 991 71 10000 10.29 260 18:43 11.03.2021
1601 Clouds 8 991 66 10000 12.35 260 18:24 11.03.2021
1602 Clouds 9 990 71 10000 11.32 260 17:42 11.03.2021
1603 Rain 9 989 81 10000 10.29 260 16:43 11.03.2021
1604 Clouds 9 988 81 10000 12.86 240 16:25 11.03.2021
1605 Clouds 9 988 87 10000 10.8 240 15:45 11.03.2021
1606 Rain 9 988 81 10000 13.89 230 15:21 11.03.2021
1607 Rain 9 988 81 10000 13.89 230 15:21 11.03.2021
1608 Rain 9 988 81 10000 13.89 230 15:21 11.03.2021
1609 Rain 10 988 76 10000 10.29 240 14:46 11.03.2021
1610 Rain 10 988 81 10000 9.77 240 14:19 11.03.2021
1611 Rain 12 988 66 10000 12.86 230 13:46 11.03.2021
1612 Clouds 12 988 66 10000 10.8 230 13:28 11.03.2021
1613 Clouds 11 989 82 10000 6.69 250 12:57 11.03.2021
1614 Clouds 10 989 81 10000 10.8 210 12:37 11.03.2021
1615 Rain 10 989 81 10000 10.8 210 12:19 11.03.2021
1616 Clouds 11 989 76 10000 10.8 210 11:42 11.03.2021
1617 Clouds 10 990 87 10000 9.26 210 11:20 11.03.2021
1618 Drizzle 9 991 87 10000 8.75 200 10:39 11.03.2021
1619 Clouds 8 991 93 5000 9.77 200 10:19 11.03.2021
1620 Rain 7 992 87 10000 9.26 190 09:39 11.03.2021
1621 Rain 7 993 87 10000 7.72 190 09:21 11.03.2021
1622 Clouds 7 993 93 10000 8.23 180 08:46 11.03.2021
1623 Mist 6 994 93 5000 6.69 170 08:18 11.03.2021
1624 Clouds 6 995 93 7000 6.17 190 07:29 11.03.2021
1625 Rain 6 996 93 7000 7.2 180 06:50 11.03.2021
1626 Rain 6 996 93 7000 7.2 180 06:25 11.03.2021
1627 Rain 5 1002 93 7000 9.77 170 02:50 11.03.2021
1628 -273 0 0 0 0 0 00:59 11.03.2021
1629 Rain 6 1007 75 10000 7.2 140 23:32 10.03.2021
1630 Rain 6 1007 75 10000 7.2 140 23:32 10.03.2021
1631 Clouds 6 1008 75 10000 7.2 150 22:57 10.03.2021
1632 Rain 6 1008 75 10000 7.2 150 22:33 10.03.2021
1633 Rain 6 1009 70 10000 6.17 150 21:47 10.03.2021
1634 Clouds 6 1010 70 10000 5.66 150 21:25 10.03.2021
1635 Clouds 6 1011 70 10000 6.17 150 20:48 10.03.2021
1636 Clouds 6 1011 70 10000 6.17 150 20:48 10.03.2021
1637 Clouds 6 1012 70 10000 5.66 150 20:30 10.03.2021
1638 Clouds 6 1012 70 10000 5.66 150 20:30 10.03.2021
1639 Clear 6 1012 70 10000 6.17 150 19:54 10.03.2021
1640 Rain 6 1013 70 10000 6.69 160 19:30 10.03.2021
1641 Rain 6 1013 70 10000 6.69 170 18:55 10.03.2021
1642 Clouds 6 1014 70 10000 6.69 170 18:36 10.03.2021
1643 Clouds 6 1014 70 10000 6.69 170 18:18 10.03.2021
1644 Drizzle 6 1014 70 10000 6.17 180 17:41 10.03.2021
1645 Clouds 6 1014 65 10000 7.2 170 17:19 10.03.2021
1646 Clouds 7 1014 61 10000 6.17 170 16:47 10.03.2021
1647 Clouds 7 1014 61 10000 7.72 160 16:25 10.03.2021
1648 Clouds 7 1015 61 10000 6.17 180 15:51 10.03.2021
1649 Clouds 7 1015 61 10000 7.72 170 15:25 10.03.2021
1650 Clouds 7 1015 61 10000 6.17 180 14:57 10.03.2021
1651 Clouds 7 1016 65 10000 7.2 170 14:22 10.03.2021
1652 Clouds 7 1017 70 10000 6.69 170 13:58 10.03.2021
1653 Clouds 6 1017 65 10000 6.17 160 13:31 10.03.2021
1654 Clouds 6 1017 70 10000 5.14 170 12:53 10.03.2021
1655 Clouds 5 1017 75 10000 4.63 180 12:28 10.03.2021
1656 Clear 5 1018 70 10000 5.14 170 11:56 10.03.2021
1657 Clouds 4 1018 75 10000 5.14 170 11:29 10.03.2021
1658 Clouds 4 1018 70 10000 4.63 150 10:56 10.03.2021
1659 Clouds 3 1018 70 10000 3.6 160 10:34 10.03.2021
1660 Clouds 3 1018 65 10000 3.09 150 09:57 10.03.2021
1661 Clouds 3 1018 65 10000 3.09 150 09:38 10.03.2021
1662 Clouds 2 1018 64 10000 3.6 150 09:19 10.03.2021
1663 Clouds 2 1018 64 10000 3.6 150 08:45 10.03.2021
1664 Clear 1 1018 64 10000 3.09 150 08:27 10.03.2021
1665 Clear 0 1018 74 10000 2.57 150 07:46 10.03.2021
1666 Clear 0 1018 74 10000 1.03 0 07:25 10.03.2021
1667 Clear 0 1018 69 10000 1.54 100 06:52 10.03.2021
1668 Clouds 2 1018 75 10000 1.54 70 02:45 10.03.2021
1669 Clouds 2 1018 70 10000 1.54 60 00:39 10.03.2021
1670 Clouds 2 1018 70 10000 2.06 60 23:47 09.03.2021
1671 Clouds 2 1019 75 10000 1.03 60 22:58 09.03.2021
1672 Clouds 3 1019 75 10000 1.03 60 22:38 09.03.2021
1673 Clouds 3 1019 75 10000 1.03 20 22:18 09.03.2021
1674 Clouds 3 1019 70 10000 1.03 0 21:42 09.03.2021
1675 Clouds 3 1019 70 10000 0.51 0 21:22 09.03.2021
1676 Clouds 3 1019 75 10000 1.03 0 20:56 09.03.2021
1677 Clouds 3 1018 65 10000 2.06 110 20:37 09.03.2021
1678 Clouds 3 1018 65 10000 2.06 110 20:19 09.03.2021
1679 Clouds 3 1018 65 10000 1.54 100 19:43 09.03.2021
1680 Clouds 3 1018 65 10000 2.06 100 19:25 09.03.2021
1681 Clouds 3 1018 65 10000 2.06 100 18:42 09.03.2021
1682 Clouds 3 1018 65 10000 2.57 100 18:20 09.03.2021
1683 Clouds 3 1018 65 10000 2.06 110 17:47 09.03.2021
1684 Clouds 3 1017 65 10000 3.6 130 17:27 09.03.2021
1685 Clouds 3 1017 70 10000 3.6 120 16:41 09.03.2021
1686 Clouds 3 1017 70 10000 3.6 130 16:22 09.03.2021
1687 Clouds 3 1017 70 10000 5.14 120 15:57 09.03.2021
1688 Clouds 3 1018 75 10000 4.63 130 15:28 09.03.2021
1689 Clouds 3 1018 70 10000 5.14 130 14:52 09.03.2021
1690 Clouds 3 1018 70 10000 5.14 120 14:27 09.03.2021
1691 Clouds 2 1018 75 10000 5.14 120 13:43 09.03.2021
1692 Clouds 2 1018 75 10000 4.63 110 13:22 09.03.2021
1693 Snow 2 1018 80 10000 4.12 110 12:55 09.03.2021
1694 Snow 1 1018 80 10000 4.12 110 12:37 09.03.2021
1695 Snow 1 1018 86 10000 3.09 100 11:58 09.03.2021
1696 Snow 1 1018 86 10000 3.09 100 11:39 09.03.2021
1697 Snow 1 1018 86 10000 2.57 100 11:19 09.03.2021
1698 Snow 0 1018 86 10000 3.09 100 10:41 09.03.2021
1699 Snow 0 1018 86 10000 3.6 90 10:22 09.03.2021
1700 Snow 0 1019 86 10000 3.09 110 09:58 09.03.2021
1701 Snow 0 1019 86 10000 3.6 130 09:37 09.03.2021
1702 Snow 0 1019 86 10000 3.6 130 09:18 09.03.2021
1703 Snow 0 1018 80 10000 3.6 110 08:35 09.03.2021
1704 Snow 0 1019 80 9000 3.09 150 07:48 09.03.2021
1705 Snow 0 1019 80 7000 2.57 140 07:28 09.03.2021
1706 Snow 0 1019 80 7000 2.57 140 07:28 09.03.2021
1707 Snow 0 1019 80 9000 2.06 120 06:59 09.03.2021
1708 Snow 1 1019 60 10000 3.09 150 05:54 09.03.2021
1709 Clear 1 1019 60 10000 3.09 130 03:51 09.03.2021
1710 Clear 2 1021 64 10000 2.57 120 00:18 09.03.2021
1711 Clear 2 1021 60 10000 2.57 120 23:42 08.03.2021
1712 Clear 2 1021 60 10000 3.09 120 23:23 08.03.2021
1713 Clear 2 1022 60 10000 3.09 120 22:44 08.03.2021
1714 Clear 3 1022 55 10000 3.6 110 22:26 08.03.2021
1715 Clear 3 1022 52 10000 3.6 110 21:54 08.03.2021
1716 Clear 3 1022 48 10000 2.57 100 21:35 08.03.2021
1717 Clear 3 1022 52 10000 2.57 110 20:45 08.03.2021
1718 Clear 3 1022 48 10000 2.57 100 20:25 08.03.2021
1719 Clear 3 1022 48 10000 2.57 120 19:58 08.03.2021
1720 Clear 4 1022 45 10000 3.09 120 19:28 08.03.2021
1721 Clear 4 1022 45 10000 2.57 150 18:42 08.03.2021
1722 Clear 4 1022 45 10000 3.6 160 18:20 08.03.2021
1723 Clear 5 1022 38 10000 4.12 160 17:51 08.03.2021
1724 Clear 5 1022 38 10000 3.6 180 17:26 08.03.2021
1725 Clear 6 1022 36 10000 2.06 120 16:48 08.03.2021
1726 Clear 6 1022 36 10000 2.06 100 16:29 08.03.2021
1727 Clear 7 1023 33 10000 2.06 0 15:51 08.03.2021
1728 Clear 7 1023 33 10000 2.57 0 15:29 08.03.2021
1729 Clear 7 1023 36 10000 2.57 0 14:46 08.03.2021
1730 Clear 7 1023 31 10000 2.57 0 14:20 08.03.2021
1731 Clear 6 1023 36 10000 3.09 120 13:43 08.03.2021
1732 Clear 6 1024 39 10000 2.57 0 13:20 08.03.2021
1733 Clear 5 1024 42 10000 1.54 160 12:46 08.03.2021
1734 Clear 5 1024 45 10000 1.54 210 12:27 08.03.2021
1735 Clear 4 1024 56 10000 0.51 0 11:44 08.03.2021
1736 Clear 3 1024 56 10000 1.03 0 11:19 08.03.2021
1737 Clear 3 1024 65 10000 2.06 80 10:44 08.03.2021
1738 Clear 2 1024 75 10000 1.54 70 10:26 08.03.2021
1739 Clear 2 1024 75 10000 0.51 0 09:42 08.03.2021
1740 Clear 0 1024 80 10000 0.51 0 09:23 08.03.2021
1741 Clear -3 1023 93 10000 1.54 300 08:29 08.03.2021
1742 Clear -4 1023 93 10000 1.03 0 07:48 08.03.2021
1743 Clear -4 1022 100 10000 1.03 310 07:20 08.03.2021
1744 Fog -3 1022 100 7000 1.66 28 05:18 08.03.2021
1745 Clear 0 1021 93 10000 2.06 350 01:27 08.03.2021
1746 Clouds 0 1021 93 10000 2.57 330 00:38 08.03.2021
1747 Clouds 1 1020 86 10000 2.06 310 23:51 07.03.2021
1748 Clouds 1 1020 86 10000 2.06 310 23:20 07.03.2021
1749 Clouds 1 1020 86 10000 2.06 320 22:45 07.03.2021
1750 Clouds 2 1020 80 10000 3.6 310 22:26 07.03.2021
1751 Clouds 3 1019 87 10000 3.6 310 21:49 07.03.2021
1752 Clouds 3 1019 81 10000 6.17 320 21:31 07.03.2021
1753 Clouds 4 1019 93 10000 4.12 310 20:58 07.03.2021
1754 Clouds 4 1019 93 10000 4.63 310 20:40 07.03.2021
1755 Clouds 4 1019 93 10000 4.63 310 20:18 07.03.2021
1756 Clouds 4 1019 93 6000 5.14 300 19:40 07.03.2021
1757 Clouds 4 1019 93 3500 5.14 280 19:22 07.03.2021
1758 Rain 4 1019 93 7000 3.6 270 18:51 07.03.2021
1759 Rain 4 1018 93 6000 4.12 260 18:21 07.03.2021
1760 Clouds 5 1019 93 6000 4.63 280 17:59 07.03.2021
1761 Clouds 5 1019 93 6000 4.63 280 17:38 07.03.2021
1762 Clouds 5 1019 81 6000 5.66 270 17:18 07.03.2021
1763 Rain 5 1019 75 9000 5.14 280 16:42 07.03.2021
1764 Rain 5 1019 75 10000 5.66 260 16:21 07.03.2021
1765 Clouds 5 1019 75 10000 5.66 260 16:21 07.03.2021
1766 Clouds 5 1019 75 10000 5.66 270 15:50 07.03.2021
1767 Clouds 5 1020 75 10000 6.69 280 15:31 07.03.2021
1768 Clouds 6 1020 75 10000 7.72 270 14:51 07.03.2021
1769 Clouds 5 1020 75 10000 7.72 270 14:29 07.03.2021
1770 Clouds 5 1021 70 10000 7.72 280 13:48 07.03.2021
1771 Clouds 5 1021 70 10000 6.69 270 13:26 07.03.2021
1772 Clouds 5 1021 65 10000 6.17 280 12:48 07.03.2021
1773 Clouds 5 1021 65 10000 6.69 280 12:30 07.03.2021
1774 Clouds 5 1022 65 10000 8.23 270 11:58 07.03.2021
1775 Clouds 5 1022 65 10000 5.66 270 11:23 07.03.2021
1776 Clouds 4 1022 70 10000 5.66 250 10:54 07.03.2021
1777 Clouds 4 1022 65 10000 6.17 260 10:36 07.03.2021
1778 Clouds 4 1022 65 10000 4.63 260 09:53 07.03.2021
1779 Clouds 3 1023 70 10000 4.63 270 09:27 07.03.2021
1780 Clouds 3 1023 70 10000 6.69 280 08:59 07.03.2021
1781 Clouds 3 1023 70 10000 6.69 280 08:39 07.03.2021
1782 Clouds 3 1023 75 10000 4.12 270 08:21 07.03.2021
1783 Clouds 3 1023 75 10000 4.63 270 06:25 07.03.2021
1784 Clouds 2 1026 75 10000 5.14 250 02:39 07.03.2021
1785 Clouds 2 1027 75 10000 3.6 260 00:34 07.03.2021
1786 Clouds 2 1028 81 10000 4.12 270 23:40 06.03.2021
1787 Clouds 2 1028 81 10000 4.12 270 23:20 06.03.2021
1788 Clouds 2 1028 81 10000 4.12 260 22:45 06.03.2021
1789 Clouds 2 1028 81 10000 3.6 260 22:21 06.03.2021
1790 Clouds 3 1028 81 10000 3.09 260 21:46 06.03.2021
1791 Clouds 3 1029 81 10000 4.63 270 21:20 06.03.2021
1792 Clouds 3 1029 81 10000 4.63 280 20:43 06.03.2021
1793 Clouds 4 1029 81 10000 5.14 290 20:19 06.03.2021
1794 Clouds 4 1029 81 10000 5.14 290 19:40 06.03.2021
1795 Clouds 4 1029 81 10000 5.66 280 19:18 06.03.2021
1796 Clouds 4 1029 75 10000 4.63 280 18:42 06.03.2021
1797 Clouds 5 1029 70 10000 6.69 290 18:22 06.03.2021
1798 Clouds 5 1029 70 10000 7.2 280 17:55 06.03.2021
1799 Clouds 5 1029 70 10000 7.2 280 17:33 06.03.2021
1800 Clouds 6 1029 70 10000 7.2 280 16:59 06.03.2021
1801 Clouds 6 1030 70 10000 7.2 290 16:37 06.03.2021
1802 Clouds 6 1030 70 10000 7.2 290 16:18 06.03.2021
1803 Clouds 6 1030 70 10000 7.72 300 15:41 06.03.2021
1804 Clouds 7 1030 65 10000 7.2 290 15:23 06.03.2021
1805 Clouds 6 1031 75 10000 5.66 290 14:33 06.03.2021
1806 Clouds 6 1031 81 10000 5.14 280 13:57 06.03.2021
1807 Clouds 5 1031 81 10000 5.14 280 13:38 06.03.2021
1808 Clouds 6 1031 81 10000 4.12 290 13:19 06.03.2021
1809 Clouds 5 1031 81 10000 5.66 300 12:44 06.03.2021
1810 Clouds 5 1031 81 10000 5.14 300 12:19 06.03.2021
1811 Clouds 5 1031 81 10000 4.63 290 11:48 06.03.2021
1812 Drizzle 4 1031 93 7000 4.12 290 11:21 06.03.2021
1813 Drizzle 4 1032 87 10000 4.12 300 10:48 06.03.2021
1814 Drizzle 3 1031 93 8000 4.12 300 10:18 06.03.2021
1815 Drizzle 3 1031 100 7000 3.09 280 09:41 06.03.2021
1816 Drizzle 3 1031 93 5000 3.09 270 09:19 06.03.2021
1817 Clouds 2 1031 93 10000 2.57 260 08:39 06.03.2021
1818 Clouds 1 1031 100 10000 3.6 270 07:57 06.03.2021
1819 Clouds 1 1030 100 10000 3.6 260 07:24 06.03.2021
1820 Clouds 1 1030 93 10000 3.6 260 06:58 06.03.2021
1821 Snow 0 1030 93 10000 3.6 260 05:34 06.03.2021
1822 Snow 0 1030 93 10000 3.6 260 05:34 06.03.2021
1823 Clear -2 1031 86 10000 2.57 260 02:38 06.03.2021
1824 Clear -2 1031 93 10000 1.03 0 00:48 06.03.2021
1825 Clear -1 1031 93 10000 1.03 0 23:54 05.03.2021
1826 Clear -1 1031 86 10000 1.54 250 23:29 05.03.2021
1827 Clear -1 1031 86 10000 1.03 250 22:49 05.03.2021
1828 Clear 0 1031 86 10000 1.03 0 22:25 05.03.2021
1829 Clear 0 1031 86 10000 1.54 260 21:54 05.03.2021
1830 Clear 1 1030 80 10000 2.06 280 21:36 05.03.2021
1831 Clear 1 1030 80 10000 2.57 280 20:59 05.03.2021
1832 Clear 1 1030 80 10000 2.57 280 20:41 05.03.2021
1833 Clear 2 1030 75 10000 2.57 270 20:23 05.03.2021
1834 Clear 2 1030 75 10000 3.09 280 19:43 05.03.2021
1835 Clear 3 1030 65 10000 3.09 280 19:21 05.03.2021
1836 Clouds 4 1029 56 10000 3.6 280 18:44 05.03.2021
1837 Clouds 4 1029 52 10000 4.63 280 18:25 05.03.2021
1838 Clouds 5 1029 48 10000 4.63 290 17:43 05.03.2021
1839 Clouds 6 1029 49 10000 4.63 290 17:24 05.03.2021
1840 Clouds 6 1028 49 10000 4.63 290 16:41 05.03.2021
1841 Clouds 7 1028 45 10000 4.63 290 16:23 05.03.2021
1842 Clear 7 1028 39 10000 4.63 310 15:53 05.03.2021
1843 Clear 7 1028 36 10000 4.63 290 15:26 05.03.2021
1844 Clouds 7 1028 39 10000 4.12 330 14:43 05.03.2021
1845 Clouds 6 1028 45 10000 3.6 320 14:24 05.03.2021
1846 Clouds 6 1028 42 10000 2.57 0 13:43 05.03.2021
1847 Clouds 6 1028 45 10000 4.12 300 13:21 05.03.2021
1848 Clear 5 1028 45 10000 3.6 310 12:43 05.03.2021
1849 Clear 4 1028 52 10000 3.09 320 11:39 05.03.2021
1850 Clear 4 1028 52 10000 4.12 320 11:39 05.03.2021
1851 Clear 3 1028 52 10000 4.12 320 11:19 05.03.2021
1852 Clear 3 1027 65 10000 3.6 330 10:57 05.03.2021
1853 Clear 3 1027 65 10000 3.6 330 10:37 05.03.2021
1854 Clear 2 1027 64 10000 2.06 310 10:18 05.03.2021
1855 Clear 1 1027 69 10000 2.57 320 09:38 05.03.2021
1856 Clear 0 1027 74 10000 2.06 320 09:20 05.03.2021
1857 Clear -1 1026 80 10000 1.03 0 08:39 05.03.2021
1858 Clear -3 1026 86 10000 0.51 0 08:20 05.03.2021
1859 Clear -3 1025 93 10000 1.03 0 07:34 05.03.2021
1860 Clear -3 1025 86 10000 3.09 330 06:35 05.03.2021
1861 Clear -3 1024 93 10000 2.06 320 05:42 05.03.2021
1862 Clear -2 1022 86 10000 3.09 330 01:18 05.03.2021
1863 Clouds -1 1022 74 10000 2.06 10 23:55 04.03.2021
1864 Clouds 0 1021 74 10000 2.57 10 23:24 04.03.2021
1865 Clouds 1 1021 74 10000 3.6 20 22:30 04.03.2021
1866 Clouds 1 1020 69 10000 3.6 20 21:54 04.03.2021
1867 Clouds 2 1020 64 10000 3.6 10 21:33 04.03.2021
1868 Clouds 3 1020 70 10000 4.63 20 20:58 04.03.2021
1869 Clouds 3 1020 81 10000 3.6 10 20:39 04.03.2021
1870 Clouds 3 1020 81 10000 3.6 10 20:20 04.03.2021
1871 Clouds 3 1019 81 10000 2.57 20 19:50 04.03.2021
1872 Clouds 3 1019 81 10000 3.09 30 19:23 04.03.2021
1873 Clouds 3 1019 81 10000 5.14 30 18:52 04.03.2021
1874 Clouds 3 1019 81 10000 5.14 30 18:52 04.03.2021
1875 Clouds 3 1018 81 10000 4.63 20 18:30 04.03.2021
1876 Clouds 4 1018 81 10000 5.14 30 17:50 04.03.2021
1877 Clouds 4 1018 87 10000 6.17 20 17:31 04.03.2021
1878 Clouds 4 1018 81 10000 6.17 30 16:56 04.03.2021
1879 Clouds 5 1017 75 10000 3.09 30 16:38 04.03.2021
1880 Clouds 5 1017 75 10000 3.09 30 16:19 04.03.2021
1881 Clouds 6 1017 75 10000 2.57 350 15:45 04.03.2021
1882 Clouds 6 1017 75 10000 3.09 350 15:24 04.03.2021
1883 Clouds 6 1017 75 10000 2.06 360 14:40 04.03.2021
1884 Clouds 6 1017 75 10000 3.6 330 13:59 04.03.2021
1885 Clouds 6 1017 75 10000 3.6 330 13:40 04.03.2021
1886 Clouds 6 1018 75 10000 4.12 310 13:19 04.03.2021
1887 Clouds 6 1018 75 10000 4.63 310 12:41 04.03.2021
1888 Clouds 5 1018 81 10000 3.6 270 11:51 04.03.2021
1889 Clouds 5 1018 81 10000 3.6 270 11:32 04.03.2021
1890 Clouds 4 1018 81 10000 3.6 270 10:58 04.03.2021
1891 Clouds 4 1018 81 10000 4.12 270 10:36 04.03.2021
1892 Clouds 4 1018 81 10000 3.6 260 09:55 04.03.2021
1893 Clouds 4 1019 81 10000 3.09 270 09:28 04.03.2021
1894 Clouds 4 1019 81 10000 3.6 270 08:53 04.03.2021
1895 Clouds 3 1019 87 10000 4.12 280 08:28 04.03.2021
1896 Clouds 3 1019 87 10000 5.14 300 07:37 04.03.2021
1897 Clouds 3 1019 87 10000 4.63 300 06:48 04.03.2021
1898 Clouds 3 1019 87 10000 4.63 280 06:21 04.03.2021
1899 Drizzle 2 1022 100 1600 5.66 300 02:39 04.03.2021
1900 Mist 3 1022 100 4000 6.17 290 00:21 04.03.2021
1901 Mist 4 1023 100 1300 6.69 290 22:39 03.03.2021
1902 Mist 3 1023 100 1300 6.69 290 22:21 03.03.2021
1903 Mist 4 1023 100 1300 6.17 290 21:41 03.03.2021
1904 Mist 4 1023 100 1500 4.63 280 21:23 03.03.2021
1905 Mist 4 1023 100 2200 5.14 290 20:55 03.03.2021
1906 Mist 4 1023 100 2200 5.14 290 20:37 03.03.2021
1907 Clouds 6 1023 87 7000 7.2 290 19:57 03.03.2021
1908 Clouds 6 1023 87 7000 7.2 290 19:38 03.03.2021
1909 Clouds 7 1023 87 8000 5.14 280 19:18 03.03.2021
1910 Clouds 7 1023 87 8000 5.14 280 19:18 03.03.2021
1911 Clouds 8 1023 81 8000 5.14 270 18:41 03.03.2021
1912 Clear 10 1023 71 10000 6.69 290 17:59 03.03.2021
1913 Clear 10 1023 71 10000 6.69 290 17:59 03.03.2021
1914 Clear 10 1023 71 10000 6.69 290 17:39 03.03.2021
1915 Clear 12 1023 62 10000 5.14 260 17:18 03.03.2021
1916 Clear 12 1023 58 10000 5.14 260 16:40 03.03.2021
1917 Clear 13 1023 58 10000 6.17 260 16:21 03.03.2021
1918 Clear 14 1023 54 10000 4.12 250 15:33 03.03.2021
1919 Clear 14 1024 54 10000 3.6 240 14:54 03.03.2021
1920 Clear 14 1024 58 10000 4.12 220 14:29 03.03.2021
1921 Clear 13 1024 62 10000 4.63 230 13:52 03.03.2021
1922 Clear 13 1025 54 10000 3.6 230 13:31 03.03.2021
1923 Clear 12 1025 54 10000 4.12 230 12:45 03.03.2021
1924 Clear 12 1026 58 10000 2.57 170 12:26 03.03.2021
1925 Clear 10 1026 62 10000 1.54 160 11:48 03.03.2021
1926 Clear 8 1026 71 10000 1.54 150 11:28 03.03.2021
1927 Clear 7 1026 81 10000 2.06 150 10:50 03.03.2021
1928 Clear 5 1027 87 9000 2.06 140 10:31 03.03.2021
1929 Mist 3 1027 100 5000 1.54 150 09:53 03.03.2021
1930 Fog 2 1027 100 350 2.06 160 09:35 03.03.2021
1931 Fog 1 1027 100 250 1.03 0 08:46 03.03.2021
1932 Fog 0 1027 100 250 1.03 0 08:22 03.03.2021
1933 Fog 0 1028 100 200 2.06 110 07:50 03.03.2021
1934 Fog 1 1028 100 2800 1.54 100 06:51 03.03.2021
1935 Fog 0 1028 100 7000 2.06 60 05:49 03.03.2021
1936 Fog 1 1028 100 7000 2.06 60 04:59 03.03.2021
1937 Fog 1 1028 93 10000 2.06 60 04:35 03.03.2021
1938 Fog 1 1029 100 10000 1.54 50 03:52 03.03.2021
1939 Clear 3 1031 93 10000 1.54 50 00:18 03.03.2021
1940 Clear 4 1031 87 10000 1.54 140 23:31 02.03.2021
1941 Clear 4 1031 87 10000 1.54 120 22:43 02.03.2021
1942 Clear 4 1031 81 10000 2.06 90 22:20 02.03.2021
1943 Clear 5 1031 75 10000 1.54 100 21:43 02.03.2021
1944 Clear 5 1031 70 10000 2.57 100 21:23 02.03.2021
1945 Clear 5 1031 70 10000 2.57 100 20:54 02.03.2021
1946 Clear 5 1031 70 10000 2.57 100 20:36 02.03.2021
1947 Clear 6 1032 65 10000 2.06 100 20:18 02.03.2021
1948 Clear 7 1032 61 10000 2.57 100 19:42 02.03.2021
1949 Clear 7 1032 61 10000 2.06 110 19:23 02.03.2021
1950 Clear 8 1032 57 10000 2.57 120 18:41 02.03.2021
1951 Clear 8 1032 61 10000 2.57 90 18:21 02.03.2021
1952 Clear 10 1032 58 10000 3.6 100 17:54 02.03.2021
1953 Clear 10 1032 58 10000 3.6 100 17:36 02.03.2021
1954 Clear 11 1032 58 10000 3.09 80 17:18 02.03.2021
1955 Clear 11 1032 50 10000 2.57 100 16:38 02.03.2021
1956 Clear 12 1032 50 10000 3.09 100 15:52 02.03.2021
1957 Clear 11 1032 50 10000 2.57 110 15:25 02.03.2021
1958 Clear 11 1033 54 10000 2.57 90 14:42 02.03.2021
1959 Clear 11 1033 50 10000 2.57 100 14:18 02.03.2021
1960 Clear 10 1033 62 10000 2.06 60 13:42 02.03.2021
1961 Clear 9 1034 66 10000 1.54 70 13:23 02.03.2021
1962 Clear 8 1034 66 9000 1.54 140 12:45 02.03.2021
1963 Clear 7 1034 76 9000 2.06 110 12:24 02.03.2021
1964 Clouds 6 1034 81 9000 1.03 0 11:44 02.03.2021
1965 Clouds 5 1035 87 8000 1.03 0 11:22 02.03.2021
1966 Mist 3 1035 93 3500 1.03 0 10:43 02.03.2021
1967 Fog 2 1035 93 550 1.03 0 10:24 02.03.2021
1968 Fog 0 1035 100 400 1.03 0 09:41 02.03.2021
1969 Fog -1 1034 100 150 1.03 50 09:22 02.03.2021
1970 Fog -1 1034 100 100 1.03 0 08:40 02.03.2021
1971 Fog -1 1034 100 100 1.03 160 08:22 02.03.2021
1972 Fog -1 1034 100 150 1.03 60 07:41 02.03.2021
1973 Fog -2 1034 93 6000 1.03 0 06:37 02.03.2021
1974 Fog -2 1034 100 5000 1.03 0 05:47 02.03.2021
1975 Fog -2 1034 100 5000 0.51 20 05:29 02.03.2021
1976 Fog -1 1035 100 1200 1.03 60 02:35 02.03.2021
1977 Fog 0 1035 100 900 0.51 0 01:42 02.03.2021
1978 Fog 0 1035 100 700 1.03 330 01:19 02.03.2021
1979 Fog 1 1035 100 7000 0.51 0 23:29 01.03.2021
1980 Fog 1 1035 100 7000 1.03 360 22:43 01.03.2021
1981 Fog 2 1035 100 8000 0.51 40 22:25 01.03.2021
1982 Fog 2 1035 100 8000 1.03 340 21:52 01.03.2021
1983 Fog 2 1035 100 10000 1.03 340 21:24 01.03.2021
1984 Fog 3 1035 100 10000 1.03 310 20:59 01.03.2021
1985 Fog 3 1035 100 10000 1.03 310 20:41 01.03.2021
1986 Fog 3 1035 100 10000 1.03 360 20:19 01.03.2021
1987 Clear 4 1035 100 10000 1.03 320 19:43 01.03.2021
1988 Clear 5 1035 93 10000 1.54 320 19:20 01.03.2021
1989 Clear 6 1034 81 10000 2.06 320 18:42 01.03.2021
1990 Clear 6 1034 81 10000 2.57 320 18:22 01.03.2021
1991 Clear 7 1034 81 10000 3.09 330 17:46 01.03.2021
1992 Clear 7 1034 81 10000 3.09 320 17:21 01.03.2021
1993 Clear 7 1035 76 10000 3.6 320 16:46 01.03.2021
1994 Clouds 8 1035 76 10000 3.09 320 16:26 01.03.2021
1995 Clouds 8 1035 76 10000 2.57 310 15:47 01.03.2021
1996 Clouds 8 1035 76 10000 2.57 310 15:22 01.03.2021
1997 Clouds 8 1035 71 10000 2.06 300 14:57 01.03.2021
1998 Clouds 8 1036 71 10000 1.54 310 14:39 01.03.2021
1999 Clouds 7 1036 76 10000 1.03 0 13:50 01.03.2021
2000 Clouds 7 1036 76 10000 1.03 0 13:28 01.03.2021
2001 Clouds 6 1036 81 10000 1.54 350 12:59 01.03.2021
2002 Clouds 6 1036 81 10000 1.54 350 12:41 01.03.2021
2003 Clouds 5 1036 87 10000 0.51 0 12:21 01.03.2021
2004 Clouds 4 1036 87 10000 1.54 330 11:47 01.03.2021
2005 Clouds 4 1036 87 10000 1.03 0 11:22 01.03.2021
2006 Clouds 3 1036 93 8000 1.54 190 10:37 01.03.2021
2007 Clouds 3 1036 93 8000 1.54 190 10:19 01.03.2021
2008 Clouds 3 1036 93 8000 1.03 0 09:50 01.03.2021
2009 Clouds 3 1036 93 6000 1.54 280 09:28 01.03.2021
2010 Clouds 3 1036 93 6000 2.06 320 08:55 01.03.2021
2011 Clouds 3 1036 93 6000 2.06 320 08:55 01.03.2021
2012 Clouds 3 1036 93 6000 2.06 310 08:30 01.03.2021
2013 Mist 3 1036 100 3600 2.06 290 07:19 01.03.2021
2014 Drizzle 3 1036 100 4200 1.03 0 06:24 01.03.2021
2015 Mist 4 1036 100 3000 1.54 260 02:38 01.03.2021
2016 Mist 3 1036 100 1000 1.54 240 23:47 28.02.2021
2017 Mist 3 1036 100 1300 1.54 270 22:57 28.02.2021
2018 Mist 3 1036 100 1300 2.06 280 22:37 28.02.2021
2019 Mist 3 1036 100 1300 1.54 270 22:37 28.02.2021
2020 Mist 4 1036 100 1300 2.06 280 22:18 28.02.2021
2021 Mist 4 1036 100 1000 2.57 290 21:43 28.02.2021
2022 Mist 4 1035 100 1000 2.57 290 21:23 28.02.2021
2023 Mist 4 1036 93 1100 3.09 290 20:39 28.02.2021
2024 Fog 4 1036 100 1600 3.6 290 20:19 28.02.2021
2025 Mist 4 1036 100 2400 3.6 290 19:46 28.02.2021
2026 Mist 5 1036 100 5000 3.6 290 19:27 28.02.2021
2027 Clouds 5 1036 93 10000 4.63 300 18:47 28.02.2021
2028 Clouds 5 1036 93 10000 4.12 290 18:26 28.02.2021
2029 Clouds 6 1036 87 10000 4.63 290 17:56 28.02.2021
2030 Clouds 6 1036 87 10000 4.12 290 17:37 28.02.2021
2031 Clouds 7 1036 87 10000 4.12 290 17:18 28.02.2021
2032 Clouds 7 1036 81 10000 5.14 280 16:44 28.02.2021
2033 Clouds 8 1036 81 10000 4.63 280 16:26 28.02.2021
2034 Clouds 8 1036 81 10000 4.12 270 15:51 28.02.2021
2035 Clouds 8 1036 81 10000 4.12 290 15:26 28.02.2021
2036 Clouds 8 1036 76 10000 3.6 290 14:58 28.02.2021
2037 Clouds 8 1037 81 10000 2.57 290 14:32 28.02.2021
2038 Clouds 7 1037 87 10000 3.09 290 13:58 28.02.2021
2039 Clouds 7 1037 87 10000 3.09 290 13:37 28.02.2021
2040 Clouds 7 1037 87 10000 2.06 300 13:18 28.02.2021
2041 Clouds 7 1037 87 10000 2.57 290 12:51 28.02.2021
2042 Clouds 6 1038 87 10000 2.57 300 12:31 28.02.2021
2043 Clouds 6 1038 87 10000 2.57 300 11:56 28.02.2021
2044 Clouds 6 1038 87 10000 3.09 320 11:37 28.02.2021
2045 Clouds 5 1038 87 10000 3.09 320 11:18 28.02.2021
2046 Clouds 5 1038 93 10000 3.6 320 10:40 28.02.2021
2047 Clouds 5 1037 93 8000 3.09 300 10:20 28.02.2021
2048 Clouds 5 1038 93 6000 2.57 310 09:39 28.02.2021
2049 Drizzle 5 1038 93 4000 2.57 290 09:20 28.02.2021
2050 Drizzle 4 1038 100 3000 1.54 280 08:43 28.02.2021
2051 Drizzle 4 1038 100 3000 1.54 290 08:24 28.02.2021
2052 Mist 4 1037 100 3000 2.06 320 07:46 28.02.2021
2053 Mist 4 1038 100 2500 3.09 320 07:25 28.02.2021
2054 Mist 4 1038 100 3200 4.12 320 06:24 28.02.2021
2055 Mist 3 1037 100 1200 3.09 280 05:20 28.02.2021
2056 Fog 3 1038 100 800 4.12 290 02:29 28.02.2021
2057 Fog 3 1038 100 1000 3.6 280 01:35 28.02.2021
2058 Fog 3 1038 100 1000 2.57 290 00:42 28.02.2021
2059 Fog 3 1038 100 1100 2.57 270 00:21 28.02.2021
2060 Fog 3 1038 100 1800 3.6 280 23:44 27.02.2021
2061 Fog 3 1039 100 900 3.09 280 23:18 27.02.2021
2062 Fog 2 1039 100 900 2.57 290 22:43 27.02.2021
2063 Fog 3 1038 93 800 2.06 270 22:18 27.02.2021
2064 Fog 2 1038 100 2500 2.06 300 21:40 27.02.2021
2065 Clouds 3 1038 93 10000 3.09 300 21:22 27.02.2021
2066 Clear 4 1038 87 10000 2.06 270 20:47 27.02.2021
2067 Clouds 4 1038 87 10000 2.57 290 20:27 27.02.2021
2068 Clouds 5 1039 87 10000 3.6 290 19:45 27.02.2021
2069 Clouds 6 1038 87 10000 3.09 280 19:26 27.02.2021
2070 Clouds 7 1038 81 10000 2.57 280 18:44 27.02.2021
2071 Clouds 7 1038 81 10000 1.54 240 18:21 27.02.2021
2072 Clouds 8 1038 81 10000 2.06 280 17:55 27.02.2021
2073 Clouds 8 1038 81 10000 2.06 280 17:36 27.02.2021
2074 Clouds 8 1038 81 10000 3.09 280 17:18 27.02.2021
2075 Clouds 8 1038 81 10000 3.6 310 16:48 27.02.2021
2076 Clouds 8 1038 76 10000 4.63 320 16:25 27.02.2021
2077 Clouds 8 1038 81 10000 3.6 320 15:41 27.02.2021
2078 Clouds 8 1038 76 10000 3.6 340 14:57 27.02.2021
2079 Clouds 8 1038 76 10000 3.6 340 14:39 27.02.2021
2080 Clouds 8 1038 76 10000 4.12 330 14:19 27.02.2021
2081 Clouds 7 1039 81 10000 4.63 310 13:39 27.02.2021
2082 Clouds 7 1039 81 10000 4.63 310 13:18 27.02.2021
2083 Clouds 6 1039 87 10000 3.6 320 12:45 27.02.2021
2084 Drizzle 6 1039 93 10000 4.63 310 12:22 27.02.2021
2085 Drizzle 6 1038 87 10000 4.63 320 11:46 27.02.2021
2086 Drizzle 6 1038 87 10000 4.63 330 11:27 27.02.2021
2087 Drizzle 5 1038 93 9000 5.14 310 10:48 27.02.2021
2088 Drizzle 5 1037 93 10000 4.63 320 10:29 27.02.2021
2089 Drizzle 5 1037 87 10000 5.66 310 09:52 27.02.2021
2090 Drizzle 4 1037 93 9000 4.12 310 09:31 27.02.2021
2091 Drizzle 4 1037 93 6000 4.12 300 08:43 27.02.2021
2092 Drizzle 4 1037 93 5000 4.12 290 08:22 27.02.2021
2093 Drizzle 4 1036 93 5000 3.6 290 07:43 27.02.2021
2094 Clouds 4 1036 87 10000 4.63 300 06:55 27.02.2021
2095 Clouds 5 1034 87 10000 4.63 290 01:22 27.02.2021
2096 Clouds 5 1034 87 10000 4.63 290 01:22 27.02.2021
2097 Clouds 5 1034 93 10000 5.14 300 00:26 27.02.2021
2098 Clouds 5 1034 93 10000 5.66 290 23:40 26.02.2021
2099 Clouds 5 1034 93 10000 5.66 290 23:21 26.02.2021
2100 Clouds 5 1034 93 10000 5.14 290 22:34 26.02.2021
2101 Clouds 5 1033 93 10000 5.14 290 21:54 26.02.2021
2102 Clouds 5 1033 93 10000 5.14 280 21:35 26.02.2021
2103 Clouds 5 1033 93 10000 4.63 290 20:55 26.02.2021
2104 Clouds 5 1033 93 10000 5.14 280 20:37 26.02.2021
2105 Clouds 5 1033 93 10000 5.14 280 20:18 26.02.2021
2106 Clouds 6 1032 93 10000 5.14 280 19:26 26.02.2021
2107 Clouds 6 1032 87 10000 5.14 290 18:55 26.02.2021
2108 Clouds 6 1031 87 10000 5.14 280 18:25 26.02.2021
2109 Clouds 7 1031 87 10000 4.63 270 17:59 26.02.2021
2110 Clouds 7 1031 81 10000 5.66 280 17:38 26.02.2021
2111 Clouds 7 1031 81 10000 5.66 280 17:19 26.02.2021
2112 Clouds 8 1031 76 10000 6.17 290 16:46 26.02.2021
2113 Clouds 9 1031 76 10000 6.17 280 16:28 26.02.2021
2114 Clouds 9 1031 71 10000 7.72 300 15:45 26.02.2021
2115 Clouds 10 1031 71 10000 7.72 280 15:27 26.02.2021
2116 Clouds 10 1031 71 10000 7.2 300 14:58 26.02.2021
2117 Clouds 10 1031 71 10000 7.2 280 14:37 26.02.2021
2118 Clouds 9 1031 71 10000 7.2 280 14:18 26.02.2021
2119 Clouds 9 1031 71 10000 5.66 290 13:39 26.02.2021
2120 Clouds 9 1031 71 10000 5.66 290 13:20 26.02.2021
2121 Clouds 9 1031 71 10000 5.66 290 13:20 26.02.2021
2122 Clouds 9 1031 71 10000 6.69 300 12:33 26.02.2021
2123 Clouds 8 1030 76 10000 6.69 290 11:47 26.02.2021
2124 Clouds 8 1030 76 10000 6.17 280 11:20 26.02.2021
2125 Clouds 8 1030 76 10000 5.14 290 10:45 26.02.2021
2126 Clouds 5 1030 87 10000 5.14 280 09:49 26.02.2021
2127 Clear 5 1030 87 10000 4.63 270 09:29 26.02.2021
2128 Clear 5 1030 87 10000 3.6 270 08:53 26.02.2021
2129 Clear 5 1029 93 10000 3.09 270 08:19 26.02.2021
2130 Clear 5 1029 93 10000 3.09 270 07:48 26.02.2021
2131 Clear 5 1028 93 10000 3.09 260 06:36 26.02.2021
2132 Clear 5 1028 93 10000 3.6 290 05:26 26.02.2021
2133 Clear 6 1028 93 10000 2.57 260 03:46 26.02.2021
2134 Rain 7 1028 93 10000 2.57 280 01:37 26.02.2021
2135 Clouds 7 1027 93 10000 3.09 290 23:49 25.02.2021
2136 Clouds 8 1027 87 10000 4.12 300 23:28 25.02.2021
2137 Clouds 8 1027 87 10000 2.06 280 22:49 25.02.2021
2138 Clouds 8 1027 87 10000 2.06 280 22:19 25.02.2021
2139 Clouds 8 1027 87 10000 2.06 290 21:38 25.02.2021
2140 Clouds 8 1027 93 10000 2.06 270 21:19 25.02.2021
2141 Clear 9 1026 87 10000 3.09 300 20:41 25.02.2021
2142 Clear 9 1026 87 10000 3.6 290 20:22 25.02.2021
2143 Clear 9 1026 87 10000 3.09 280 19:52 25.02.2021
2144 Clear 10 1026 81 10000 3.6 300 19:22 25.02.2021
2145 Clouds 11 1025 82 10000 3.6 300 18:57 25.02.2021
2146 Clouds 11 1025 82 10000 4.63 310 18:24 25.02.2021
2147 Clouds 13 1024 76 10000 5.14 310 17:49 25.02.2021
2148 Clouds 14 1024 67 10000 6.69 310 17:26 25.02.2021
2149 Clouds 15 1024 55 10000 5.66 270 16:43 25.02.2021
2150 Clouds 16 1024 48 10000 5.66 270 16:25 25.02.2021
2151 Clouds 17 1024 48 10000 6.69 260 15:30 25.02.2021
2152 Clouds 17 1023 55 10000 6.69 250 14:57 25.02.2021
2153 Clouds 17 1023 55 10000 6.17 240 14:24 25.02.2021
2154 Clear 17 1023 55 10000 6.69 250 13:53 25.02.2021
2155 Clouds 17 1024 55 10000 4.63 240 13:26 25.02.2021
2156 Clouds 16 1024 63 10000 4.63 240 12:55 25.02.2021
2157 Clouds 15 1024 63 10000 4.63 240 12:22 25.02.2021
2158 Clouds 15 1024 63 10000 4.63 240 11:47 25.02.2021
2159 Clouds 14 1024 67 10000 4.63 240 11:20 25.02.2021
2160 Clouds 14 1024 67 10000 4.63 250 10:45 25.02.2021
2161 Clear 14 1024 72 10000 6.17 220 10:26 25.02.2021
2162 Clear 12 1024 71 10000 4.63 210 09:43 25.02.2021
2163 Clear 10 1024 93 10000 3.09 160 08:56 25.02.2021
2164 Clear 9 1024 93 10000 2.06 160 08:25 25.02.2021
2165 Clear 8 1024 87 10000 2.57 150 07:57 25.02.2021
2166 Clear 9 1024 93 10000 2.06 150 07:35 25.02.2021
2167 Clear 9 1024 87 10000 2.57 150 06:55 25.02.2021
2168 Clear 10 1025 81 10000 2.57 210 03:23 25.02.2021
2169 Clear 10 1025 81 10000 2.57 150 01:39 25.02.2021
2170 Clear 10 1026 81 10000 2.06 160 00:42 25.02.2021
2171 Clear 11 1026 76 10000 2.57 170 23:54 24.02.2021
2172 Clear 11 1026 71 10000 1.03 0 23:32 24.02.2021
2173 Clear 11 1026 71 10000 1.54 150 22:47 24.02.2021
2174 Clear 12 1026 66 10000 2.57 160 22:29 24.02.2021
2175 Clear 12 1026 67 10000 3.09 160 21:48 24.02.2021
2176 Clear 12 1026 66 10000 3.6 160 21:25 24.02.2021
2177 Clear 13 1026 66 10000 3.6 160 20:48 24.02.2021
2178 Clear 13 1027 62 10000 2.06 170 20:26 24.02.2021
2179 Clear 14 1027 62 10000 2.57 180 19:40 24.02.2021
2180 Clear 14 1027 62 10000 2.57 200 19:20 24.02.2021
2181 Clear 14 1027 62 10000 2.57 210 18:50 24.02.2021
2182 Clear 15 1027 62 10000 3.6 220 18:30 24.02.2021
2183 Clear 16 1027 55 10000 4.63 230 17:39 24.02.2021
2184 Clear 17 1027 51 10000 5.66 230 17:21 24.02.2021
2185 Clear 18 1027 48 10000 6.17 230 16:46 24.02.2021
2186 Clear 18 1027 52 10000 7.72 230 16:21 24.02.2021
2187 Clear 18 1027 52 10000 7.2 230 15:50 24.02.2021
2188 Clear 18 1027 52 10000 9.26 230 15:31 24.02.2021
2189 Clear 18 1027 52 10000 8.75 230 14:47 24.02.2021
2190 Clear 18 1027 52 10000 8.75 230 14:27 24.02.2021
2191 Clear 18 1027 52 10000 8.75 220 13:42 24.02.2021
2192 Clear 18 1028 52 10000 7.2 240 13:23 24.02.2021
2193 Clear 18 1028 52 10000 8.23 230 12:55 24.02.2021
2194 Clear 18 1028 52 10000 8.23 230 12:35 24.02.2021
2195 Clear 16 1028 63 10000 8.23 220 11:53 24.02.2021
2196 Clear 16 1028 63 10000 8.75 220 11:30 24.02.2021
2197 Clear 15 1028 63 10000 8.75 220 10:41 24.02.2021
2198 Clear 14 1028 67 10000 7.2 220 10:22 24.02.2021
2199 Clear 12 1029 71 10000 6.17 220 09:26 24.02.2021
2200 Clear 12 1028 76 10000 6.17 210 08:48 24.02.2021
2201 Clear 11 1028 76 10000 5.14 220 08:24 24.02.2021
2202 Clear 10 1028 81 10000 4.12 210 07:38 24.02.2021
2203 Clear 11 1028 81 10000 4.12 210 07:18 24.02.2021
2204 Clear 11 1029 82 10000 5.14 220 05:26 24.02.2021
2205 Clear 11 1029 93 10000 2.06 170 01:59 24.02.2021
2206 Clear 11 1029 82 10000 3.09 160 23:39 23.02.2021
2207 Clear 11 1029 82 10000 3.09 150 22:50 23.02.2021
2208 Clear 12 1029 76 10000 2.57 170 22:23 23.02.2021
2209 Clear 12 1029 82 10000 2.57 170 21:48 23.02.2021
2210 Clouds 12 1029 76 10000 3.09 180 21:25 23.02.2021
2211 Clouds 12 1029 76 10000 2.57 200 20:59 23.02.2021
2212 Clouds 12 1029 76 10000 2.57 200 20:38 23.02.2021
2213 Clouds 12 1030 76 10000 2.57 210 20:19 23.02.2021
2214 Clouds 13 1029 72 10000 3.09 220 19:44 23.02.2021
2215 Clouds 13 1029 72 10000 2.57 210 19:26 23.02.2021
2216 Clouds 14 1029 67 10000 4.12 200 18:44 23.02.2021
2217 Clouds 14 1028 72 10000 3.6 210 18:25 23.02.2021
2218 Clear 15 1028 67 10000 4.63 220 17:52 23.02.2021
2219 Clouds 16 1028 63 10000 5.14 220 17:27 23.02.2021
2220 Clouds 17 1028 59 10000 5.66 210 16:46 23.02.2021
2221 Clouds 17 1028 59 10000 6.69 210 16:24 23.02.2021
2222 Clouds 17 1028 59 10000 6.17 210 15:50 23.02.2021
2223 Clouds 17 1028 59 10000 4.63 230 15:31 23.02.2021
2224 Clear 16 1029 59 10000 5.14 230 14:57 23.02.2021
2225 Clear 16 1029 59 10000 5.14 230 14:38 23.02.2021
2226 Clouds 16 1029 59 10000 5.66 230 14:19 23.02.2021
2227 Clouds 15 1029 63 10000 5.66 230 13:38 23.02.2021
2228 Clear 15 1028 58 10000 5.14 200 13:18 23.02.2021
2229 Clear 15 1029 58 10000 4.63 190 12:44 23.02.2021
2230 Clear 14 1028 58 10000 4.12 170 12:19 23.02.2021
2231 Clear 14 1029 62 10000 3.09 180 11:45 23.02.2021
2232 Clear 12 1028 66 10000 3.09 160 11:19 23.02.2021
2233 Clear 11 1028 71 10000 2.06 140 10:40 23.02.2021
2234 Clear 11 1028 71 10000 2.57 150 10:19 23.02.2021
2235 Clear 10 1028 76 10000 2.06 150 09:42 23.02.2021
2236 Clear 9 1028 81 10000 2.06 150 09:21 23.02.2021
2237 Clear 8 1028 81 10000 2.57 160 08:48 23.02.2021
2238 Clear 8 1028 81 10000 1.54 150 08:21 23.02.2021
2239 Clear 8 1027 76 10000 0.51 0 07:48 23.02.2021
2240 Clear 8 1026 81 10000 1.03 0 05:30 23.02.2021
2241 Clear 9 1025 66 10000 2.06 160 04:25 23.02.2021
2242 Clear 9 1025 71 10000 3.6 220 02:34 23.02.2021
2243 Clear 11 1024 62 10000 4.12 220 00:20 23.02.2021
2244 Clear 11 1023 62 10000 4.12 220 23:46 22.02.2021
2245 Clear 11 1023 62 10000 4.63 220 23:20 22.02.2021
2246 Clear 12 1023 58 10000 4.63 230 22:40 22.02.2021
2247 Clear 11 1022 66 10000 3.09 210 22:20 22.02.2021
2248 Clear 11 1022 66 10000 1.54 160 21:40 22.02.2021
2249 Clear 11 1022 66 10000 1.54 160 21:22 22.02.2021
2250 Clear 10 1022 66 10000 2.06 190 20:51 22.02.2021
2251 Clear 11 1021 66 10000 1.03 160 20:27 22.02.2021
2252 Clear 12 1021 66 10000 1.03 200 19:51 22.02.2021
2253 Clear 13 1021 54 10000 2.06 210 19:31 22.02.2021
2254 Clear 13 1021 51 10000 2.57 210 18:56 22.02.2021
2255 Clear 13 1021 51 10000 2.57 210 18:37 22.02.2021
2256 Clear 14 1020 51 10000 3.09 220 18:18 22.02.2021
2257 Clear 16 1020 42 10000 2.57 220 17:25 22.02.2021
2258 Clear 18 1020 39 10000 3.09 230 16:54 22.02.2021
2259 Clear 18 1019 42 10000 3.09 180 16:32 22.02.2021
2260 Clear 19 1019 42 10000 2.06 180 15:46 22.02.2021
2261 Clear 19 1019 42 10000 2.57 210 15:27 22.02.2021
2262 Clear 19 1019 42 10000 3.09 170 14:47 22.02.2021
2263 Clear 17 1018 42 10000 3.09 160 14:28 22.02.2021
2264 Clear 17 1018 42 10000 3.09 180 13:46 22.02.2021
2265 Clear 16 1018 44 10000 3.6 160 12:56 22.02.2021
2266 Clear 16 1018 47 10000 3.09 150 12:36 22.02.2021
2267 Clear 16 1018 47 10000 3.09 150 12:18 22.02.2021
2268 Clear 13 1018 51 10000 3.09 160 11:41 22.02.2021
2269 Clear 13 1018 54 10000 3.09 150 11:22 22.02.2021
2270 Clear 11 1018 62 10000 3.09 150 10:46 22.02.2021
2271 Clear 10 1018 71 10000 3.09 150 10:26 22.02.2021
2272 Clear 8 1018 71 10000 2.57 160 09:43 22.02.2021
2273 Clear 7 1018 76 10000 3.09 140 09:25 22.02.2021
2274 Clear 5 1018 81 10000 2.57 140 08:50 22.02.2021
2275 Clear 5 1017 87 10000 1.54 130 08:29 22.02.2021
2276 Clear 4 1017 87 10000 2.06 160 07:57 22.02.2021
2277 Clear 4 1017 87 10000 1.54 150 07:26 22.02.2021
2278 Clear 5 1017 87 10000 1.54 100 06:44 22.02.2021
2279 Clear 5 1017 87 10000 2.57 130 05:45 22.02.2021
2280 Clear 6 1016 87 10000 1.54 100 03:29 22.02.2021
2281 Clear 6 1017 87 10000 1.54 120 02:51 22.02.2021
2282 Clear 6 1016 93 10000 1.03 110 00:46 22.02.2021
2283 Clear 7 1016 93 10000 1.03 90 00:23 22.02.2021
2284 Clear 7 1016 93 10000 1.03 0 23:33 21.02.2021
2285 Clear 6 1016 93 10000 1.03 0 22:54 21.02.2021
2286 Clear 7 1016 93 10000 1.54 60 22:24 21.02.2021
2287 Clear 7 1016 93 10000 1.54 60 21:48 21.02.2021
2288 Clear 8 1016 93 10000 1.03 50 21:30 21.02.2021
2289 Clear 8 1016 87 10000 1.03 70 20:47 21.02.2021
2290 Clear 8 1016 87 10000 1.54 60 20:20 21.02.2021
2291 Clear 9 1016 81 10000 1.03 0 19:54 21.02.2021
2292 Clear 10 1015 76 10000 0.51 0 19:34 21.02.2021
2293 Clear 11 1015 66 10000 2.06 80 18:59 21.02.2021
2294 Clear 12 1015 62 10000 2.57 100 18:26 21.02.2021
2295 Clear 14 1015 58 10000 2.57 120 17:47 21.02.2021
2296 Clear 15 1015 55 10000 2.57 140 17:20 21.02.2021
2297 Clear 17 1015 48 10000 3.09 150 16:47 21.02.2021
2298 Clear 17 1015 48 10000 4.12 160 16:26 21.02.2021
2299 Clear 17 1015 48 10000 1.54 160 15:25 21.02.2021
2300 Clear 17 1015 48 10000 2.57 150 14:58 21.02.2021
2301 Clear 17 1015 48 10000 2.57 150 14:37 21.02.2021
2302 Clear 16 1015 55 10000 2.06 160 13:57 21.02.2021
2303 Clear 16 1015 55 10000 3.09 140 13:29 21.02.2021
2304 Clear 15 1015 58 10000 2.57 180 12:50 21.02.2021
2305 Clear 14 1016 62 10000 3.09 170 12:26 21.02.2021
2306 Clear 13 1016 62 10000 2.57 150 11:42 21.02.2021
2307 Clear 10 1015 71 10000 2.57 150 10:50 21.02.2021
2308 Clear 9 1015 76 10000 2.57 150 10:22 21.02.2021
2309 Clear 8 1015 81 10000 2.57 140 09:51 21.02.2021
2310 Clear 7 1015 87 10000 2.06 150 09:26 21.02.2021
2311 Clear 6 1015 87 10000 2.57 150 08:43 21.02.2021
2312 Clear 6 1015 87 10000 2.57 150 08:19 21.02.2021
2313 Clear 6 1014 87 10000 2.57 150 07:30 21.02.2021
2314 Clear 6 1014 87 10000 2.57 150 06:46 21.02.2021
2315 Clear 7 1014 93 10000 3.09 140 02:45 21.02.2021
2316 Clear 7 1014 87 10000 3.09 140 02:24 21.02.2021
2317 Clear 8 1014 87 10000 4.12 150 00:37 21.02.2021
2318 Clear 8 1014 87 10000 4.12 150 00:18 21.02.2021
2319 Clear 9 1014 81 10000 4.63 150 22:59 20.02.2021
2320 Clear 9 1014 81 10000 4.63 150 22:40 20.02.2021
2321 Clear 9 1014 81 10000 3.6 150 22:21 20.02.2021
2322 Clear 10 1014 81 10000 3.6 150 21:41 20.02.2021
2323 Clear 10 1014 76 10000 4.63 150 21:20 20.02.2021
2324 Clear 11 1014 71 10000 5.14 140 20:42 20.02.2021
2325 Clear 11 1014 71 10000 4.63 150 20:21 20.02.2021
2326 Clear 11 1014 71 10000 4.63 150 19:52 20.02.2021
2327 Clear 11 1014 71 10000 4.63 140 19:27 20.02.2021
2328 Clear 11 1014 71 10000 4.12 150 18:39 20.02.2021
2329 Clear 11 1014 71 10000 4.12 140 18:20 20.02.2021
2330 Clear 13 1014 67 10000 3.6 150 17:38 20.02.2021
2331 Clear 14 1014 62 10000 5.14 140 16:56 20.02.2021
2332 Clear 15 1014 63 10000 5.66 140 16:32 20.02.2021
2333 Clear 15 1014 63 10000 5.66 140 15:53 20.02.2021
2334 Clear 15 1014 58 10000 4.12 140 15:31 20.02.2021
2335 Clear 14 1014 62 10000 5.14 140 14:47 20.02.2021
2336 Clear 14 1015 62 10000 4.63 130 14:23 20.02.2021
2337 Clear 13 1015 67 10000 3.6 130 13:48 20.02.2021
2338 Clear 13 1015 66 10000 4.12 140 13:24 20.02.2021
2339 Clear 11 1015 71 10000 4.12 140 12:50 20.02.2021
2340 Clear 11 1016 71 10000 3.6 150 12:24 20.02.2021
2341 Clear 10 1016 76 10000 4.63 150 11:44 20.02.2021
2342 Clear 9 1016 76 10000 4.63 140 11:26 20.02.2021
2343 Clear 8 1016 76 10000 4.63 160 10:50 20.02.2021
2344 Clear 7 1016 81 10000 3.6 150 09:59 20.02.2021
2345 Clear 6 1016 81 10000 3.6 150 09:40 20.02.2021
2346 Clear 5 1016 81 10000 4.63 140 08:49 20.02.2021
2347 Clear 5 1016 87 10000 3.09 140 08:19 20.02.2021
2348 Clear 6 1016 81 10000 3.6 150 03:40 20.02.2021
2349 Clear 6 1016 81 10000 3.6 140 02:30 20.02.2021
2350 Clear 6 1016 75 10000 3.6 140 01:51 20.02.2021
2351 Clear 6 1016 81 10000 4.12 140 00:48 20.02.2021
2352 Clear 6 1016 75 10000 3.6 150 00:24 20.02.2021
2353 Clear 6 1017 75 10000 3.09 150 23:19 19.02.2021
2354 Clear 6 1016 75 10000 3.6 150 22:42 19.02.2021
2355 Clear 6 1016 75 10000 3.6 170 22:19 19.02.2021
2356 Clear 6 1016 75 10000 4.12 160 21:39 19.02.2021
2357 Clear 6 1016 75 10000 3.6 150 21:20 19.02.2021
2358 Clear 6 1016 75 10000 3.09 150 20:40 19.02.2021
2359 Clear 6 1016 75 10000 3.09 150 20:22 19.02.2021
2360 Clear 6 1016 70 10000 3.6 150 19:44 19.02.2021
2361 Clear 6 1017 70 10000 3.09 170 19:20 19.02.2021
2362 Clear 7 1016 76 10000 3.09 170 18:46 19.02.2021
2363 Clear 7 1016 76 10000 3.09 160 18:26 19.02.2021
2364 Clear 9 1016 71 10000 4.12 210 17:36 19.02.2021
2365 Clear 9 1016 66 10000 4.63 220 16:41 19.02.2021
2366 Clouds 9 1016 66 10000 4.12 230 16:22 19.02.2021
2367 Clouds 9 1016 66 10000 5.14 230 15:54 19.02.2021
2368 Clouds 9 1016 71 10000 5.14 220 15:27 19.02.2021
2369 Clouds 9 1016 66 10000 5.14 230 14:49 19.02.2021
2370 Clouds 9 1016 71 10000 6.17 220 14:29 19.02.2021
2371 Clouds 9 1016 71 10000 5.14 230 13:56 19.02.2021
2372 Clouds 8 1016 76 10000 3.6 250 13:36 19.02.2021
2373 Clouds 7 1016 81 10000 5.66 250 12:54 19.02.2021
2374 Clouds 7 1016 87 10000 7.2 230 12:28 19.02.2021
2375 Clouds 7 1016 87 10000 5.14 240 11:59 19.02.2021
2376 Clouds 7 1015 87 10000 5.66 240 11:34 19.02.2021
2377 Clouds 6 1015 87 10000 6.69 230 10:55 19.02.2021
2378 Clouds 6 1015 87 10000 6.17 240 10:33 19.02.2021
2379 Clouds 5 1015 87 10000 5.14 240 09:58 19.02.2021
2380 Clouds 4 1014 87 10000 5.14 240 09:28 19.02.2021
2381 Clouds 4 1014 87 10000 5.14 240 08:55 19.02.2021
2382 Clouds 4 1013 87 10000 5.14 240 08:29 19.02.2021
2383 Clouds 4 1013 87 10000 5.14 230 07:57 19.02.2021
2384 Clouds 4 1013 87 10000 5.14 230 07:37 19.02.2021
2385 Clouds 4 1012 93 10000 4.63 240 07:19 19.02.2021
2386 Clouds 4 1012 100 10000 4.63 240 06:41 19.02.2021
2387 Clouds 5 1010 93 10000 4.12 240 04:42 19.02.2021
2388 Clouds 6 1008 93 10000 4.12 270 02:47 19.02.2021
2389 Rain 7 1006 93 10000 6.17 210 01:33 19.02.2021
2390 Rain 7 1006 87 10000 4.63 170 00:35 19.02.2021
2391 Rain 7 1006 81 10000 5.14 160 23:47 18.02.2021
2392 Rain 7 1006 81 10000 5.14 160 23:29 18.02.2021
2393 Rain 7 1006 81 10000 4.63 150 22:38 18.02.2021
2394 Clouds 7 1006 81 10000 5.14 140 22:18 18.02.2021
2395 Clouds 8 1007 71 10000 5.66 160 21:42 18.02.2021
2396 Rain 8 1007 71 10000 6.69 150 21:24 18.02.2021
2397 Clear 8 1007 71 10000 7.2 140 20:40 18.02.2021
2398 Rain 8 1007 71 10000 7.72 140 20:21 18.02.2021
2399 Clear 8 1008 71 10000 7.72 140 19:46 18.02.2021
2400 Clear 8 1008 71 10000 7.72 140 19:22 18.02.2021
2401 Clear 8 1008 71 10000 9.26 140 18:52 18.02.2021
2402 Clear 9 1008 71 10000 8.75 140 18:27 18.02.2021
2403 Clear 9 1009 71 10000 6.17 140 17:52 18.02.2021
2404 Clear 9 1009 66 10000 6.69 140 17:25 18.02.2021
2405 Clear 10 1010 66 10000 6.69 140 16:52 18.02.2021
2406 Clear 10 1010 66 10000 7.2 140 16:34 18.02.2021
2407 Clear 11 1011 62 10000 7.2 160 15:44 18.02.2021
2408 Clear 11 1011 66 10000 6.69 140 15:24 18.02.2021
2409 Clear 11 1011 66 10000 6.69 140 14:58 18.02.2021
2410 Clear 11 1011 66 10000 6.69 140 14:36 18.02.2021
2411 Clear 11 1013 76 10000 5.14 140 13:58 18.02.2021
2412 Clear 11 1013 76 10000 5.14 140 13:40 18.02.2021
2413 Clear 10 1013 76 10000 5.66 140 13:18 18.02.2021
2414 Clear 10 1014 81 10000 5.66 150 12:41 18.02.2021
2415 Clear 9 1014 81 10000 4.12 140 12:21 18.02.2021
2416 Clear 8 1014 81 10000 4.12 140 11:46 18.02.2021
2417 Clear 8 1015 87 10000 4.63 160 11:25 18.02.2021
2418 Clear 6 1015 93 10000 4.63 150 10:44 18.02.2021
2419 Clouds 6 1015 93 10000 4.12 150 10:25 18.02.2021
2420 Clouds 6 1015 87 10000 4.63 150 09:40 18.02.2021
2421 Clouds 6 1015 87 10000 4.12 150 09:21 18.02.2021
2422 Clouds 6 1015 93 10000 3.09 140 08:41 18.02.2021
2423 Clouds 6 1015 93 10000 4.12 140 08:23 18.02.2021
2424 Clouds 6 1015 93 10000 3.09 150 07:32 18.02.2021
2425 Clouds 6 1015 93 10000 2.57 140 06:53 18.02.2021
2426 Drizzle 7 1016 93 8000 4.12 210 02:54 18.02.2021
2427 Rain 7 1016 100 6000 4.12 200 23:55 17.02.2021
2428 Rain 7 1016 100 6000 3.6 200 23:30 17.02.2021
2429 Rain 7 1016 100 6000 2.57 170 22:53 17.02.2021
2430 Clouds 7 1016 93 6000 2.57 170 22:27 17.02.2021
2431 Rain 7 1016 93 7000 2.57 160 21:56 17.02.2021
2432 Rain 7 1016 93 7000 3.09 170 21:22 17.02.2021
2433 Clouds 7 1016 93 7000 3.09 170 20:52 17.02.2021
2434 Clouds 7 1016 87 10000 3.09 170 20:32 17.02.2021
2435 Clouds 7 1016 93 10000 3.09 180 19:51 17.02.2021
2436 Clouds 7 1016 93 10000 2.06 190 19:32 17.02.2021
2437 Clouds 7 1016 93 10000 1.54 200 18:49 17.02.2021
2438 Clouds 7 1015 93 10000 2.06 200 18:30 17.02.2021
2439 Clouds 7 1015 87 10000 2.57 240 17:42 17.02.2021
2440 Clouds 7 1015 87 10000 2.57 240 17:21 17.02.2021
2441 Clouds 7 1015 87 10000 2.57 240 16:49 17.02.2021
2442 Clouds 8 1015 81 10000 3.6 260 16:28 17.02.2021
2443 Clouds 8 1015 81 10000 3.6 260 15:45 17.02.2021
2444 Clouds 8 1015 81 10000 5.14 260 15:27 17.02.2021
2445 Clouds 8 1015 81 10000 5.14 260 15:27 17.02.2021
2446 Clouds 8 1014 87 10000 6.17 260 14:51 17.02.2021
2447 Clouds 8 1014 87 10000 5.14 260 14:29 17.02.2021
2448 Clouds 7 1014 93 10000 5.14 250 13:52 17.02.2021
2449 Clouds 7 1013 93 10000 5.66 250 13:33 17.02.2021
2450 Clouds 7 1013 93 9000 5.14 250 12:58 17.02.2021
2451 Clouds 7 1013 93 8000 4.63 250 12:26 17.02.2021
2452 Clouds 6 1012 93 8000 4.63 270 11:48 17.02.2021
2453 Clouds 6 1012 100 7000 5.14 260 11:29 17.02.2021
2454 Clouds 6 1012 100 7000 5.14 260 10:57 17.02.2021
2455 Clouds 6 1012 100 7000 5.14 260 10:39 17.02.2021
2456 Mist 6 1012 100 5000 5.14 250 10:20 17.02.2021
2457 Drizzle 6 1011 100 3000 5.14 250 09:40 17.02.2021
2458 Drizzle 6 1010 100 2800 5.66 250 08:58 17.02.2021
2459 Drizzle 6 1010 100 2400 5.14 250 08:37 17.02.2021
2460 Drizzle 6 1010 100 2400 5.14 250 08:18 17.02.2021
2461 Mist 6 1009 100 4000 5.14 250 07:23 17.02.2021
2462 Rain 5 1008 93 6000 5.14 250 03:54 17.02.2021
2463 Clouds 5 1007 100 10000 5.66 230 02:33 17.02.2021
2464 Rain 5 1007 93 10000 4.63 220 01:37 17.02.2021
2465 Clouds 4 1007 93 10000 2.06 160 00:29 17.02.2021
2466 Clouds 4 1008 100 10000 3.09 140 23:50 16.02.2021
2467 Clouds 4 1008 100 9000 3.09 150 23:32 16.02.2021
2468 Clouds 3 1008 100 9000 3.6 140 22:42 16.02.2021
2469 Clouds 3 1009 100 8000 3.6 150 22:22 16.02.2021
2470 Clouds 3 1009 100 6000 3.6 140 21:41 16.02.2021
2471 Mist 3 1009 100 4900 2.57 140 21:22 16.02.2021
2472 Mist 3 1010 100 4800 2.57 150 20:58 16.02.2021
2473 Mist 3 1010 100 4800 2.57 150 20:39 16.02.2021
2474 Mist 3 1010 100 4800 3.09 160 20:20 16.02.2021
2475 Mist 3 1010 93 4500 3.09 160 19:40 16.02.2021
2476 Mist 4 1010 93 3500 3.6 150 19:22 16.02.2021
2477 Mist 4 1010 100 3200 5.14 140 18:40 16.02.2021
2478 Mist 4 1011 100 3600 4.12 140 18:21 16.02.2021
2479 Mist 4 1011 100 3000 3.09 140 17:50 16.02.2021
2480 Mist 4 1012 100 3800 4.12 130 17:25 16.02.2021
2481 Mist 5 1012 93 4000 3.6 150 16:51 16.02.2021
2482 Mist 5 1013 93 2700 4.12 160 16:29 16.02.2021
2483 Mist 5 1013 93 2600 4.12 170 15:47 16.02.2021
2484 Mist 5 1014 93 2800 3.6 160 15:26 16.02.2021
2485 Mist 4 1014 100 2200 3.6 160 14:55 16.02.2021
2486 Mist 4 1014 100 2200 3.6 160 14:36 16.02.2021
2487 Mist 4 1014 100 1700 3.6 160 14:18 16.02.2021
2488 Mist 4 1015 93 1600 4.12 150 13:37 16.02.2021
2489 Mist 4 1015 100 1400 3.6 130 12:47 16.02.2021
2490 Rain 3 1016 100 2000 3.09 140 12:26 16.02.2021
2491 Mist 3 1017 100 2000 2.06 130 11:58 16.02.2021
2492 Mist 3 1017 100 2000 2.06 150 11:38 16.02.2021
2493 Mist 3 1017 100 2000 2.06 150 11:19 16.02.2021
2494 Fog 3 1017 100 1300 2.06 140 10:45 16.02.2021
2495 Fog 2 1017 100 600 2.06 160 10:26 16.02.2021
2496 Drizzle 2 1018 100 700 2.06 180 09:50 16.02.2021
2497 Fog 2 1017 100 600 2.57 110 09:26 16.02.2021
2498 Drizzle 2 1017 100 800 2.06 150 08:51 16.02.2021
2499 Drizzle 2 1018 100 1200 1.54 190 08:26 16.02.2021
2500 Drizzle 2 1018 100 1200 2.06 200 07:42 16.02.2021
2501 Fog 2 1018 100 700 1.03 0 06:25 16.02.2021
2502 Fog 1 1020 100 800 1.03 230 02:19 16.02.2021
2503 Mist 1 1019 100 1800 1.54 200 23:52 15.02.2021
2504 Mist 1 1020 100 3500 1.54 230 23:27 15.02.2021
2505 Mist 1 1020 93 4500 1.03 0 22:47 15.02.2021
2506 Mist 0 1019 100 4500 2.06 170 22:26 15.02.2021
2507 Snow 0 1019 100 4500 2.06 140 21:43 15.02.2021
2508 Snow 0 1019 93 4500 2.06 140 21:24 15.02.2021
2509 Snow 0 1020 100 4800 1.54 150 20:54 15.02.2021
2510 Snow 0 1020 100 4800 1.54 150 20:36 15.02.2021
2511 Rain 0 1020 100 6000 3.6 150 19:51 15.02.2021
2512 Snow 0 1020 100 1200 4.12 150 19:26 15.02.2021
2513 Snow -1 1020 93 700 4.63 150 18:57 15.02.2021
2514 Snow -1 1020 93 1200 5.66 150 18:29 15.02.2021
2515 Snow -1 1021 93 2500 6.17 150 17:58 15.02.2021
2516 Snow -1 1021 93 2500 6.17 150 17:40 15.02.2021
2517 Snow -1 1021 86 3500 5.14 150 17:20 15.02.2021
2518 Snow -1 1021 80 1800 8.23 150 16:42 15.02.2021
2519 Snow 1 1022 59 9000 7.72 140 16:21 15.02.2021
2520 Snow 1 1022 59 9000 7.2 140 15:42 15.02.2021
2521 Snow 1 1023 55 10000 6.69 150 15:19 15.02.2021
2522 Snow 1 1023 51 10000 6.69 140 14:48 15.02.2021
2523 Snow 1 1024 47 10000 7.2 140 14:21 15.02.2021
2524 Snow 1 1025 47 10000 7.2 150 13:49 15.02.2021
2525 Snow 1 1025 47 10000 7.72 130 13:27 15.02.2021
2526 Snow 1 1026 47 10000 6.17 150 12:52 15.02.2021
2527 Snow 0 1026 47 10000 6.17 150 12:31 15.02.2021
2528 Snow 0 1027 47 10000 7.2 140 11:54 15.02.2021
2529 Snow 0 1027 47 10000 7.2 150 11:27 15.02.2021
2530 Snow 0 1028 47 10000 6.69 150 10:58 15.02.2021
2531 Snow 0 1028 47 10000 6.69 150 10:40 15.02.2021
2532 Snow 0 1028 50 10000 7.2 140 10:21 15.02.2021
2533 Snow 0 1028 46 10000 7.2 150 09:51 15.02.2021
2534 Snow -1 1029 50 10000 6.17 150 09:32 15.02.2021
2535 Snow -1 1029 54 10000 6.69 150 08:34 15.02.2021
2536 Clear -2 1030 59 10000 5.14 150 07:34 15.02.2021
2537 Clear -2 1030 63 10000 5.14 130 06:44 15.02.2021
2538 Clear -3 1033 58 10000 4.63 150 04:59 15.02.2021
2539 Clear -4 1035 74 10000 5.14 140 02:22 15.02.2021
2540 Clear -3 1036 74 10000 4.63 140 00:32 15.02.2021
2541 Clear -3 1036 74 10000 4.63 150 23:32 14.02.2021
2542 Clear -3 1037 74 10000 3.6 150 22:52 14.02.2021
2543 Clear -3 1037 74 10000 4.63 140 22:34 14.02.2021
2544 Clear -3 1037 68 10000 5.14 140 21:57 14.02.2021
2545 Clear -3 1037 68 10000 5.14 140 21:37 14.02.2021
2546 Clear -3 1037 68 10000 5.14 150 21:18 14.02.2021
2547 Clear -2 1037 69 10000 4.63 140 20:39 14.02.2021
2548 Clear -2 1037 69 10000 4.63 140 20:20 14.02.2021
2549 Clear -2 1038 69 10000 4.12 140 19:40 14.02.2021
2550 Clear -2 1038 69 10000 3.6 140 18:49 14.02.2021
2551 Clear -2 1038 69 10000 4.12 140 18:29 14.02.2021
2552 Clear -1 1038 64 10000 3.09 150 17:49 14.02.2021
2553 Clear 0 1039 59 10000 4.12 160 17:30 14.02.2021
2554 Clear 1 1039 64 10000 4.12 140 16:44 14.02.2021
2555 Clear 1 1039 60 10000 3.09 150 16:25 14.02.2021
2556 Clear 1 1039 55 10000 4.12 150 15:47 14.02.2021
2557 Clear 1 1039 60 10000 4.12 150 15:29 14.02.2021
2558 Clear 1 1040 55 10000 3.6 160 14:43 14.02.2021
2559 Clear 0 1040 59 10000 3.6 160 14:24 14.02.2021
2560 Clear 0 1040 59 10000 3.09 150 13:42 14.02.2021
2561 Clear 0 1040 59 10000 3.09 160 13:23 14.02.2021
2562 Clear -1 1041 64 10000 3.6 170 12:24 14.02.2021
2563 Clear -2 1041 64 10000 3.6 150 11:59 14.02.2021
2564 Clear -2 1041 64 10000 3.6 150 11:40 14.02.2021
2565 Clear -3 1041 68 10000 4.12 160 11:20 14.02.2021
2566 Clear -5 1041 79 10000 2.57 150 10:31 14.02.2021
2567 Clear -7 1041 86 10000 2.57 150 09:41 14.02.2021
2568 Clear -7 1041 86 10000 1.54 110 09:21 14.02.2021
2569 Clear -7 1041 86 10000 1.54 110 09:21 14.02.2021
2570 Clear -8 1041 86 10000 1.54 140 08:58 14.02.2021
2571 Clear -9 1041 92 10000 1.03 0 08:18 14.02.2021
2572 Clear -10 1041 92 10000 1.54 90 07:47 14.02.2021
2573 Clear -9 1041 92 10000 1.03 100 06:26 14.02.2021
2574 Clear -10 1041 92 10000 1.03 70 04:34 14.02.2021
2575 Clear -9 1042 92 10000 1.23 207 02:30 14.02.2021
2576 Clear -9 1042 92 10000 1.17 212 01:29 14.02.2021
2577 Clear -8 1042 92 10000 0.51 0 00:42 14.02.2021
2578 Clear -8 1042 92 10000 0.51 0 23:57 13.02.2021
2579 Clear -8 1042 86 10000 2.06 330 23:25 13.02.2021
2580 Clear -8 1042 92 10000 0.71 188 22:59 13.02.2021
2581 Clear -7 1042 86 10000 1.03 330 22:26 13.02.2021
2582 Clear -7 1042 86 10000 0.51 0 21:49 13.02.2021
2583 Clear -7 1042 86 10000 1.03 80 21:27 13.02.2021
2584 Clear -6 1042 86 10000 0.51 0 20:45 13.02.2021
2585 Clear -6 1042 93 10000 0.51 0 20:27 13.02.2021
2586 Clear -5 1042 79 10000 0.51 0 19:48 13.02.2021
2587 Clear -5 1042 80 10000 1.03 310 19:24 13.02.2021
2588 Clear -4 1042 74 10000 2.06 330 18:50 13.02.2021
2589 Clear -3 1041 68 10000 1.54 320 18:27 13.02.2021
2590 Clear -3 1041 64 10000 2.06 320 17:44 13.02.2021
2591 Clear -2 1041 64 10000 2.06 340 17:25 13.02.2021
2592 Clear -1 1041 64 10000 2.57 320 16:53 13.02.2021
2593 Clear -1 1041 59 10000 1.03 300 16:35 13.02.2021
2594 Clear -1 1042 59 10000 1.54 300 15:45 13.02.2021
2595 Clear -1 1041 59 10000 1.54 300 15:26 13.02.2021
2596 Clear -1 1041 59 10000 1.54 300 15:26 13.02.2021
2597 Clear 0 1042 55 10000 1.54 260 14:41 13.02.2021
2598 Clear -1 1042 59 10000 2.06 290 13:54 13.02.2021
2599 Clear -2 1042 64 10000 2.06 310 13:29 13.02.2021
2600 Clear -2 1042 69 10000 2.57 320 12:57 13.02.2021
2601 Clear -3 1042 69 10000 1.54 320 12:23 13.02.2021
2602 Clear -4 1042 74 10000 1.03 0 11:58 13.02.2021
2603 Clear -5 1042 80 10000 1.54 320 11:39 13.02.2021
2604 Clear -6 1042 80 10000 1.54 320 11:18 13.02.2021
2605 Clear -6 1042 79 10000 1.54 330 10:43 13.02.2021
2606 Clear -7 1041 79 10000 1.54 320 10:23 13.02.2021
2607 Clear -9 1042 85 10000 1.03 330 09:48 13.02.2021
2608 Clear -10 1042 79 10000 1.54 330 09:28 13.02.2021
2609 Clear -12 1041 85 10000 0.51 0 08:50 13.02.2021
2610 Clear -12 1041 85 10000 0.51 0 08:19 13.02.2021
2611 Clear -12 1041 92 10000 0.51 340 07:23 13.02.2021
2612 Clear -12 1041 100 10000 0.51 0 06:25 13.02.2021
2613 Clear -11 1041 92 10000 1.03 310 05:18 13.02.2021
2614 Clear -11 1041 85 10000 1.03 350 02:44 13.02.2021
2615 Clear -10 1040 92 10000 1.03 0 00:57 13.02.2021
2616 Clear -10 1040 92 10000 1.03 0 00:57 13.02.2021
2617 Clear -10 1040 92 10000 2.06 320 00:19 13.02.2021
2618 Clear -10 1040 92 10000 1.03 0 23:45 12.02.2021
2619 Clear -8 1040 85 10000 1.54 350 23:19 12.02.2021
2620 Clear -9 1040 85 10000 1.54 330 22:37 12.02.2021
2621 Clear -8 1040 85 10000 1.54 330 22:18 12.02.2021
2622 Clear -8 1040 85 10000 1.54 310 21:42 12.02.2021
2623 Clear -8 1040 92 10000 1.03 330 21:22 12.02.2021
2624 Clear -7 1039 79 10000 1.54 360 20:45 12.02.2021
2625 Clear -7 1039 73 10000 1.54 10 20:26 12.02.2021
2626 Clear -6 1039 68 10000 1.54 10 19:55 12.02.2021
2627 Clear -6 1039 58 10000 1.54 10 19:29 12.02.2021
2628 Clear -5 1039 58 10000 1.54 10 18:38 12.02.2021
2629 Clear -5 1039 58 10000 1.54 20 18:18 12.02.2021
2630 Clear -3 1039 54 10000 2.06 40 17:41 12.02.2021
2631 Clouds -2 1038 54 10000 3.09 40 16:54 12.02.2021
2632 Clouds -2 1038 50 10000 4.12 50 16:21 12.02.2021
2633 Clouds -2 1038 54 10000 4.12 30 15:44 12.02.2021
2634 Clouds -2 1038 46 10000 5.14 50 15:20 12.02.2021
2635 Clouds -1 1038 50 10000 4.12 40 14:39 12.02.2021
2636 Clouds -2 1038 64 10000 5.66 60 13:56 12.02.2021
2637 Clouds -2 1038 64 10000 5.66 60 13:37 12.02.2021
2638 Clouds -2 1038 64 10000 2.57 40 12:55 12.02.2021
2639 Clouds -2 1037 64 10000 3.6 30 12:36 12.02.2021
2640 Clouds -3 1037 68 10000 4.12 50 11:48 12.02.2021
2641 Clouds -4 1037 74 10000 3.6 40 11:22 12.02.2021
2642 Clouds -5 1037 74 10000 4.63 50 10:52 12.02.2021
2643 Clouds -6 1037 74 10000 2.06 50 10:34 12.02.2021
2644 Clouds -7 1037 73 10000 3.6 40 09:44 12.02.2021
2645 Clouds -8 1037 86 10000 3.09 50 09:24 12.02.2021
2646 Clouds -8 1036 86 10000 2.57 30 08:48 12.02.2021
2647 Clouds -9 1036 79 10000 3.6 40 08:27 12.02.2021
2648 Clouds -9 1036 86 10000 3.09 30 07:53 12.02.2021
2649 Clouds -9 1036 86 10000 3.09 30 07:53 12.02.2021
2650 Clouds -9 1036 79 10000 3.09 30 07:31 12.02.2021
2651 Clear -9 1036 79 10000 3.09 30 06:55 12.02.2021
2652 Clouds -9 1035 79 10000 2.57 20 05:39 12.02.2021
2653 Clouds -8 1035 86 10000 2.57 10 04:22 12.02.2021
2654 Clear -9 1034 92 10000 2.57 340 01:23 12.02.2021
2655 Clear -8 1034 92 10000 2.06 340 23:40 11.02.2021
2656 Clear -8 1034 92 10000 1.54 310 23:22 11.02.2021
2657 Clear -7 1033 92 10000 1.54 320 22:45 11.02.2021
2658 Clear -7 1033 92 10000 1.03 0 22:24 11.02.2021
2659 Clear -7 1033 86 10000 1.54 330 21:54 11.02.2021
2660 Clear -6 1033 86 10000 1.54 320 21:36 11.02.2021
2661 Clear -6 1033 86 10000 1.54 320 21:18 11.02.2021
2662 Clear -5 1032 73 10000 1.03 0 20:41 11.02.2021
2663 Clear -5 1032 73 10000 1.03 0 20:21 11.02.2021
2664 Clear -4 1032 63 10000 2.06 30 19:47 11.02.2021
2665 Clear -4 1032 68 10000 2.06 20 19:27 11.02.2021
2666 Clouds -3 1032 63 10000 2.57 30 18:47 11.02.2021
2667 Clouds -3 1031 63 10000 2.06 30 18:25 11.02.2021
2668 Clouds -3 1031 63 10000 2.06 50 17:50 11.02.2021
2669 Clouds -3 1031 68 10000 2.57 40 17:22 11.02.2021
2670 Clouds -2 1030 59 10000 2.57 40 16:53 11.02.2021
2671 Snow -2 1030 54 10000 4.12 40 16:34 11.02.2021
2672 Snow -1 1030 59 10000 1.54 0 15:58 11.02.2021
2673 Clouds -1 1030 55 10000 2.06 30 15:38 11.02.2021
2674 Clouds -1 1030 55 10000 2.06 30 15:20 11.02.2021
2675 Clouds -2 1030 64 10000 2.57 20 14:40 11.02.2021
2676 Clouds -1 1029 64 10000 2.57 350 14:21 11.02.2021
2677 Clouds -2 1029 64 10000 2.06 360 13:38 11.02.2021
2678 Clouds -1 1029 64 10000 2.06 20 13:18 11.02.2021
2679 Clouds -2 1029 74 10000 2.57 350 12:44 11.02.2021
2680 Clouds -2 1029 74 10000 3.09 320 12:21 11.02.2021
2681 Clouds -3 1029 80 10000 2.06 320 11:42 11.02.2021
2682 Clouds -4 1029 86 10000 3.09 320 11:20 11.02.2021
2683 Clouds -4 1029 80 10000 3.6 320 10:44 11.02.2021
2684 Clear -5 1028 86 10000 3.09 320 10:25 11.02.2021
2685 Clear -6 1028 86 10000 3.09 320 09:53 11.02.2021
2686 Clear -8 1028 92 10000 1.63 331 09:22 11.02.2021
2687 Clear -8 1027 86 10000 1.03 310 08:51 11.02.2021
2688 Clear -8 1027 92 10000 2.06 320 08:21 11.02.2021
2689 Clear -7 1026 93 10000 2.06 320 06:58 11.02.2021
2690 Clouds -6 1026 86 10000 2.57 310 06:35 11.02.2021
2691 Clouds -6 1025 86 10000 2.57 320 04:55 11.02.2021
2692 Clouds -8 1023 92 10000 3.09 330 02:29 11.02.2021
2693 Clear -7 1022 92 10000 2.57 330 00:47 11.02.2021
2694 Clouds -7 1022 86 10000 3.09 330 00:19 11.02.2021
2695 Clouds -6 1021 86 10000 3.09 330 23:40 10.02.2021
2696 Clouds -5 1021 80 10000 3.09 330 22:52 10.02.2021
2697 Clouds -5 1020 80 10000 2.57 330 22:29 10.02.2021
2698 Clouds -5 1020 80 10000 2.06 350 21:58 10.02.2021
2699 Clouds -4 1019 74 10000 2.06 10 21:38 10.02.2021
2700 Clouds -4 1019 74 10000 2.06 10 21:19 10.02.2021
2701 Clouds -4 1019 80 10000 2.57 360 20:40 10.02.2021
2702 Clouds -3 1019 80 10000 2.57 350 20:22 10.02.2021
2703 Clouds -3 1018 80 10000 2.57 350 19:45 10.02.2021
2704 Clouds -3 1018 74 10000 2.57 360 19:24 10.02.2021
2705 Clouds -3 1018 74 10000 2.57 20 18:42 10.02.2021
2706 Clouds -2 1017 69 10000 3.6 10 18:22 10.02.2021
2707 Clouds -2 1016 74 10000 3.6 360 17:55 10.02.2021
2708 Clouds -2 1016 69 10000 4.63 20 17:24 10.02.2021
2709 Clouds -2 1016 69 10000 4.63 20 17:24 10.02.2021
2710 Clouds -2 1016 69 10000 4.63 360 16:53 10.02.2021
2711 Clouds -2 1015 69 10000 4.63 360 16:31 10.02.2021
2712 Clouds -2 1015 74 10000 5.14 10 15:55 10.02.2021
2713 Clouds -2 1014 74 10000 4.12 360 15:24 10.02.2021
2714 Clouds -2 1014 74 10000 5.14 360 14:51 10.02.2021
2715 Clouds -2 1014 74 10000 5.66 20 14:31 10.02.2021
2716 Snow -2 1013 74 10000 4.12 10 13:53 10.02.2021
2717 Snow -2 1013 74 10000 5.14 10 13:29 10.02.2021
2718 Snow -2 1013 74 10000 5.66 10 12:52 10.02.2021
2719 Clouds -2 1013 74 10000 4.12 360 12:30 10.02.2021
2720 Clouds -2 1012 74 10000 5.14 10 11:57 10.02.2021
2721 Clouds -3 1012 80 10000 5.14 10 11:38 10.02.2021
2722 Clouds -2 1012 80 10000 5.14 10 11:19 10.02.2021
2723 Snow -3 1011 80 10000 5.14 360 10:23 10.02.2021
2724 Clouds -3 1011 80 10000 4.12 10 09:56 10.02.2021
2725 Clouds -4 1011 80 10000 3.6 10 09:31 10.02.2021
2726 Clouds -4 1011 86 10000 3.09 10 08:53 10.02.2021
2727 Clouds -4 1010 86 10000 2.57 10 08:32 10.02.2021
2728 Clouds -5 1010 93 10000 2.06 360 07:37 10.02.2021
2729 Clouds -5 1010 86 10000 3.6 10 06:21 10.02.2021
2730 Snow -4 1010 86 10000 3.6 20 01:28 10.02.2021
2731 Snow -4 1010 86 10000 2.57 20 00:22 10.02.2021
2732 Snow -4 1009 86 4500 3.09 20 23:33 09.02.2021
2733 Snow -4 1009 93 3000 3.6 30 22:53 09.02.2021
2734 Snow -4 1009 93 3000 3.09 30 22:24 09.02.2021
2735 Snow -4 1009 93 2500 3.09 20 21:52 09.02.2021
2736 Snow -4 1009 93 4000 3.09 30 21:27 09.02.2021
2737 Snow -4 1009 93 2500 2.57 20 20:46 09.02.2021
2738 Snow -4 1009 93 4000 3.6 20 20:26 09.02.2021
2739 Snow -4 1009 86 4500 3.09 20 19:55 09.02.2021
2740 Snow -4 1009 86 4000 2.57 10 19:31 09.02.2021
2741 Snow -4 1009 93 4500 2.06 330 18:58 09.02.2021
2742 Snow -4 1009 86 6000 2.06 320 18:36 09.02.2021
2743 Snow -4 1009 86 10000 2.06 320 17:57 09.02.2021
2744 Clouds -4 1009 86 10000 1.54 320 17:37 09.02.2021
2745 Clouds -4 1009 86 10000 1.54 320 17:18 09.02.2021
2746 Snow -4 1009 86 8000 2.06 330 16:40 09.02.2021
2747 Snow -4 1009 86 6000 1.03 0 16:18 09.02.2021
2748 Snow -4 1008 86 6000 1.54 310 15:48 09.02.2021
2749 Snow -4 1008 80 6000 1.54 320 15:24 09.02.2021
2750 Snow -4 1008 80 4500 2.06 310 14:53 09.02.2021
2751 Snow -4 1008 80 4500 1.03 0 14:26 09.02.2021
2752 Snow -4 1008 80 4500 1.03 0 13:50 09.02.2021
2753 Snow -4 1008 80 4000 1.54 50 13:25 09.02.2021
2754 Snow -4 1008 74 4000 1.54 40 12:49 09.02.2021
2755 Snow -4 1008 74 8000 1.03 0 12:31 09.02.2021
2756 Snow -5 1008 80 6000 1.54 20 11:56 09.02.2021
2757 Snow -5 1008 80 6000 1.54 20 11:38 09.02.2021
2758 Snow -5 1008 80 8000 1.03 0 11:20 09.02.2021
2759 Snow -5 1008 80 7000 0.51 0 10:43 09.02.2021
2760 Snow -5 1008 74 6000 1.54 60 10:18 09.02.2021
2761 Snow -6 1007 79 8000 1.54 50 09:42 09.02.2021
2762 Snow -6 1007 79 10000 1.54 70 09:24 09.02.2021
2763 Snow -6 1007 79 10000 3.6 70 08:44 09.02.2021
2764 Snow -6 1007 79 10000 3.6 70 08:25 09.02.2021
2765 Snow -5 1006 86 4800 2.06 90 06:20 09.02.2021
2766 Snow -5 1005 86 7000 1.54 60 04:18 09.02.2021
2767 Snow -5 1005 86 8000 2.57 50 03:34 09.02.2021
2768 Snow -5 1005 86 10000 2.06 100 00:33 09.02.2021
2769 Snow -5 1005 86 10000 3.09 110 23:57 08.02.2021
2770 Snow -4 1004 80 10000 4.12 110 23:21 08.02.2021
2771 Snow -4 1004 69 10000 7.72 70 22:44 08.02.2021
2772 Clouds -3 1004 64 10000 7.2 60 22:25 08.02.2021
2773 Clouds -3 1004 64 10000 7.2 60 22:24 08.02.2021
2774 Snow -3 1004 64 10000 6.17 60 21:57 08.02.2021
2775 Snow -2 1004 59 10000 6.17 60 21:33 08.02.2021
2776 Clouds -2 1004 59 10000 7.72 60 20:59 08.02.2021
2777 Clouds -2 1005 59 10000 7.72 60 20:39 08.02.2021
2778 Clouds -2 1005 59 10000 7.72 60 20:21 08.02.2021
2779 Clouds -2 1004 59 10000 9.77 60 19:44 08.02.2021
2780 Clouds -2 1005 59 10000 7.2 60 19:25 08.02.2021
2781 Clouds -2 1004 59 10000 8.23 70 18:49 08.02.2021
2782 Clouds -2 1004 59 10000 9.26 60 18:24 08.02.2021
2783 Snow -2 1004 59 10000 9.26 60 17:47 08.02.2021
2784 Clouds -2 1004 59 10000 9.26 70 17:26 08.02.2021
2785 Clouds -2 1004 59 10000 8.23 60 16:45 08.02.2021
2786 Clouds -2 1004 54 10000 11.32 60 16:23 08.02.2021
2787 Clouds -2 1004 54 10000 10.29 60 15:48 08.02.2021
2788 Clouds -2 1004 54 10000 8.75 60 15:21 08.02.2021
2789 Clouds -2 1004 54 10000 9.77 60 14:59 08.02.2021
2790 Clouds -2 1005 50 10000 7.72 70 14:41 08.02.2021
2791 Clouds -2 1005 50 10000 7.72 70 14:22 08.02.2021
2792 Clouds -2 1005 50 10000 10.29 60 13:42 08.02.2021
2793 Clouds -2 1005 50 10000 10.29 70 13:23 08.02.2021
2794 Clouds -2 1005 50 10000 11.32 60 12:38 08.02.2021
2795 Clouds -3 1006 54 10000 9.26 60 11:58 08.02.2021
2796 Clouds -3 1006 54 10000 9.26 60 11:32 08.02.2021
2797 Clear -3 1006 54 10000 9.26 60 10:46 08.02.2021
2798 Clear -3 1006 54 10000 10.29 60 10:26 08.02.2021
2799 Clear -3 1007 54 10000 9.77 70 09:55 08.02.2021
2800 Clear -3 1007 54 10000 9.77 70 09:36 08.02.2021
2801 Snow -3 1007 54 10000 10.8 60 08:55 08.02.2021
2802 Clear -3 1007 54 10000 10.29 60 08:26 08.02.2021
2803 Clear -3 1007 54 10000 9.26 60 07:40 08.02.2021
2804 Clear -3 1007 54 10000 9.77 70 06:38 08.02.2021
2805 Clear -3 1007 59 10000 10.8 70 05:18 08.02.2021
2806 Snow -4 1009 58 10000 8.23 70 02:26 08.02.2021
2807 Snow -3 1009 54 10000 10.8 70 00:25 08.02.2021
2808 Clouds -3 1010 54 10000 9.77 70 23:54 07.02.2021
2809 Snow -3 1010 54 10000 9.26 70 23:28 07.02.2021
2810 Snow -3 1010 54 10000 9.77 70 22:58 07.02.2021
2811 Snow -3 1010 54 10000 9.77 70 22:40 07.02.2021
2812 Snow -4 1010 50 10000 9.26 80 22:21 07.02.2021
2813 Snow -3 1010 46 10000 10.29 80 21:50 07.02.2021
2814 Snow -3 1010 46 10000 11.83 80 21:25 07.02.2021
2815 Snow -3 1010 46 10000 11.83 80 21:25 07.02.2021
2816 Snow -3 1010 46 10000 9.77 80 20:50 07.02.2021
2817 Snow -3 1010 46 10000 9.77 70 20:29 07.02.2021
2818 Snow -3 1010 46 10000 9.77 70 19:54 07.02.2021
2819 Snow -3 1010 46 10000 10.29 70 19:29 07.02.2021
2820 Snow -3 1011 46 10000 10.8 70 18:51 07.02.2021
2821 Snow -3 1010 43 10000 11.32 70 18:31 07.02.2021
2822 Snow -3 1010 46 10000 9.77 80 17:59 07.02.2021
2823 Snow -3 1010 46 10000 9.77 80 17:40 07.02.2021
2824 Clouds -4 1010 50 10000 11.83 70 17:18 07.02.2021
2825 Snow -4 1010 50 10000 11.83 70 17:18 07.02.2021
2826 Snow -4 1010 46 10000 11.83 70 16:44 07.02.2021
2827 Snow -4 1010 46 10000 10.29 80 16:22 07.02.2021
2828 Snow -4 1010 50 10000 10.29 70 15:47 07.02.2021
2829 Snow -4 1011 50 10000 11.83 70 15:28 07.02.2021
2830 Snow -4 1011 50 10000 10.8 70 14:47 07.02.2021
2831 Snow -4 1011 50 10000 10.8 70 14:29 07.02.2021
2832 Snow -4 1011 50 10000 9.77 70 13:52 07.02.2021
2833 Snow -4 1011 50 10000 9.77 70 13:34 07.02.2021
2834 Snow -4 1012 54 10000 8.75 70 12:45 07.02.2021
2835 Snow -4 1012 54 10000 9.77 70 12:22 07.02.2021
2836 Snow -4 1012 54 10000 9.77 70 12:22 07.02.2021
2837 Snow -4 1012 54 10000 9.26 70 11:53 07.02.2021
2838 Snow -4 1012 54 10000 9.26 70 11:27 07.02.2021
2839 Snow -4 1012 54 10000 8.75 70 10:51 07.02.2021
2840 Snow -4 1012 58 10000 9.77 70 10:27 07.02.2021
2841 Snow -4 1012 58 10000 9.77 70 09:49 07.02.2021
2842 Snow -5 1012 63 10000 10.29 70 09:21 07.02.2021
2843 Snow -5 1012 63 10000 10.8 70 08:36 07.02.2021
2844 Clear -5 1012 63 10000 10.8 70 07:44 07.02.2021
2845 Clear -4 1014 63 10000 10.29 80 05:58 07.02.2021
2846 Clear -3 1015 59 10000 10.29 70 03:55 07.02.2021
2847 Clear -3 1016 59 10000 8.75 80 01:51 07.02.2021
2848 Clear -3 1017 59 10000 7.72 80 00:36 07.02.2021
2849 Clear -3 1017 59 10000 8.23 80 23:48 06.02.2021
2850 Clear -3 1017 54 10000 8.75 80 22:52 06.02.2021
2851 Clear -3 1017 63 10000 8.75 70 21:45 06.02.2021
2852 Clear -3 1017 63 10000 8.23 80 21:24 06.02.2021
2853 Clear -2 1018 63 10000 8.23 70 20:53 06.02.2021
2854 Clear -2 1018 59 10000 8.75 70 20:27 06.02.2021
2855 Clear -2 1018 59 10000 9.26 70 19:59 06.02.2021
2856 Clear -1 1018 55 10000 8.75 80 19:40 06.02.2021
2857 Clear -1 1018 55 10000 8.75 80 19:19 06.02.2021
2858 Clear -1 1018 55 10000 8.75 80 18:43 06.02.2021
2859 Clear -1 1018 59 10000 8.23 80 18:24 06.02.2021
2860 Clear -1 1018 59 10000 8.75 80 17:41 06.02.2021
2861 Clear -1 1018 64 10000 8.75 80 17:21 06.02.2021
2862 Clear 0 1018 55 10000 10.29 80 16:47 06.02.2021
2863 Clear 0 1018 55 10000 9.26 80 16:29 06.02.2021
2864 Clear 0 1018 59 10000 9.26 70 15:52 06.02.2021
2865 Clear 0 1019 59 10000 9.26 80 15:29 06.02.2021
2866 Clouds 0 1019 59 10000 8.75 80 14:57 06.02.2021
2867 Clouds 0 1019 59 10000 9.26 80 14:37 06.02.2021
2868 Clouds 0 1019 59 10000 9.26 80 14:18 06.02.2021
2869 Clouds 0 1019 64 10000 8.75 70 13:43 06.02.2021
2870 Clouds 0 1019 64 10000 9.26 80 12:41 06.02.2021
2871 Clouds 0 1020 59 10000 7.72 80 12:20 06.02.2021
2872 Snow -1 1020 69 10000 8.23 80 11:40 06.02.2021
2873 Snow -1 1020 69 10000 8.23 80 11:20 06.02.2021
2874 Snow -1 1020 64 10000 6.69 80 10:52 06.02.2021
2875 Clouds -1 1020 64 10000 6.69 80 10:26 06.02.2021
2876 Clouds -1 1020 59 10000 7.72 80 09:38 06.02.2021
2877 Clouds -1 1020 59 10000 7.72 80 09:38 06.02.2021
2878 Clouds -1 1020 59 10000 7.72 80 09:19 06.02.2021
2879 Clouds -1 1019 59 10000 7.2 80 08:59 06.02.2021
2880 Clouds -1 1019 64 10000 7.72 80 08:29 06.02.2021
2881 Clouds -1 1019 64 10000 7.2 70 07:20 06.02.2021
2882 Clouds -1 1018 69 10000 6.69 80 05:42 06.02.2021
2883 Snow -1 1018 69 10000 6.69 90 03:47 06.02.2021
2884 Snow 0 1018 69 10000 7.2 70 01:30 06.02.2021
2885 Clouds 0 1018 69 10000 6.69 80 00:45 06.02.2021
2886 Clouds 0 1018 69 10000 6.69 80 00:18 06.02.2021
2887 Clouds 0 1018 69 10000 6.69 80 23:42 05.02.2021
2888 Snow 0 1018 69 10000 5.66 90 23:24 05.02.2021
2889 Snow 0 1018 74 10000 6.17 80 22:45 05.02.2021
2890 Snow 0 1018 74 10000 6.17 80 22:18 05.02.2021
2891 Snow 0 1018 69 10000 6.69 80 21:40 05.02.2021
2892 Snow 0 1018 69 10000 6.69 90 20:59 05.02.2021
2893 Snow 0 1018 69 10000 6.69 90 20:38 05.02.2021
2894 Snow 0 1017 69 10000 6.17 90 19:50 05.02.2021
2895 Snow 0 1017 75 10000 5.14 90 19:19 05.02.2021
2896 Snow 1 1017 75 10000 6.69 90 18:45 05.02.2021
2897 Snow 1 1017 75 10000 7.72 90 18:19 05.02.2021
2898 Snow 1 1017 75 10000 6.69 80 17:44 05.02.2021
2899 Snow 1 1017 75 10000 5.66 80 17:21 05.02.2021
2900 Snow 1 1017 75 10000 5.14 80 16:48 05.02.2021
2901 Snow 1 1017 80 9000 7.2 90 16:23 05.02.2021
2902 Snow 1 1017 75 10000 7.72 90 15:54 05.02.2021
2903 Clouds 2 1016 75 10000 6.69 90 15:26 05.02.2021
2904 Snow 1 1017 80 10000 6.17 90 14:40 05.02.2021
2905 Clouds 1 1017 80 10000 5.66 90 14:22 05.02.2021
2906 Rain 1 1017 86 10000 5.66 90 13:59 05.02.2021
2907 Clouds 1 1017 86 10000 6.17 100 13:36 05.02.2021
2908 Clouds 1 1017 86 10000 6.17 100 12:55 05.02.2021
2909 Clouds 1 1017 86 10000 6.17 100 12:36 05.02.2021
2910 Clouds 1 1018 86 10000 6.69 90 11:41 05.02.2021
2911 Clouds 1 1018 86 10000 6.69 90 11:41 05.02.2021
2912 Clouds 1 1018 86 10000 6.17 90 11:22 05.02.2021
2913 Clouds 1 1018 86 10000 6.69 100 10:58 05.02.2021
2914 Clouds 1 1017 86 10000 6.17 100 10:27 05.02.2021
2915 Clouds 1 1017 86 10000 5.66 100 09:48 05.02.2021
2916 Clouds 0 1017 93 10000 6.17 90 09:29 05.02.2021
2917 Clouds 0 1017 93 10000 5.66 90 08:58 05.02.2021
2918 Snow 0 1017 86 10000 4.63 90 08:28 05.02.2021
2919 Snow 0 1017 93 10000 5.14 90 07:38 05.02.2021
2920 Snow 0 1017 93 5000 4.63 90 06:57 05.02.2021
2921 Clouds 0 1017 93 10000 4.12 90 05:39 05.02.2021
2922 Drizzle 0 1017 93 10000 4.63 90 04:49 05.02.2021
2923 Clouds 1 1017 86 10000 4.12 90 02:25 05.02.2021
2924 Clouds 1 1017 80 10000 4.63 90 00:41 05.02.2021
2925 Clouds 1 1017 80 10000 4.63 80 00:21 05.02.2021
2926 Clouds 1 1017 86 10000 4.63 80 23:59 04.02.2021
2927 Clouds 1 1017 86 10000 4.63 80 23:40 04.02.2021
2928 Clouds 1 1018 86 10000 4.12 90 23:21 04.02.2021
2929 Clouds 1 1017 80 10000 4.12 90 22:52 04.02.2021
2930 Clouds 1 1017 80 10000 4.63 100 22:29 04.02.2021
2931 Clouds 1 1017 80 10000 4.12 90 21:43 04.02.2021
2932 Clouds 1 1017 86 10000 3.6 100 21:22 04.02.2021
2933 Clouds 1 1017 86 10000 3.6 90 20:54 04.02.2021
2934 Clouds 1 1017 86 10000 3.6 90 20:34 04.02.2021
2935 Clouds 1 1017 86 10000 3.6 90 20:34 04.02.2021
2936 Clouds 1 1017 86 10000 4.12 90 19:49 04.02.2021
2937 Clouds 1 1017 86 10000 3.6 90 19:21 04.02.2021
2938 Clouds 1 1016 86 10000 4.12 100 18:40 04.02.2021
2939 Clouds 1 1016 86 10000 4.12 100 18:21 04.02.2021
2940 Clouds 1 1016 86 10000 3.6 90 17:45 04.02.2021
2941 Clouds 1 1016 86 10000 4.12 90 17:21 04.02.2021
2942 Clouds 1 1015 86 10000 5.14 90 16:48 04.02.2021
2943 Clouds 2 1015 80 10000 4.12 90 16:20 04.02.2021
2944 Clouds 2 1015 87 10000 4.63 80 15:41 04.02.2021
2945 Snow 2 1015 87 10000 4.63 80 15:21 04.02.2021
2946 Snow 2 1015 87 10000 4.63 70 14:57 04.02.2021
2947 Snow 2 1015 80 10000 4.63 70 14:39 04.02.2021
2948 Snow 2 1015 80 10000 4.63 70 14:19 04.02.2021
2949 Snow 1 1015 87 10000 4.63 70 13:43 04.02.2021
2950 Snow 2 1014 87 10000 4.12 60 12:57 04.02.2021
2951 Snow 2 1014 87 10000 3.09 70 12:33 04.02.2021
2952 Snow 2 1014 87 10000 3.09 70 11:53 04.02.2021
2953 Snow 1 1013 93 10000 3.09 60 11:33 04.02.2021
2954 Snow 1 1013 93 10000 3.09 70 10:48 04.02.2021
2955 Snow 1 1012 93 9000 2.57 70 10:19 04.02.2021
2956 Snow 1 1012 93 10000 2.57 60 09:44 04.02.2021
2957 Snow 1 1012 93 7000 2.57 40 09:19 04.02.2021
2958 Snow 1 1011 93 7000 2.06 40 08:48 04.02.2021
2959 Snow 1 1010 93 9000 2.06 40 08:24 04.02.2021
2960 Snow 1 1010 93 8000 2.06 50 07:43 04.02.2021
2961 Snow 1 1009 93 10000 2.57 50 07:24 04.02.2021
2962 Snow 1 1009 93 10000 3.09 70 06:43 04.02.2021
2963 Rain 1 1005 93 10000 3.09 50 04:31 04.02.2021
2964 Clouds 1 1002 93 10000 3.6 50 02:27 04.02.2021
2965 Rain 1 1000 93 10000 2.06 0 00:59 04.02.2021
2966 Rain 1 999 93 8000 3.09 40 23:52 03.02.2021
2967 Rain 1 998 93 10000 3.6 40 23:27 03.02.2021
2968 Rain 1 998 93 10000 3.09 40 22:37 03.02.2021
2969 Rain 1 997 93 10000 3.6 40 22:19 03.02.2021
2970 Rain 1 997 93 10000 3.6 50 21:42 03.02.2021
2971 Rain 1 996 93 10000 3.09 40 21:22 03.02.2021
2972 Rain 1 996 93 8000 2.57 40 20:50 03.02.2021
2973 Rain 1 996 93 8000 4.12 70 20:31 03.02.2021
2974 Rain 1 996 93 6000 3.6 50 19:55 03.02.2021
2975 Rain 1 995 93 5000 4.63 60 19:25 03.02.2021
2976 Rain 1 995 93 3000 4.12 60 18:57 03.02.2021
2977 Rain 1 995 93 3000 4.63 60 18:37 03.02.2021
2978 Rain 1 995 93 3000 4.63 60 18:19 03.02.2021
2979 Mist 1 995 93 2500 5.66 60 17:43 03.02.2021
2980 Rain 1 995 100 2600 5.14 60 17:19 03.02.2021
2981 Rain 1 995 100 3000 4.12 70 16:42 03.02.2021
2982 Rain 1 995 100 1800 4.12 60 16:22 03.02.2021
2983 Snow 1 995 100 2000 4.12 80 15:40 03.02.2021
2984 Rain 1 995 100 2800 3.6 80 15:22 03.02.2021
2985 Rain 1 995 100 4200 3.6 80 14:45 03.02.2021
2986 Drizzle 1 996 100 5000 4.12 90 14:22 03.02.2021
2987 Rain 1 996 100 7000 3.6 90 13:47 03.02.2021
2988 Rain 1 997 100 6000 3.6 90 13:21 03.02.2021
2989 Drizzle 1 997 100 5000 3.6 110 12:45 03.02.2021
2990 Snow 1 997 93 2800 3.6 100 12:21 03.02.2021
2991 Snow 1 997 93 4800 3.09 100 11:43 03.02.2021
2992 Snow 1 998 93 4500 4.12 120 11:24 03.02.2021
2993 Rain 1 998 93 4500 4.12 90 10:45 03.02.2021
2994 Rain 1 998 93 5000 4.12 100 10:21 03.02.2021
2995 Rain 0 998 100 4000 4.63 110 09:46 03.02.2021
2996 Rain 1 998 100 7000 4.63 100 09:27 03.02.2021
2997 Rain 0 999 100 5000 4.63 90 08:49 03.02.2021
2998 Drizzle 0 999 100 5000 4.12 80 07:59 03.02.2021
2999 Snow 0 999 100 4000 3.6 80 07:32 03.02.2021
3000 Rain 0 999 93 4500 4.63 90 06:38 03.02.2021
3001 Snow 0 999 93 6000 4.63 70 04:51 03.02.2021
3002 Snow 0 1000 86 7000 3.6 80 04:29 03.02.2021
3003 Snow -1 1000 93 6000 4.12 70 02:53 03.02.2021
3004 Snow -1 1001 100 6000 3.09 70 02:23 03.02.2021
3005 Snow -1 1001 93 6000 3.09 70 00:30 03.02.2021
3006 Snow -1 1001 93 7000 2.57 50 23:48 02.02.2021
3007 Snow -1 1001 100 7000 3.6 60 23:28 02.02.2021
3008 Snow -1 1001 93 7000 3.6 60 22:59 02.02.2021
3009 Snow -1 1001 93 6000 3.09 60 22:22 02.02.2021
3010 Snow -1 1001 100 7000 3.6 60 21:55 02.02.2021
3011 Snow 0 1001 93 7000 3.6 70 21:30 02.02.2021
3012 Snow -1 1001 100 5000 3.6 70 20:59 02.02.2021
3013 Snow 0 1001 100 5000 3.6 70 20:41 02.02.2021
3014 Snow 0 1001 93 4500 3.6 80 20:19 02.02.2021
3015 Snow 0 1001 86 5000 3.6 80 19:47 02.02.2021
3016 Snow 0 1001 86 8000 3.09 70 19:29 02.02.2021
3017 Snow 0 1000 86 8000 3.09 90 18:44 02.02.2021
3018 Clouds 0 1001 86 8000 3.6 90 18:25 02.02.2021
3019 Clouds 0 1001 86 8000 3.6 90 18:25 02.02.2021
3020 Clouds 0 1000 86 8000 4.12 70 17:50 02.02.2021
3021 Clouds 1 1000 80 9000 3.09 80 17:23 02.02.2021
3022 Clouds 1 1001 80 8000 2.57 100 16:57 02.02.2021
3023 Clouds 1 1001 80 8000 2.57 100 16:37 02.02.2021
3024 Snow 1 1001 86 7000 3.09 160 15:59 02.02.2021
3025 Snow 1 1001 86 7000 3.09 160 15:41 02.02.2021
3026 Clouds 1 1001 80 7000 3.09 120 15:21 02.02.2021
3027 Snow 1 1001 80 7000 2.57 130 14:41 02.02.2021
3028 Snow 1 1001 80 7000 2.06 130 14:19 02.02.2021
3029 Snow 1 1001 80 7000 0.51 0 13:54 02.02.2021
3030 Clouds 1 1001 80 7000 0.51 0 13:36 02.02.2021
3031 Clouds 1 1001 80 6000 0.51 0 13:18 02.02.2021
3032 Mist 0 1002 86 4700 1.03 0 12:29 02.02.2021
3033 Mist 0 1002 86 4400 0.51 0 11:43 02.02.2021
3034 Mist 0 1002 86 3800 1.54 220 11:21 02.02.2021
3035 Mist -1 1003 93 3000 2.57 220 10:53 02.02.2021
3036 Mist -1 1002 93 2800 2.06 250 10:27 02.02.2021
3037 Mist -1 1002 93 2800 1.54 250 09:46 02.02.2021
3038 Mist -2 1002 100 3300 1.54 240 09:25 02.02.2021
3039 Mist -2 1002 100 3600 1.54 240 08:48 02.02.2021
3040 Mist -2 1002 100 4000 1.54 230 08:25 02.02.2021
3041 Mist -1 1002 93 4500 2.06 250 07:29 02.02.2021
3042 Mist -1 1002 93 4500 2.06 240 06:43 02.02.2021
3043 Mist -2 1001 100 4500 1.54 260 05:53 02.02.2021
3044 Mist -2 1001 100 4500 1.54 280 04:57 02.02.2021
3045 Snow -2 1000 100 3500 2.06 280 02:44 02.02.2021
3046 Mist -2 1000 100 4600 2.06 290 02:23 02.02.2021
3047 Snow -2 1000 100 2600 2.57 270 00:35 02.02.2021
3048 Snow -2 999 93 3500 1.54 240 23:20 01.02.2021
3049 Snow -2 999 93 5000 0.51 120 22:51 01.02.2021
3050 Snow -2 999 86 10000 1.54 170 22:33 01.02.2021
3051 Clouds -2 998 86 10000 1.54 160 21:53 01.02.2021
3052 Clouds -2 998 86 10000 1.54 160 21:34 01.02.2021
3053 Clouds -2 998 93 10000 1.54 110 20:57 01.02.2021
3054 Clouds -2 998 93 10000 1.54 110 20:38 01.02.2021
3055 Clouds -2 998 93 10000 2.06 100 20:19 01.02.2021
3056 Clouds -2 998 93 10000 2.06 100 19:41 01.02.2021
3057 Snow -2 998 93 10000 3.09 120 19:21 01.02.2021
3058 Snow -2 998 86 9000 2.06 100 18:49 01.02.2021
3059 Snow -2 997 80 9000 2.57 100 18:28 01.02.2021
3060 Snow -1 997 80 10000 2.57 90 17:48 01.02.2021
3061 Snow -1 997 80 10000 3.09 100 17:25 01.02.2021
3062 Snow -1 997 74 10000 3.6 100 16:56 01.02.2021
3063 Snow -1 996 74 10000 4.63 90 16:29 01.02.2021
3064 Snow -1 996 74 10000 5.14 90 15:47 01.02.2021
3065 Snow -1 996 74 7000 5.66 90 15:19 01.02.2021
3066 Snow -1 997 69 10000 4.12 80 14:52 01.02.2021
3067 Snow -1 997 69 10000 4.12 80 14:33 01.02.2021
3068 Clouds -2 997 69 10000 4.12 100 13:51 01.02.2021
3069 Snow -2 997 69 10000 4.12 110 13:28 01.02.2021
3070 Snow -2 997 74 10000 5.66 100 12:58 01.02.2021
3071 Snow -2 997 74 10000 5.66 100 12:40 01.02.2021
3072 Snow -2 997 74 10000 5.66 100 12:40 01.02.2021
3073 Snow -3 997 74 10000 3.6 100 12:21 01.02.2021
3074 Snow -3 997 74 10000 3.6 110 11:39 01.02.2021
3075 Snow -4 998 74 10000 5.66 120 11:19 01.02.2021
3076 Snow -4 997 80 10000 5.66 100 10:44 01.02.2021
3077 Clear -5 997 80 10000 5.14 110 10:19 01.02.2021
3078 Clear -5 997 80 10000 6.17 110 09:43 01.02.2021
3079 Clear -5 998 80 10000 5.14 110 09:19 01.02.2021
3080 Clear -5 998 86 10000 5.14 90 08:41 01.02.2021
3081 Clear -6 997 86 10000 3.6 80 07:37 01.02.2021
3082 Clear -6 998 93 10000 2.06 100 05:59 01.02.2021
3083 Clear -5 999 86 10000 3.6 110 02:43 01.02.2021
3084 Clear -5 1000 93 10000 3.09 100 00:31 01.02.2021
3085 Clear -4 1001 93 10000 3.09 110 23:40 31.01.2021
3086 Clear -4 1001 93 10000 2.57 120 22:43 31.01.2021
3087 Clear -4 1001 93 10000 3.09 130 22:23 31.01.2021
3088 Clear -3 1001 93 10000 2.06 150 21:49 31.01.2021
3089 Clear -4 1002 93 10000 2.57 120 21:23 31.01.2021
3090 Clear -4 1002 93 10000 2.06 130 20:49 31.01.2021
3091 Clear -3 1002 86 10000 2.06 150 20:21 31.01.2021
3092 Clear -3 1002 86 10000 2.57 140 19:56 31.01.2021
3093 Clear -3 1002 86 10000 2.57 140 19:37 31.01.2021
3094 Clear -3 1002 86 10000 2.06 150 19:19 31.01.2021
3095 Clear -3 1002 86 10000 1.54 150 18:41 31.01.2021
3096 Clear -3 1002 86 10000 1.54 150 18:41 31.01.2021
3097 Clear -3 1003 93 10000 1.03 0 18:21 31.01.2021
3098 Clear -2 1003 86 10000 1.03 220 17:47 31.01.2021
3099 Clear -2 1003 80 10000 1.54 200 17:23 31.01.2021
3100 Clear -1 1003 74 10000 2.57 220 16:52 31.01.2021
3101 Clear -1 1003 80 10000 2.57 200 16:33 31.01.2021
3102 Clouds 0 1004 74 10000 2.57 220 15:54 31.01.2021
3103 Clouds 0 1004 74 10000 3.09 220 15:35 31.01.2021
3104 Clouds 0 1004 69 10000 2.06 230 14:50 31.01.2021
3105 Clouds 0 1004 74 10000 2.06 220 14:26 31.01.2021
3106 Clouds 0 1005 80 10000 2.06 200 13:57 31.01.2021
3107 Clouds -1 1005 86 10000 2.57 210 13:38 31.01.2021
3108 Clouds -2 1005 80 10000 3.09 220 12:56 31.01.2021
3109 Clouds -2 1005 80 10000 3.09 220 12:37 31.01.2021
3110 Clouds -2 1006 80 10000 4.63 220 12:19 31.01.2021
3111 Clouds -3 1006 86 10000 3.09 230 11:38 31.01.2021
3112 Clouds -3 1006 86 10000 3.09 230 11:19 31.01.2021
3113 Clouds -5 1005 93 10000 3.6 220 10:44 31.01.2021
3114 Clouds -5 1006 93 10000 2.57 210 10:25 31.01.2021
3115 Clouds -6 1005 93 10000 2.57 230 09:33 31.01.2021
3116 Clouds -6 1005 93 8000 1.03 0 08:34 31.01.2021
3117 Clouds -8 1005 100 8000 0.51 0 07:50 31.01.2021
3118 Clouds -8 1005 100 9000 1.54 210 06:25 31.01.2021
3119 Fog -8 1006 100 800 0.51 320 01:55 31.01.2021
3120 Fog -7 1006 100 800 1.03 340 00:28 31.01.2021
3121 Fog -7 1006 100 900 1.54 330 23:43 30.01.2021
3122 Mist -6 1006 100 1800 1.03 330 23:22 30.01.2021
3123 Mist -6 1006 93 1400 0.51 30 22:38 30.01.2021
3124 Fog -6 1005 100 4000 0.51 0 21:45 30.01.2021
3125 Fog -5 1005 100 4000 0.51 0 21:25 30.01.2021
3126 Fog -6 1005 100 10000 1.03 0 20:58 30.01.2021
3127 Fog -5 1005 100 10000 1.03 0 20:38 30.01.2021
3128 Fog -5 1005 93 10000 0.51 0 19:59 30.01.2021
3129 Fog -5 1005 93 10000 0.51 0 19:40 30.01.2021
3130 Fog -5 1005 93 10000 0.51 0 19:40 30.01.2021
3131 Fog -5 1005 93 10000 0.51 260 19:19 30.01.2021
3132 Fog -4 1005 100 10000 1.54 320 18:40 30.01.2021
3133 Clear -3 1005 93 10000 1.03 340 18:20 30.01.2021
3134 Clouds -3 1004 100 10000 1.03 300 17:49 30.01.2021
3135 Clouds -2 1004 86 10000 0.51 0 17:19 30.01.2021
3136 Clouds -1 1004 80 10000 2.06 360 16:42 30.01.2021
3137 Clouds 0 1004 80 10000 1.54 360 16:23 30.01.2021
3138 Clouds 0 1004 74 10000 1.54 20 15:49 30.01.2021
3139 Clouds 1 1004 75 10000 3.09 20 15:25 30.01.2021
3140 Clouds 0 1004 75 10000 3.6 310 14:59 30.01.2021
3141 Clouds 1 1004 75 10000 3.6 310 14:40 30.01.2021
3142 Clouds 1 1004 69 10000 3.6 310 14:19 30.01.2021
3143 Clouds 1 1004 74 10000 3.09 320 13:25 30.01.2021
3144 Clouds 0 1004 74 10000 2.57 320 12:48 30.01.2021
3145 Clouds 0 1004 69 10000 3.09 310 12:28 30.01.2021
3146 Clouds 0 1004 74 10000 2.57 320 11:54 30.01.2021
3147 Clouds -1 1004 80 10000 1.54 320 11:24 30.01.2021
3148 Clouds -2 1004 93 10000 1.03 0 10:43 30.01.2021
3149 Fog -3 1004 100 10000 0.51 270 09:43 30.01.2021
3150 Fog -3 1004 100 10000 0.51 0 09:25 30.01.2021
3151 Clouds -2 1004 93 10000 2.06 310 08:47 30.01.2021
3152 Clouds -2 1003 86 10000 4.12 310 07:45 30.01.2021
3153 Snow -1 1002 93 9000 2.57 330 06:36 30.01.2021
3154 Snow 0 1001 93 10000 2.57 350 04:29 30.01.2021
3155 Snow 0 1001 93 4900 2.06 330 03:34 30.01.2021
3156 Snow -1 1000 100 4600 2.57 350 02:23 30.01.2021
3157 Snow -1 1000 93 9000 2.57 360 01:28 30.01.2021
3158 Snow -1 999 93 10000 3.09 20 00:36 30.01.2021
3159 Snow -1 999 93 10000 3.09 40 00:18 30.01.2021
3160 Snow -1 999 93 10000 2.06 30 23:44 29.01.2021
3161 Snow -1 998 86 7000 4.63 60 23:20 29.01.2021
3162 Snow -1 998 93 4200 4.63 50 22:40 29.01.2021
3163 Snow -1 998 93 3500 2.57 50 22:19 29.01.2021
3164 Snow -1 997 93 3200 4.12 50 21:28 29.01.2021
3165 Snow -1 997 86 4800 5.66 60 20:45 29.01.2021
3166 Snow -1 997 93 7000 4.63 60 20:26 29.01.2021
3167 Snow -1 996 86 5000 4.63 70 19:57 29.01.2021
3168 Snow -1 996 86 5000 4.63 70 19:38 29.01.2021
3169 Snow -1 996 86 3200 4.63 80 19:18 29.01.2021
3170 Snow -1 996 86 1500 5.66 80 18:28 29.01.2021
3171 Snow -1 995 86 1800 6.17 90 17:40 29.01.2021
3172 Snow -1 995 93 1200 5.14 90 17:21 29.01.2021
3173 Snow -1 995 93 1700 4.63 90 16:45 29.01.2021
3174 Snow -1 995 86 1600 5.66 90 16:23 29.01.2021
3175 Snow -1 995 86 2000 5.14 80 15:51 29.01.2021
3176 Snow -1 995 86 1000 5.14 90 15:31 29.01.2021
3177 Snow -1 995 80 2200 7.2 100 14:47 29.01.2021
3178 Snow -1 995 69 3200 7.2 100 14:18 29.01.2021
3179 Snow 0 995 64 9000 5.66 80 13:41 29.01.2021
3180 Snow 0 995 64 10000 6.17 90 13:22 29.01.2021
3181 Snow 0 995 60 10000 5.66 100 12:28 29.01.2021
3182 Snow 0 995 64 10000 6.17 100 11:50 29.01.2021
3183 Snow 0 995 64 10000 6.17 100 11:20 29.01.2021
3184 Snow 0 996 64 10000 6.17 100 10:52 29.01.2021
3185 Snow 0 996 69 10000 6.17 100 10:33 29.01.2021
3186 Snow -1 996 74 10000 5.66 100 09:49 29.01.2021
3187 Clouds -1 996 74 10000 6.69 100 09:28 29.01.2021
3188 Clouds -1 997 80 10000 5.66 100 08:47 29.01.2021
3189 Clouds -1 997 80 10000 6.17 100 08:25 29.01.2021
3190 Clouds -1 998 80 10000 5.14 100 07:42 29.01.2021
3191 Clear -1 998 80 10000 6.17 90 07:22 29.01.2021
3192 Clear -1 999 86 10000 5.14 100 06:29 29.01.2021
3193 Clear -1 1002 86 10000 2.57 100 03:52 29.01.2021
3194 Snow -1 1004 80 10000 1.54 110 00:46 29.01.2021
3195 Clouds -1 1004 86 10000 1.54 160 00:22 29.01.2021
3196 Clear -1 1005 80 10000 1.54 60 23:47 28.01.2021
3197 Clear -1 1005 80 10000 1.54 70 23:27 28.01.2021
3198 Clear -1 1005 80 10000 0.51 50 22:59 28.01.2021
3199 Clear -1 1005 80 10000 0.51 50 22:38 28.01.2021
3200 Clear -1 1005 86 10000 0.51 0 22:20 28.01.2021
3201 Clear -1 1004 80 10000 1.54 90 21:42 28.01.2021
3202 Clear -1 1004 86 10000 2.57 60 21:21 28.01.2021
3203 Clear -1 1004 80 10000 1.03 60 20:44 28.01.2021
3204 Clear -1 1004 80 10000 2.06 70 20:19 28.01.2021
3205 Clear -1 1005 80 10000 1.54 40 19:52 28.01.2021
3206 Clear 0 1005 74 10000 1.54 40 19:28 28.01.2021
3207 Clear 0 1005 74 10000 2.06 30 18:50 28.01.2021
3208 Clear 0 1004 80 10000 1.54 30 18:31 28.01.2021
3209 Clear 0 1004 74 10000 2.06 50 17:54 28.01.2021
3210 Clouds 0 1004 80 10000 2.57 40 17:35 28.01.2021
3211 Clouds 1 1003 80 10000 2.57 50 16:59 28.01.2021
3212 Clouds 1 1003 75 10000 3.09 50 16:40 28.01.2021
3213 Clouds 1 1003 75 10000 3.09 50 16:20 28.01.2021
3214 Clouds 1 1003 75 10000 3.6 60 15:36 28.01.2021
3215 Clouds 2 1003 69 10000 3.09 50 14:55 28.01.2021
3216 Clouds 1 1003 80 10000 3.6 50 14:37 28.01.2021
3217 Clouds 1 1003 80 10000 3.6 50 14:18 28.01.2021
3218 Clouds 1 1003 80 10000 3.09 60 13:40 28.01.2021
3219 Clouds 1 1004 80 10000 3.6 60 12:52 28.01.2021
3220 Clouds 1 1004 80 10000 2.57 40 12:33 28.01.2021
3221 Clouds 1 1004 80 10000 2.06 50 11:59 28.01.2021
3222 Clouds 1 1004 80 10000 2.06 50 11:39 28.01.2021
3223 Clouds 1 1004 80 10000 2.57 40 11:19 28.01.2021
3224 Clouds 1 1005 86 10000 2.06 20 10:50 28.01.2021
3225 Clouds 0 1005 86 10000 2.06 20 10:27 28.01.2021
3226 Clouds 0 1005 93 10000 2.06 10 09:44 28.01.2021
3227 Clouds 0 1005 100 10000 1.54 340 09:22 28.01.2021
3228 Clouds 0 1005 93 10000 1.03 300 08:49 28.01.2021
3229 Clouds 0 1005 93 10000 1.03 300 08:18 28.01.2021
3230 Clouds 1 1005 93 10000 2.06 330 07:44 28.01.2021
3231 Clouds 1 1006 93 10000 2.06 290 06:49 28.01.2021
3232 Clouds 2 1006 87 10000 2.57 340 05:35 28.01.2021
3233 Clouds 3 1006 93 10000 4.63 320 03:49 28.01.2021
3234 Clouds 4 1005 100 5000 3.09 250 01:37 28.01.2021
3235 Mist 3 1006 100 4500 2.06 260 23:47 27.01.2021
3236 Mist 3 1006 100 4500 3.09 240 23:23 27.01.2021
3237 Clouds 2 1006 100 6000 3.6 220 22:41 27.01.2021
3238 Clouds 2 1006 100 6000 3.6 220 22:21 27.01.2021
3239 Clouds 2 1006 93 10000 4.63 210 21:43 27.01.2021
3240 Clouds 2 1006 93 10000 4.12 220 21:23 27.01.2021
3241 Clouds 2 1007 93 10000 4.12 220 20:52 27.01.2021
3242 Clouds 2 1007 93 10000 4.63 210 20:24 27.01.2021
3243 Clouds 2 1007 93 10000 4.63 210 19:50 27.01.2021
3244 Drizzle 2 1007 93 10000 4.63 220 19:23 27.01.2021
3245 Clouds 2 1007 93 10000 5.66 200 18:46 27.01.2021
3246 Clouds 2 1008 93 10000 5.14 210 18:24 27.01.2021
3247 Clouds 2 1008 87 10000 5.14 210 17:56 27.01.2021
3248 Clouds 2 1008 87 10000 4.63 220 17:38 27.01.2021
3249 Clouds 2 1008 81 10000 6.17 200 16:58 27.01.2021
3250 Clouds 3 1008 81 10000 6.17 200 16:39 27.01.2021
3251 Clouds 3 1008 81 10000 4.63 210 16:21 27.01.2021
3252 Clouds 3 1008 75 10000 6.17 210 15:49 27.01.2021
3253 Clouds 3 1008 75 10000 5.14 210 15:29 27.01.2021
3254 Clouds 3 1009 81 10000 6.69 220 14:39 27.01.2021
3255 Clouds 3 1009 75 10000 6.69 220 14:19 27.01.2021
3256 Clouds 3 1009 81 10000 7.2 210 13:40 27.01.2021
3257 Clouds 3 1010 75 10000 5.66 210 12:46 27.01.2021
3258 Clouds 3 1010 81 10000 5.14 210 12:26 27.01.2021
3259 Clouds 3 1011 75 10000 5.14 210 11:52 27.01.2021
3260 Clear 3 1011 75 10000 5.66 210 11:26 27.01.2021
3261 Clear 2 1010 80 10000 4.63 200 10:52 27.01.2021
3262 Clear 2 1011 87 10000 3.09 190 10:26 27.01.2021
3263 Clear 1 1011 93 10000 4.63 200 09:59 27.01.2021
3264 Clear 1 1011 93 10000 4.63 200 09:33 27.01.2021
3265 Clouds 1 1011 93 8000 3.6 210 08:48 27.01.2021
3266 Clouds 1 1011 100 6000 3.6 210 07:59 27.01.2021
3267 Clouds 1 1011 100 6000 3.6 210 07:40 27.01.2021
3268 Clouds 1 1012 93 7000 3.6 220 06:48 27.01.2021
3269 Clouds 0 1012 100 7000 3.6 220 05:58 27.01.2021
3270 Clouds 0 1012 100 7000 3.6 220 05:35 27.01.2021
3271 Clouds 0 1013 93 7000 2.57 230 02:46 27.01.2021
3272 Clouds 0 1013 100 8000 2.57 220 02:21 27.01.2021
3273 Clouds 0 1014 93 9000 2.57 230 01:47 27.01.2021
3274 Clouds 0 1014 93 9000 2.57 230 01:47 27.01.2021
3275 Clouds 0 1014 93 10000 2.57 220 00:32 27.01.2021
3276 Clouds 0 1015 100 10000 2.57 220 23:44 26.01.2021
3277 Clouds 0 1015 93 10000 2.06 230 23:26 26.01.2021
3278 Clear -1 1015 93 10000 2.06 230 22:46 26.01.2021
3279 Clear -1 1015 93 10000 2.06 240 22:22 26.01.2021
3280 Clouds 0 1015 93 10000 2.06 250 21:53 26.01.2021
3281 Clear 0 1015 93 10000 2.06 250 21:28 26.01.2021
3282 Clouds 1 1014 86 10000 2.06 250 20:58 26.01.2021
3283 Clouds 1 1014 86 10000 2.06 250 20:38 26.01.2021
3284 Clouds 1 1014 87 10000 2.57 270 20:20 26.01.2021
3285 Clouds 1 1014 87 10000 2.06 260 19:43 26.01.2021
3286 Clouds 1 1014 93 10000 2.57 250 19:20 26.01.2021
3287 Clouds 2 1014 93 10000 2.06 270 18:46 26.01.2021
3288 Clouds 2 1014 93 10000 2.06 280 18:24 26.01.2021
3289 Clouds 2 1014 93 10000 2.06 280 18:24 26.01.2021
3290 Clouds 2 1014 93 10000 2.57 280 17:51 26.01.2021
3291 Clouds 2 1014 93 10000 3.6 270 17:30 26.01.2021
3292 Clouds 3 1013 87 10000 4.12 280 16:55 26.01.2021
3293 Clouds 3 1013 87 10000 4.63 290 16:37 26.01.2021
3294 Clouds 3 1013 87 10000 4.63 290 16:18 26.01.2021
3295 Clouds 3 1013 87 10000 4.63 280 15:42 26.01.2021
3296 Clouds 3 1012 93 8000 7.72 280 15:23 26.01.2021
3297 Clouds 4 1012 81 10000 5.66 290 14:43 26.01.2021
3298 Clouds 4 1012 81 10000 5.14 280 14:25 26.01.2021
3299 Clouds 4 1012 81 10000 4.63 280 13:34 26.01.2021
3300 Clouds 4 1012 81 10000 4.63 260 12:57 26.01.2021
3301 Clouds 3 1012 81 10000 4.12 270 12:38 26.01.2021
3302 Clouds 2 1012 81 10000 4.12 270 12:19 26.01.2021
3303 Clouds 2 1012 87 7000 2.57 270 11:50 26.01.2021
3304 Clouds 1 1012 93 6000 2.57 270 11:19 26.01.2021
3305 Mist 0 1011 93 5000 2.06 270 10:42 26.01.2021
3306 Mist -1 1011 100 5000 0.51 0 10:21 26.01.2021
3307 Mist -2 1011 93 4000 1.03 200 09:40 26.01.2021
3308 Mist -2 1011 93 4000 1.03 200 09:40 26.01.2021
3309 Mist -2 1010 93 4500 0.51 0 09:21 26.01.2021
3310 Fog -2 1010 100 2800 1.54 310 08:48 26.01.2021
3311 Fog -2 1009 100 3000 0.51 0 07:57 26.01.2021
3312 Fog -1 1009 100 5000 1.03 320 07:19 26.01.2021
3313 Mist 0 1008 93 5000 1.03 0 05:53 26.01.2021
3314 Mist -1 1008 100 5000 1.03 50 05:34 26.01.2021
3315 Fog -2 1007 100 3000 1.03 80 03:39 26.01.2021
3316 Clouds -1 1007 93 9000 2.06 220 01:19 26.01.2021
3317 Clouds -1 1007 93 9000 2.57 220 00:36 26.01.2021
3318 Clouds -1 1007 93 9000 1.54 220 23:33 25.01.2021
3319 Clouds -1 1006 100 9000 2.57 220 22:52 25.01.2021
3320 Clear -1 1006 100 10000 3.09 220 22:33 25.01.2021
3321 Clear -1 1006 100 10000 3.09 220 21:48 25.01.2021
3322 Clear 0 1006 93 10000 3.09 230 21:22 25.01.2021
3323 Clear 0 1006 93 10000 2.57 230 20:46 25.01.2021
3324 Clear 0 1006 93 10000 2.06 210 20:28 25.01.2021
3325 Clear 0 1005 93 10000 2.06 220 19:50 25.01.2021
3326 Clouds 0 1005 100 10000 2.06 220 19:28 25.01.2021
3327 Clouds 0 1005 93 10000 1.54 230 18:48 25.01.2021
3328 Clouds 0 1005 93 10000 2.06 230 18:27 25.01.2021
3329 Clouds 1 1005 93 10000 1.54 250 17:56 25.01.2021
3330 Clouds 1 1004 87 10000 2.57 250 17:38 25.01.2021
3331 Clouds 1 1004 87 10000 2.57 250 17:19 25.01.2021
3332 Clouds 2 1004 87 10000 3.6 250 16:41 25.01.2021
3333 Clouds 2 1004 93 10000 3.09 250 16:21 25.01.2021
3334 Clouds 2 1003 93 10000 3.09 260 15:43 25.01.2021
3335 Clouds 2 1003 87 10000 3.09 260 15:24 25.01.2021
3336 Clouds 2 1003 87 10000 2.57 250 14:46 25.01.2021
3337 Clouds 1 1003 93 10000 2.57 260 14:19 25.01.2021
3338 Clouds 1 1003 93 10000 3.09 260 13:49 25.01.2021
3339 Clouds 1 1003 93 10000 2.57 260 13:28 25.01.2021
3340 Clouds 1 1002 93 10000 2.57 240 12:46 25.01.2021
3341 Clouds 1 1002 93 8000 2.57 250 12:20 25.01.2021
3342 Mist 1 1002 93 4800 2.57 250 11:47 25.01.2021
3343 Mist 0 1002 100 4500 2.57 250 11:19 25.01.2021
3344 Mist 0 1001 100 3000 2.57 240 10:41 25.01.2021
3345 Mist 0 1001 100 1500 2.57 250 10:19 25.01.2021
3346 Mist 0 1001 100 1000 2.57 240 09:45 25.01.2021
3347 Mist 0 1000 100 3800 2.57 260 09:27 25.01.2021
3348 Clouds 0 1000 93 7000 2.57 270 08:29 25.01.2021
3349 Clouds 0 999 93 7000 2.57 290 07:45 25.01.2021
3350 Clouds 0 999 93 7000 2.57 280 07:25 25.01.2021
3351 Clouds 1 998 100 10000 3.09 270 04:58 25.01.2021
3352 Drizzle 1 998 100 6000 2.06 280 01:34 25.01.2021
3353 Drizzle 2 997 93 4500 4.63 260 23:52 24.01.2021
3354 Drizzle 2 997 93 10000 3.6 260 23:20 24.01.2021
3355 Drizzle 2 997 93 10000 3.6 260 23:20 24.01.2021
3356 Drizzle 2 997 93 6000 3.09 250 22:46 24.01.2021
3357 Drizzle 2 997 93 10000 2.57 230 22:27 24.01.2021
3358 Drizzle 2 997 93 10000 2.57 230 22:27 24.01.2021
3359 Drizzle 2 997 93 10000 2.57 230 22:25 24.01.2021
3360 Drizzle 2 997 93 10000 2.06 230 21:51 24.01.2021
3361 Drizzle 2 997 93 9000 3.09 230 21:24 24.01.2021
3362 Drizzle 2 997 93 7000 3.09 230 20:46 24.01.2021
3363 Clouds 2 997 93 8000 3.09 230 20:23 24.01.2021
3364 Clouds 2 997 93 8000 2.06 220 19:56 24.01.2021
3365 Clouds 2 997 93 8000 2.06 220 19:36 24.01.2021
3366 Clouds 2 997 93 8000 2.06 160 19:18 24.01.2021
3367 Clouds 1 997 100 8000 1.54 210 18:41 24.01.2021
3368 Snow 2 997 93 10000 2.06 160 18:21 24.01.2021
3369 Snow 2 997 93 10000 2.06 200 17:57 24.01.2021
3370 Clouds 2 997 93 9000 2.06 200 17:38 24.01.2021
3371 Clouds 2 997 93 9000 2.06 200 17:18 24.01.2021
3372 Clouds 2 997 93 9000 3.09 210 16:41 24.01.2021
3373 Rain 3 997 87 10000 2.06 230 16:20 24.01.2021
3374 Rain 3 997 93 10000 1.54 190 15:45 24.01.2021
3375 Clouds 3 997 87 10000 2.57 170 15:20 24.01.2021
3376 Clouds 3 996 87 10000 3.09 180 14:51 24.01.2021
3377 Rain 3 996 87 10000 3.09 170 14:26 24.01.2021
3378 Clouds 3 996 87 10000 3.6 170 13:36 24.01.2021
3379 Rain 2 996 93 10000 2.57 120 12:55 24.01.2021
3380 Rain 2 996 93 10000 3.09 140 12:36 24.01.2021
3381 Rain 2 996 93 10000 3.09 140 12:18 24.01.2021
3382 Rain 2 996 93 10000 3.09 140 11:43 24.01.2021
3383 Rain 2 996 93 8000 2.57 140 11:22 24.01.2021
3384 Rain 1 996 93 8000 2.06 140 10:35 24.01.2021
3385 Snow 1 995 100 10000 1.03 0 09:50 24.01.2021
3386 Snow 1 995 100 10000 0.51 0 09:22 24.01.2021
3387 Snow 1 995 100 10000 1.54 80 08:51 24.01.2021
3388 Clear 1 994 93 10000 1.54 90 06:49 24.01.2021
3389 Clouds 1 994 93 10000 1.03 140 02:21 24.01.2021
3390 Clear 2 994 87 10000 1.54 110 00:59 24.01.2021
3391 Clouds 2 994 87 10000 1.54 140 00:24 24.01.2021
3392 Clouds 2 994 87 10000 1.03 0 23:47 23.01.2021
3393 Clouds 3 994 81 10000 2.06 190 23:24 23.01.2021
3394 Clouds 3 994 81 10000 2.06 210 22:42 23.01.2021
3395 Clouds 3 994 81 10000 2.06 230 22:24 23.01.2021
3396 Clouds 3 994 81 10000 1.54 200 21:50 23.01.2021
3397 Clouds 4 994 75 10000 2.06 200 21:21 23.01.2021
3398 Clouds 4 994 75 10000 1.54 220 20:47 23.01.2021
3399 Clouds 4 994 75 10000 2.57 230 20:22 23.01.2021
3400 Clouds 4 994 70 10000 3.6 210 19:46 23.01.2021
3401 Clouds 4 994 81 10000 3.6 200 19:22 23.01.2021
3402 Clouds 4 994 81 10000 3.09 200 18:49 23.01.2021
3403 Clouds 4 994 81 10000 4.12 210 18:26 23.01.2021
3404 Clouds 4 994 75 10000 3.6 200 17:48 23.01.2021
3405 Clouds 5 994 75 10000 4.12 210 17:27 23.01.2021
3406 Clouds 5 994 75 10000 3.6 220 16:50 23.01.2021
3407 Clouds 5 994 75 10000 4.12 210 16:28 23.01.2021
3408 Clouds 5 994 75 10000 4.12 210 15:42 23.01.2021
3409 Clouds 5 994 75 10000 4.63 210 15:23 23.01.2021
3410 Clouds 5 994 75 10000 4.63 200 14:34 23.01.2021
3411 Clouds 5 995 81 10000 3.6 180 13:55 23.01.2021
3412 Clouds 4 995 81 10000 3.6 180 13:36 23.01.2021
3413 Clouds 4 995 81 10000 5.14 170 12:57 23.01.2021
3414 Clouds 4 995 81 10000 5.14 170 12:37 23.01.2021
3415 Clouds 3 996 87 10000 4.63 180 12:18 23.01.2021
3416 Clouds 2 996 93 8000 3.6 160 11:33 23.01.2021
3417 Clouds 2 996 87 7000 3.6 160 10:52 23.01.2021
3418 Clouds 1 995 93 7000 3.09 140 10:22 23.01.2021
3419 Clouds 1 996 93 6000 4.12 150 09:49 23.01.2021
3420 Clouds 1 996 93 6000 2.57 150 08:57 23.01.2021
3421 Clouds 1 996 93 6000 2.57 150 08:37 23.01.2021
3422 Clouds 0 996 100 7000 2.06 150 07:37 23.01.2021
3423 Clouds 1 996 100 9000 2.06 200 05:32 23.01.2021
3424 Clear 2 996 87 10000 4.63 220 00:56 23.01.2021
3425 Clear 2 995 87 10000 4.63 230 23:53 22.01.2021
3426 Clear 2 995 87 10000 4.63 220 23:34 22.01.2021
3427 Clear 3 995 87 10000 4.63 220 22:40 22.01.2021
3428 Clouds 3 994 81 10000 5.14 220 21:56 22.01.2021
3429 Clouds 3 994 81 10000 5.14 220 21:37 22.01.2021
3430 Clouds 3 994 81 10000 5.14 220 21:19 22.01.2021
3431 Clouds 3 994 87 10000 4.63 220 20:43 22.01.2021
3432 Clouds 3 994 81 10000 4.63 220 20:22 22.01.2021
3433 Clouds 4 993 75 10000 5.66 210 19:26 22.01.2021
3434 Clouds 4 992 75 10000 5.66 220 18:59 22.01.2021
3435 Clouds 4 992 75 10000 5.66 220 18:41 22.01.2021
3436 Clouds 4 992 75 10000 5.66 220 18:23 22.01.2021
3437 Clouds 4 992 81 10000 5.66 220 17:44 22.01.2021
3438 Clouds 5 992 81 10000 5.66 220 17:24 22.01.2021
3439 Clouds 5 992 81 10000 5.66 220 17:24 22.01.2021
3440 Clouds 5 991 75 10000 7.2 230 16:45 22.01.2021
3441 Clouds 6 991 75 10000 6.69 230 16:24 22.01.2021
3442 Clouds 6 990 70 10000 6.17 240 15:41 22.01.2021
3443 Clouds 6 990 70 10000 8.23 230 15:18 22.01.2021
3444 Clouds 6 989 75 10000 7.72 230 14:31 22.01.2021
3445 Clouds 6 989 75 10000 8.23 220 13:52 22.01.2021
3446 Clouds 6 989 81 10000 8.23 230 13:32 22.01.2021
3447 Clouds 5 989 81 10000 7.2 230 12:55 22.01.2021
3448 Clouds 5 989 81 10000 7.72 230 12:26 22.01.2021
3449 Clouds 5 988 81 10000 7.72 230 11:48 22.01.2021
3450 Clouds 4 988 87 10000 7.72 220 11:30 22.01.2021
3451 Clouds 4 988 87 10000 7.2 220 10:46 22.01.2021
3452 Clouds 4 987 87 10000 6.69 230 10:22 22.01.2021
3453 Clouds 4 987 87 10000 6.69 230 09:42 22.01.2021
3454 Clouds 3 986 93 10000 6.17 220 08:57 22.01.2021
3455 Clouds 3 985 93 10000 6.17 230 08:31 22.01.2021
3456 Clouds 3 985 93 10000 5.14 240 07:41 22.01.2021
3457 Rain 9 980 87 10000 5.66 180 04:59 22.01.2021
3458 Rain 5 984 93 10000 6.17 140 01:20 22.01.2021
3459 Rain 5 987 87 10000 6.69 170 00:29 22.01.2021
3460 Rain 6 987 75 10000 7.72 170 23:48 21.01.2021
3461 Rain 6 987 70 10000 7.2 170 23:20 21.01.2021
3462 Rain 6 988 70 10000 6.17 170 22:48 21.01.2021
3463 Clouds 7 989 65 10000 6.69 180 21:59 21.01.2021
3464 Clouds 7 989 65 10000 6.69 180 21:39 21.01.2021
3465 Clouds 7 989 65 10000 7.2 180 21:18 21.01.2021
3466 Clouds 7 989 65 10000 7.72 190 20:44 21.01.2021
3467 Clouds 7 990 70 10000 8.23 200 20:21 21.01.2021
3468 Clouds 7 990 61 10000 8.75 200 19:49 21.01.2021
3469 Clouds 7 990 61 10000 8.75 200 19:26 21.01.2021
3470 Clouds 7 990 65 10000 9.26 200 18:47 21.01.2021
3471 Clouds 7 990 65 10000 9.26 190 18:22 21.01.2021
3472 Clouds 7 990 61 10000 8.75 200 17:58 21.01.2021
3473 Clouds 8 990 61 10000 8.75 200 17:40 21.01.2021
3474 Clouds 8 990 61 10000 8.75 200 17:18 21.01.2021
3475 Clouds 8 990 66 10000 9.77 200 16:41 21.01.2021
3476 Clouds 8 990 61 10000 10.29 210 16:22 21.01.2021
3477 Clouds 8 990 61 10000 8.75 200 15:48 21.01.2021
3478 Clouds 8 990 61 10000 10.8 210 15:28 21.01.2021
3479 Clouds 8 990 61 10000 10.29 200 14:48 21.01.2021
3480 Clouds 8 990 61 10000 12.35 200 14:29 21.01.2021
3481 Clouds 9 990 61 10000 11.83 210 13:47 21.01.2021
3482 Clouds 9 990 66 10000 10.8 210 13:26 21.01.2021
3483 Clouds 8 990 66 10000 11.32 220 12:46 21.01.2021
3484 Clouds 8 990 71 10000 9.77 210 12:25 21.01.2021
3485 Clouds 8 990 71 10000 10.29 220 11:56 21.01.2021
3486 Clouds 8 990 71 10000 10.29 220 11:35 21.01.2021
3487 Clouds 7 989 76 10000 8.23 220 10:57 21.01.2021
3488 Clouds 7 988 76 10000 9.26 220 10:39 21.01.2021
3489 Clouds 7 988 76 10000 9.26 220 10:20 21.01.2021
3490 Clouds 9 986 62 10000 8.23 200 09:39 21.01.2021
3491 Clouds 9 986 62 10000 8.23 200 09:18 21.01.2021
3492 Clear 10 985 62 10000 10.29 170 08:34 21.01.2021
3493 Clear 9 985 62 10000 9.26 170 07:48 21.01.2021
3494 Clear 9 986 61 10000 8.75 160 07:26 21.01.2021
3495 Clear 9 987 71 10000 8.23 170 06:31 21.01.2021
3496 Clear 9 988 71 10000 8.23 160 04:55 21.01.2021
3497 Clear 8 991 66 10000 7.2 170 02:19 21.01.2021
3498 Clear 9 993 57 10000 5.66 170 00:42 21.01.2021
3499 Clear 9 993 57 10000 6.17 180 23:50 20.01.2021
3500 Clear 9 994 61 10000 6.17 180 23:27 20.01.2021
3501 Clear 9 994 57 10000 6.17 180 22:53 20.01.2021
3502 Clear 9 994 57 10000 6.69 170 22:32 20.01.2021
3503 Clear 9 994 61 10000 6.69 170 21:55 20.01.2021
3504 Clouds 9 994 61 10000 6.17 160 21:23 20.01.2021
3505 Rain 9 995 61 10000 6.17 170 20:54 20.01.2021
3506 Rain 9 995 61 10000 7.72 180 20:24 20.01.2021
3507 Rain 9 995 57 10000 7.72 200 19:55 20.01.2021
3508 Rain 9 995 57 10000 7.72 200 19:37 20.01.2021
3509 Clear 9 995 61 10000 7.72 200 19:18 20.01.2021
3510 Clouds 9 995 62 10000 7.2 190 18:41 20.01.2021
3511 Clear 10 995 62 10000 7.72 200 17:56 20.01.2021
3512 Clear 10 995 62 10000 7.72 200 17:37 20.01.2021
3513 Clouds 10 995 66 10000 7.72 200 16:52 20.01.2021
3514 Clouds 10 995 66 10000 8.23 210 16:32 20.01.2021
3515 Clouds 10 995 71 10000 7.72 210 15:51 20.01.2021
3516 Clouds 10 995 71 10000 7.72 210 15:33 20.01.2021
3517 Clouds 9 995 71 10000 7.72 210 14:48 20.01.2021
3518 Rain 9 996 76 10000 8.75 210 14:22 20.01.2021
3519 Rain 9 996 76 10000 8.75 210 13:42 20.01.2021
3520 Clouds 9 996 71 10000 9.77 210 13:21 20.01.2021
3521 Rain 8 996 76 10000 9.26 210 12:39 20.01.2021
3522 Clouds 9 997 71 10000 9.26 200 11:57 20.01.2021
3523 Clouds 8 997 76 10000 8.23 210 11:37 20.01.2021
3524 Clouds 8 997 76 10000 8.23 210 10:56 20.01.2021
3525 Clouds 7 997 81 10000 7.72 210 10:32 20.01.2021
3526 Clouds 7 997 81 10000 7.72 210 10:32 20.01.2021
3527 Clouds 7 997 81 10000 8.23 210 09:54 20.01.2021
3528 Rain 6 997 87 10000 8.23 210 09:27 20.01.2021
3529 Clouds 6 997 87 10000 8.75 210 08:57 20.01.2021
3530 Rain 6 997 87 10000 8.75 210 08:31 20.01.2021
3531 Drizzle 6 997 87 10000 8.75 210 07:57 20.01.2021
3532 Rain 6 998 87 10000 8.23 210 07:35 20.01.2021
3533 Drizzle 6 998 93 10000 8.75 210 06:39 20.01.2021
3534 Drizzle 7 999 93 10000 8.23 220 03:28 20.01.2021
3535 Rain 8 1000 93 10000 6.69 230 01:20 20.01.2021
3536 Drizzle 8 1000 93 10000 7.72 230 00:46 20.01.2021
3537 Clouds 8 1000 87 10000 7.2 240 23:49 19.01.2021
3538 Rain 9 1000 87 10000 6.69 240 23:27 19.01.2021
3539 Rain 9 1000 93 10000 7.2 240 22:57 19.01.2021
3540 Rain 9 1000 93 10000 7.2 240 22:37 19.01.2021
3541 Rain 9 1000 93 10000 7.72 240 22:19 19.01.2021
3542 Rain 8 999 100 4200 5.14 220 21:51 19.01.2021
3543 Clouds 8 1000 93 4500 4.63 210 21:27 19.01.2021
3544 Drizzle 7 1000 100 5000 3.6 210 20:47 19.01.2021
3545 Rain 7 1000 100 7000 3.6 220 20:24 19.01.2021
3546 Rain 7 1000 100 8000 3.6 220 19:55 19.01.2021
3547 Rain 7 1000 100 6000 3.09 220 19:30 19.01.2021
3548 Rain 7 1000 100 6000 3.6 230 18:49 19.01.2021
3549 Rain 6 1000 100 6000 3.6 230 18:30 19.01.2021
3550 Rain 6 1000 100 7000 4.12 230 17:47 19.01.2021
3551 Clouds 6 1000 100 8000 3.6 230 17:29 19.01.2021
3552 Clouds 6 1000 100 5000 4.12 230 16:59 19.01.2021
3553 Clouds 6 1000 100 5000 4.12 230 16:38 19.01.2021
3554 Clouds 5 999 100 5000 5.14 220 16:18 19.01.2021
3555 Clouds 5 999 100 4500 5.14 220 15:47 19.01.2021
3556 Clouds 5 999 100 6000 5.66 220 15:29 19.01.2021
3557 Clouds 5 999 93 8000 6.17 210 14:42 19.01.2021
3558 Drizzle 5 1000 93 6000 6.17 210 14:23 19.01.2021
3559 Clouds 5 1000 93 6000 6.17 200 13:49 19.01.2021
3560 Clouds 5 1000 93 6000 4.63 200 13:22 19.01.2021
3561 Rain 4 1001 93 10000 5.66 170 12:48 19.01.2021
3562 Rain 4 1001 93 10000 5.14 180 12:30 19.01.2021
3563 Rain 4 1002 93 10000 5.66 180 11:50 19.01.2021
3564 Rain 3 1003 93 10000 5.66 180 11:28 19.01.2021
3565 Rain 3 1003 93 10000 5.66 190 10:53 19.01.2021
3566 Rain 3 1004 93 10000 6.17 180 10:32 19.01.2021
3567 Rain 3 1004 93 9000 5.14 180 09:59 19.01.2021
3568 Rain 3 1004 93 9000 5.14 180 09:41 19.01.2021
3569 Rain 3 1005 93 9000 5.14 180 09:19 19.01.2021
3570 Rain 3 1006 100 8000 6.17 190 08:31 19.01.2021
3571 Rain 3 1007 93 9000 6.17 190 07:51 19.01.2021
3572 Rain 4 1008 93 7000 7.2 210 06:58 19.01.2021
3573 Clouds 4 1011 93 10000 5.66 220 03:34 19.01.2021
3574 Clouds 4 1012 87 10000 5.66 230 02:21 19.01.2021
3575 Clouds 5 1013 87 10000 4.63 240 00:23 19.01.2021
3576 Clouds 5 1013 87 10000 5.14 240 23:47 18.01.2021
3577 Clouds 5 1013 87 10000 5.66 240 23:23 18.01.2021
3578 Clouds 5 1013 87 10000 5.66 250 22:41 18.01.2021
3579 Clouds 5 1013 87 10000 5.14 260 22:21 18.01.2021
3580 Clouds 5 1013 87 10000 5.14 250 21:47 18.01.2021
3581 Clouds 5 1013 87 10000 5.14 240 21:22 18.01.2021
3582 Clouds 5 1013 87 10000 5.14 250 20:55 18.01.2021
3583 Clouds 5 1013 87 10000 5.66 250 20:33 18.01.2021
3584 Clouds 5 1013 93 10000 5.66 250 19:54 18.01.2021
3585 Clouds 5 1013 93 10000 5.14 250 19:34 18.01.2021
3586 Clouds 5 1013 93 10000 4.63 250 18:48 18.01.2021
3587 Clouds 4 1014 100 10000 4.12 250 18:27 18.01.2021
3588 Clouds 4 1014 100 10000 4.12 240 17:47 18.01.2021
3589 Clouds 4 1014 100 5000 4.12 240 17:29 18.01.2021
3590 Rain 4 1014 100 8000 6.17 240 16:51 18.01.2021
3591 Rain 4 1014 100 7000 5.66 240 16:32 18.01.2021
3592 Rain 4 1014 100 6000 6.17 230 15:56 18.01.2021
3593 Rain 4 1014 100 6000 6.17 230 15:37 18.01.2021
3594 Rain 4 1014 93 6000 6.69 240 15:18 18.01.2021
3595 Rain 4 1014 100 6000 5.66 230 14:41 18.01.2021
3596 Rain 4 1015 100 4500 5.66 230 14:22 18.01.2021
3597 Rain 4 1015 100 4500 6.17 230 13:44 18.01.2021
3598 Rain 4 1015 93 6000 6.69 220 13:20 18.01.2021
3599 Clouds 4 1016 93 6000 6.17 210 12:47 18.01.2021
3600 Rain 3 1016 100 5000 5.66 210 12:19 18.01.2021
3601 Rain 3 1017 100 5000 4.63 220 11:48 18.01.2021
3602 Rain 3 1017 100 6000 4.63 230 11:27 18.01.2021
3603 Rain 3 1017 100 5000 4.12 230 10:51 18.01.2021
3604 Mist 2 1017 100 4500 4.12 230 10:30 18.01.2021
3605 Mist 2 1018 100 1700 3.6 230 09:43 18.01.2021
3606 Fog 2 1018 100 700 3.6 240 09:18 18.01.2021
3607 Fog 2 1018 100 900 3.09 230 08:43 18.01.2021
3608 Drizzle 1 1018 100 2000 1.03 0 07:55 18.01.2021
3609 Mist 1 1018 100 1400 2.57 230 06:56 18.01.2021
3610 Rain 0 1018 100 4000 2.57 220 04:57 18.01.2021
3611 Snow 0 1018 100 5000 2.06 180 04:30 18.01.2021
3612 Drizzle 0 1018 93 5000 2.06 180 03:57 18.01.2021
3613 Drizzle 0 1018 93 5000 2.06 180 03:38 18.01.2021
3614 Snow 0 1018 93 5000 2.57 170 03:18 18.01.2021
3615 Snow 0 1019 86 4000 2.06 170 02:27 18.01.2021
3616 Snow 0 1019 86 10000 3.09 160 00:43 18.01.2021
3617 Snow 0 1019 80 10000 3.09 170 00:23 18.01.2021
3618 Clouds 0 1019 80 10000 3.6 160 23:44 17.01.2021
3619 Clouds 0 1019 80 10000 3.09 170 23:20 17.01.2021
3620 Snow -1 1019 86 10000 3.6 150 22:28 17.01.2021
3621 Snow 0 1020 74 10000 3.09 160 21:59 17.01.2021
3622 Snow 0 1020 74 10000 3.09 160 21:39 17.01.2021
3623 Snow 0 1020 74 10000 3.6 160 21:21 17.01.2021
3624 Snow 0 1020 74 10000 4.12 150 20:47 17.01.2021
3625 Snow 0 1020 74 10000 4.63 150 20:27 17.01.2021
3626 Snow 0 1020 74 10000 5.14 150 19:42 17.01.2021
3627 Snow 0 1020 74 10000 4.12 150 19:22 17.01.2021
3628 Snow 0 1020 74 10000 3.09 140 18:43 17.01.2021
3629 Clouds 0 1020 74 10000 3.6 130 18:23 17.01.2021
3630 Clouds 0 1019 74 10000 4.12 130 17:48 17.01.2021
3631 Clouds 0 1019 74 10000 3.6 120 17:26 17.01.2021
3632 Clear 0 1019 74 10000 4.12 130 16:44 17.01.2021
3633 Clear 0 1019 74 10000 3.09 140 16:21 17.01.2021
3634 Clear 1 1019 74 10000 3.6 150 15:43 17.01.2021
3635 Clear 1 1018 74 10000 4.63 140 15:24 17.01.2021
3636 Clear 1 1018 74 10000 4.12 140 14:49 17.01.2021
3637 Clouds 1 1018 74 10000 4.12 160 14:26 17.01.2021
3638 Clear 1 1018 74 10000 4.63 150 13:46 17.01.2021
3639 Clear 1 1019 74 10000 3.09 120 13:27 17.01.2021
3640 Clear 0 1019 80 10000 3.09 130 12:54 17.01.2021
3641 Clear -1 1019 80 10000 2.57 100 12:31 17.01.2021
3642 Clear -1 1019 80 10000 3.09 120 11:59 17.01.2021
3643 Clear -1 1019 80 10000 3.09 120 11:24 17.01.2021
3644 Clear -2 1018 86 10000 2.57 140 10:49 17.01.2021
3645 Clear -2 1018 86 10000 2.57 120 10:21 17.01.2021
3646 Clouds -2 1018 93 9000 2.06 130 09:46 17.01.2021
3647 Clouds -3 1017 93 9000 2.57 130 08:47 17.01.2021
3648 Clouds -2 1017 86 10000 2.57 120 07:51 17.01.2021
3649 Clouds -2 1017 86 10000 1.54 110 04:29 17.01.2021
3650 Clouds -2 1017 93 10000 1.54 130 02:49 17.01.2021
3651 Clouds -2 1018 86 10000 2.06 130 00:54 17.01.2021
3652 Clouds -2 1018 86 10000 2.06 150 00:21 17.01.2021
3653 Clouds -1 1018 86 10000 2.57 150 23:52 16.01.2021
3654 Clouds -1 1018 86 10000 2.06 150 23:21 16.01.2021
3655 Clouds -1 1019 86 10000 2.57 150 22:52 16.01.2021
3656 Clouds -2 1019 86 10000 2.06 140 22:19 16.01.2021
3657 Clouds -1 1019 80 10000 2.57 130 21:45 16.01.2021
3658 Clouds -1 1019 80 10000 2.06 140 21:22 16.01.2021
3659 Clouds -1 1019 80 10000 2.06 150 20:47 16.01.2021
3660 Clouds -1 1019 80 10000 2.57 160 20:23 16.01.2021
3661 Clouds -1 1019 80 10000 2.06 160 19:49 16.01.2021
3662 Clouds -1 1020 80 10000 2.06 150 19:29 16.01.2021
3663 Clouds -1 1020 80 10000 1.03 0 18:46 16.01.2021
3664 Clouds -1 1020 80 10000 2.06 210 18:27 16.01.2021
3665 Clouds -1 1020 74 10000 2.57 220 17:51 16.01.2021
3666 Clouds -1 1021 80 10000 2.57 200 17:31 16.01.2021
3667 Clouds 0 1021 80 10000 3.09 220 16:53 16.01.2021
3668 Clouds 0 1021 80 10000 3.09 210 16:35 16.01.2021
3669 Clouds 0 1022 74 10000 3.09 230 15:58 16.01.2021
3670 Clouds 1 1022 74 10000 3.09 230 15:39 16.01.2021
3671 Clouds 1 1022 69 10000 2.57 220 14:33 16.01.2021
3672 Clouds 1 1023 64 10000 2.57 220 13:53 16.01.2021
3673 Clouds 1 1023 64 10000 2.57 220 13:31 16.01.2021
3674 Clouds 0 1024 69 10000 3.6 230 12:49 16.01.2021
3675 Clouds 0 1024 64 10000 3.09 240 12:31 16.01.2021
3676 Clouds 0 1024 69 10000 3.6 220 11:59 16.01.2021
3677 Clouds -1 1025 74 10000 3.09 220 11:39 16.01.2021
3678 Clouds -1 1025 74 10000 3.09 220 11:18 16.01.2021
3679 Clouds -1 1025 69 10000 2.57 250 10:41 16.01.2021
3680 Clouds -2 1025 74 10000 3.09 230 09:57 16.01.2021
3681 Clouds -3 1025 80 10000 3.09 230 09:21 16.01.2021
3682 Clouds -2 1025 74 10000 0.51 0 08:20 16.01.2021
3683 Clouds -2 1026 74 10000 2.57 280 07:18 16.01.2021
3684 Clouds -1 1027 69 10000 3.6 270 05:45 16.01.2021
3685 Clouds -2 1027 74 10000 3.6 270 04:36 16.01.2021
3686 Clouds -2 1027 69 10000 3.09 270 02:54 16.01.2021
3687 Clouds -1 1028 69 10000 2.57 280 00:49 16.01.2021
3688 Clouds -1 1028 69 10000 3.6 310 00:25 16.01.2021
3689 Clouds -1 1028 69 10000 4.12 310 23:40 15.01.2021
3690 Clouds -1 1028 69 10000 3.09 320 22:51 15.01.2021
3691 Clouds -1 1028 69 10000 3.09 300 22:23 15.01.2021
3692 Clouds -1 1028 74 10000 3.09 310 21:46 15.01.2021
3693 Clouds -1 1028 69 10000 3.09 290 20:58 15.01.2021
3694 Clouds -1 1028 69 10000 3.09 290 20:40 15.01.2021
3695 Clouds -1 1028 69 10000 3.6 310 20:19 15.01.2021
3696 Clouds -1 1028 69 10000 3.09 310 19:40 15.01.2021
3697 Clouds -1 1028 64 10000 2.57 310 19:22 15.01.2021
3698 Clouds -1 1028 64 10000 2.57 310 18:43 15.01.2021
3699 Clouds -1 1028 69 10000 2.06 10 18:19 15.01.2021
3700 Clouds -1 1028 64 10000 3.6 10 17:51 15.01.2021
3701 Snow -1 1028 64 10000 2.57 10 17:25 15.01.2021
3702 Snow -1 1027 69 10000 3.09 10 16:52 15.01.2021
3703 Snow -1 1027 69 10000 3.6 10 16:25 15.01.2021
3704 Snow -1 1027 74 10000 3.09 20 15:42 15.01.2021
3705 Clouds -1 1027 80 10000 3.6 350 15:23 15.01.2021
3706 Clouds 0 1027 74 10000 4.63 330 14:51 15.01.2021
3707 Snow 0 1026 74 10000 4.63 320 14:28 15.01.2021
3708 Snow 0 1026 74 10000 4.12 320 13:46 15.01.2021
3709 Clouds 0 1026 80 10000 4.63 320 13:24 15.01.2021
3710 Snow 0 1026 80 10000 4.63 340 12:59 15.01.2021
3711 Snow 0 1026 80 10000 4.63 330 12:37 15.01.2021
3712 Snow 0 1026 80 10000 4.63 330 12:19 15.01.2021
3713 Snow 0 1026 80 10000 4.12 330 11:42 15.01.2021
3714 Snow 0 1026 80 10000 4.12 330 10:58 15.01.2021
3715 Snow 0 1026 80 10000 4.12 330 10:39 15.01.2021
3716 Snow 0 1026 80 10000 4.63 320 10:21 15.01.2021
3717 Snow 0 1025 86 10000 4.63 320 09:47 15.01.2021
3718 Clouds 0 1025 80 10000 4.12 330 09:28 15.01.2021
3719 Clouds 0 1025 86 10000 3.6 330 08:28 15.01.2021
3720 Clouds 0 1024 86 10000 3.6 320 07:44 15.01.2021
3721 Clouds 0 1024 86 10000 3.09 340 07:23 15.01.2021
3722 Clouds 0 1024 86 10000 2.06 340 06:36 15.01.2021
3723 Clouds 1 1023 93 10000 2.06 340 02:44 15.01.2021
3724 Clouds 1 1023 86 10000 2.06 340 00:42 15.01.2021
3725 Clouds 1 1023 86 10000 1.54 330 23:31 14.01.2021
3726 Clouds 1 1023 93 10000 2.57 320 22:58 14.01.2021
3727 Clouds 1 1022 93 10000 2.06 320 22:37 14.01.2021
3728 Clouds 1 1022 93 10000 2.06 320 22:19 14.01.2021
3729 Clouds 1 1022 93 10000 2.57 320 21:40 14.01.2021
3730 Clouds 1 1022 93 10000 2.06 330 21:20 14.01.2021
3731 Clouds 1 1022 93 10000 2.06 330 20:48 14.01.2021
3732 Clouds 1 1022 93 10000 1.54 320 20:18 14.01.2021
3733 Clouds 1 1022 93 10000 1.54 330 19:41 14.01.2021
3734 Clouds 1 1022 93 10000 1.54 330 19:23 14.01.2021
3735 Clouds 1 1022 93 10000 2.06 330 18:49 14.01.2021
3736 Clouds 1 1022 93 10000 2.06 310 18:19 14.01.2021
3737 Clouds 1 1021 93 10000 1.54 310 17:45 14.01.2021
3738 Clouds 1 1021 93 10000 3.09 310 17:26 14.01.2021
3739 Clouds 1 1021 93 10000 2.57 310 16:40 14.01.2021
3740 Clouds 1 1021 93 10000 3.6 320 15:58 14.01.2021
3741 Clouds 1 1021 93 10000 3.6 320 15:39 14.01.2021
3742 Clouds 1 1020 93 10000 3.6 320 14:59 14.01.2021
3743 Clouds 1 1020 93 10000 3.6 320 14:38 14.01.2021
3744 Clouds 1 1020 93 10000 3.6 330 14:19 14.01.2021
3745 Snow 1 1020 93 10000 3.09 310 13:53 14.01.2021
3746 Snow 1 1020 93 10000 4.12 320 13:21 14.01.2021
3747 Snow 1 1020 93 10000 3.6 320 12:51 14.01.2021
3748 Snow 1 1020 93 10000 4.12 320 12:20 14.01.2021
3749 Snow 1 1020 93 10000 3.6 320 11:50 14.01.2021
3750 Snow 1 1019 93 10000 3.09 320 11:21 14.01.2021
3751 Snow 1 1019 93 10000 3.09 330 10:54 14.01.2021
3752 Clouds 1 1019 86 10000 2.06 340 10:29 14.01.2021
3753 Clouds 1 1018 93 10000 2.06 310 09:59 14.01.2021
3754 Clouds 1 1018 93 10000 2.06 310 09:41 14.01.2021
3755 Clouds 1 1018 86 10000 2.06 330 09:18 14.01.2021
3756 Clouds 1 1017 93 10000 2.57 330 08:28 14.01.2021
3757 Clouds 1 1016 93 10000 2.57 340 07:50 14.01.2021
3758 Clouds 1 1016 93 10000 3.6 340 06:59 14.01.2021
3759 Clouds 1 1015 93 10000 4.12 340 06:19 14.01.2021
3760 Snow 1 1011 93 4500 7.2 330 02:51 14.01.2021
3761 Snow 1 1008 75 10000 9.26 300 23:56 13.01.2021
3762 Clouds 1 1007 75 10000 8.75 300 23:24 13.01.2021
3763 Clouds 1 1007 75 10000 8.75 310 22:43 13.01.2021
3764 Clouds 1 1007 75 10000 7.2 310 22:20 13.01.2021
3765 Clouds 1 1006 75 10000 7.72 310 21:42 13.01.2021
3766 Clouds 1 1006 75 10000 8.75 310 21:19 13.01.2021
3767 Clouds 1 1006 75 10000 7.72 310 20:48 13.01.2021
3768 Clouds 1 1006 75 10000 9.26 320 20:22 13.01.2021
3769 Clouds 1 1005 75 10000 8.23 320 19:47 13.01.2021
3770 Clouds 1 1005 75 10000 7.72 320 19:23 13.01.2021
3771 Clouds 1 1005 75 10000 9.26 310 18:45 13.01.2021
3772 Clouds 1 1004 80 10000 9.26 310 18:23 13.01.2021
3773 Clouds 2 1004 80 10000 7.72 300 17:41 13.01.2021
3774 Clouds 2 1003 80 10000 8.23 300 17:18 13.01.2021
3775 Clouds 3 1003 75 10000 8.23 310 16:42 13.01.2021
3776 Clouds 2 1002 87 10000 6.17 280 16:21 13.01.2021
3777 Snow 2 1002 87 10000 6.69 270 15:41 13.01.2021
3778 Rain 2 1002 93 10000 8.75 270 15:20 13.01.2021
3779 Snow 4 1002 81 10000 8.75 260 14:28 13.01.2021
3780 Rain 5 1003 87 10000 7.72 260 13:47 13.01.2021
3781 Rain 4 1003 87 10000 7.72 250 13:25 13.01.2021
3782 Clouds 4 1004 87 10000 6.69 250 12:46 13.01.2021
3783 Clouds 3 1005 93 10000 6.69 250 12:25 13.01.2021
3784 Rain 3 1005 87 10000 7.2 240 11:51 13.01.2021
3785 Clouds 3 1005 87 10000 6.69 240 11:33 13.01.2021
3786 Clouds 2 1006 93 10000 7.2 240 10:49 13.01.2021
3787 Clouds 2 1006 93 10000 6.69 250 10:29 13.01.2021
3788 Clouds 2 1006 93 10000 5.66 240 09:49 13.01.2021
3789 Clouds 2 1006 93 10000 5.66 260 09:28 13.01.2021
3790 Snow 2 1007 93 5000 5.14 260 08:48 13.01.2021
3791 Clouds 2 1006 93 10000 5.66 250 08:25 13.01.2021
3792 Snow 2 1007 100 10000 5.14 250 07:30 13.01.2021
3793 Clouds 2 1007 100 10000 3.6 250 06:51 13.01.2021
3794 Clouds 2 1007 87 10000 5.14 250 04:20 13.01.2021
3795 Snow 2 1007 93 10000 3.6 260 03:44 13.01.2021
3796 Clouds 2 1008 93 10000 4.12 270 03:24 13.01.2021
3797 Clouds 2 1008 87 9000 5.66 270 01:18 13.01.2021
3798 Rain 2 1007 80 10000 5.66 280 23:54 12.01.2021
3799 Clear 2 1007 80 10000 5.14 270 23:22 12.01.2021
3800 Clouds 2 1006 80 10000 4.63 270 22:45 12.01.2021
3801 Clouds 2 1006 87 10000 4.12 260 22:23 12.01.2021
3802 Clear 2 1006 87 10000 5.14 260 21:49 12.01.2021
3803 Clear 2 1006 87 10000 4.12 260 21:28 12.01.2021
3804 Clouds 2 1005 80 10000 4.63 270 20:49 12.01.2021
3805 Clouds 2 1005 80 10000 3.09 270 20:27 12.01.2021
3806 Clouds 2 1005 80 10000 5.66 280 19:49 12.01.2021
3807 Clouds 2 1004 87 10000 5.14 290 19:27 12.01.2021
3808 Clouds 2 1004 87 10000 3.6 270 18:44 12.01.2021
3809 Clouds 2 1004 87 10000 4.12 300 18:24 12.01.2021
3810 Clouds 2 1003 87 10000 6.69 310 17:44 12.01.2021
3811 Clouds 3 1003 81 10000 9.26 320 17:25 12.01.2021
3812 Clouds 4 1001 81 10000 7.72 280 16:44 12.01.2021
3813 Clouds 3 1001 93 10000 4.63 250 16:24 12.01.2021
3814 Clouds 3 1001 93 10000 5.66 270 15:41 12.01.2021
3815 Snow 4 1001 81 10000 4.63 270 15:21 12.01.2021
3816 Clouds 5 1001 70 10000 4.12 270 14:44 12.01.2021
3817 Rain 5 1001 70 10000 4.12 260 14:25 12.01.2021
3818 Clouds 5 1001 65 10000 3.6 270 13:52 12.01.2021
3819 Clouds 5 1001 70 10000 3.09 280 13:22 12.01.2021
3820 Clouds 4 1001 75 10000 3.09 280 12:29 12.01.2021
3821 Clear 4 1001 81 10000 3.09 300 11:42 12.01.2021
3822 Clouds 3 1001 93 10000 3.09 310 10:55 12.01.2021
3823 Clouds 3 1001 93 10000 3.09 300 10:26 12.01.2021
3824 Clouds 3 1000 93 10000 3.09 290 09:59 12.01.2021
3825 Clouds 3 1000 93 10000 3.09 290 09:39 12.01.2021
3826 Clouds 3 1000 93 10000 1.03 240 09:20 12.01.2021
3827 Rain 3 1000 87 10000 3.09 340 08:26 12.01.2021
3828 Rain 4 1000 93 10000 4.63 330 07:41 12.01.2021
3829 Rain 4 999 100 6000 3.6 310 07:21 12.01.2021
3830 Rain 6 999 93 9000 6.17 240 05:40 12.01.2021
3831 Rain 5 1000 93 9000 8.23 230 03:46 12.01.2021
3832 Rain 5 1000 93 10000 9.26 230 03:19 12.01.2021
3833 Rain 5 1001 93 7000 8.75 230 01:51 12.01.2021
3834 Rain 4 1002 93 7000 10.29 220 00:33 12.01.2021
3835 Rain 4 1003 93 7000 9.26 220 23:41 11.01.2021
3836 Rain 4 1003 93 6000 9.77 220 23:19 11.01.2021
3837 Clouds 4 1004 93 6000 8.23 220 22:46 11.01.2021
3838 Rain 4 1005 93 8000 9.26 220 22:27 11.01.2021
3839 Rain 4 1005 93 6000 8.75 230 21:46 11.01.2021
3840 Rain 4 1006 93 7000 8.75 220 21:25 11.01.2021
3841 Rain 4 1006 93 6000 9.26 220 20:59 11.01.2021
3842 Drizzle 4 1006 93 6000 9.26 220 20:39 11.01.2021
3843 Drizzle 4 1006 93 6000 9.26 210 20:20 11.01.2021
3844 Drizzle 3 1007 93 5000 8.75 220 19:49 11.01.2021
3845 Drizzle 3 1008 100 5000 8.75 220 19:22 11.01.2021
3846 Drizzle 3 1008 93 5000 9.26 220 18:43 11.01.2021
3847 Drizzle 3 1008 93 5000 8.75 220 18:23 11.01.2021
3848 Drizzle 3 1009 93 5000 9.77 220 17:42 11.01.2021
3849 Drizzle 3 1009 93 7000 8.75 220 17:24 11.01.2021
3850 Clouds 3 1009 93 7000 9.26 220 16:49 11.01.2021
3851 Clouds 3 1010 93 5000 8.23 220 16:29 11.01.2021
3852 Rain 3 1010 93 5000 9.26 220 15:58 11.01.2021
3853 Rain 3 1010 93 5000 9.26 220 15:37 11.01.2021
3854 Drizzle 3 1011 93 5000 8.75 230 14:58 11.01.2021
3855 Drizzle 3 1011 93 5000 8.75 230 14:38 11.01.2021
3856 Drizzle 3 1012 93 4800 8.23 220 13:48 11.01.2021
3857 Drizzle 3 1012 93 4800 9.26 220 13:24 11.01.2021
3858 Drizzle 3 1013 93 4600 8.23 220 12:45 11.01.2021
3859 Drizzle 3 1013 93 4800 9.26 220 12:27 11.01.2021
3860 Drizzle 3 1014 93 4800 8.75 220 11:50 11.01.2021
3861 Drizzle 3 1014 93 4200 8.75 220 11:26 11.01.2021
3862 Clouds 3 1014 93 8000 8.75 220 10:42 11.01.2021
3863 Clouds 3 1014 93 8000 7.72 220 10:24 11.01.2021
3864 Rain 3 1014 93 10000 7.2 220 09:38 11.01.2021
3865 Rain 3 1014 93 10000 7.2 220 09:19 11.01.2021
3866 Rain 3 1014 93 9000 7.72 220 08:44 11.01.2021
3867 Rain 3 1015 93 7000 6.69 220 08:18 11.01.2021
3868 Rain 3 1015 100 4200 6.69 220 07:26 11.01.2021
3869 Rain 3 1015 100 3500 6.17 220 06:58 11.01.2021
3870 Drizzle 3 1017 100 4000 5.14 230 03:27 11.01.2021
3871 Drizzle 3 1017 100 4500 3.6 230 01:29 11.01.2021
3872 Drizzle 3 1018 100 2500 4.63 240 23:59 10.01.2021
3873 Drizzle 3 1018 100 5000 6.17 230 23:30 10.01.2021
3874 Drizzle 3 1018 93 5000 6.17 230 22:48 10.01.2021
3875 Drizzle 3 1018 93 5000 5.66 230 22:24 10.01.2021
3876 Drizzle 3 1018 93 5000 5.66 230 21:45 10.01.2021
3877 Drizzle 3 1018 93 8000 5.66 220 21:21 10.01.2021
3878 Rain 3 1018 93 8000 5.66 220 21:21 10.01.2021
3879 Drizzle 3 1019 93 6000 5.66 220 20:56 10.01.2021
3880 Drizzle 3 1019 93 6000 5.66 220 20:33 10.01.2021
3881 Drizzle 3 1019 93 5000 5.66 230 20:33 10.01.2021
3882 Rain 3 1019 93 4800 6.17 220 19:44 10.01.2021
3883 Clouds 3 1019 87 10000 6.17 220 19:26 10.01.2021
3884 Drizzle 3 1019 93 4700 5.66 220 18:56 10.01.2021
3885 Clouds 3 1019 87 10000 6.17 220 18:37 10.01.2021
3886 Clouds 3 1019 87 10000 6.17 220 18:18 10.01.2021
3887 Clouds 3 1019 87 10000 5.14 210 17:21 10.01.2021
3888 Clouds 3 1020 87 10000 4.63 210 16:37 10.01.2021
3889 Clouds 3 1020 87 10000 4.63 210 16:18 10.01.2021
3890 Clouds 3 1020 87 10000 5.66 210 15:25 10.01.2021
3891 Clouds 3 1020 87 10000 5.66 220 14:52 10.01.2021
3892 Clouds 3 1021 87 10000 6.69 220 14:33 10.01.2021
3893 Clouds 3 1021 87 10000 6.17 220 13:55 10.01.2021
3894 Clouds 3 1021 87 10000 6.17 220 13:37 10.01.2021
3895 Clouds 3 1021 87 10000 6.17 220 13:18 10.01.2021
3896 Clouds 3 1021 87 10000 7.2 220 12:50 10.01.2021
3897 Clouds 3 1021 87 10000 7.2 220 12:32 10.01.2021
3898 Clouds 2 1022 87 10000 5.14 210 11:44 10.01.2021
3899 Clouds 2 1022 87 10000 4.63 220 11:19 10.01.2021
3900 Clouds 2 1022 86 10000 4.63 210 10:45 10.01.2021
3901 Clouds 2 1022 86 9000 4.12 200 10:22 10.01.2021
3902 Clouds 0 1022 93 7000 3.09 180 09:36 10.01.2021
3903 Clouds 0 1022 93 6000 2.57 170 08:23 10.01.2021
3904 Clouds -1 1022 100 6000 2.06 160 07:37 10.01.2021
3905 Clouds -1 1023 100 7000 4.12 220 06:21 10.01.2021
3906 Clouds -1 1023 100 10000 1.54 200 05:41 10.01.2021
3907 Clouds -1 1024 100 8000 1.54 220 03:57 10.01.2021
3908 Clouds 0 1023 93 10000 3.6 220 01:30 10.01.2021
3909 Clouds 1 1024 86 10000 1.54 220 23:59 09.01.2021
3910 Clouds 1 1024 86 10000 1.54 220 23:41 09.01.2021
3911 Clouds 1 1023 86 10000 1.54 210 22:57 09.01.2021
3912 Clouds 1 1024 93 10000 1.54 250 22:19 09.01.2021
3913 Clouds 1 1023 93 9000 1.54 270 21:58 09.01.2021
3914 Clouds 1 1023 93 9000 1.54 270 21:39 09.01.2021
3915 Clouds 1 1023 93 8000 2.06 260 21:20 09.01.2021
3916 Clouds 1 1023 93 8000 2.06 270 20:54 09.01.2021
3917 Clouds 1 1023 93 8000 2.57 260 20:29 09.01.2021
3918 Clouds 1 1023 93 8000 2.06 270 19:39 09.01.2021
3919 Clouds 2 1023 93 8000 2.06 290 19:20 09.01.2021
3920 Clouds 1 1023 93 8000 1.03 0 18:37 09.01.2021
3921 Clouds 1 1023 93 8000 1.03 0 18:18 09.01.2021
3922 Clouds 2 1022 93 8000 1.03 300 17:41 09.01.2021
3923 Clouds 2 1022 93 8000 1.03 0 17:22 09.01.2021
3924 Clouds 2 1022 93 8000 1.03 0 16:28 09.01.2021
3925 Clouds 2 1022 93 8000 3.09 280 15:42 09.01.2021
3926 Clouds 2 1022 93 8000 3.09 290 15:24 09.01.2021
3927 Clouds 2 1022 93 10000 2.57 290 14:37 09.01.2021
3928 Clouds 2 1022 93 10000 2.57 290 14:19 09.01.2021
3929 Clouds 2 1022 93 10000 2.57 280 13:46 09.01.2021
3930 Clouds 2 1022 93 10000 3.6 290 13:27 09.01.2021
3931 Clouds 2 1022 93 10000 3.6 290 12:47 09.01.2021
3932 Clouds 2 1022 93 10000 3.09 300 12:21 09.01.2021
3933 Clouds 2 1022 93 10000 4.12 300 11:50 09.01.2021
3934 Clouds 2 1022 93 10000 2.57 300 11:27 09.01.2021
3935 Clouds 1 1021 93 10000 3.09 300 10:52 09.01.2021
3936 Clouds 1 1021 93 10000 3.6 290 10:27 09.01.2021
3937 Clouds 1 1021 93 10000 3.09 310 09:46 09.01.2021
3938 Clouds 0 1021 100 10000 3.6 310 09:21 09.01.2021
3939 Clouds 1 1020 100 10000 4.12 300 08:28 09.01.2021
3940 Clouds 1 1019 93 10000 3.6 310 06:57 09.01.2021
3941 Clouds 2 1019 93 10000 3.6 310 06:39 09.01.2021
3942 Clouds 2 1018 93 10000 3.6 300 04:47 09.01.2021
3943 Snow 2 1018 93 10000 4.12 310 03:21 09.01.2021
3944 Snow 2 1018 93 8000 5.66 310 02:30 09.01.2021
3945 Snow 2 1017 93 10000 5.14 310 01:45 09.01.2021
3946 Snow 2 1017 93 10000 4.12 310 00:36 09.01.2021
3947 Snow 2 1017 93 10000 3.6 300 23:57 08.01.2021
3948 Snow 2 1016 93 6000 3.09 300 22:58 08.01.2021
3949 Snow 2 1016 93 10000 4.12 310 22:18 08.01.2021
3950 Snow 2 1016 93 10000 4.12 300 21:37 08.01.2021
3951 Snow 1 1015 93 10000 4.12 310 20:49 08.01.2021
3952 Snow 1 1015 93 10000 4.63 310 20:25 08.01.2021
3953 Snow 1 1015 100 10000 4.63 300 19:55 08.01.2021
3954 Snow 1 1015 100 7000 4.63 290 19:22 08.01.2021
3955 Snow 1 1014 93 8000 4.63 300 18:36 08.01.2021
3956 Snow 1 1014 93 8000 4.63 300 18:18 08.01.2021
3957 Snow 1 1014 93 10000 3.6 300 17:45 08.01.2021
3958 Clouds 1 1014 93 10000 3.6 300 17:22 08.01.2021
3959 Snow 2 1013 93 10000 3.6 310 16:34 08.01.2021
3960 Snow 2 1013 93 10000 4.12 300 15:44 08.01.2021
3961 Snow 2 1013 93 5000 3.6 300 15:18 08.01.2021
3962 Snow 2 1013 93 5000 4.12 300 14:35 08.01.2021
3963 Snow 2 1013 93 5000 3.6 310 13:44 08.01.2021
3964 Snow 2 1012 93 5000 4.63 310 13:18 08.01.2021
3965 Snow 2 1012 93 5000 4.12 310 12:49 08.01.2021
3966 Snow 2 1012 93 4500 4.12 310 12:20 08.01.2021
3967 Snow 2 1012 93 4000 3.6 300 11:45 08.01.2021
3968 Snow 2 1012 93 4000 3.6 300 11:27 08.01.2021
3969 Snow 2 1012 93 6000 3.09 300 10:52 08.01.2021
3970 Snow 2 1012 93 7000 2.57 300 10:32 08.01.2021
3971 Clouds 2 1012 100 7000 2.57 300 09:46 08.01.2021
3972 Clouds 2 1011 93 7000 3.09 310 09:28 08.01.2021
3973 Snow 2 1011 93 6000 3.09 300 08:38 08.01.2021
3974 Snow 1 1010 100 6000 2.06 300 07:27 08.01.2021
3975 Snow 1 1010 100 7000 3.09 330 06:21 08.01.2021
3976 Snow 1 1009 100 5000 0.51 0 00:22 08.01.2021
3977 Snow 1 1009 93 5000 0.51 0 23:41 07.01.2021
3978 Snow 1 1009 93 6000 1.03 270 22:47 07.01.2021
3979 Snow 1 1009 93 6000 1.54 280 22:26 07.01.2021
3980 Snow 1 1009 93 6000 1.03 270 21:47 07.01.2021
3981 Snow 1 1009 93 6000 1.54 270 21:27 07.01.2021
3982 Snow 1 1009 100 4500 1.54 270 20:47 07.01.2021
3983 Snow 1 1009 100 4000 2.06 270 20:29 07.01.2021
3984 Snow 1 1009 100 3000 2.06 260 19:46 07.01.2021
3985 Snow 1 1009 100 2500 2.06 270 19:23 07.01.2021
3986 Snow 2 1009 100 1800 2.06 260 18:40 07.01.2021
3987 Snow 2 1009 100 3500 2.57 270 18:19 07.01.2021
3988 Snow 2 1009 100 7000 1.54 260 17:31 07.01.2021
3989 Snow 2 1009 100 3500 2.06 260 16:55 07.01.2021
3990 Snow 2 1009 100 2500 2.57 260 16:32 07.01.2021
3991 Snow 2 1008 100 2500 2.57 260 15:48 07.01.2021
3992 Mist 2 1008 100 2500 2.57 260 15:48 07.01.2021
3993 Snow 2 1008 100 2500 2.57 260 15:30 07.01.2021
3994 Snow 2 1008 100 3500 3.09 260 14:31 07.01.2021
3995 Mist 2 1008 100 3500 2.57 270 13:50 07.01.2021
3996 Snow 2 1009 100 3500 2.57 260 13:28 07.01.2021
3997 Snow 2 1009 97 3000 3.1 270 12:55 07.01.2021
3998 Snow 1 1009 97 3000 3.1 270 12:23 07.01.2021
3999 Snow 1 1009 97 3500 2.6 270 11:41 07.01.2021
4000 Mist 1 1009 97 3500 2.6 270 11:23 07.01.2021
4001 Snow 0 1009 97 3500 2.1 260 10:37 07.01.2021
4002 Snow 0 1009 97 3000 2.1 270 10:18 07.01.2021
4003 Snow 0 1009 97 4800 1.5 270 09:41 07.01.2021
4004 Snow 0 1008 97 5000 2.1 290 08:40 07.01.2021
4005 Snow 0 1008 97 4500 1.5 280 08:21 07.01.2021
4006 Snow 0 1008 97 2800 2.1 280 07:42 07.01.2021
4007 Snow 0 1008 97 3000 2.1 280 06:46 07.01.2021
4008 Snow 1 1009 97 4000 2.6 300 02:19 07.01.2021
4009 Snow 1 1010 97 4500 2.6 300 00:22 07.01.2021
4010 Snow 1 1010 96 3500 3.1 300 23:31 06.01.2021
4011 Snow 1 1010 97 3000 3.1 300 22:29 06.01.2021
4012 Snow 1 1010 97 3000 3.1 300 21:42 06.01.2021
4013 Snow 1 1010 97 3000 3.1 300 21:22 06.01.2021
4014 Snow 1 1010 97 3000 3.1 300 20:50 06.01.2021
4015 Snow 1 1010 96 3800 3.6 310 20:22 06.01.2021
4016 Snow 1 1010 96 3800 3.6 310 19:48 06.01.2021
4017 Snow 1 1010 97 3800 3.6 310 19:29 06.01.2021
4018 Snow 1 1011 97 3800 4.1 310 18:50 06.01.2021
4019 Snow 1 1011 97 4000 4.1 300 18:32 06.01.2021
4020 Snow 1 1011 97 4000 4.1 300 17:59 06.01.2021
4021 Snow 1 1011 97 4000 4.1 300 17:41 06.01.2021
4022 Snow 1 1011 97 4000 4.1 300 17:21 06.01.2021
4023 Snow 0 1011 97 4000 3.6 310 16:39 06.01.2021
4024 Snow 1 1012 97 4000 3.6 310 16:18 06.01.2021
4025 Snow 1 1012 97 4200 3.6 310 15:49 06.01.2021
4026 Snow 1 1012 97 4200 3.6 310 15:24 06.01.2021
4027 Snow 1 1012 97 3200 3.1 310 14:42 06.01.2021
4028 Snow 1 1012 96 3400 4.1 310 14:19 06.01.2021
4029 Snow 1 1013 100 8000 4.6 320 13:42 06.01.2021
4030 Snow 1 1013 100 9000 4.6 320 13:20 06.01.2021
4031 Snow 1 1014 96 10000 4.1 320 12:46 06.01.2021
4032 Snow 1 1014 96 8000 4.1 320 11:51 06.01.2021
4033 Snow 1 1014 96 7000 3.6 320 11:24 06.01.2021
4034 Snow 1 1015 96 3800 3.1 330 10:56 06.01.2021
4035 Snow 1 1015 95 3800 3.1 330 10:18 06.01.2021
4036 Snow 1 1015 95 7000 2.6 340 09:47 06.01.2021
4037 Snow 1 1015 96 9000 2.6 340 08:57 06.01.2021
4038 Snow 2 1015 96 10000 3.1 360 08:26 06.01.2021
4039 Snow 2 1015 96 10000 3.1 360 07:54 06.01.2021
4040 Clouds 2 1016 95 10000 3.1 360 06:46 06.01.2021
4041 Clouds 2 1016 92 10000 4.1 360 05:33 06.01.2021
4042 Clouds 2 1017 93 10000 3.6 360 04:34 06.01.2021
4043 Clouds 2 1018 89 10000 3.6 20 02:46 06.01.2021
4044 Clouds 2 1018 94 10000 3.6 30 02:23 06.01.2021
4045 Clouds 3 1018 93 10000 3.1 20 00:31 06.01.2021
4046 Clouds 3 1019 93 10000 3.1 20 23:29 05.01.2021
4047 Clouds 3 1019 93 10000 3.6 20 22:43 05.01.2021
4048 Clouds 2 1019 93 10000 2.6 20 22:21 05.01.2021
4049 Clouds 3 1019 93 10000 3.6 30 21:55 05.01.2021
4050 Clouds 3 1019 93 10000 4.1 30 20:56 05.01.2021
4051 Clouds 3 1019 93 10000 4.1 30 20:25 05.01.2021
4052 Clouds 3 1019 93 10000 4.1 30 19:44 05.01.2021
4053 Clouds 3 1019 86 10000 4.1 30 19:21 05.01.2021
4054 Clouds 3 1019 86 10000 4.6 40 18:44 05.01.2021
4055 Clouds 3 1019 86 10000 4.6 40 18:25 05.01.2021
4056 Clouds 3 1019 93 10000 4.1 30 17:50 05.01.2021
4057 Clouds 3 1019 93 10000 4.1 30 17:31 05.01.2021
4058 Rain 3 1019 93 10000 5.1 30 16:53 05.01.2021
4059 Clouds 3 1019 93 10000 5.1 30 16:22 05.01.2021
4060 Clouds 3 1019 93 10000 4.1 30 15:51 05.01.2021
4061 Clouds 3 1019 93 10000 4.1 30 15:29 05.01.2021
4062 Clouds 4 1019 93 10000 3.6 10 14:47 05.01.2021
4063 Clouds 4 1019 93 10000 4.1 20 13:55 05.01.2021
4064 Clouds 4 1019 93 10000 4.1 20 13:36 05.01.2021
4065 Clouds 4 1019 93 10000 3.6 40 12:52 05.01.2021
4066 Clouds 4 1019 86 10000 4.6 50 12:29 05.01.2021
4067 Clouds 4 1019 86 10000 5.1 60 11:53 05.01.2021
4068 Clouds 4 1019 86 10000 5.1 60 11:29 05.01.2021
4069 -273 0 0 0 0 0 11:28 05.01.2021
4070 -273 0 0 0 0 0 11:27 05.01.2021
4071 Clouds 3 1019 93 10000 4.6 60 10:44 05.01.2021
4072 Clouds 3 1019 93 10000 5.1 60 10:18 05.01.2021
4073 Clouds 3 1019 93 10000 5.1 60 09:41 05.01.2021
4074 Clouds 3 1019 93 10000 5.1 60 08:59 05.01.2021
4075 Rain 3 1019 93 10000 5.7 60 08:19 05.01.2021
4076 Clouds 3 1019 93 10000 4.1 50 05:32 05.01.2021
4077 Rain 3 1019 93 10000 4.6 50 03:39 05.01.2021
4078 Rain 3 1019 100 10000 3.1 30 00:24 05.01.2021
4079 Snow 2 1019 93 10000 3.1 30 23:43 04.01.2021
4080 Snow 2 1019 93 10000 3.1 30 23:24 04.01.2021
4081 Clouds 2 1019 100 10000 3.6 30 22:46 04.01.2021
4082 Clouds 2 1019 100 10000 3.6 30 22:21 04.01.2021
4083 Clouds 2 1019 100 10000 4.1 40 21:40 04.01.2021
4084 Clouds 2 1019 93 10000 4.1 30 21:22 04.01.2021
4085 Snow 2 1019 93 10000 4.6 30 20:43 04.01.2021
4086 Snow 2 1019 93 10000 5.1 30 20:22 04.01.2021
4087 Snow 2 1019 93 10000 4.6 40 19:43 04.01.2021
4088 Rain 2 1019 93 10000 5.1 40 19:21 04.01.2021
4089 Rain 2 1019 93 10000 5.1 40 18:48 04.01.2021
4090 Rain 2 1019 93 10000 4.6 30 18:19 04.01.2021
4091 Clouds 2 1019 93 10000 4.6 30 17:41 04.01.2021
4092 Clouds 2 1019 93 10000 5.1 30 17:22 04.01.2021
4093 Clouds 2 1019 93 10000 5.1 30 16:45 04.01.2021
4094 Clouds 2 1019 93 10000 5.1 30 16:26 04.01.2021
4095 Clouds 2 1019 93 9000 5.1 30 15:49 04.01.2021
4096 Clouds 2 1019 93 8000 4.6 30 15:25 04.01.2021
4097 Clouds 3 1019 93 8000 5.1 40 14:34 04.01.2021
4098 Clouds 3 1019 93 8000 5.7 30 13:44 04.01.2021
4099 Clouds 3 1020 93 10000 5.7 30 13:22 04.01.2021
4100 Rain 3 1020 93 10000 4.6 30 12:36 04.01.2021
4101 Clouds 3 1020 93 10000 5.1 30 11:58 04.01.2021
4102 Clouds 2 1020 93 10000 5.7 30 11:21 04.01.2021
4103 Clouds 2 1020 93 9000 5.1 20 10:48 04.01.2021
4104 Clouds 2 1020 93 9000 5.1 20 10:27 04.01.2021
4105 Clouds 2 1020 93 10000 4.1 30 09:51 04.01.2021
4106 Clouds 2 1020 93 10000 5.1 30 09:19 04.01.2021
4107 Clouds 2 1020 93 10000 4.6 20 08:45 04.01.2021
4108 Clouds 2 1019 93 9000 4.6 30 07:58 04.01.2021
4109 Clouds 3 1019 93 7000 4.1 30 07:37 04.01.2021
4110 Clouds 4 1019 80 10000 4.1 40 05:33 04.01.2021
4111 Clouds 5 1019 84 10000 8.7 60 03:40 04.01.2021
4112 Clouds 4 1019 78 10000 7.7 60 00:47 04.01.2021
4113 Clouds 4 1019 79 10000 8.2 60 23:49 03.01.2021
4114 Clouds 4 1019 81 10000 9.3 70 23:24 03.01.2021
4115 Clouds 4 1019 81 10000 9.8 60 22:56 03.01.2021
4116 Clouds 4 1019 80 10000 9.8 60 22:33 03.01.2021
4117 Clouds 4 1018 80 10000 9.3 60 21:56 03.01.2021
4118 Clouds 4 1018 80 10000 7.7 60 21:29 03.01.2021
4119 Clouds 4 1018 80 10000 9.8 60 20:50 03.01.2021
4120 Clouds 4 1018 86 10000 9.8 60 20:32 03.01.2021
4121 Clouds 4 1018 86 10000 9.3 60 19:58 03.01.2021
4122 Rain 4 1018 88 10000 8.2 60 19:35 03.01.2021
4123 Clouds 4 1018 88 10000 8.2 60 18:58 03.01.2021
4124 Clouds 4 1018 88 10000 7.7 60 18:39 03.01.2021
4125 Clouds 4 1018 85 10000 6.7 60 18:19 03.01.2021
4126 Clouds 4 1018 85 10000 8.2 50 17:48 03.01.2021
4127 Clouds 4 1017 86 10000 8.7 50 17:23 03.01.2021
4128 Clouds 4 1017 86 10000 6.7 50 16:44 03.01.2021
4129 Clouds 4 1017 80 10000 7.7 60 16:20 03.01.2021
4130 Clouds 4 1017 80 10000 6.7 50 15:47 03.01.2021
4131 Clouds 4 1017 80 10000 6.7 50 15:47 03.01.2021
4132 Clouds 4 1017 78 10000 6.7 50 15:28 03.01.2021
4133 Clouds 4 1017 78 10000 7.2 60 14:57 03.01.2021
4134 Clouds 4 1018 80 10000 6.7 50 14:30 03.01.2021
4135 Clouds 4 1018 80 10000 4.6 30 13:45 03.01.2021
4136 Clouds 4 1018 76 10000 6.7 50 13:23 03.01.2021
4137 Clouds 4 1018 80 10000 4.1 40 12:36 03.01.2021
4138 Clouds 4 1018 93 10000 3.1 10 11:43 03.01.2021
4139 Clouds 3 1018 86 10000 3.6 50 11:24 03.01.2021
4140 Clouds 3 1018 86 10000 3.6 50 10:52 03.01.2021
4141 Clouds 3 1018 86 10000 3.6 50 10:30 03.01.2021
4142 Clouds 3 1018 86 10000 4.1 80 09:41 03.01.2021
4143 Clouds 3 1018 93 10000 4.1 60 09:22 03.01.2021
4144 Clouds 3 1017 93 10000 2.6 50 07:50 03.01.2021
4145 Clouds 3 1017 93 6000 3.1 50 05:59 03.01.2021
4146 Clouds 3 1017 93 6000 2.1 70 02:28 03.01.2021
4147 Clouds 3 1017 93 6000 3.1 90 01:47 03.01.2021
4148 Clouds 3 1017 93 6000 3.1 90 01:47 03.01.2021
4149 Mist 4 1017 100 5000 2.1 80 00:20 03.01.2021
4150 Mist 4 1016 100 5000 1.5 70 23:30 02.01.2021
4151 Mist 4 1016 93 5000 1.5 80 22:56 02.01.2021
4152 Mist 4 1016 93 5000 1.5 80 22:32 02.01.2021
4153 Mist 4 1016 93 5000 2.1 80 21:52 02.01.2021
4154 Mist 4 1016 93 5000 2.1 80 21:32 02.01.2021
4155 Mist 4 1016 93 5000 2.1 100 20:59 02.01.2021
4156 Clouds 4 1015 93 6000 2.6 100 20:39 02.01.2021
4157 Mist 4 1015 93 5000 1.5 120 20:19 02.01.2021
4158 Mist 4 1015 93 4700 2.6 130 19:43 02.01.2021
4159 Mist 4 1015 93 4600 2.6 130 19:19 02.01.2021
4160 Mist 4 1015 93 3700 2.1 140 18:42 02.01.2021
4161 Mist 4 1014 93 3500 2.6 120 18:24 02.01.2021
4162 Mist 4 1014 100 3500 1 0 17:45 02.01.2021
4163 Drizzle 4 1014 100 3500 0.5 0 17:22 02.01.2021
4164 Mist 4 1014 100 5000 0.71 155 16:38 02.01.2021
4165 Mist 4 1014 100 5000 1 0 16:19 02.01.2021
4166 Rain 4 1013 93 5000 0.5 0 15:42 02.01.2021
4167 Clouds 4 1013 93 6000 1 0 15:24 02.01.2021
4168 Clouds 4 1013 93 6000 1.5 260 14:37 02.01.2021
4169 Clouds 4 1013 93 5000 2.1 200 14:18 02.01.2021
4170 Clouds 4 1013 93 5000 2.6 190 13:39 02.01.2021
4171 Drizzle 4 1013 93 5000 2.1 220 12:54 02.01.2021
4172 Drizzle 4 1013 93 5000 2.1 220 12:54 02.01.2021
4173 Drizzle 4 1013 93 5000 2.1 220 12:32 02.01.2021
4174 Drizzle 4 1013 93 5000 2.6 230 11:57 02.01.2021
4175 Clouds 4 1012 93 6000 3.6 210 11:22 02.01.2021
4176 Clouds 4 1012 93 6000 3.6 210 10:56 02.01.2021
4177 Clouds 4 1012 93 6000 3.6 210 10:33 02.01.2021
4178 Clouds 4 1012 93 6000 3.6 220 09:54 02.01.2021
4179 Clouds 4 1011 93 6000 3.1 210 09:29 02.01.2021
4180 Clouds 4 1011 93 6000 2.6 230 08:53 02.01.2021
4181 Clouds 4 1011 93 6000 3.1 220 08:34 02.01.2021
4182 Drizzle 4 1011 93 6000 3.1 230 07:55 02.01.2021
4183 Drizzle 4 1010 93 5000 3.6 230 07:22 02.01.2021
4184 Drizzle 4 1010 93 5000 4.6 220 06:57 02.01.2021
4185 Clouds 4 1010 100 7000 4.1 220 05:54 02.01.2021
4186 Clouds 4 1009 93 6000 3.1 220 01:37 02.01.2021
4187 Drizzle 4 1009 93 6000 3.1 230 00:38 02.01.2021
4188 Clouds 4 1008 93 6000 3.1 230 23:58 01.01.2021
4189 Clouds 4 1008 93 6000 3.6 230 23:24 01.01.2021
4190 Clouds 4 1008 93 6000 3.6 230 22:57 01.01.2021
4191 Clouds 4 1008 93 6000 3.6 230 22:57 01.01.2021
4192 Clouds 4 1008 93 6000 3.6 230 22:37 01.01.2021
4193 Clouds 4 1008 93 6000 3.1 230 22:18 01.01.2021
4194 Drizzle 4 1008 93 6000 3.1 240 21:42 01.01.2021
4195 Clouds 4 1007 93 5000 3.1 240 21:20 01.01.2021
4196 Clouds 4 1007 100 5000 3.1 230 20:50 01.01.2021
4197 Clouds 4 1007 93 5000 3.1 230 20:18 01.01.2021
4198 Clouds 4 1007 93 5000 2.6 220 19:42 01.01.2021
4199 Clouds 4 1007 93 5000 3.1 230 19:22 01.01.2021
4200 Clouds 4 1006 93 5000 2.6 220 18:47 01.01.2021
4201 Clouds 4 1006 93 5000 2.6 220 18:28 01.01.2021
4202 Clouds 4 1006 93 7000 3.1 220 17:50 01.01.2021
4203 Clouds 4 1006 93 7000 3.1 220 17:24 01.01.2021
4204 Clouds 4 1006 93 8000 4.1 210 16:52 01.01.2021
4205 Clouds 4 1006 93 8000 3.6 210 16:28 01.01.2021
4206 Clouds 4 1006 93 8000 3.1 200 15:42 01.01.2021
4207 Clouds 4 1006 86 8000 3.1 230 14:51 01.01.2021
4208 Clouds 4 1006 86 8000 3.1 230 14:32 01.01.2021
4209 Clouds 4 1006 93 8000 1.5 230 13:45 01.01.2021
4210 Clouds 4 1006 93 8000 1.5 230 13:24 01.01.2021
4211 Drizzle 3 1006 93 7000 2.6 230 12:39 01.01.2021
4212 Clouds 3 1006 93 8000 3.1 230 12:18 01.01.2021
4213 Clouds 3 1006 100 7000 2.1 230 11:39 01.01.2021
4214 Clouds 3 1006 100 6000 3.1 230 11:18 01.01.2021
4215 Clouds 3 1006 100 6000 2.1 250 10:35 01.01.2021
4216 Clouds 3 1005 93 8000 3.1 260 09:47 01.01.2021
4217 Clouds 3 1005 93 8000 2.6 260 09:21 01.01.2021
4218 Clouds 3 1005 93 8000 3.1 270 08:30 01.01.2021
4219 Clouds 3 1004 86 10000 3.1 230 04:53 01.01.2021
4220 Clouds 3 1004 86 10000 3.1 230 04:30 01.01.2021
4221 Clouds 3 1003 93 10000 3.6 230 01:39 01.01.2021
4222 Clouds 3 1003 93 10000 4.1 210 00:31 01.01.2021
4223 Clouds 3 1003 93 10000 3.1 210 23:38 31.12.2020
4224 Clouds 3 1003 86 10000 3.6 200 23:20 31.12.2020
4225 Clouds 3 1003 86 10000 4.1 190 22:41 31.12.2020
4226 Clouds 3 1003 86 10000 3.1 190 22:21 31.12.2020
4227 Clouds 3 1003 86 10000 3.6 190 21:50 31.12.2020
4228 Clouds 3 1003 86 10000 3.6 190 21:31 31.12.2020
4229 Clouds 3 1003 92 10000 4.1 210 20:57 31.12.2020
4230 Clouds 3 1002 86 10000 5.1 200 20:26 31.12.2020
4231 Clouds 3 1003 86 10000 3.1 220 19:49 31.12.2020
4232 Clouds 3 1002 86 10000 3.1 210 19:31 31.12.2020
4233 Clouds 3 1002 86 10000 4.1 200 18:51 31.12.2020
4234 Clouds 4 1002 80 10000 3.6 200 18:25 31.12.2020
4235 Clouds 4 1002 80 10000 4.1 200 17:46 31.12.2020
4236 Clouds 3 1002 86 10000 3.6 210 17:26 31.12.2020
4237 Clouds 3 1002 93 10000 3.6 210 16:55 31.12.2020
4238 Clouds 4 1002 93 10000 3.6 210 16:37 31.12.2020
4239 Clouds 4 1002 93 10000 3.6 210 16:18 31.12.2020
4240 Clouds 3 1002 93 10000 3.6 200 15:42 31.12.2020
4241 Clouds 3 1002 93 10000 5.7 220 15:19 31.12.2020
4242 Clouds 3 1002 93 10000 5.7 220 14:41 31.12.2020
4243 Clouds 3 1002 93 10000 5.7 210 14:22 31.12.2020
4244 Clouds 4 1002 93 10000 5.7 210 13:57 31.12.2020
4245 Clouds 4 1002 86 10000 5.1 210 13:36 31.12.2020
4246 Clouds 4 1002 93 10000 5.7 210 13:18 31.12.2020
4247 Clouds 4 1002 93 10000 5.7 210 12:45 31.12.2020
4248 Clouds 4 1002 93 10000 5.7 210 12:27 31.12.2020
4249 Clouds 4 1002 80 10000 6.7 210 11:47 31.12.2020
4250 Clouds 4 1002 80 10000 6.7 210 11:47 31.12.2020
4251 Clouds 4 1002 80 10000 6.7 210 11:47 31.12.2020
4252 Clouds 4 1002 80 10000 6.7 210 11:28 31.12.2020
4253 Clouds 4 1002 80 10000 6.7 210 10:42 31.12.2020
4254 Clouds 4 1002 86 10000 6.7 210 10:23 31.12.2020
4255 Clouds 3 1002 86 10000 5.7 210 09:49 31.12.2020
4256 Clouds 3 1002 86 10000 6.2 220 09:24 31.12.2020
4257 Clouds 3 1002 86 10000 5.7 210 08:48 31.12.2020
4258 Clouds 3 1002 86 10000 5.7 210 08:30 31.12.2020
4259 Clouds 3 1001 86 10000 5.1 220 07:55 31.12.2020
4260 Clouds 3 1001 93 10000 7.2 210 07:24 31.12.2020
4261 Clouds 4 1001 93 10000 5.7 220 05:30 31.12.2020
4262 Clouds 4 1001 86 10000 6.2 230 03:37 31.12.2020
4263 Clouds 5 1001 86 10000 5.7 220 02:38 31.12.2020
4264 Clouds 4 1001 93 10000 4.6 220 02:20 31.12.2020
4265 Clouds 4 1001 93 10000 5.1 220 01:42 31.12.2020
4266 Clouds 4 1001 93 10000 6.2 210 01:21 31.12.2020
4267 Clouds 4 1001 93 10000 5.7 210 00:41 31.12.2020
4268 Clouds 5 1000 80 10000 5.1 210 23:41 30.12.2020
4269 Clouds 4 1000 93 10000 6.7 220 23:19 30.12.2020
4270 Clouds 4 1000 93 10000 6.7 220 22:45 30.12.2020
4271 Clouds 4 1000 93 10000 6.7 220 22:27 30.12.2020
4272 Clouds 4 1000 93 10000 6.2 210 21:39 30.12.2020
4273 Clouds 4 1000 93 10000 6.7 220 21:20 30.12.2020
4274 Clouds 4 1000 93 10000 5.7 210 20:41 30.12.2020
4275 Clouds 4 1000 93 10000 5.7 210 20:20 30.12.2020
4276 Clouds 4 999 93 10000 7.2 210 19:39 30.12.2020
4277 Clouds 4 999 93 10000 6.7 210 19:20 30.12.2020
4278 Clouds 4 999 93 10000 6.2 220 18:44 30.12.2020
4279 Clouds 4 999 93 10000 6.7 220 18:24 30.12.2020
4280 Clouds 4 998 93 10000 5.7 210 17:50 30.12.2020
4281 Clouds 4 998 93 10000 6.2 210 17:32 30.12.2020
4282 Clouds 4 998 93 10000 6.2 210 16:53 30.12.2020
4283 Clouds 4 998 93 10000 6.2 210 16:29 30.12.2020
4284 Clouds 4 998 93 9000 6.2 220 15:47 30.12.2020
4285 Clouds 4 998 93 9000 6.2 220 15:24 30.12.2020
4286 Clouds 4 997 86 10000 7.7 220 14:44 30.12.2020
4287 Clouds 4 997 86 10000 8.2 220 14:22 30.12.2020
4288 Clouds 4 997 86 10000 7.7 210 13:29 30.12.2020
4289 Clouds 4 997 93 10000 7.7 210 12:40 30.12.2020
4290 Clouds 4 997 93 10000 7.7 210 12:20 30.12.2020
4291 Clouds 3 997 93 10000 7.2 210 11:36 30.12.2020
4292 Clouds 3 997 93 10000 7.7 210 11:18 30.12.2020
4293 Clouds 4 996 86 10000 7.2 210 10:43 30.12.2020
4294 Clouds 4 996 86 10000 7.2 210 10:25 30.12.2020
4295 Clouds 4 996 86 10000 7.7 210 09:50 30.12.2020
4296 Clouds 4 995 86 10000 6.7 210 09:28 30.12.2020
4297 Clouds 4 995 86 10000 7.2 210 08:34 30.12.2020
4298 Clouds 4 994 86 10000 7.7 210 07:30 30.12.2020
4299 Clouds 4 994 86 10000 7.7 210 07:30 30.12.2020
4300 Clouds 4 994 86 10000 6.7 210 06:52 30.12.2020
4301 Clouds 4 994 86 10000 7.2 220 06:31 30.12.2020
4302 Clouds 4 994 86 10000 6.7 210 05:44 30.12.2020
4303 Clouds 4 993 93 9000 7.2 210 05:25 30.12.2020
4304 Clouds 4 993 93 8000 6.2 200 03:28 30.12.2020
4305 Clouds 4 993 93 7000 7.2 200 03:28 30.12.2020
4306 Clouds 4 993 93 7000 7.2 210 02:42 30.12.2020
4307 Clouds 4 992 93 7000 5.7 210 01:58 30.12.2020
4308 Clouds 3 992 100 6000 5.1 200 01:33 30.12.2020
4309 Clouds 3 992 93 7000 5.7 210 00:50 30.12.2020
4310 Clouds 3 992 93 10000 5.1 210 00:31 30.12.2020
4311 Clouds 3 992 93 10000 4.6 210 23:57 29.12.2020
4312 Rain 3 992 93 10000 4.6 220 23:39 29.12.2020
4313 Clouds 3 991 93 10000 4.6 230 23:18 29.12.2020
4314 Drizzle 3 991 93 10000 5.7 230 22:41 29.12.2020
4315 Drizzle 3 991 93 10000 5.7 230 22:23 29.12.2020
4316 Clouds 3 990 93 10000 5.7 220 21:46 29.12.2020
4317 Clouds 3 990 93 10000 5.1 210 21:26 29.12.2020
4318 Drizzle 3 989 93 10000 5.7 230 20:48 29.12.2020
4319 Clouds 3 989 93 10000 6.2 230 20:26 29.12.2020
4320 Clouds 3 989 93 10000 6.2 230 20:26 29.12.2020
4321 Drizzle 3 989 93 10000 6.7 220 19:56 29.12.2020
4322 Drizzle 3 989 93 10000 6.7 220 19:37 29.12.2020
4323 Drizzle 3 989 93 10000 6.7 220 19:18 29.12.2020
4324 Clouds 4 988 93 5000 7.2 220 18:39 29.12.2020
4325 Rain 4 988 93 6000 5.7 200 18:19 29.12.2020
4326 Drizzle 4 987 86 10000 5.1 190 17:38 29.12.2020
4327 Clouds 4 987 86 10000 5.7 200 17:19 29.12.2020
4328 Clouds 4 987 86 10000 5.1 200 16:36 29.12.2020
4329 Clouds 4 986 86 10000 5.7 210 15:59 29.12.2020
4330 Clouds 4 986 86 10000 5.7 200 15:36 29.12.2020
4331 Clouds 4 985 86 10000 5.1 210 14:59 29.12.2020
4332 Clouds 4 985 86 10000 5.1 210 14:36 29.12.2020
4333 Clouds 4 984 86 10000 4.6 220 14:18 29.12.2020
4334 Clouds 4 984 86 10000 5.1 220 13:39 29.12.2020
4335 Clouds 4 984 93 10000 5.1 230 13:18 29.12.2020
4336 Clouds 4 984 86 10000 5.1 220 12:37 29.12.2020
4337 Clouds 3 984 93 10000 3.1 170 12:19 29.12.2020
4338 Clouds 3 984 93 10000 2.6 170 11:52 29.12.2020
4339 Clouds 3 983 93 8000 2.6 170 11:31 29.12.2020
4340 Clouds 3 983 100 8000 2.6 150 10:30 29.12.2020
4341 Clouds 2 982 93 7000 1.5 150 09:49 29.12.2020
4342 Rain 1 982 100 4200 1.5 150 09:22 29.12.2020
4343 Drizzle 1 982 100 4200 1.5 150 08:53 29.12.2020
4344 Rain 1 981 100 7000 1.5 130 08:23 29.12.2020
4345 Rain 1 981 100 7000 2.1 140 07:26 29.12.2020
4346 Drizzle 1 981 100 10000 2.1 100 06:45 29.12.2020
4347 Rain 1 981 97 8000 2.6 100 05:25 29.12.2020
4348 Rain 3 981 93 9000 3.6 80 00:55 29.12.2020
4349 Rain 3 981 86 10000 3.6 100 00:22 29.12.2020
4350 Rain 3 981 86 10000 3.6 80 23:36 28.12.2020
4351 Clouds 3 982 86 10000 2.6 90 22:28 28.12.2020
4352 Clouds 3 982 86 10000 3.1 120 21:46 28.12.2020
4353 Clouds 3 982 86 10000 2.6 110 21:28 28.12.2020
4354 Clouds 3 982 86 10000 3.6 120 20:44 28.12.2020
4355 Clouds 3 982 86 10000 3.6 120 20:44 28.12.2020
4356 Clouds 4 982 86 10000 3.6 110 20:25 28.12.2020
4357 Clouds 4 982 80 10000 4.1 100 19:50 28.12.2020
4358 Clouds 4 982 80 10000 4.1 100 19:26 28.12.2020
4359 Clouds 4 982 80 10000 4.1 100 18:59 28.12.2020
4360 Clouds 4 982 80 10000 3.1 110 18:36 28.12.2020
4361 Clouds 4 981 86 10000 2.6 100 17:55 28.12.2020
4362 Clouds 4 981 86 10000 2.6 100 17:37 28.12.2020
4363 Clouds 4 981 86 10000 2.6 80 17:18 28.12.2020
4364 Clouds 4 981 80 10000 2.6 120 16:31 28.12.2020
4365 Clouds 5 981 80 10000 3.6 110 15:54 28.12.2020
4366 Clouds 5 981 80 10000 3.6 110 15:36 28.12.2020
4367 Clouds 4 980 86 10000 4.1 150 14:35 28.12.2020
4368 Clouds 4 980 80 10000 5.1 140 13:49 28.12.2020
4369 Clouds 4 980 80 10000 5.1 140 13:22 28.12.2020
4370 Clouds 4 980 80 10000 5.1 150 12:38 28.12.2020
4371 Clouds 4 980 86 10000 4.6 140 12:18 28.12.2020
4372 Clouds 3 980 80 10000 4.1 140 11:42 28.12.2020
4373 Clouds 3 980 81 10000 5.7 140 11:18 28.12.2020
4374 Clouds 3 980 81 10000 5.7 130 10:41 28.12.2020
4375 Clouds 3 979 86 10000 4.6 130 10:23 28.12.2020
4376 Rain 3 979 86 10000 5.7 140 09:45 28.12.2020
4377 Clouds 3 979 90 10000 5.7 140 09:18 28.12.2020
4378 Drizzle 4 979 93 10000 5.7 140 06:55 28.12.2020
4379 Clouds 4 979 86 10000 5.1 140 05:57 28.12.2020
4380 Clouds 4 979 93 10000 5.7 140 04:22 28.12.2020
4381 Drizzle 3 979 93 10000 7.7 140 01:57 28.12.2020
4382 Clouds 3 979 100 10000 7.7 140 00:30 28.12.2020
4383 Clouds 3 979 100 10000 7.7 140 00:30 28.12.2020
4384 Drizzle 3 979 93 10000 6.7 140 23:46 27.12.2020
4385 Drizzle 3 979 93 10000 6.7 140 23:18 27.12.2020
4386 Clouds 4 979 93 10000 8.7 150 21:57 27.12.2020
4387 Clouds 4 979 93 10000 8.7 150 21:57 27.12.2020
4388 Clouds 3 980 93 10000 8.7 150 21:26 27.12.2020
4389 Clouds 3 980 86 10000 8.2 150 20:47 27.12.2020
4390 Clouds 3 981 93 10000 8.2 150 19:46 27.12.2020
4391 Clouds 3 981 93 10000 8.2 150 19:21 27.12.2020
4392 Rain 3 981 86 10000 11.3 160 18:41 27.12.2020
4393 Clouds 3 981 86 10000 10.3 160 18:19 27.12.2020
4394 Rain 4 982 86 10000 10.8 160 17:43 27.12.2020
4395 Rain 4 982 86 10000 10.8 160 17:24 27.12.2020
4396 Rain 4 982 80 10000 11.3 160 16:37 27.12.2020
4397 Rain 4 983 80 10000 11.3 160 15:56 27.12.2020
4398 Rain 4 984 80 10000 12.3 160 14:59 27.12.2020
4399 Rain 5 984 75 10000 11.8 170 14:41 27.12.2020
4400 Rain 5 984 71 10000 10.3 180 14:22 27.12.2020
4401 Rain 5 986 68 10000 11.3 180 13:22 27.12.2020
4402 Clouds 5 986 68 10000 11.3 180 12:49 27.12.2020
4403 Clouds 5 987 68 10000 11.3 170 12:22 27.12.2020
4404 Clouds 5 988 68 10000 11.3 170 11:39 27.12.2020
4405 Rain 4 989 69 10000 10.3 180 10:52 27.12.2020
4406 Rain 4 989 69 10000 10.3 180 10:26 27.12.2020
4407 Clouds 4 990 69 10000 10.3 180 09:56 27.12.2020
4408 Clouds 4 991 69 10000 9.8 180 08:50 27.12.2020
4409 Clouds 4 992 69 10000 11.3 180 08:26 27.12.2020
4410 Clouds 4 993 76 10000 10.3 190 07:28 27.12.2020
4411 Clouds 4 996 80 10000 9.8 180 05:46 27.12.2020
4412 Clouds 4 997 80 10000 11.3 180 04:59 27.12.2020
4413 Clouds 4 1001 93 10000 9.3 190 03:23 27.12.2020
4414 Clouds 5 1002 80 10000 9.8 200 01:52 27.12.2020
4415 Clouds 4 1004 86 10000 10.8 210 00:26 27.12.2020
4416 Clouds 4 1004 86 10000 10.8 210 00:26 27.12.2020
4417 Clouds 4 1006 86 10000 9.3 210 23:42 26.12.2020
4418 Clouds 4 1006 86 10000 10.8 210 23:22 26.12.2020
4419 Clouds 4 1007 86 10000 10.8 200 22:41 26.12.2020
4420 Clouds 4 1007 86 10000 9.8 210 22:19 26.12.2020
4421 Clouds 4 1008 86 10000 9.3 200 21:53 26.12.2020
4422 Clouds 4 1008 86 10000 9.3 200 21:24 26.12.2020
4423 Clouds 4 1010 86 10000 9.8 210 20:44 26.12.2020
4424 Clouds 4 1010 86 10000 9.8 210 20:22 26.12.2020
4425 Clouds 4 1010 86 10000 9.3 210 19:31 26.12.2020
4426 Clouds 4 1011 80 10000 9.3 210 18:59 26.12.2020
4427 Clouds 4 1012 80 10000 8.7 210 18:34 26.12.2020
4428 Clouds 4 1013 86 10000 8.2 210 17:47 26.12.2020
4429 Clouds 4 1013 86 10000 8.2 210 17:28 26.12.2020
4430 Clouds 4 1014 86 10000 6.7 210 16:40 26.12.2020
4431 Clouds 4 1014 86 10000 7.7 200 16:19 26.12.2020
4432 Clouds 4 1014 86 10000 7.7 210 15:23 26.12.2020
4433 Clouds 4 1015 86 10000 6.2 210 14:41 26.12.2020
4434 Clouds 4 1016 93 10000 6.2 210 14:20 26.12.2020
4435 Clouds 3 1016 93 10000 6.7 220 13:39 26.12.2020
4436 Clouds 3 1017 93 10000 5.7 220 13:20 26.12.2020
4437 Clouds 3 1017 93 10000 5.7 210 12:42 26.12.2020
4438 Clouds 2 1017 93 10000 5.7 220 12:20 26.12.2020
4439 Clouds 2 1018 93 10000 5.1 220 11:51 26.12.2020
4440 Clouds 2 1018 100 10000 4.6 220 11:21 26.12.2020
4441 Rain 2 1018 100 10000 4.6 220 10:51 26.12.2020
4442 Clouds 2 1019 87 10000 3.1 220 10:27 26.12.2020
4443 Clouds 1 1019 87 10000 3.1 220 09:49 26.12.2020
4444 Clouds 1 1019 92 10000 3.1 220 09:24 26.12.2020
4445 Clouds 0 1019 92 10000 2.6 220 08:21 26.12.2020
4446 Clouds 0 1019 92 9000 2.6 220 07:49 26.12.2020
4447 Clouds -1 1019 100 10000 2.1 200 06:29 26.12.2020
4448 Clouds -2 1021 100 10000 1.5 210 02:49 26.12.2020
4449 Clear -2 1021 100 10000 1 0 00:44 26.12.2020
4450 Clear -2 1021 100 10000 1 0 00:25 26.12.2020
4451 Clear -2 1021 100 10000 0.5 0 23:39 25.12.2020
4452 Clear -2 1021 100 10000 0.5 0 23:21 25.12.2020
4453 Clear -2 1021 100 10000 0.5 50 22:40 25.12.2020
4454 Clear -1 1022 92 10000 0.5 0 21:54 25.12.2020
4455 Clear -2 1022 92 10000 0.5 0 21:34 25.12.2020
4456 Clear -1 1022 92 10000 1 0 20:50 25.12.2020
4457 Clear -1 1022 92 10000 1 0 20:31 25.12.2020
4458 Clear 0 1022 93 10000 2.1 310 19:48 25.12.2020
4459 Clear 0 1022 93 10000 1 0 19:21 25.12.2020
4460 Clear 0 1021 86 10000 1.5 300 18:39 25.12.2020
4461 Clear 1 1021 80 10000 2.6 280 17:47 25.12.2020
4462 Clear 1 1021 80 10000 2.6 280 17:28 25.12.2020
4463 Clear 2 1021 74 10000 2.6 300 16:33 25.12.2020
4464 Clear 3 1021 69 10000 2.6 300 15:59 25.12.2020
4465 Clear 4 1021 69 10000 3.6 300 15:36 25.12.2020
4466 Clear 4 1021 64 10000 3.1 300 14:58 25.12.2020
4467 Clear 4 1021 69 10000 3.6 310 14:30 25.12.2020
4468 Clouds 3 1021 69 10000 4.1 310 13:46 25.12.2020
4469 Clouds 3 1021 69 10000 4.1 310 13:26 25.12.2020
4470 Clouds 2 1021 74 10000 3.6 320 12:47 25.12.2020
4471 Clouds 2 1021 74 10000 3.6 320 12:25 25.12.2020
4472 Clouds 2 1021 80 10000 3.1 320 11:46 25.12.2020
4473 Clouds 1 1020 83 10000 2.6 320 11:21 25.12.2020
4474 Clouds 0 1020 91 10000 2.1 320 10:32 25.12.2020
4475 Clouds -1 1020 86 10000 2.6 310 09:49 25.12.2020
4476 Clear -1 1019 100 10000 1.5 300 08:51 25.12.2020
4477 Clear -1 1019 100 10000 1.5 300 08:32 25.12.2020
4478 Clear -1 1018 92 10000 1.5 280 06:51 25.12.2020
4479 Clear 0 1017 96 10000 3.1 310 05:31 25.12.2020
4480 Clouds 3 1016 93 10000 3.6 300 02:21 25.12.2020
4481 Clouds 3 1015 93 10000 3.1 300 00:25 25.12.2020
4482 Clouds 3 1014 86 10000 3.1 320 23:31 24.12.2020
4483 Clouds 3 1013 93 10000 3.6 320 22:54 24.12.2020
4484 Clouds 3 1013 93 10000 3.6 320 22:25 24.12.2020
4485 Clouds 3 1013 93 10000 3.6 330 21:48 24.12.2020
4486 Clouds 3 1013 93 10000 3.1 330 20:59 24.12.2020
4487 Clouds 4 1012 93 10000 3.1 330 19:54 24.12.2020
4488 Clouds 4 1010 93 10000 3.6 320 18:22 24.12.2020
4489 Clouds 4 1010 93 10000 2.6 320 17:42 24.12.2020
4490 Clouds 4 1009 93 10000 4.1 320 17:21 24.12.2020
4491 Clouds 4 1009 93 10000 4.6 330 16:26 24.12.2020
4492 Clouds 5 1008 86 10000 3.6 330 15:49 24.12.2020
4493 Clouds 5 1007 93 10000 4.1 320 15:26 24.12.2020
4494 Clouds 5 1007 93 10000 4.1 320 14:58 24.12.2020
4495 Clouds 5 1007 93 10000 4.1 310 14:40 24.12.2020
4496 Clouds 5 1007 93 10000 3.1 310 14:22 24.12.2020
4497 Clouds 5 1007 93 10000 3.6 300 13:39 24.12.2020
4498 Clouds 5 1007 93 10000 3.6 310 13:19 24.12.2020
4499 Clouds 5 1006 93 10000 3.6 300 12:41 24.12.2020
4500 Clouds 4 1006 100 10000 2.6 280 12:19 24.12.2020
4501 Clouds 4 1006 93 10000 2.6 310 11:39 24.12.2020
4502 Clouds 4 1006 93 10000 3.6 310 11:20 24.12.2020
4503 Clouds 4 1005 100 10000 3.1 320 10:46 24.12.2020
4504 Clouds 4 1005 100 10000 3.1 320 10:28 24.12.2020
4505 Clouds 3 1004 100 10000 3.6 340 09:51 24.12.2020
4506 Rain 3 1004 93 10000 3.1 340 09:23 24.12.2020
4507 Rain 2 1003 93 10000 3.6 350 07:59 24.12.2020
4508 Rain 2 1003 100 10000 4.1 350 07:38 24.12.2020
4509 Rain 3 1002 93 10000 3.1 360 06:55 24.12.2020
4510 Rain 4 1003 100 10000 2.6 10 04:24 24.12.2020
4511 Clouds 5 1003 93 10000 4.6 30 01:54 24.12.2020
4512 Clouds 5 1003 93 10000 4.6 30 01:30 24.12.2020
4513 Rain 5 1003 93 10000 4.1 40 00:56 24.12.2020
4514 Clouds 6 1003 93 10000 4.6 60 00:21 24.12.2020
4515 Clouds 6 1003 93 10000 3.6 40 23:44 23.12.2020
4516 Clouds 6 1003 93 10000 3.6 40 23:23 23.12.2020
4517 Rain 6 1004 93 10000 3.1 30 22:52 23.12.2020
4518 Rain 6 1004 93 10000 3.1 30 22:29 23.12.2020
4519 Rain 6 1004 100 6000 4.1 50 21:49 23.12.2020
4520 Rain 6 1004 93 5000 4.6 40 21:25 23.12.2020
4521 Rain 6 1004 93 5000 4.6 40 20:54 23.12.2020
4522 Rain 6 1004 93 5000 4.6 60 20:36 23.12.2020
4523 Rain 6 1004 100 6000 4.6 70 20:18 23.12.2020
4524 Rain 6 1005 100 6000 4.6 70 19:39 23.12.2020
4525 Rain 6 1005 100 5000 4.6 70 19:20 23.12.2020
4526 Rain 6 1006 100 6000 4.1 50 18:47 23.12.2020
4527 Rain 6 1006 100 7000 4.6 60 18:24 23.12.2020
4528 Rain 6 1006 100 7000 4.6 60 17:39 23.12.2020
4529 Rain 6 1006 100 7000 4.6 60 17:39 23.12.2020
4530 Rain 6 1006 100 7000 4.6 60 17:39 23.12.2020
4531 Rain 6 1008 100 5000 3.6 50 17:20 23.12.2020
4532 Rain 6 1008 100 9000 4.1 60 16:47 23.12.2020
4533 Rain 5 1008 100 9000 4.1 60 16:29 23.12.2020
4534 Rain 5 1008 100 8000 4.1 60 15:56 23.12.2020
4535 Rain 5 1009 100 8000 3.1 60 15:37 23.12.2020
4536 Rain 5 1009 100 5000 3.1 70 15:19 23.12.2020
4537 Rain 5 1010 100 9000 3.1 70 14:39 23.12.2020
4538 Rain 5 1010 100 8000 2.6 70 14:20 23.12.2020
4539 Rain 5 1011 100 6000 1.5 70 13:44 23.12.2020
4540 Mist 4 1011 100 4200 1.5 90 13:20 23.12.2020
4541 Rain 4 1011 100 4200 1.5 90 12:54 23.12.2020
4542 Mist 4 1012 100 1400 2.1 80 12:30 23.12.2020
4543 Fog 3 1013 100 400 1.5 140 11:56 23.12.2020
4544 Fog 3 1013 100 400 1.5 140 11:36 23.12.2020
4545 Fog 3 1013 100 350 1.5 130 10:56 23.12.2020
4546 Fog 2 1013 100 400 1.5 90 10:38 23.12.2020
4547 Fog 3 1013 100 350 1.5 120 09:38 23.12.2020
4548 Fog 3 1013 100 350 1.5 120 09:38 23.12.2020
4549 Fog 3 1014 100 350 1.5 100 08:58 23.12.2020
4550 Fog 3 1014 100 350 1 0 08:58 23.12.2020
4551 Fog 3 1014 100 350 1 0 08:33 23.12.2020
4552 Fog 3 1013 100 350 0.5 250 07:49 23.12.2020
4553 Fog 2 1013 100 300 1 200 06:53 23.12.2020
4554 Fog 3 1013 100 300 0.5 0 06:35 23.12.2020
4555 Mist 2 1014 90 2500 0.5 0 05:25 23.12.2020
4556 Fog 2 1014 100 10000 1.43 226 03:56 23.12.2020
4557 Clouds 6 1014 93 10000 1.5 250 00:33 23.12.2020
4558 Clouds 6 1014 87 10000 2.6 240 23:45 22.12.2020
4559 Clouds 6 1014 87 10000 2.6 240 23:26 22.12.2020
4560 Clouds 6 1013 87 10000 2.1 240 22:43 22.12.2020
4561 Clouds 6 1014 87 10000 2.6 240 22:25 22.12.2020
4562 Clouds 6 1014 87 10000 2.6 240 21:57 22.12.2020
4563 Clouds 7 1013 87 10000 2.6 240 21:38 22.12.2020
4564 Clouds 7 1013 93 10000 1.5 240 21:18 22.12.2020
4565 Clouds 7 1013 81 10000 1.5 250 20:43 22.12.2020
4566 Clouds 7 1013 81 10000 2.6 270 20:20 22.12.2020
4567 Clouds 7 1013 81 10000 2.6 280 19:42 22.12.2020
4568 Clouds 8 1013 81 10000 2.1 290 19:21 22.12.2020
4569 Clouds 8 1013 81 10000 2.6 280 18:50 22.12.2020
4570 Clouds 8 1013 81 10000 2.6 280 18:29 22.12.2020
4571 Clouds 8 1012 87 10000 3.6 290 17:57 22.12.2020
4572 Clouds 8 1011 87 10000 4.1 280 17:26 22.12.2020
4573 Clouds 8 1010 81 10000 6.2 290 16:56 22.12.2020
4574 Clouds 8 1010 81 10000 6.2 290 16:37 22.12.2020
4575 Drizzle 9 1010 87 10000 6.2 280 16:19 22.12.2020
4576 Drizzle 9 1009 93 10000 8.7 280 15:43 22.12.2020
4577 Drizzle 9 1009 93 10000 8.7 280 15:24 22.12.2020
4578 Clouds 10 1008 87 10000 6.7 280 14:46 22.12.2020
4579 Drizzle 10 1007 87 10000 7.7 280 14:27 22.12.2020
4580 Drizzle 10 1007 87 10000 7.7 280 13:54 22.12.2020
4581 Drizzle 10 1006 93 10000 7.7 290 13:36 22.12.2020
4582 Drizzle 10 1006 93 10000 7.7 290 13:18 22.12.2020
4583 Clouds 10 1005 100 8000 7.2 290 12:42 22.12.2020
4584 Clouds 12 1004 100 2700 4.1 280 12:20 22.12.2020
4585 Rain 12 1004 100 3500 5.1 250 11:43 22.12.2020
4586 Clouds 12 1004 100 4800 6.2 250 11:23 22.12.2020
4587 Drizzle 12 1004 100 4800 6.2 250 10:56 22.12.2020
4588 Rain 12 1003 100 4000 5.7 250 10:30 22.12.2020
4589 Clouds 12 1003 100 4500 5.1 250 09:59 22.12.2020
4590 Clouds 12 1003 100 6000 4.1 240 09:40 22.12.2020
4591 Clouds 12 1002 93 10000 5.1 240 09:20 22.12.2020
4592 Clouds 12 1002 93 10000 6.7 230 08:45 22.12.2020
4593 Clouds 12 1002 93 10000 6.7 230 08:25 22.12.2020
4594 Rain 11 1001 93 10000 6.7 220 07:47 22.12.2020
4595 Rain 10 1002 100 8000 4.1 200 06:38 22.12.2020
4596 Rain 9 1002 93 6000 4.1 160 05:39 22.12.2020
4597 Rain 8 1005 100 4500 6.2 160 02:39 22.12.2020
4598 Rain 7 1007 93 7000 7.2 150 00:44 22.12.2020
4599 Clouds 7 1008 93 10000 7.2 140 23:52 21.12.2020
4600 Clouds 7 1008 93 10000 7.2 140 23:29 21.12.2020
4601 Clouds 7 1010 87 10000 7.2 140 22:38 21.12.2020
4602 Clouds 7 1010 87 10000 6.7 140 22:19 21.12.2020
4603 Rain 7 1010 87 10000 6.7 140 21:57 21.12.2020
4604 Clouds 7 1011 87 10000 6.2 140 21:39 21.12.2020
4605 Clouds 7 1012 87 10000 6.2 140 21:18 21.12.2020
4606 Rain 7 1013 87 10000 5.1 140 20:27 21.12.2020
4607 Rain 7 1013 87 10000 5.1 140 19:58 21.12.2020
4608 Rain 7 1013 81 10000 5.7 150 19:39 21.12.2020
4609 Rain 7 1014 81 10000 5.7 150 19:19 21.12.2020
4610 Rain 7 1014 81 10000 5.7 150 18:51 21.12.2020
4611 Clear 7 1015 81 10000 4.6 150 18:33 21.12.2020
4612 Clouds 7 1015 81 10000 5.7 150 17:43 21.12.2020
4613 Clear 7 1016 81 10000 5.7 150 17:24 21.12.2020
4614 Clear 7 1016 81 10000 5.7 150 16:47 21.12.2020
4615 Clear 8 1016 75 10000 5.7 160 16:27 21.12.2020
4616 Clear 8 1016 75 10000 4.6 160 15:57 21.12.2020
4617 Clear 8 1016 75 10000 4.6 160 15:37 21.12.2020
4618 Clear 8 1017 75 10000 5.1 180 14:57 21.12.2020
4619 Clouds 9 1017 76 10000 4.6 190 14:21 21.12.2020
4620 Clouds 9 1017 76 10000 4.1 200 13:45 21.12.2020
4621 Clouds 9 1017 76 10000 4.1 200 13:26 21.12.2020
4622 Clouds 8 1018 81 10000 6.2 210 12:45 21.12.2020
4623 Clouds 8 1019 87 10000 5.7 210 12:25 21.12.2020
4624 Clouds 8 1019 87 10000 5.7 210 11:58 21.12.2020
4625 Clouds 7 1019 87 10000 5.7 210 11:40 21.12.2020
4626 Clouds 7 1019 87 10000 5.7 210 11:22 21.12.2020
4627 Clouds 7 1019 87 10000 5.7 210 10:49 21.12.2020
4628 Clouds 6 1019 93 10000 5.1 210 10:30 21.12.2020
4629 Clouds 6 1019 93 10000 5.1 210 09:49 21.12.2020
4630 Clouds 6 1019 87 10000 5.1 210 09:26 21.12.2020
4631 Clouds 7 1019 87 10000 5.1 210 08:58 21.12.2020
4632 Clouds 7 1018 87 10000 5.1 210 08:18 21.12.2020
4633 Clouds 7 1018 87 10000 4.6 210 06:48 21.12.2020
4634 Clouds 6 1018 93 10000 4.6 210 04:58 21.12.2020
4635 Clouds 6 1018 93 10000 5.7 210 03:46 21.12.2020
4636 Clouds 7 1018 93 10000 3.1 170 00:35 21.12.2020
4637 Clouds 7 1018 87 10000 4.1 170 23:39 20.12.2020
4638 Rain 7 1018 87 10000 4.1 160 23:20 20.12.2020
4639 Clouds 7 1018 93 10000 2.6 160 22:43 20.12.2020
4640 Clouds 8 1018 93 10000 3.1 160 22:23 20.12.2020
4641 Clouds 8 1018 87 10000 3.1 170 21:42 20.12.2020
4642 Clouds 8 1018 87 10000 3.1 170 21:22 20.12.2020
4643 Clouds 8 1018 87 10000 3.1 170 20:59 20.12.2020
4644 Clouds 8 1018 87 10000 3.6 180 20:40 20.12.2020
4645 Clear 8 1017 87 10000 3.6 170 20:21 20.12.2020
4646 Clear 8 1017 87 10000 3.6 170 19:42 20.12.2020
4647 Clear 8 1017 87 10000 3.1 170 19:20 20.12.2020
4648 Clear 8 1017 87 10000 3.1 160 18:54 20.12.2020
4649 Clear 8 1017 87 10000 3.1 160 18:35 20.12.2020
4650 Clouds 8 1017 87 10000 2.1 170 17:47 20.12.2020
4651 Clouds 8 1017 87 10000 2.1 170 17:28 20.12.2020
4652 Rain 8 1017 87 10000 2.6 160 16:57 20.12.2020
4653 Clouds 8 1017 87 10000 2.6 160 16:38 20.12.2020
4654 Clear 8 1017 87 10000 2.6 150 16:19 20.12.2020
4655 Clouds 8 1017 87 10000 2.6 150 15:37 20.12.2020
4656 Clouds 9 1017 87 10000 2.6 170 15:18 20.12.2020
4657 Clouds 9 1017 87 10000 3.1 150 14:45 20.12.2020
4658 Clouds 9 1017 87 10000 3.1 150 14:27 20.12.2020
4659 Clouds 9 1017 81 10000 4.1 160 13:44 20.12.2020
4660 Clouds 9 1017 81 10000 4.1 150 13:23 20.12.2020
4661 Clouds 8 1017 81 10000 4.1 160 12:51 20.12.2020
4662 Clouds 8 1017 81 10000 4.1 160 12:23 20.12.2020
4663 Clouds 8 1017 81 10000 3.1 160 11:51 20.12.2020
4664 Clouds 8 1017 81 10000 3.1 160 11:28 20.12.2020
4665 Clear 7 1017 87 10000 3.1 160 10:50 20.12.2020
4666 Clear 7 1017 87 10000 2.6 150 10:22 20.12.2020
4667 Clear 7 1017 87 10000 3.1 150 09:57 20.12.2020
4668 Clear 7 1017 87 10000 3.1 150 09:39 20.12.2020
4669 Clear 7 1017 87 10000 2.1 160 09:20 20.12.2020
4670 Clear 7 1017 87 10000 3.1 160 08:48 20.12.2020
4671 Clear 7 1017 87 10000 3.1 160 08:30 20.12.2020
4672 Clouds 7 1016 87 10000 2.6 150 07:22 20.12.2020
4673 Clear 7 1016 87 10000 3.1 140 05:33 20.12.2020
4674 Clouds 9 1016 81 10000 3.1 160 01:31 20.12.2020
4675 Clouds 9 1016 81 10000 4.1 180 00:22 20.12.2020
4676 Clouds 9 1015 81 10000 4.6 170 23:19 19.12.2020
4677 Clouds 9 1015 81 10000 5.1 160 22:45 19.12.2020
4678 Clouds 9 1015 81 10000 4.6 170 22:25 19.12.2020
4679 Clouds 9 1015 81 10000 4.6 170 22:25 19.12.2020
4680 Clouds 9 1015 81 10000 4.6 170 21:59 19.12.2020
4681 Clouds 9 1015 81 10000 4.1 160 21:41 19.12.2020
4682 Clouds 9 1014 81 10000 4.6 160 21:22 19.12.2020
4683 Clouds 9 1014 81 10000 5.1 160 20:42 19.12.2020
4684 Clear 8 1014 81 10000 4.1 160 20:19 19.12.2020
4685 Clear 7 1014 93 10000 3.1 150 19:50 19.12.2020
4686 Clear 7 1014 93 10000 3.1 150 19:31 19.12.2020
4687 Clear 7 1014 87 10000 3.6 150 18:41 19.12.2020
4688 Clear 7 1014 87 10000 4.6 140 18:23 19.12.2020
4689 Clear 7 1014 87 10000 4.6 150 17:48 19.12.2020
4690 Clear 7 1014 87 10000 4.6 150 17:24 19.12.2020
4691 Clear 8 1014 81 10000 4.1 140 16:45 19.12.2020
4692 Clear 8 1014 81 10000 4.1 140 16:27 19.12.2020
4693 Clear 8 1014 81 10000 4.6 150 15:59 19.12.2020
4694 Clear 8 1014 81 10000 4.6 170 15:40 19.12.2020
4695 Clear 9 1014 81 10000 4.6 140 14:43 19.12.2020
4696 Clear 9 1014 81 10000 4.1 150 14:23 19.12.2020
4697 Clear 9 1014 81 10000 4.6 160 13:42 19.12.2020
4698 Clear 8 1015 87 10000 4.1 150 13:21 19.12.2020
4699 Clear 7 1015 87 10000 3.6 150 12:54 19.12.2020
4700 Clear 7 1015 87 10000 3.6 150 12:36 19.12.2020
4701 Clear 6 1015 93 10000 4.1 150 12:18 19.12.2020
4702 Clear 6 1015 86 10000 3.6 160 11:40 19.12.2020
4703 Clear 5 1016 93 10000 3.6 160 10:47 19.12.2020
4704 Clear 5 1016 93 10000 3.6 160 10:27 19.12.2020
4705 Clear 4 1016 93 9000 4.6 140 09:59 19.12.2020
4706 Clear 4 1016 93 9000 4.6 140 09:59 19.12.2020
4707 Clear 3 1016 100 9000 3.6 150 09:39 19.12.2020
4708 Clouds 3 1016 100 8000 4.1 150 08:57 19.12.2020
4709 Clouds 3 1016 100 8000 3.6 150 08:18 19.12.2020
4710 Clear 3 1016 100 10000 3.6 140 07:19 19.12.2020
4711 Clear 3 1016 100 10000 3.6 150 06:44 19.12.2020
4712 Clear 3 1017 93 10000 3.1 140 05:21 19.12.2020
4713 Clear 3 1017 93 10000 3.1 140 03:48 19.12.2020
4714 Clear 4 1018 93 10000 3.1 150 00:42 19.12.2020
4715 Clear 4 1018 93 10000 3.6 150 00:21 19.12.2020
4716 Clear 5 1019 86 10000 3.1 150 23:51 18.12.2020
4717 Clear 5 1019 86 10000 3.1 150 23:29 18.12.2020
4718 Clear 5 1019 86 10000 3.6 150 22:59 18.12.2020
4719 Clear 5 1019 86 10000 3.6 150 22:41 18.12.2020
4720 Clear 5 1019 93 10000 3.1 150 22:19 18.12.2020
4721 Clear 5 1019 93 10000 3.1 150 21:46 18.12.2020
4722 Clear 6 1019 87 10000 3.6 150 21:25 18.12.2020
4723 Clear 6 1019 87 10000 4.1 160 20:26 18.12.2020
4724 Clear 6 1019 81 10000 4.6 160 19:51 18.12.2020
4725 Clear 6 1019 81 10000 4.6 160 19:27 18.12.2020
4726 Clear 7 1019 81 10000 5.1 170 18:54 18.12.2020
4727 Clear 7 1019 81 10000 5.1 170 18:36 18.12.2020
4728 Clear 7 1019 87 10000 4.6 170 18:18 18.12.2020
4729 Clear 8 1019 81 10000 5.1 170 17:22 18.12.2020
4730 Clear 8 1019 81 10000 5.1 170 16:49 18.12.2020
4731 Clear 9 1019 76 10000 4.6 170 16:27 18.12.2020
4732 Clear 9 1019 76 10000 4.6 170 15:58 18.12.2020
4733 Clear 9 1020 76 10000 5.7 180 15:39 18.12.2020
4734 Clear 9 1020 71 10000 4.1 180 15:20 18.12.2020
4735 Clouds 9 1020 71 10000 3.6 180 14:54 18.12.2020
4736 Clouds 10 1021 71 10000 4.6 200 14:21 18.12.2020
4737 Clouds 9 1021 76 10000 4.1 180 13:49 18.12.2020
4738 Clouds 10 1021 76 10000 4.1 180 13:25 18.12.2020
4739 Clear 9 1021 81 10000 4.1 170 12:47 18.12.2020
4740 Clear 8 1021 87 10000 4.6 170 11:59 18.12.2020
4741 Clear 7 1021 87 10000 5.7 170 11:23 18.12.2020
4742 Clear 7 1021 93 10000 4.1 160 10:40 18.12.2020
4743 Clear 6 1021 93 10000 3.6 160 10:20 18.12.2020
4744 Clouds 6 1021 93 10000 3.6 180 09:39 18.12.2020
4745 Clouds 6 1021 93 10000 3.6 180 09:21 18.12.2020
4746 Clouds 6 1021 93 10000 3.6 180 08:54 18.12.2020
4747 Clouds 6 1021 93 10000 3.6 170 08:30 18.12.2020
4748 Clouds 6 1021 87 10000 3.6 190 07:39 18.12.2020
4749 Clouds 7 1021 87 10000 4.1 200 07:18 18.12.2020
4750 Clouds 7 1021 87 10000 3.6 200 06:51 18.12.2020
4751 Clouds 7 1021 87 10000 4.6 210 05:42 18.12.2020
4752 Clouds 7 1021 87 10000 3.6 210 04:51 18.12.2020
4753 Clouds 7 1021 87 10000 3.6 210 04:51 18.12.2020
4754 Clouds 7 1020 93 10000 4.1 230 01:59 18.12.2020
4755 Clouds 8 1020 87 10000 4.6 230 01:40 18.12.2020
4756 Clouds 8 1020 93 10000 4.1 230 00:27 18.12.2020
4757 Clouds 8 1020 93 10000 3.6 220 23:50 17.12.2020
4758 Clouds 8 1019 93 10000 4.1 230 23:19 17.12.2020
4759 Clouds 8 1019 93 10000 3.6 230 22:47 17.12.2020
4760 Clouds 8 1019 93 10000 3.6 230 22:26 17.12.2020
4761 Clouds 8 1019 87 10000 5.1 220 21:43 17.12.2020
4762 Clouds 8 1019 87 10000 4.1 220 21:19 17.12.2020
4763 Clouds 9 1019 87 10000 4.1 220 20:43 17.12.2020
4764 Clouds 9 1018 87 10000 4.1 230 20:19 17.12.2020
4765 Clouds 9 1018 81 10000 4.1 230 19:49 17.12.2020
4766 Clouds 9 1018 81 10000 4.1 230 19:25 17.12.2020
4767 Clouds 9 1018 93 10000 3.6 220 18:47 17.12.2020
4768 Clouds 9 1018 93 10000 3.6 220 18:27 17.12.2020
4769 Clouds 9 1017 100 10000 3.6 220 17:58 17.12.2020
4770 Clouds 9 1017 100 10000 3.1 210 17:38 17.12.2020
4771 Clouds 9 1017 93 10000 4.1 210 17:20 17.12.2020
4772 Clouds 9 1016 87 10000 3.1 210 16:37 17.12.2020
4773 Rain 9 1016 87 10000 3.1 230 16:19 17.12.2020
4774 Clouds 9 1016 87 10000 2.6 250 15:44 17.12.2020
4775 Clouds 9 1016 87 10000 2.6 250 15:26 17.12.2020
4776 Clouds 9 1016 87 10000 3.6 260 14:48 17.12.2020
4777 Drizzle 9 1015 93 10000 6.2 220 14:22 17.12.2020
4778 Clouds 9 1015 93 9000 6.7 210 13:48 17.12.2020
4779 Clouds 9 1015 93 9000 6.7 210 13:22 17.12.2020
4780 Rain 9 1014 93 8000 6.2 190 12:43 17.12.2020
4781 Rain 9 1014 87 9000 5.1 180 12:24 17.12.2020
4782 Rain 8 1014 93 9000 4.6 160 11:43 17.12.2020
4783 Rain 8 1014 87 10000 4.1 150 11:22 17.12.2020
4784 Rain 8 1014 87 10000 4.6 140 10:48 17.12.2020
4785 Rain 8 1014 93 10000 6.2 170 09:40 17.12.2020
4786 Rain 8 1013 93 10000 4.1 130 09:21 17.12.2020
4787 Rain 7 1014 93 10000 3.6 150 07:49 17.12.2020
4788 Clouds 7 1014 93 10000 3.6 150 07:28 17.12.2020
4789 Clouds 7 1014 93 10000 3.1 140 06:51 17.12.2020
4790 Clouds 7 1014 93 10000 3.1 140 06:32 17.12.2020
4791 Clouds 7 1015 93 7000 5.7 150 03:55 17.12.2020
4792 Clouds 8 1016 93 8000 6.7 140 00:29 17.12.2020
4793 Clouds 9 1016 87 8000 6.2 140 23:50 16.12.2020
4794 Clouds 9 1017 93 7000 6.2 150 23:19 16.12.2020
4795 Clouds 8 1017 93 7000 7.2 140 22:52 16.12.2020
4796 Clouds 8 1017 93 7000 7.2 140 22:32 16.12.2020
4797 Clouds 9 1017 87 7000 8.2 140 21:47 16.12.2020
4798 Clouds 9 1017 87 7000 6.2 130 21:27 16.12.2020
4799 Clouds 9 1018 93 8000 5.1 140 20:54 16.12.2020
4800 Clouds 8 1018 93 8000 5.7 140 20:21 16.12.2020
4801 Clouds 8 1018 93 8000 5.7 140 19:52 16.12.2020
4802 Clouds 8 1018 93 8000 6.7 130 19:19 16.12.2020
4803 Clouds 8 1018 93 7000 4.6 130 18:53 16.12.2020
4804 Clouds 8 1018 93 7000 4.6 130 18:27 16.12.2020
4805 Clouds 8 1018 93 6000 4.1 130 17:47 16.12.2020
4806 Clouds 8 1018 93 6000 4.1 130 17:28 16.12.2020
4807 Clouds 7 1018 100 6000 3.6 130 16:39 16.12.2020
4808 Clouds 8 1018 100 6000 3.6 130 16:21 16.12.2020
4809 Clouds 8 1018 100 6000 3.6 130 15:50 16.12.2020
4810 Mist 8 1018 93 5000 4.6 140 15:26 16.12.2020
4811 Mist 8 1019 100 1500 5.7 160 14:47 16.12.2020
4812 Mist 8 1019 100 1500 5.7 160 14:28 16.12.2020
4813 Mist 7 1019 100 1800 3.6 170 13:49 16.12.2020
4814 Mist 8 1019 100 1800 3.6 170 13:28 16.12.2020
4815 Mist 8 1019 93 3600 3.6 160 12:56 16.12.2020
4816 Mist 7 1019 93 4500 3.1 160 12:35 16.12.2020
4817 Mist 8 1019 100 2900 4.6 140 11:40 16.12.2020
4818 Mist 7 1019 100 3800 3.6 150 11:22 16.12.2020
4819 Mist 7 1018 100 4000 4.6 150 10:49 16.12.2020
4820 Mist 7 1018 100 4000 4.6 150 10:25 16.12.2020
4821 Clouds 8 1018 93 10000 2.6 150 09:43 16.12.2020
4822 Clouds 8 1018 93 10000 1 0 08:42 16.12.2020
4823 Clouds 8 1018 93 10000 0.5 0 07:58 16.12.2020
4824 Clouds 8 1017 93 9000 1 0 07:39 16.12.2020
4825 Clouds 8 1017 93 8000 1 180 06:53 16.12.2020
4826 Clouds 8 1016 100 8000 1.5 230 03:28 16.12.2020
4827 Clouds 8 1015 100 10000 1.5 250 01:27 16.12.2020
4828 Clouds 9 1013 93 10000 3.1 250 23:46 15.12.2020
4829 Clouds 9 1013 93 10000 2.1 240 22:56 15.12.2020
4830 Clouds 9 1012 93 10000 1.5 240 22:38 15.12.2020
4831 Clouds 9 1012 93 10000 2.1 260 22:18 15.12.2020
4832 Drizzle 9 1012 93 10000 2.6 250 21:40 15.12.2020
4833 Drizzle 9 1012 93 10000 2.6 250 21:21 15.12.2020
4834 Rain 8 1011 100 7000 2.6 240 20:44 15.12.2020
4835 Clouds 8 1011 100 8000 3.6 230 20:26 15.12.2020
4836 Clouds 8 1010 100 6000 3.1 230 19:53 15.12.2020
4837 Rain 8 1010 100 6000 3.1 230 19:30 15.12.2020
4838 Rain 8 1010 100 6000 4.6 210 18:39 15.12.2020
4839 Rain 8 1009 100 9000 3.1 170 18:21 15.12.2020
4840 Clouds 8 1009 100 8000 3.6 170 17:56 15.12.2020
4841 Clouds 8 1009 100 8000 3.6 170 17:37 15.12.2020
4842 Clouds 8 1009 100 6000 2.6 170 17:18 15.12.2020
4843 Drizzle 8 1009 100 6000 2.1 150 16:32 15.12.2020
4844 Clouds 9 1009 93 9000 3.1 200 15:50 15.12.2020
4845 Rain 9 1009 93 9000 3.1 200 15:28 15.12.2020
4846 Clouds 9 1009 93 10000 3.1 170 14:44 15.12.2020
4847 Rain 9 1009 87 10000 2.6 170 14:21 15.12.2020
4848 Clouds 9 1009 87 10000 3.1 160 13:51 15.12.2020
4849 Clouds 9 1009 87 10000 3.1 160 13:32 15.12.2020
4850 Clouds 9 1009 93 10000 3.6 160 12:47 15.12.2020
4851 Clouds 9 1009 93 10000 3.6 160 12:22 15.12.2020
4852 Clouds 8 1009 93 10000 3.6 160 11:56 15.12.2020
4853 Clouds 8 1009 93 10000 3.6 160 11:26 15.12.2020
4854 Clouds 8 1009 100 10000 3.6 170 10:56 15.12.2020
4855 Clouds 8 1009 93 10000 3.6 160 10:34 15.12.2020
4856 Rain 7 1008 93 10000 4.6 170 09:52 15.12.2020
4857 Rain 7 1008 93 10000 4.6 170 09:32 15.12.2020
4858 Clouds 7 1008 93 10000 4.1 150 08:54 15.12.2020
4859 Clouds 7 1008 93 10000 4.1 150 08:29 15.12.2020
4860 Rain 7 1008 87 10000 3.6 160 07:52 15.12.2020
4861 Rain 7 1008 87 10000 3.6 160 07:28 15.12.2020
4862 Rain 6 1008 93 10000 3.1 150 06:37 15.12.2020
4863 Clouds 6 1008 93 10000 2.6 140 04:20 15.12.2020
4864 Rain 7 1009 93 10000 3.6 140 00:36 15.12.2020
4865 Clouds 8 1009 87 10000 3.6 140 23:28 14.12.2020
4866 Clouds 8 1009 93 10000 4.1 150 22:59 14.12.2020
4867 Clouds 8 1009 93 10000 3.6 140 22:38 14.12.2020
4868 Clouds 8 1009 93 10000 3.6 140 21:55 14.12.2020
4869 Clouds 8 1009 93 10000 2.6 150 21:36 14.12.2020
4870 Drizzle 8 1009 100 10000 3.6 160 20:56 14.12.2020
4871 Drizzle 8 1009 100 10000 4.1 160 20:38 14.12.2020
4872 Clouds 8 1009 93 10000 3.6 180 20:18 14.12.2020
4873 Clouds 8 1009 93 10000 3.1 160 19:32 14.12.2020
4874 Clouds 8 1009 93 10000 3.1 160 18:57 14.12.2020
4875 Drizzle 8 1008 93 10000 2.6 170 18:38 14.12.2020
4876 Clouds 8 1008 93 10000 3.6 160 18:18 14.12.2020
4877 Drizzle 8 1008 93 10000 2.6 150 17:33 14.12.2020
4878 Clouds 8 1008 93 10000 2.6 170 16:57 14.12.2020
4879 Clouds 8 1008 93 10000 2.6 170 16:38 14.12.2020
4880 Drizzle 8 1008 100 10000 4.1 170 16:18 14.12.2020
4881 Clouds 7 1007 100 10000 5.7 170 15:33 14.12.2020
4882 Drizzle 7 1007 93 10000 5.7 170 14:48 14.12.2020
4883 Drizzle 7 1007 93 10000 5.7 170 14:29 14.12.2020
4884 Clouds 7 1007 100 10000 5.7 160 13:55 14.12.2020
4885 Clouds 6 1007 93 10000 5.7 160 13:34 14.12.2020
4886 Clouds 6 1007 93 4500 5.1 160 12:56 14.12.2020
4887 Rain 6 1008 93 4500 5.1 150 12:31 14.12.2020
4888 Rain 6 1008 93 3000 5.1 160 11:56 14.12.2020
4889 Clouds 6 1008 81 10000 6.7 150 11:23 14.12.2020
4890 Clouds 6 1008 86 10000 6.7 140 10:28 14.12.2020
4891 Clouds 5 1008 86 10000 6.2 150 09:53 14.12.2020
4892 Clouds 5 1008 86 10000 6.7 140 09:25 14.12.2020
4893 Clouds 5 1008 86 10000 6.2 140 08:44 14.12.2020
4894 Clouds 5 1008 86 10000 5.7 150 08:23 14.12.2020
4895 Clear 5 1009 86 10000 6.2 140 07:22 14.12.2020
4896 Rain 5 1009 93 10000 5.1 150 06:43 14.12.2020
4897 Clouds 5 1010 93 8000 4.6 150 04:19 14.12.2020
4898 Mist 5 1011 93 4000 4.6 140 02:25 14.12.2020
4899 Fog 5 1011 100 700 3.1 160 00:51 14.12.2020
4900 Fog 5 1011 100 700 3.1 160 00:29 14.12.2020
4901 Mist 4 1011 100 2200 3.1 150 23:44 13.12.2020
4902 Mist 4 1012 100 3500 3.6 150 23:20 13.12.2020
4903 Mist 4 1011 100 3800 3.6 140 22:43 13.12.2020
4904 Mist 4 1011 100 3500 3.1 120 22:18 13.12.2020
4905 Mist 4 1011 100 3000 2.6 130 21:42 13.12.2020
4906 Drizzle 4 1011 100 1400 2.6 140 21:19 13.12.2020
4907 Drizzle 4 1011 100 1200 2.6 140 20:33 13.12.2020
4908 Mist 4 1011 100 4000 3.1 140 19:50 13.12.2020
4909 Mist 4 1011 100 4000 3.1 140 19:27 13.12.2020
4910 Mist 4 1011 100 4000 2.6 140 18:58 13.12.2020
4911 Mist 4 1011 100 2500 2.6 140 18:39 13.12.2020
4912 Mist 4 1011 100 1600 2.6 140 18:19 13.12.2020
4913 Mist 4 1011 100 1800 1.5 140 17:46 13.12.2020
4914 Mist 4 1011 100 1800 1.5 140 17:20 13.12.2020
4915 Mist 4 1011 100 2000 2.6 140 16:54 13.12.2020
4916 Mist 4 1011 100 2000 2.6 140 16:54 13.12.2020
4917 Mist 4 1011 100 2000 2.6 140 16:36 13.12.2020
4918 Mist 4 1011 100 2800 3.1 140 15:57 13.12.2020
4919 Mist 4 1011 93 5000 3.6 160 15:38 13.12.2020
4920 Clouds 4 1010 93 6000 3.1 150 15:18 13.12.2020
4921 Clouds 4 1010 93 6000 4.6 150 14:42 13.12.2020
4922 Mist 4 1010 93 5000 4.1 140 14:19 13.12.2020
4923 Mist 4 1010 100 4500 3.6 140 13:41 13.12.2020
4924 Mist 4 1010 100 4500 3.6 140 13:22 13.12.2020
4925 Mist 3 1010 100 4000 2.6 140 12:39 13.12.2020
4926 Mist 3 1010 93 5000 3.6 130 12:20 13.12.2020
4927 Mist 3 1010 93 5000 3.6 120 11:35 13.12.2020
4928 Mist 3 1009 93 4000 3.6 120 10:52 13.12.2020
4929 Mist 3 1009 93 4000 3.6 120 10:34 13.12.2020
4930 Mist 3 1009 100 4000 3.1 110 09:54 13.12.2020
4931 Drizzle 2 1008 100 2500 2.6 120 08:58 13.12.2020
4932 Mist 2 1008 100 2800 3.6 110 08:33 13.12.2020
4933 Drizzle 2 1008 93 4000 3.6 110 07:35 13.12.2020
4934 Clouds 3 1007 93 6000 3.1 110 04:29 13.12.2020
4935 Clouds 3 1006 100 6000 4.6 120 02:41 13.12.2020
4936 Drizzle 3 1006 100 4500 4.1 110 01:57 13.12.2020
4937 Clouds 3 1005 86 6000 3.6 120 00:49 13.12.2020
4938 Clouds 3 1005 86 7000 4.1 120 23:56 12.12.2020
4939 Drizzle 3 1005 86 7000 4.1 110 23:31 12.12.2020
4940 Clouds 3 1004 86 9000 3.1 130 22:52 12.12.2020
4941 Clouds 3 1004 86 9000 3.1 130 22:19 12.12.2020
4942 Clouds 3 1004 86 8000 4.6 110 21:34 12.12.2020
4943 Clouds 3 1004 86 8000 4.6 120 20:56 12.12.2020
4944 Clouds 3 1003 86 7000 4.1 110 20:36 12.12.2020
4945 Clouds 3 1003 86 7000 4.6 120 20:18 12.12.2020
4946 Clouds 3 1003 86 7000 4.6 120 19:46 12.12.2020
4947 Clouds 3 1003 86 7000 4.6 120 19:27 12.12.2020
4948 Clouds 3 1002 93 7000 3.6 120 18:45 12.12.2020
4949 Clouds 3 1002 86 7000 4.1 130 18:26 12.12.2020
4950 Clouds 3 1002 86 7000 4.1 130 17:47 12.12.2020
4951 Clouds 3 1001 86 7000 3.1 120 16:57 12.12.2020
4952 Clouds 3 1000 86 7000 3.1 120 16:21 12.12.2020
4953 Clouds 3 1000 86 7000 4.1 120 15:50 12.12.2020
4954 Clouds 3 1000 86 7000 4.1 120 15:31 12.12.2020
4955 Clouds 3 1000 86 8000 3.6 120 14:49 12.12.2020
4956 Clouds 3 1000 86 8000 4.6 110 13:57 12.12.2020
4957 Clouds 3 999 86 8000 4.1 120 13:38 12.12.2020
4958 Clouds 3 999 86 7000 4.1 120 12:59 12.12.2020
4959 Clouds 3 999 86 7000 3.6 110 12:26 12.12.2020
4960 Mist 2 999 93 5000 4.1 110 10:54 12.12.2020
4961 Clouds 2 998 93 6000 5.1 100 09:49 12.12.2020
4962 Drizzle 2 998 93 6000 4.6 100 08:57 12.12.2020
4963 Clouds 2 997 94 8000 5.7 110 03:31 12.12.2020
4964 Clouds 3 997 93 9000 6.2 110 23:58 11.12.2020
4965 Clouds 2 997 93 10000 6.7 110 22:47 11.12.2020
4966 Clouds 2 997 88 10000 5.7 110 20:50 11.12.2020
4967 Clouds 2 997 85 10000 5.7 120 18:46 11.12.2020
4968 Clouds 2 998 84 7000 6.2 110 16:34 11.12.2020
4969 Rain 2 999 93 7000 5.7 120 14:19 11.12.2020
4970 Clouds 2 999 93 7000 6.7 110 13:25 11.12.2020
4971 Clouds 2 1000 83 6000 6.2 130 12:20 11.12.2020
4972 Mist 2 1000 100 5000 6.7 120 11:52 11.12.2020
4973 Mist 1 1000 84 5000 5.7 120 10:56 11.12.2020
4974 Clouds 1 1001 86 6000 5.7 120 09:42 11.12.2020
4975 Clouds 1 1002 92 7000 4.6 120 06:25 11.12.2020
4976 Clouds 1 1003 94 7000 5.1 130 05:20 11.12.2020
4977 Mist 1 1005 100 5000 4.1 130 02:40 11.12.2020
4978 Mist 1 1006 96 4800 4.1 140 00:39 11.12.2020
4979 Mist 1 1006 96 4500 2.6 130 23:25 10.12.2020
4980 Drizzle 1 1006 95 5000 4.1 120 21:37 10.12.2020
4981 Clouds 1 1007 96 7000 4.1 130 20:50 10.12.2020
4982 Clouds 2 1007 93 7000 4.1 120 19:52 10.12.2020
4983 Drizzle 2 1007 93 4800 4.1 120 19:21 10.12.2020
4984 Drizzle 2 1007 93 4500 4.1 120 18:45 10.12.2020
4985 Mist 2 1007 93 4600 4.1 110 17:23 10.12.2020
4986 Drizzle 2 1007 100 4500 3.1 100 15:58 10.12.2020
4987 Mist 3 1008 86 4800 2.1 100 15:19 10.12.2020
4988 Mist 3 1008 86 4800 2.6 100 14:42 10.12.2020
4989 Mist 3 1008 86 4800 2.6 110 13:26 10.12.2020
4990 Mist 2 1009 100 5000 3.6 110 12:21 10.12.2020
4991 Drizzle 2 1009 100 3500 4.1 110 10:54 10.12.2020
4992 Mist 3 1009 100 4900 3.6 90 08:21 10.12.2020
4993 Clouds 3 1009 93 7000 2.6 100 07:28 10.12.2020
4994 Drizzle 3 1009 93 5000 3.1 90 05:51 10.12.2020
4995 Rain 3 1010 100 4500 2.6 90 02:40 10.12.2020
4996 Mist 3 1010 93 4500 2.1 90 01:32 10.12.2020
4997 Mist 3 1011 100 4000 3.1 130 23:44 09.12.2020
4998 Mist 3 1010 100 4500 2.6 150 20:39 09.12.2020
4999 Drizzle 3 1010 100 1800 2.6 150 19:46 09.12.2020
5000 Mist 3 1010 100 3500 2.6 150 18:39 09.12.2020
5001 Mist 4 1010 86 5000 2.6 140 17:29 09.12.2020
5002 Clouds 4 1010 86 6000 2.6 110 16:40 09.12.2020
5003 Clouds 4 1010 86 6000 2.6 90 16:20 09.12.2020
5004 Clouds 4 1010 86 7000 1.5 110 14:51 09.12.2020
5005 Clouds 4 1010 86 7000 1.5 110 14:27 09.12.2020
5006 Clouds 3 1010 93 7000 2.6 120 13:46 09.12.2020
5007 Clouds 4 1010 93 7000 2.6 110 13:18 09.12.2020
5008 Clouds 3 1010 93 7000 3.6 110 12:36 09.12.2020
5009 Clouds 3 1010 93 6000 3.6 70 11:37 09.12.2020
5010 Drizzle 3 1010 93 5000 2.1 60 09:54 09.12.2020
5011 Rain 3 1010 93 5000 3.6 80 08:42 09.12.2020
5012 Rain 3 1010 86 5000 2.6 90 06:56 09.12.2020
5013 Mist 2 1009 93 5000 4.1 100 05:33 09.12.2020
5014 Mist 2 1009 93 4500 4.1 80 02:57 09.12.2020
5015 Clouds 3 1009 93 7000 4.1 80 00:52 09.12.2020
5016 Clouds 4 1009 86 8000 4.1 90 23:36 08.12.2020
5017 Clouds 5 1008 80 10000 3.6 90 22:27 08.12.2020
5018 Clouds 6 1008 86 9000 3.1 90 20:48 08.12.2020
5019 Clouds 5 1007 86 8000 2.6 90 19:31 08.12.2020
5020 Clouds 5 1007 86 8000 4.6 110 18:41 08.12.2020
5021 Clouds 5 1007 86 9000 5.1 120 17:20 08.12.2020
5022 Clouds 6 1006 81 10000 3.1 90 15:27 08.12.2020
5023 Clouds 6 1006 81 10000 2.1 70 13:53 08.12.2020
5024 Clouds 6 1006 80 10000 2.6 90 12:54 08.12.2020
5025 Clouds 5 1006 86 10000 2.6 90 12:23 08.12.2020
5026 Clouds 5 1006 80 10000 2.1 90 11:28 08.12.2020
5027 Clouds 5 1006 80 10000 2.1 80 10:42 08.12.2020
5028 Clouds 4 1006 86 10000 2.1 80 09:46 08.12.2020
5029 Clouds 4 1005 80 10000 2.6 100 07:50 08.12.2020
5030 Clouds 5 1005 80 10000 2.6 100 06:33 08.12.2020
5031 Clouds 5 1004 86 10000 2.6 100 03:23 08.12.2020
5032 Clouds 5 1004 86 10000 3.1 140 00:46 08.12.2020
5033 Clouds 5 1004 93 10000 2.1 120 23:50 07.12.2020
5034 Clouds 5 1004 93 9000 3.1 150 22:33 07.12.2020
5035 Clouds 5 1003 86 10000 3.6 160 21:49 07.12.2020
5036 Clouds 6 1002 81 10000 4.6 190 19:51 07.12.2020
5037 Clouds 6 1001 81 10000 4.1 170 18:29 07.12.2020
5038 Clouds 6 999 81 10000 6.2 170 17:26 07.12.2020
5039 Clouds 6 999 81 10000 6.7 170 16:53 07.12.2020
5040 Clouds 6 998 81 10000 6.7 160 15:26 07.12.2020
5041 Clouds 6 997 81 10000 6.7 180 14:46 07.12.2020
5042 Clouds 6 997 87 9000 4.6 180 13:45 07.12.2020
5043 Clouds 6 997 93 10000 5.7 170 13:20 07.12.2020
5044 Clouds 7 996 87 10000 7.2 160 11:43 07.12.2020
5045 Clouds 7 996 81 10000 5.1 150 11:18 07.12.2020
5046 Clouds 7 995 81 10000 5.7 120 09:40 07.12.2020
5047 Clouds 7 995 87 10000 5.1 120 08:21 07.12.2020
5048 Clouds 6 995 93 10000 4.1 100 06:29 07.12.2020
5049 Rain 6 996 93 10000 3.1 110 04:48 07.12.2020
5050 Clouds 5 997 93 7000 2.1 90 01:54 07.12.2020
5051 Clouds 5 998 93 6000 1 110 23:50 06.12.2020
5052 Clouds 5 998 93 6000 2.6 70 22:25 06.12.2020
5053 Mist 4 999 100 5000 1.5 80 20:56 06.12.2020
5054 Mist 4 999 100 5000 2.1 60 20:34 06.12.2020
5055 Mist 4 999 100 5000 2.1 60 19:55 06.12.2020
5056 Clouds 4 999 93 7000 1 80 18:33 06.12.2020
5057 Clouds 5 999 86 8000 1 60 16:52 06.12.2020
5058 Clouds 5 999 93 9000 3.1 60 15:21 06.12.2020
5059 Clouds 6 1001 87 8000 2.6 80 13:49 06.12.2020
5060 Clouds 6 1001 87 8000 2.6 60 12:52 06.12.2020
5061 Clouds 6 1001 93 8000 2.1 60 12:18 06.12.2020
5062 Clouds 6 1001 93 7000 2.1 50 11:34 06.12.2020
5063 Clouds 5 1002 93 6000 2.1 30 10:51 06.12.2020
5064 Clouds 5 1002 93 6000 2.1 30 10:24 06.12.2020
5065 Clouds 4 1003 93 9000 2.1 20 08:37 06.12.2020
5066 Clouds 3 1003 93 10000 4.1 50 06:50 06.12.2020
5067 Snow 2 1005 100 10000 1 0 01:50 06.12.2020
5068 Snow 2 1005 93 10000 2.1 70 00:42 06.12.2020
5069 Clear 1 1005 100 10000 1.5 80 00:23 06.12.2020
5070 Clear 2 1005 93 10000 2.6 130 22:50 05.12.2020
5071 Clear 2 1004 100 10000 3.1 110 22:20 05.12.2020
5072 Clear 2 1004 100 10000 0.5 0 21:51 05.12.2020
5073 Clear 2 1004 100 10000 0.5 0 21:26 05.12.2020
5074 Clear 3 1003 93 10000 2.6 170 19:49 05.12.2020
5075 Clouds 3 1002 93 10000 2.6 140 18:45 05.12.2020
5076 Clouds 4 1002 86 10000 3.6 150 17:34 05.12.2020
5077 Clouds 4 1001 86 10000 5.1 140 16:42 05.12.2020
5078 Clouds 4 1000 86 10000 3.6 160 16:20 05.12.2020
5079 Clouds 4 998 86 10000 5.1 220 14:30 05.12.2020
5080 Clouds 3 997 86 10000 3.6 170 12:32 05.12.2020
5081 Clouds 2 997 86 9000 5.1 160 11:49 05.12.2020
5082 Clouds 2 996 90 9000 3.6 140 10:33 05.12.2020
5083 Clouds 2 994 96 10000 3.1 90 07:49 05.12.2020
5084 Rain 2 995 95 10000 3.1 90 07:26 05.12.2020
5085 Snow 1 994 96 10000 3.6 90 05:22 05.12.2020
5086 Clouds 2 993 93 10000 4.6 60 23:56 04.12.2020
5087 Rain 3 994 74 10000 3.6 110 22:41 04.12.2020
5088 Clear 3 994 74 10000 4.6 120 20:35 04.12.2020
5089 Clear 2 992 86 10000 4.6 130 18:54 04.12.2020
5090 Clear 2 992 80 10000 6.2 130 18:21 04.12.2020
5091 Clear 2 992 80 10000 5.1 130 17:41 04.12.2020
5092 Clouds 3 991 74 10000 3.6 120 15:54 04.12.2020
5093 Clouds 3 991 74 10000 5.1 130 15:21 04.12.2020
5094 Clouds 3 990 74 10000 5.1 120 13:36 04.12.2020
5095 Clouds 2 990 80 10000 5.1 130 13:18 04.12.2020
5096 Clouds 2 990 74 10000 5.1 130 12:20 04.12.2020
5097 Clouds 1 990 74 10000 6.2 130 10:37 04.12.2020
5098 Snow 1 989 86 10000 8.2 120 08:29 04.12.2020
5099 Snow 0 990 87 10000 8.2 120 06:40 04.12.2020
5100 Clear 1 991 93 10000 8.7 120 04:52 04.12.2020
5101 Clouds 2 992 74 10000 6.7 140 01:52 04.12.2020
5102 Clouds 2 994 80 10000 5.7 130 22:49 03.12.2020
5103 Clouds 1 995 86 10000 6.7 140 21:23 03.12.2020
5104 Clouds 1 996 86 10000 5.7 130 20:46 03.12.2020
5105 Clouds 2 996 87 10000 6.7 140 19:23 03.12.2020
5106 Clouds 2 997 87 10000 6.7 140 18:47 03.12.2020
5107 Clouds 2 998 95 9000 5.7 140 17:21 03.12.2020
5108 Clouds 2 998 80 10000 6.2 140 15:59 03.12.2020
5109 Clouds 2 999 80 10000 5.1 150 15:33 03.12.2020
5110 Clouds 2 1000 86 9000 6.7 140 14:49 03.12.2020
5111 Clouds 1 1000 86 10000 6.2 140 13:55 03.12.2020
5112 Clouds 1 1002 86 7000 5.1 150 12:50 03.12.2020
5113 Clouds 1 1002 86 7000 5.1 150 12:23 03.12.2020
5114 Clouds 1 1003 86 7000 6.2 150 10:55 03.12.2020
5115 Clouds 0 1004 95 6000 5.7 140 08:49 03.12.2020
5116 Clouds 0 1008 95 7000 2.6 140 04:21 03.12.2020
5117 Clouds 0 1010 92 6000 3.6 160 02:20 03.12.2020
5118 Clouds 0 1010 92 6000 3.6 160 02:20 03.12.2020
5119 Clouds 0 1011 98 8000 4.6 140 00:41 03.12.2020
5120 Clouds 1 1012 86 8000 4.6 140 22:47 02.12.2020
5121 Clouds 2 1013 98 9000 4.6 140 21:56 02.12.2020
5122 Clouds 2 1013 98 9000 4.6 140 20:52 02.12.2020
5123 Clouds 2 1013 98 9000 3.6 120 20:34 02.12.2020
5124 Clouds 2 1014 98 8000 3.6 130 19:58 02.12.2020
5125 Clouds 2 1015 93 8000 4.1 120 17:54 02.12.2020
5126 Clouds 2 1015 93 8000 4.1 120 17:35 02.12.2020
5127 Clouds 3 1016 86 8000 3.1 150 16:59 02.12.2020
5128 Clouds 3 1017 86 10000 3.1 120 14:47 02.12.2020
5129 Clouds 3 1020 86 9000 3.6 110 11:34 02.12.2020
5130 Clouds 3 1020 93 9000 2.6 100 10:28 02.12.2020
5131 Clouds 3 1021 86 7000 2.1 90 08:36 02.12.2020
5132 Mist 3 1022 93 4800 2.1 80 03:57 02.12.2020
5133 Clouds 4 1021 93 6000 3.6 80 22:21 01.12.2020
5134 Clouds 4 1021 93 7000 2.6 80 20:49 01.12.2020
5135 Clouds 4 1019 93 6000 3.6 80 19:35 01.12.2020
5136 Clouds 4 1019 93 6000 3.1 70 17:51 01.12.2020
5137 Clouds 4 1017 93 6000 4.1 80 16:35 01.12.2020
5138 Drizzle 4 1015 93 6000 2.6 90 13:38 01.12.2020
5139 Mist 4 1014 100 5000 2.6 100 12:25 01.12.2020
5140 Mist 4 1014 93 5000 3.1 110 11:27 01.12.2020
5141 Clouds 4 1013 93 6000 2.6 110 10:39 01.12.2020
5142 Drizzle 4 1012 93 5000 3.6 120 09:24 01.12.2020
5143 Clouds 4 1010 93 5000 3.6 130 06:50 01.12.2020
5144 Rain 4 1010 93 7000 4.6 180 01:53 01.12.2020
5145 Rain 3 1011 100 7000 3.6 170 00:56 01.12.2020
5146 Rain 2 1012 100 6000 4.6 160 23:22 30.11.2020
5147 Rain 2 1012 93 7000 4.6 170 22:45 30.11.2020
5148 Rain 2 1012 93 7000 4.6 170 22:25 30.11.2020
5149 Rain 2 1013 93 7000 5.1 180 21:22 30.11.2020
5150 Rain 2 1015 74 10000 5.7 180 19:45 30.11.2020
5151 Clouds 3 1016 69 10000 4.6 180 18:40 30.11.2020
5152 Rain 3 1017 69 10000 5.7 190 18:20 30.11.2020
5153 Clear 3 1017 74 10000 5.7 200 17:42 30.11.2020
5154 Clouds 3 1018 74 10000 4.6 190 16:44 30.11.2020
5155 Clear 3 1020 69 10000 6.7 190 14:47 30.11.2020
5156 Clouds 3 1022 74 10000 4.6 190 13:55 30.11.2020
5157 Clouds 3 1023 69 10000 4.6 190 12:40 30.11.2020
5158 Clouds 3 1023 69 10000 4.6 210 12:20 30.11.2020
5159 Clouds 3 1024 74 10000 3.1 220 10:32 30.11.2020
5160 Clouds 2 1025 80 10000 2.6 220 09:53 30.11.2020
5161 Clouds 2 1025 74 10000 2.6 220 07:58 30.11.2020
5162 Clouds 2 1027 74 10000 2.1 290 01:23 30.11.2020
5163 Clouds 3 1027 74 10000 1 0 23:25 29.11.2020
5164 Clouds 3 1027 74 10000 1.5 280 21:44 29.11.2020
5165 Clouds 3 1028 74 10000 1 0 21:25 29.11.2020
5166 Clouds 3 1027 86 10000 2.1 340 18:46 29.11.2020
5167 Clouds 4 1027 93 10000 2.1 320 17:34 29.11.2020
5168 Clouds 5 1028 80 10000 2.1 20 13:37 29.11.2020
5169 Clouds 4 1028 86 10000 2.1 30 12:44 29.11.2020
5170 Clouds 3 1028 93 10000 2.1 310 11:25 29.11.2020
5171 Clouds 3 1028 93 10000 1 0 08:53 29.11.2020
5172 Clouds 2 1028 93 10000 1 0 08:34 29.11.2020
5173 Clouds 0 1028 92 10000 1.5 40 02:31 29.11.2020
5174 Clouds 3 1028 94 10000 1.5 90 22:59 28.11.2020
5175 Clouds 3 1028 95 10000 2.1 90 22:26 28.11.2020
5176 Clouds 3 1027 95 10000 3.6 90 19:59 28.11.2020
5177 Clouds 3 1027 95 10000 3.6 100 19:28 28.11.2020
5178 Clouds 3 1027 94 10000 3.6 100 18:57 28.11.2020
5179 Clouds 3 1027 94 10000 4.1 100 18:21 28.11.2020
5180 Clouds 2 1026 92 10000 3.6 110 16:57 28.11.2020
5181 Clouds 2 1025 93 10000 4.6 120 14:59 28.11.2020
5182 Clouds 1 1025 77 10000 4.6 100 13:54 28.11.2020
5183 Clouds 1 1025 100 10000 4.1 110 11:28 28.11.2020
5184 Fog 1 1024 93 500 2.1 90 09:26 28.11.2020
5185 Fog 1 1023 95 800 2.6 100 03:48 28.11.2020
5186 Fog 1 1023 100 600 2.1 100 01:54 28.11.2020
5187 Fog 2 1023 100 350 2.1 80 23:22 27.11.2020
5188 Fog 3 1023 100 300 2.1 90 22:45 27.11.2020
5189 Fog 3 1022 100 10000 1.5 90 20:41 27.11.2020
5190 Fog 4 1022 100 10000 2.1 80 20:23 27.11.2020
5191 Fog 3 1022 100 10000 1.5 60 19:19 27.11.2020
5192 Clear 5 1022 87 10000 1.5 90 16:59 27.11.2020
5193 Clouds 7 1022 87 10000 2.1 100 14:45 27.11.2020
5194 Clear 7 1022 87 10000 1 0 13:21 27.11.2020
5195 Clear 6 1022 100 10000 2.1 80 12:47 27.11.2020
5196 Clear 5 1022 100 8000 0.5 0 11:35 27.11.2020
5197 Fog 3 1022 85 500 0.5 0 10:50 27.11.2020
5198 Fog 1 1022 90 200 1 0 09:53 27.11.2020
5199 Clear 2 1017 86 10000 0.81 106 07:22 27.11.2020
5200 Clouds 5 1017 87 10000 1.62 256 22:27 26.11.2020
5201 Fog 5 1020 100 8000 1 0 21:56 26.11.2020
5202 Fog 6 1020 100 8000 0.5 180 20:52 26.11.2020
5203 Clear 7 1019 100 10000 0.5 0 18:42 26.11.2020
5204 Clear 7 1019 93 10000 1.5 250 17:52 26.11.2020
5205 Clouds 9 1019 87 10000 2.6 300 14:57 26.11.2020
5206 Clouds 10 1019 87 10000 2.6 270 13:42 26.11.2020
5207 Drizzle 9 1018 100 5000 2.6 260 12:42 26.11.2020
5208 Drizzle 8 1018 100 1800 3.1 240 11:47 26.11.2020
5209 Mist 8 1018 100 4000 4.1 250 10:37 26.11.2020
5210 Mist 8 1018 100 4200 4.1 240 09:48 26.11.2020
5211 Mist 8 1018 100 3400 4.6 230 09:29 26.11.2020
5212 Drizzle 8 1017 93 4200 4.6 230 08:39 26.11.2020
5213 Drizzle 7 1017 100 2500 3.6 210 06:50 26.11.2020
5214 Clouds 3 1017 100 10000 2.6 140 23:54 25.11.2020
5215 Clouds 3 1017 100 9000 3.1 160 21:26 25.11.2020
5216 Clouds 3 1017 93 9000 3.1 150 19:56 25.11.2020
5217 Clear 4 1017 100 10000 3.1 140 18:28 25.11.2020
5218 Clear 5 1016 93 10000 3.6 140 17:24 25.11.2020
5219 Clear 7 1016 87 10000 3.1 150 15:42 25.11.2020
5220 Clouds 7 1017 87 8000 3.6 150 14:19 25.11.2020
5221 Clouds 6 1017 86 7000 4.1 160 13:43 25.11.2020
5222 Clouds 4 1017 93 6000 4.1 150 12:30 25.11.2020
5223 Mist 4 1017 93 4800 4.1 160 11:20 25.11.2020
5224 Clear 2 1017 93 10000 3.1 160 09:20 25.11.2020
5225 Clear 2 1017 93 10000 2.6 170 08:49 25.11.2020
5226 Clear 2 1017 100 10000 3.1 150 06:59 25.11.2020
5227 Clear 3 1018 100 10000 3.1 130 03:49 25.11.2020
5228 Fog 4 1019 100 10000 2.1 180 00:55 25.11.2020
5229 Clear 5 1019 100 10000 2.6 170 23:59 24.11.2020
5230 Clear 5 1019 93 10000 2.6 170 23:34 24.11.2020
5231 Clear 6 1020 93 10000 3.6 170 22:38 24.11.2020
5232 Clear 6 1020 93 10000 3.1 180 21:34 24.11.2020
5233 Clouds 6 1020 87 10000 4.1 180 20:55 24.11.2020
5234 Clouds 7 1020 87 10000 4.1 200 19:47 24.11.2020
5235 Clouds 8 1020 87 10000 2.6 210 17:32 24.11.2020
5236 Clouds 8 1020 87 10000 5.1 210 16:58 24.11.2020
5237 Clouds 8 1021 87 10000 5.1 210 16:37 24.11.2020
5238 Clouds 8 1021 87 10000 5.1 220 15:56 24.11.2020
5239 Clouds 8 1021 87 10000 5.1 210 15:19 24.11.2020
5240 Clouds 8 1021 87 10000 6.7 200 14:44 24.11.2020
5241 Clouds 8 1021 87 10000 6.2 220 13:34 24.11.2020
5242 Clouds 8 1022 87 9000 7.2 210 12:38 24.11.2020
5243 Clouds 7 1022 87 8000 7.7 220 11:59 24.11.2020
5244 Clouds 7 1022 87 8000 6.7 210 11:24 24.11.2020
5245 Clouds 7 1022 87 7000 6.2 230 10:25 24.11.2020
5246 Clouds 6 1022 93 7000 6.2 230 09:39 24.11.2020
5247 Clouds 6 1022 93 7000 6.7 220 08:59 24.11.2020
5248 Clouds 5 1023 86 10000 5.7 220 06:20 24.11.2020
5249 Clear 5 1026 93 10000 3.6 220 01:00 24.11.2020
5250 Clear 6 1026 87 10000 4.1 230 22:24 23.11.2020
5251 Clear 6 1026 87 10000 4.1 240 21:32 23.11.2020
5252 Clear 6 1026 87 10000 4.1 230 20:32 23.11.2020
5253 Clear 7 1026 81 10000 3.6 240 19:59 23.11.2020
5254 Clouds 7 1025 81 10000 4.1 240 17:58 23.11.2020
5255 Clouds 8 1025 81 10000 3.6 250 17:19 23.11.2020
5256 Clouds 9 1025 76 10000 4.1 250 15:44 23.11.2020
5257 Clouds 9 1024 76 10000 5.1 260 14:46 23.11.2020
5258 Clouds 9 1024 81 10000 5.1 270 12:55 23.11.2020
5259 Rain 8 1024 81 10000 5.1 260 12:34 23.11.2020
5260 Clouds 8 1024 81 10000 4.6 270 11:44 23.11.2020
5261 Clouds 7 1023 87 10000 4.6 240 10:47 23.11.2020
5262 Clouds 5 1023 93 10000 4.6 240 09:31 23.11.2020
5263 Clouds 5 1022 93 10000 4.6 250 08:39 23.11.2020
5264 Rain 6 1021 87 10000 5.7 250 07:19 23.11.2020
5265 Clear 6 1021 87 10000 4.1 230 00:32 23.11.2020
5266 Clear 6 1021 87 10000 3.1 230 23:28 22.11.2020
5267 Clear 6 1021 87 10000 3.1 240 21:59 22.11.2020
5268 Clear 7 1021 87 10000 3.1 230 20:53 22.11.2020
5269 Clouds 7 1021 81 10000 3.1 230 19:53 22.11.2020
5270 Clouds 8 1021 81 10000 4.1 250 18:40 22.11.2020
5271 Clouds 9 1020 76 10000 4.6 260 16:54 22.11.2020
5272 Clouds 10 1020 71 10000 5.1 270 15:51 22.11.2020
5273 Clouds 11 1020 71 10000 6.2 270 14:34 22.11.2020
5274 Clouds 10 1020 76 10000 6.2 260 12:50 22.11.2020
5275 Clouds 10 1020 81 10000 6.2 260 11:57 22.11.2020
5276 Clouds 10 1019 93 10000 7.2 270 11:21 22.11.2020
5277 Clouds 10 1019 87 10000 6.7 250 10:45 22.11.2020
5278 Clouds 10 1019 87 10000 6.2 250 09:32 22.11.2020
5279 Clouds 9 1020 93 10000 7.2 240 01:49 22.11.2020
5280 Drizzle 9 1020 93 6000 7.7 240 23:53 21.11.2020
5281 Clouds 8 1021 93 10000 7.7 230 22:25 21.11.2020
5282 Clouds 8 1021 93 10000 7.7 230 21:30 21.11.2020
5283 Drizzle 8 1021 93 7000 8.7 230 20:35 21.11.2020
5284 Drizzle 8 1021 93 8000 8.2 230 19:57 21.11.2020
5285 Drizzle 8 1021 93 6000 7.2 230 19:36 21.11.2020
5286 Drizzle 8 1022 100 5000 7.7 230 18:31 21.11.2020
5287 Drizzle 7 1022 100 8000 7.7 220 17:28 21.11.2020
5288 Drizzle 7 1022 93 8000 9.3 220 16:40 21.11.2020
5289 Drizzle 7 1023 93 6000 9.3 220 15:23 21.11.2020
5290 Drizzle 7 1023 93 5000 8.2 220 14:48 21.11.2020
5291 Drizzle 7 1023 93 5000 8.2 220 14:27 21.11.2020
5292 Drizzle 6 1024 93 9000 8.7 210 12:43 21.11.2020
5293 Drizzle 5 1025 93 7000 8.2 210 12:20 21.11.2020
5294 Drizzle 5 1025 86 10000 8.2 210 11:23 21.11.2020
5295 Clouds 5 1025 86 10000 9.3 210 10:27 21.11.2020
5296 Clouds 5 1026 80 10000 7.7 200 08:52 21.11.2020
5297 Clouds 5 1027 75 10000 8.7 210 07:58 21.11.2020
5298 Rain 4 1028 80 10000 7.2 210 05:40 21.11.2020
5299 Clear 2 1032 93 10000 4.6 220 01:56 21.11.2020
5300 Clear 2 1032 93 10000 3.6 210 23:59 20.11.2020
5301 Clouds 3 1032 93 10000 3.6 220 22:43 20.11.2020
5302 Clouds 3 1032 93 10000 3.6 220 21:44 20.11.2020
5303 Clouds 3 1032 93 10000 3.6 220 21:44 20.11.2020
5304 Clouds 4 1032 93 10000 3.1 220 21:21 20.11.2020
5305 Clouds 3 1032 93 10000 2.6 230 19:55 20.11.2020
5306 Clear 4 1032 93 10000 2.1 230 18:53 20.11.2020
5307 Clouds 5 1032 93 10000 2.6 240 17:59 20.11.2020
5308 Clouds 5 1032 86 10000 2.6 240 17:29 20.11.2020
5309 Clouds 6 1031 81 10000 4.1 250 16:47 20.11.2020
5310 Clouds 7 1031 75 10000 3.1 250 15:59 20.11.2020
5311 Clouds 8 1031 75 10000 3.6 250 15:39 20.11.2020
5312 Clouds 7 1031 75 10000 3.6 270 13:51 20.11.2020
5313 Clouds 7 1031 75 10000 3.6 270 13:19 20.11.2020
5314 Clouds 7 1031 81 10000 4.6 250 12:41 20.11.2020
5315 Clouds 7 1030 75 10000 4.6 250 11:52 20.11.2020
5316 Clear 6 1030 80 10000 4.1 260 11:21 20.11.2020
5317 Clouds 4 1029 86 10000 3.6 250 09:47 20.11.2020
5318 Clouds 4 1028 86 10000 3.6 240 08:29 20.11.2020
5319 Clouds 3 1027 93 10000 3.6 240 07:49 20.11.2020
5320 Clouds 4 1026 86 10000 4.6 250 05:18 20.11.2020
5321 Clouds 4 1024 86 10000 3.1 250 23:38 19.11.2020
5322 Clouds 4 1023 80 10000 4.1 240 22:30 19.11.2020
5323 Clouds 4 1023 86 10000 3.1 240 21:52 19.11.2020
5324 Clouds 5 1022 75 10000 3.1 280 20:57 19.11.2020
5325 Clear 5 1021 75 10000 5.1 280 20:20 19.11.2020
5326 Clouds 6 1021 70 10000 5.7 290 19:26 19.11.2020
5327 Clouds 6 1020 70 10000 5.7 300 18:54 19.11.2020
5328 Clouds 7 1018 70 10000 6.2 310 17:27 19.11.2020
5329 Clouds 8 1016 65 10000 7.2 290 16:32 19.11.2020
5330 Clouds 8 1015 70 10000 8.2 290 15:29 19.11.2020
5331 Clouds 9 1012 81 10000 12.3 300 13:51 19.11.2020
5332 Rain 9 1011 87 10000 9.3 250 13:33 19.11.2020
5333 Rain 10 1011 76 10000 8.7 240 12:54 19.11.2020
5334 Clouds 10 1011 76 10000 8.7 230 12:33 19.11.2020
5335 Clouds 10 1011 71 10000 8.7 240 11:41 19.11.2020
5336 Clouds 10 1011 71 10000 8.7 240 11:22 19.11.2020
5337 Clouds 10 1011 71 10000 8.7 230 10:31 19.11.2020
5338 Clouds 9 1011 76 10000 7.2 230 09:48 19.11.2020
5339 Clouds 9 1011 76 10000 7.2 230 09:28 19.11.2020
5340 Clouds 9 1011 70 10000 7.7 240 08:37 19.11.2020
5341 Clouds 9 1010 71 10000 9.3 250 07:35 19.11.2020
5342 Clouds 13 1010 71 10000 8.2 220 01:48 19.11.2020
5343 Clouds 13 1010 71 10000 8.2 210 00:32 19.11.2020
5344 Clear 13 1011 71 10000 8.2 210 23:32 18.11.2020
5345 Clear 13 1011 71 10000 7.7 200 22:59 18.11.2020
5346 Clear 12 1012 71 10000 6.2 200 22:29 18.11.2020
5347 Clear 11 1013 87 10000 5.7 170 21:44 18.11.2020
5348 Clear 10 1013 87 10000 5.7 170 21:25 18.11.2020
5349 Clear 10 1014 87 10000 4.6 160 20:40 18.11.2020
5350 Clear 10 1015 81 10000 4.6 160 19:44 18.11.2020
5351 Clear 10 1015 81 10000 4.6 160 19:22 18.11.2020
5352 Clear 10 1017 81 10000 4.1 160 18:45 18.11.2020
5353 Clear 10 1017 81 10000 5.1 170 17:45 18.11.2020
5354 Clear 11 1018 76 10000 4.6 180 16:54 18.11.2020
5355 Clouds 12 1019 76 10000 6.2 190 16:19 18.11.2020
5356 Clouds 12 1020 76 10000 6.2 210 14:43 18.11.2020
5357 Clouds 12 1020 76 10000 6.2 210 14:25 18.11.2020
5358 Clouds 12 1020 81 10000 6.7 210 13:26 18.11.2020
5359 Clouds 12 1021 81 10000 6.2 210 12:44 18.11.2020
5360 Clouds 12 1022 81 10000 5.7 210 11:57 18.11.2020
5361 Clouds 11 1022 93 10000 6.7 210 11:22 18.11.2020
5362 Drizzle 11 1022 93 9000 6.7 210 10:30 18.11.2020
5363 Drizzle 11 1022 93 7000 6.2 220 08:43 18.11.2020
5364 Drizzle 11 1022 93 4000 5.1 220 07:29 18.11.2020
5365 Clouds 11 1022 93 10000 5.1 230 06:28 18.11.2020
5366 Clouds 12 1022 93 10000 6.2 230 00:22 18.11.2020
5367 Clouds 12 1022 93 10000 6.2 230 23:30 17.11.2020
5368 Drizzle 12 1022 93 6000 5.7 230 22:46 17.11.2020
5369 Drizzle 12 1022 93 6000 5.7 230 22:27 17.11.2020
5370 Drizzle 12 1021 93 10000 5.1 230 21:49 17.11.2020
5371 Drizzle 12 1021 93 10000 5.1 230 21:29 17.11.2020
5372 Clouds 11 1021 100 10000 5.7 230 20:44 17.11.2020
5373 Clouds 11 1021 100 10000 5.7 230 20:24 17.11.2020
5374 Clouds 11 1021 100 8000 5.7 230 19:50 17.11.2020
5375 Drizzle 12 1020 93 10000 6.2 230 18:24 17.11.2020
5376 Rain 12 1020 93 10000 6.2 230 17:33 17.11.2020
5377 Drizzle 12 1020 93 8000 6.7 240 16:49 17.11.2020
5378 Clouds 12 1020 93 8000 6.2 240 16:18 17.11.2020
5379 Clouds 12 1019 100 6000 5.7 240 15:38 17.11.2020
5380 Clouds 12 1019 93 4500 6.2 240 15:20 17.11.2020
5381 Clouds 12 1019 93 4500 6.2 230 14:30 17.11.2020
5382 Clouds 11 1018 100 7000 6.2 230 13:45 17.11.2020
5383 Clouds 11 1018 100 5000 6.7 230 13:27 17.11.2020
5384 Clouds 11 1018 93 8000 7.2 220 12:42 17.11.2020
5385 Drizzle 11 1018 93 9000 7.2 220 11:45 17.11.2020
5386 Drizzle 11 1018 93 9000 7.2 220 11:26 17.11.2020
5387 Clouds 10 1018 100 3800 6.7 210 10:39 17.11.2020
5388 Rain 10 1018 93 9000 7.2 210 10:19 17.11.2020
5389 Clouds 10 1018 93 8000 7.2 210 09:43 17.11.2020
5390 Drizzle 9 1018 93 4200 6.2 210 08:46 17.11.2020
5391 Clouds 9 1018 93 10000 6.2 210 07:59 17.11.2020
5392 Clouds 9 1018 87 10000 4.6 210 07:32 17.11.2020
5393 Clouds 9 1018 93 10000 5.1 210 04:31 17.11.2020
5394 Clouds 9 1018 87 10000 5.1 230 03:28 17.11.2020
5395 Clouds 9 1017 87 10000 5.1 230 02:29 17.11.2020
5396 Clouds 10 1017 87 10000 5.1 230 00:57 17.11.2020
5397 Rain 10 1016 87 10000 4.6 240 23:54 16.11.2020
5398 Clouds 10 1016 87 10000 4.6 240 23:33 16.11.2020
5399 Clouds 10 1016 93 10000 4.1 230 22:59 16.11.2020
5400 Clouds 10 1015 87 10000 4.6 250 22:26 16.11.2020
5401 Clouds 10 1015 87 10000 4.6 250 21:58 16.11.2020
5402 Clouds 11 1015 87 10000 3.6 240 21:39 16.11.2020
5403 Clouds 11 1014 87 10000 4.6 240 21:20 16.11.2020
5404 Clouds 11 1014 87 10000 4.1 230 20:26 16.11.2020
5405 Clouds 11 1014 87 10000 4.6 240 19:55 16.11.2020
5406 Clouds 11 1013 87 10000 5.7 230 19:30 16.11.2020
5407 Clouds 11 1013 93 10000 5.1 230 18:52 16.11.2020
5408 Clouds 11 1012 87 10000 5.7 230 18:21 16.11.2020
5409 Clouds 11 1012 87 10000 6.2 230 17:37 16.11.2020
5410 Clouds 10 1011 93 10000 5.1 220 17:19 16.11.2020
5411 Clouds 11 1011 93 10000 6.2 220 16:51 16.11.2020
5412 Clouds 11 1011 93 10000 6.2 220 16:26 16.11.2020
5413 Clouds 10 1010 93 4000 7.7 230 15:45 16.11.2020
5414 Clouds 10 1010 93 4000 7.7 230 15:27 16.11.2020
5415 Rain 11 1009 87 10000 7.7 220 14:48 16.11.2020
5416 Clouds 11 1009 76 10000 8.2 230 13:50 16.11.2020
5417 Clouds 11 1009 76 10000 8.7 220 13:21 16.11.2020
5418 Clouds 11 1008 76 10000 7.7 220 12:30 16.11.2020
5419 Clouds 11 1008 76 10000 7.2 220 11:43 16.11.2020
5420 Clouds 10 1007 81 10000 6.2 220 11:22 16.11.2020
5421 Clouds 10 1007 76 10000 7.7 220 10:44 16.11.2020
5422 Clouds 10 1007 76 10000 7.7 220 10:26 16.11.2020
5423 Clouds 10 1007 76 10000 7.7 220 09:52 16.11.2020
5424 Clouds 10 1006 76 10000 8.7 220 09:34 16.11.2020
5425 Clouds 10 1005 76 10000 7.7 210 08:48 16.11.2020
5426 Clouds 9 1005 76 10000 7.7 210 08:21 16.11.2020
5427 Clouds 9 1005 76 10000 7.7 200 07:29 16.11.2020
5428 Clear 9 1005 76 10000 6.7 190 06:46 16.11.2020
5429 Clouds 9 1004 71 10000 6.7 200 05:49 16.11.2020
5430 Clear 9 1003 81 10000 5.7 190 03:54 16.11.2020
5431 Clear 9 1003 81 10000 6.2 210 01:45 16.11.2020
5432 Clouds 9 1002 93 10000 3.1 210 00:42 16.11.2020
5433 Rain 11 1002 71 10000 9.8 250 23:33 15.11.2020
5434 Rain 14 1000 71 10000 8.2 160 22:58 15.11.2020
5435 Clouds 14 1000 71 10000 8.2 160 22:27 15.11.2020
5436 Clouds 14 1000 71 10000 7.7 150 21:59 15.11.2020
5437 Clouds 14 1001 71 10000 8.2 160 21:36 15.11.2020
5438 Clouds 14 1001 71 10000 8.2 160 21:18 15.11.2020
5439 Rain 14 1002 71 10000 7.7 150 20:40 15.11.2020
5440 Clear 14 1002 76 10000 6.7 140 19:59 15.11.2020
5441 Clear 14 1002 82 10000 6.7 140 19:41 15.11.2020
5442 Clear 14 1002 82 10000 6.7 140 19:21 15.11.2020
5443 Clear 14 1003 82 10000 6.2 140 18:45 15.11.2020
5444 Clear 14 1003 82 10000 6.2 140 18:25 15.11.2020
5445 Clear 14 1003 76 10000 7.2 150 17:59 15.11.2020
5446 Clear 14 1004 76 10000 6.7 140 17:40 15.11.2020
5447 Clear 14 1004 76 10000 6.7 140 17:22 15.11.2020
5448 Clear 15 1004 72 10000 6.7 140 16:44 15.11.2020
5449 Clear 15 1005 72 10000 6.2 150 16:20 15.11.2020
5450 Clear 15 1005 72 10000 5.7 150 15:49 15.11.2020
5451 Clear 16 1006 72 10000 6.2 160 15:26 15.11.2020
5452 Clear 15 1006 72 10000 6.2 160 14:54 15.11.2020
5453 Clear 16 1007 67 10000 7.2 170 14:27 15.11.2020
5454 Clear 16 1007 67 10000 5.7 160 13:53 15.11.2020
5455 Clear 16 1007 67 10000 5.7 160 13:34 15.11.2020
5456 Clear 16 1008 72 10000 6.7 160 12:50 15.11.2020
5457 Clear 15 1008 72 10000 6.7 160 12:20 15.11.2020
5458 Clear 15 1008 71 10000 5.1 160 11:45 15.11.2020
5459 Clear 14 1008 76 10000 5.7 160 11:19 15.11.2020
5460 Clear 14 1008 76 10000 5.7 160 10:53 15.11.2020
5461 Clear 14 1009 76 10000 5.7 160 10:31 15.11.2020
5462 Clear 12 1009 87 10000 5.1 160 09:56 15.11.2020
5463 Clear 12 1009 87 10000 5.1 160 09:37 15.11.2020
5464 Clear 12 1009 87 10000 5.1 160 09:18 15.11.2020
5465 Clouds 12 1009 87 10000 4.6 160 08:45 15.11.2020
5466 Clear 12 1009 81 10000 4.1 150 07:47 15.11.2020
5467 Clear 12 1010 87 10000 5.1 160 06:50 15.11.2020
5468 Clear 11 1010 93 10000 4.1 150 04:57 15.11.2020
5469 Clear 11 1011 87 10000 4.1 160 02:31 15.11.2020
5470 Clear 11 1012 87 10000 3.6 160 00:42 15.11.2020
5471 Clear 11 1012 87 10000 3.6 160 00:24 15.11.2020
5472 Clear 11 1013 87 10000 4.1 160 23:34 14.11.2020
5473 Clear 11 1013 93 10000 4.6 160 22:46 14.11.2020
5474 Clear 11 1013 93 10000 4.6 160 22:28 14.11.2020
5475 Clear 12 1013 87 10000 3.1 160 21:41 14.11.2020
5476 Clear 12 1013 87 10000 3.1 160 21:22 14.11.2020
5477 Clouds 12 1013 93 10000 3.1 150 20:50 14.11.2020
5478 Clouds 12 1013 93 10000 3.1 150 20:26 14.11.2020
5479 Clouds 12 1014 87 10000 4.6 160 19:46 14.11.2020
5480 Clouds 12 1014 87 10000 4.6 160 19:28 14.11.2020
5481 Clouds 12 1014 93 10000 3.6 150 18:43 14.11.2020
5482 Clouds 12 1014 93 9000 3.6 150 18:23 14.11.2020
5483 Clouds 12 1014 100 9000 3.1 140 17:50 14.11.2020
5484 Clouds 12 1014 100 9000 3.1 140 17:31 14.11.2020
5485 Clouds 12 1014 100 9000 2.6 160 16:57 14.11.2020
5486 Clouds 13 1015 87 7000 2.6 160 16:36 14.11.2020
5487 Clouds 13 1015 87 7000 2.6 160 16:36 14.11.2020
5488 Clouds 13 1015 87 10000 2.6 160 16:18 14.11.2020
5489 Clouds 13 1015 87 10000 2.6 160 15:50 14.11.2020
5490 Clouds 13 1015 82 10000 3.1 200 15:21 14.11.2020
5491 Clouds 13 1015 82 10000 4.1 210 14:41 14.11.2020
5492 Clouds 13 1016 82 10000 4.6 230 14:23 14.11.2020
5493 Rain 12 1016 87 10000 4.6 220 13:41 14.11.2020
5494 Rain 13 1016 82 10000 4.1 210 13:22 14.11.2020
5495 Clouds 12 1016 87 9000 4.1 210 12:46 14.11.2020
5496 Clouds 12 1016 87 9000 4.1 210 12:27 14.11.2020
5497 Clouds 12 1016 87 8000 4.1 210 11:46 14.11.2020
5498 Rain 12 1016 93 7000 2.6 220 11:25 14.11.2020
5499 Clouds 12 1016 93 7000 2.6 220 10:45 14.11.2020
5500 Clouds 12 1016 93 7000 2.6 220 10:25 14.11.2020
5501 Clouds 11 1016 93 7000 2.1 230 09:49 14.11.2020
5502 Clouds 11 1016 93 7000 2.6 230 09:28 14.11.2020
5503 Clouds 11 1016 93 6000 3.1 230 08:50 14.11.2020
5504 Clouds 11 1016 93 6000 3.1 230 08:29 14.11.2020
5505 Clouds 11 1016 100 6000 2.6 220 07:50 14.11.2020
5506 Clouds 11 1015 100 6000 2.6 220 07:28 14.11.2020
5507 Clouds 11 1015 93 8000 2.6 220 06:32 14.11.2020
5508 Clouds 11 1015 100 8000 2.1 220 05:37 14.11.2020
5509 Clouds 11 1015 100 8000 3.1 220 04:20 14.11.2020
5510 Clouds 11 1015 93 10000 4.1 220 01:20 14.11.2020
5511 Clouds 10 1015 93 10000 4.1 220 23:49 13.11.2020
5512 Clouds 10 1015 93 10000 4.1 220 23:26 13.11.2020
5513 Clouds 10 1015 87 10000 4.6 210 22:55 13.11.2020
5514 Clouds 10 1015 93 10000 3.1 170 22:29 13.11.2020
5515 Clouds 10 1014 87 10000 3.1 160 21:59 13.11.2020
5516 Clouds 9 1014 93 10000 3.1 160 21:41 13.11.2020
5517 Clouds 9 1014 93 10000 3.1 160 21:22 13.11.2020
5518 Clouds 9 1014 87 10000 3.6 170 20:44 13.11.2020
5519 Clouds 9 1014 87 10000 4.6 170 20:23 13.11.2020
5520 Clouds 9 1014 81 10000 4.6 170 19:47 13.11.2020
5521 Clouds 9 1014 81 10000 4.6 170 19:24 13.11.2020
5522 Clouds 9 1014 87 10000 5.1 170 18:58 13.11.2020
5523 Clouds 9 1014 87 10000 4.6 170 18:29 13.11.2020
5524 Clouds 9 1015 81 10000 5.7 170 17:43 13.11.2020
5525 Clouds 10 1015 81 10000 6.2 160 17:20 13.11.2020
5526 Clouds 10 1015 81 10000 5.1 170 16:50 13.11.2020
5527 Clouds 11 1015 76 10000 4.6 170 16:25 13.11.2020
5528 Clouds 11 1015 76 10000 4.6 170 15:55 13.11.2020
5529 Clouds 12 1015 76 10000 4.6 170 15:32 13.11.2020
5530 Clouds 12 1015 71 10000 5.7 180 14:52 13.11.2020
5531 Clouds 12 1015 71 10000 5.7 180 14:28 13.11.2020
5532 Clouds 12 1016 71 10000 5.1 170 13:54 13.11.2020
5533 Clouds 11 1016 76 10000 4.1 170 13:31 13.11.2020
5534 Clouds 11 1016 81 10000 3.1 150 12:52 13.11.2020
5535 Clouds 10 1017 81 10000 2.6 150 12:27 13.11.2020
5536 Clouds 10 1017 81 10000 2.6 150 11:58 13.11.2020
5537 Clouds 9 1017 87 10000 3.1 160 11:39 13.11.2020
5538 Clouds 9 1017 87 10000 3.1 160 11:19 13.11.2020
5539 Clouds 8 1017 93 10000 3.1 170 10:41 13.11.2020
5540 Clouds 7 1018 100 7000 3.1 150 10:22 13.11.2020
5541 Clouds 7 1018 100 7000 3.1 150 09:47 13.11.2020
5542 Clouds 7 1018 93 7000 2.1 170 09:25 13.11.2020
5543 Clouds 7 1018 93 7000 2.1 170 09:25 13.11.2020
5544 Mist 7 1018 100 5000 3.1 210 08:53 13.11.2020
5545 Mist 7 1018 100 5000 3.1 210 08:23 13.11.2020
5546 Mist 7 1018 100 4800 4.1 220 07:49 13.11.2020
5547 Mist 7 1018 100 4000 4.1 210 07:27 13.11.2020
5548 Mist 7 1018 100 4000 3.6 210 06:55 13.11.2020
5549 Mist 7 1017 100 5000 4.1 220 06:36 13.11.2020
5550 Clouds 7 1017 100 10000 3.6 220 05:41 13.11.2020
5551 Clouds 8 1018 100 10000 3.1 220 03:41 13.11.2020
5552 Clouds 9 1018 100 9000 2.1 230 01:42 13.11.2020
5553 Clouds 9 1017 93 8000 2.1 240 00:35 13.11.2020
5554 Clouds 9 1017 93 10000 3.1 220 23:49 12.11.2020
5555 Clouds 9 1017 93 10000 3.1 220 23:21 12.11.2020
5556 Clouds 8 1017 100 10000 2.6 230 22:55 12.11.2020
5557 Clouds 8 1017 93 10000 2.6 210 22:37 12.11.2020
5558 Clouds 8 1017 100 10000 2.6 220 21:58 12.11.2020
5559 Clouds 8 1017 100 10000 2.6 220 21:40 12.11.2020
5560 Clouds 8 1017 100 10000 3.1 230 21:22 12.11.2020
5561 Clouds 9 1017 100 10000 4.1 210 20:42 12.11.2020
5562 Clouds 9 1016 93 10000 2.1 170 20:23 12.11.2020
5563 Clouds 9 1016 93 10000 2.1 170 19:55 12.11.2020
5564 Rain 9 1016 100 10000 1.5 250 19:37 12.11.2020
5565 Rain 9 1016 100 10000 1.5 250 19:19 12.11.2020
5566 Clouds 9 1016 93 9000 4.1 160 18:42 12.11.2020
5567 Rain 9 1016 93 10000 3.6 160 18:20 12.11.2020
5568 Rain 9 1016 93 10000 4.6 160 17:43 12.11.2020
5569 Clouds 9 1016 93 10000 4.6 160 17:24 12.11.2020
5570 Clouds 9 1016 93 10000 4.1 160 16:45 12.11.2020
5571 Clouds 9 1016 93 10000 4.1 160 16:23 12.11.2020
5572 Clouds 9 1016 93 9000 4.6 160 15:53 12.11.2020
5573 Clouds 9 1016 93 9000 3.1 150 15:29 12.11.2020
5574 Clouds 9 1016 93 6000 3.6 160 14:56 12.11.2020
5575 Rain 9 1016 87 10000 4.6 160 14:38 12.11.2020
5576 Rain 9 1016 87 10000 4.6 150 14:19 12.11.2020
5577 Clouds 9 1016 87 10000 4.1 150 13:45 12.11.2020
5578 Clouds 9 1016 93 9000 4.6 150 13:20 12.11.2020
5579 Clouds 8 1016 93 9000 5.1 150 12:49 12.11.2020
5580 Clouds 8 1016 93 9000 5.1 150 12:49 12.11.2020
5581 Clouds 8 1016 93 9000 5.1 150 12:26 12.11.2020
5582 Clouds 8 1017 87 8000 5.1 160 11:58 12.11.2020
5583 Clouds 8 1017 87 8000 5.7 160 11:40 12.11.2020
5584 Clouds 8 1017 87 7000 7.2 160 10:58 12.11.2020
5585 Clouds 7 1017 93 7000 6.2 160 10:38 12.11.2020
5586 Clouds 7 1017 93 7000 6.2 160 10:19 12.11.2020
5587 Clouds 7 1017 93 6000 6.2 150 09:40 12.11.2020
5588 Mist 7 1017 93 5000 4.6 140 09:18 12.11.2020
5589 Mist 7 1017 100 4900 4.1 130 08:40 12.11.2020
5590 Mist 7 1017 93 4500 4.1 130 08:21 12.11.2020
5591 Mist 7 1017 93 4500 4.1 130 07:59 12.11.2020
5592 Mist 7 1017 100 4200 4.6 140 07:39 12.11.2020
5593 Mist 7 1018 100 4200 4.6 140 06:55 12.11.2020
5594 Mist 7 1018 100 3500 4.6 150 06:27 12.11.2020
5595 Mist 7 1019 100 4800 4.6 150 04:38 12.11.2020
5596 Mist 7 1019 100 2200 3.6 130 03:20 12.11.2020
5597 Mist 7 1021 100 3000 2.6 120 00:54 12.11.2020
5598 Mist 7 1022 100 2000 2.6 130 23:47 11.11.2020
5599 Mist 7 1022 100 2000 2.6 130 23:25 11.11.2020
5600 Mist 7 1022 100 2000 2.1 120 22:57 11.11.2020
5601 Mist 7 1022 100 2000 2.1 140 22:39 11.11.2020
5602 Mist 7 1022 100 1800 3.1 140 22:19 11.11.2020
5603 Mist 7 1023 100 1800 2.6 140 21:41 11.11.2020
5604 Mist 7 1023 100 1800 2.6 140 21:23 11.11.2020
5605 Mist 7 1023 100 1200 3.1 120 20:57 11.11.2020
5606 Mist 7 1023 100 1200 3.1 120 20:39 11.11.2020
5607 Mist 7 1023 100 1000 2.6 140 20:20 11.11.2020
5608 Mist 7 1023 100 1100 3.1 140 19:48 11.11.2020
5609 Mist 7 1023 100 1100 3.1 140 19:30 11.11.2020
5610 Mist 7 1023 100 1500 2.6 140 18:50 11.11.2020
5611 Mist 7 1023 100 1500 2.6 140 18:31 11.11.2020
5612 Fog 7 1024 100 700 2.6 110 17:42 11.11.2020
5613 Fog 7 1024 100 700 1.5 120 17:22 11.11.2020
5614 Fog 7 1024 100 500 1 0 16:50 11.11.2020
5615 Fog 7 1024 100 500 1 0 16:32 11.11.2020
5616 Fog 7 1024 100 500 1 0 16:32 11.11.2020
5617 Fog 7 1024 100 400 1.5 160 15:50 11.11.2020
5618 Mist 7 1024 100 2600 1 0 15:27 11.11.2020
5619 Drizzle 6 1024 100 3000 1.5 180 14:56 11.11.2020
5620 Drizzle 6 1024 100 3000 1.5 180 14:37 11.11.2020
5621 Mist 6 1024 100 4800 2.6 140 13:57 11.11.2020
5622 Mist 6 1024 100 4800 3.1 120 13:35 11.11.2020
5623 Mist 6 1025 100 4200 3.6 110 12:50 11.11.2020
5624 Mist 6 1025 100 3700 2.6 140 12:21 11.11.2020
5625 Drizzle 6 1026 100 2800 3.1 140 11:50 11.11.2020
5626 Mist 5 1026 100 2600 3.1 140 11:30 11.11.2020
5627 Drizzle 5 1026 93 3700 3.1 160 10:43 11.11.2020
5628 Mist 5 1026 93 3700 3.1 160 10:24 11.11.2020
5629 Drizzle 5 1026 93 2000 2.1 120 09:49 11.11.2020
5630 Drizzle 5 1026 93 2000 2.1 120 09:28 11.11.2020
5631 Drizzle 5 1026 93 1800 1.5 110 08:57 11.11.2020
5632 Drizzle 5 1026 93 2100 1.5 120 08:36 11.11.2020
5633 Drizzle 5 1026 100 2800 2.1 160 08:18 11.11.2020
5634 Drizzle 5 1026 100 3000 3.1 150 07:41 11.11.2020
5635 Mist 5 1026 93 4800 2.6 130 06:30 11.11.2020
5636 Clouds 5 1027 93 7000 3.1 140 04:48 11.11.2020
5637 Clouds 6 1027 87 7000 3.1 130 01:36 11.11.2020
5638 Mist 5 1027 93 5000 3.6 140 00:55 11.11.2020
5639 Mist 5 1028 93 5000 4.1 150 00:22 11.11.2020
5640 Clouds 5 1028 93 6000 4.1 130 23:36 10.11.2020
5641 Clouds 5 1028 93 6000 5.1 140 23:18 10.11.2020
5642 Clouds 5 1028 93 7000 5.1 140 22:43 10.11.2020
5643 Clouds 5 1028 93 7000 5.1 150 22:20 10.11.2020
5644 Clouds 5 1028 93 7000 5.1 140 21:40 10.11.2020
5645 Clouds 5 1028 93 7000 4.6 140 21:22 10.11.2020
5646 Clouds 5 1028 93 7000 4.6 140 20:55 10.11.2020
5647 Clouds 5 1028 93 7000 4.6 140 20:37 10.11.2020
5648 Clouds 5 1028 93 7000 5.1 120 20:19 10.11.2020
5649 Clouds 5 1028 93 7000 5.1 140 19:42 10.11.2020
5650 Clouds 5 1028 93 7000 5.1 140 19:23 10.11.2020
5651 Clouds 5 1028 93 7000 3.1 130 18:55 10.11.2020
5652 Clouds 5 1028 93 7000 4.6 150 18:36 10.11.2020
5653 Clouds 5 1028 93 6000 4.1 140 18:18 10.11.2020
5654 Clouds 5 1027 93 6000 4.6 110 17:41 10.11.2020
5655 Clouds 5 1028 93 6000 3.6 110 17:22 10.11.2020
5656 Clouds 5 1027 93 7000 4.6 110 16:41 10.11.2020
5657 Clouds 5 1027 93 7000 4.1 120 16:22 10.11.2020
5658 Clouds 5 1027 93 7000 4.1 120 15:54 10.11.2020
5659 Clouds 5 1027 93 7000 5.1 150 15:36 10.11.2020
5660 Clouds 6 1027 93 6000 4.1 100 15:18 10.11.2020
5661 Clouds 6 1028 93 6000 5.1 120 14:39 10.11.2020
5662 Clouds 6 1028 87 6000 4.6 120 14:18 10.11.2020
5663 Clouds 6 1028 93 6000 4.1 110 13:38 10.11.2020
5664 Clouds 6 1028 93 6000 4.6 120 13:20 10.11.2020
5665 Clouds 6 1028 93 6000 5.1 150 12:46 10.11.2020
5666 Clouds 6 1028 93 6000 5.1 150 12:28 10.11.2020
5667 Clouds 5 1028 93 6000 4.6 120 11:43 10.11.2020
5668 Clouds 6 1028 93 6000 4.6 120 11:22 10.11.2020
5669 Mist 5 1027 93 5000 4.6 130 10:58 10.11.2020
5670 Mist 5 1027 93 5000 4.6 130 10:39 10.11.2020
5671 Mist 5 1028 87 5000 4.1 110 10:21 10.11.2020
5672 Mist 5 1028 93 5000 3.6 120 09:46 10.11.2020
5673 Mist 5 1028 93 5000 3.6 120 09:25 10.11.2020
5674 Mist 5 1028 93 5000 4.1 110 08:57 10.11.2020
5675 Mist 5 1027 93 5000 4.6 140 08:29 10.11.2020
5676 Mist 5 1027 93 5000 4.6 130 07:46 10.11.2020
5677 Mist 5 1027 93 5000 4.6 130 07:26 10.11.2020
5678 Mist 5 1027 93 5000 4.6 120 06:42 10.11.2020
5679 Mist 5 1027 93 5000 4.1 110 05:56 10.11.2020
5680 Mist 5 1027 93 4800 5.1 140 05:27 10.11.2020
5681 Mist 6 1027 93 4800 4.6 110 02:48 10.11.2020
5682 Mist 6 1027 93 4500 4.1 120 01:37 10.11.2020
5683 Mist 6 1027 93 4800 4.6 120 00:24 10.11.2020
5684 Mist 6 1027 93 4500 4.6 110 23:41 09.11.2020
5685 Mist 6 1027 93 4500 3.6 110 22:57 09.11.2020
5686 Mist 6 1027 93 5000 3.6 120 22:38 09.11.2020
5687 Mist 6 1027 93 5000 3.6 120 22:19 09.11.2020
5688 Clouds 6 1027 93 6000 3.6 120 21:39 09.11.2020
5689 Clouds 6 1027 93 6000 4.6 120 21:20 09.11.2020
5690 Clouds 6 1027 93 6000 4.6 120 20:41 09.11.2020
5691 Clouds 6 1027 93 7000 5.1 140 20:21 09.11.2020
5692 Clouds 6 1027 93 7000 3.6 120 19:43 09.11.2020
5693 Clouds 6 1027 93 7000 3.6 120 19:23 09.11.2020
5694 Clouds 6 1027 93 7000 4.1 110 18:57 09.11.2020
5695 Clouds 6 1026 93 7000 4.1 100 18:38 09.11.2020
5696 Clouds 6 1026 93 7000 4.1 100 18:18 09.11.2020
5697 Clouds 6 1026 93 7000 5.1 100 17:43 09.11.2020
5698 Clouds 6 1026 93 7000 5.1 100 17:25 09.11.2020
5699 Clouds 6 1026 93 6000 3.6 130 16:44 09.11.2020
5700 Clouds 6 1026 93 6000 4.1 110 16:20 09.11.2020
5701 Clouds 6 1026 93 6000 4.1 100 15:45 09.11.2020
5702 Clouds 6 1026 93 6000 4.1 100 15:25 09.11.2020
5703 Clouds 7 1026 93 6000 3.6 130 14:49 09.11.2020
5704 Clouds 7 1026 93 6000 3.6 130 14:28 09.11.2020
5705 Clouds 6 1026 93 6000 4.6 110 13:52 09.11.2020
5706 Clouds 6 1026 93 6000 4.6 110 13:28 09.11.2020
5707 Clouds 6 1026 93 7000 4.1 110 12:58 09.11.2020
5708 Clouds 6 1026 93 7000 3.6 110 12:40 09.11.2020
5709 Clouds 6 1026 93 7000 3.6 110 12:20 09.11.2020
5710 Clouds 6 1026 93 7000 4.6 100 11:42 09.11.2020
5711 Clouds 6 1026 93 7000 3.6 100 11:24 09.11.2020
5712 Clouds 6 1026 93 6000 4.1 110 10:44 09.11.2020
5713 Clouds 6 1026 93 6000 4.1 110 10:25 09.11.2020
5714 Clouds 6 1026 93 6000 4.1 110 09:54 09.11.2020
5715 Clouds 5 1026 100 6000 4.1 130 09:29 09.11.2020
5716 Mist 5 1026 100 4500 4.1 110 08:50 09.11.2020
5717 Mist 5 1026 100 4500 3.6 120 08:27 09.11.2020
5718 Mist 5 1025 100 4500 4.6 120 07:44 09.11.2020
5719 Mist 5 1025 100 3500 3.1 110 07:23 09.11.2020
5720 Mist 5 1025 100 3500 3.1 110 06:52 09.11.2020
5721 Mist 6 1025 93 4500 4.1 110 04:30 09.11.2020
5722 Mist 7 1025 93 5000 3.6 100 01:57 09.11.2020
5723 Mist 7 1025 93 5000 3.6 100 01:39 09.11.2020
5724 Mist 7 1025 93 5000 2.6 90 00:55 09.11.2020
5725 Mist 7 1025 100 4800 3.1 80 23:46 08.11.2020
5726 Mist 7 1025 93 4800 3.6 80 23:24 08.11.2020
5727 Mist 8 1025 100 4500 3.1 100 22:43 08.11.2020
5728 Mist 8 1025 100 4500 3.1 100 22:21 08.11.2020
5729 Mist 8 1025 100 4500 4.1 90 21:47 08.11.2020
5730 Mist 8 1025 100 5000 2.6 90 21:22 08.11.2020
5731 Mist 8 1025 100 5000 2.6 90 20:57 08.11.2020
5732 Clear 8 1025 93 7000 2.6 80 20:38 08.11.2020
5733 Clear 8 1025 93 7000 2.6 80 20:20 08.11.2020
5734 Clear 9 1025 100 8000 3.6 80 19:45 08.11.2020
5735 Clear 9 1025 100 8000 3.6 80 19:22 08.11.2020
5736 Clear 9 1025 100 9000 3.1 80 18:57 08.11.2020
5737 Clear 9 1024 93 10000 3.6 80 18:39 08.11.2020
5738 Clear 9 1024 87 10000 2.6 70 18:20 08.11.2020
5739 Clear 10 1024 81 10000 2.6 70 17:42 08.11.2020
5740 Clear 10 1024 81 10000 2.6 70 17:42 08.11.2020
5741 Clear 11 1024 76 10000 2.1 90 17:20 08.11.2020
5742 Clear 11 1024 76 10000 2.1 90 16:59 08.11.2020
5743 Clear 11 1024 76 10000 2.6 90 16:38 08.11.2020
5744 Clear 12 1024 71 10000 3.6 100 16:20 08.11.2020
5745 Clear 12 1024 71 10000 3.6 100 15:46 08.11.2020
5746 Clear 12 1024 66 10000 2.6 90 15:27 08.11.2020
5747 Clear 12 1024 71 10000 3.6 110 14:43 08.11.2020
5748 Clear 12 1024 71 10000 3.6 110 14:24 08.11.2020
5749 Clear 12 1024 71 10000 3.6 110 13:56 08.11.2020
5750 Clear 11 1024 76 10000 3.6 120 13:26 08.11.2020
5751 Clear 11 1024 76 10000 3.6 120 13:26 08.11.2020
5752 Clear 11 1024 76 10000 3.6 120 12:59 08.11.2020
5753 Clear 11 1025 76 10000 4.1 120 12:40 08.11.2020
5754 Clear 11 1025 76 10000 3.1 100 12:20 08.11.2020
5755 Clear 11 1025 76 10000 3.1 100 11:55 08.11.2020
5756 Clear 10 1025 81 10000 3.1 100 11:37 08.11.2020
5757 Clear 10 1025 87 9000 2.6 90 11:19 08.11.2020
5758 Clear 9 1025 87 9000 2.1 90 10:42 08.11.2020
5759 Clear 8 1025 93 8000 2.1 90 10:18 08.11.2020
5760 Fog 6 1025 100 6000 2.1 70 09:42 08.11.2020
5761 Fog 5 1025 100 6000 1.5 60 09:22 08.11.2020
5762 Fog 5 1024 100 6000 1.5 100 08:47 08.11.2020
5763 Fog 4 1024 100 6000 1.5 100 08:27 08.11.2020
5764 Clear 5 1024 100 8000 1 90 07:53 08.11.2020
5765 Clear 5 1024 100 8000 1 90 07:32 08.11.2020
5766 Fog 4 1024 93 8000 1 50 06:45 08.11.2020
5767 Fog 5 1024 100 8000 1 0 05:55 08.11.2020
5768 Fog 4 1024 100 7000 0.5 0 04:54 08.11.2020
5769 Fog 4 1024 100 8000 0.5 0 03:39 08.11.2020
5770 Fog 5 1024 100 8000 0.5 360 01:49 08.11.2020
5771 Fog 5 1024 100 9000 1.5 60 01:18 08.11.2020
5772 Fog 4 1024 100 9000 1 0 00:23 08.11.2020
5773 Fog 5 1024 100 10000 1 50 23:43 07.11.2020
5774 Fog 5 1024 100 10000 1 50 23:24 07.11.2020
5775 Fog 6 1024 100 10000 1 0 22:41 07.11.2020
5776 Fog 6 1024 100 10000 0.5 40 22:21 07.11.2020
5777 Fog 6 1024 100 10000 1 70 21:45 07.11.2020
5778 Fog 6 1024 100 10000 1 70 21:22 07.11.2020
5779 Fog 6 1024 100 10000 0.5 0 20:50 07.11.2020
5780 Clear 6 1024 100 10000 0.5 10 20:32 07.11.2020
5781 Clear 7 1024 100 10000 0.5 0 19:57 07.11.2020
5782 Clear 7 1024 93 10000 0.5 100 19:39 07.11.2020
5783 Clear 8 1024 93 10000 0.5 0 19:19 07.11.2020
5784 Clear 8 1024 93 10000 0.5 0 18:38 07.11.2020
5785 Clear 8 1024 87 10000 0.5 0 18:20 07.11.2020
5786 Clear 9 1024 81 10000 1.5 170 17:45 07.11.2020
5787 Clear 9 1024 81 10000 1.5 170 17:25 07.11.2020
5788 Clear 11 1024 71 10000 2.1 160 16:43 07.11.2020
5789 Clear 12 1024 71 10000 2.1 160 16:24 07.11.2020
5790 Clear 12 1024 66 10000 2.6 160 15:47 07.11.2020
5791 Clear 12 1024 66 10000 2.6 160 15:24 07.11.2020
5792 Clear 13 1024 62 10000 3.1 170 14:56 07.11.2020
5793 Clear 13 1024 62 10000 3.1 170 14:38 07.11.2020
5794 Clear 12 1024 62 10000 3.1 170 14:19 07.11.2020
5795 Clear 12 1025 66 10000 3.1 180 13:39 07.11.2020
5796 Clear 12 1025 66 10000 3.1 180 13:21 07.11.2020
5797 Clear 11 1025 71 10000 4.1 160 12:33 07.11.2020
5798 Clear 10 1026 76 10000 4.1 170 11:46 07.11.2020
5799 Clear 9 1026 81 10000 5.7 150 11:25 07.11.2020
5800 Clear 9 1026 81 10000 5.7 150 10:57 07.11.2020
5801 Clouds 8 1026 81 10000 5.1 150 10:39 07.11.2020
5802 Clouds 8 1026 93 10000 4.6 150 10:20 07.11.2020
5803 Clouds 8 1026 93 10000 5.1 150 09:47 07.11.2020
5804 Clouds 7 1027 93 10000 4.1 140 09:21 07.11.2020
5805 Clouds 7 1027 93 10000 4.1 140 08:47 07.11.2020
5806 Clouds 7 1027 93 10000 4.6 140 08:28 07.11.2020
5807 Clouds 7 1027 93 10000 7.2 140 07:48 07.11.2020
5808 Clouds 7 1027 93 10000 5.1 130 06:50 07.11.2020
5809 Clouds 8 1028 87 10000 5.7 160 05:54 07.11.2020
5810 Clouds 9 1028 93 10000 4.1 160 04:22 07.11.2020
5811 Clouds 9 1029 87 8000 2.6 140 02:46 07.11.2020
5812 Clouds 10 1030 93 10000 4.6 150 01:27 07.11.2020
5813 Clouds 11 1030 87 10000 3.6 150 00:38 07.11.2020
5814 Clouds 11 1030 93 10000 2.6 140 23:40 06.11.2020
5815 Clouds 11 1031 87 10000 2.6 140 23:18 06.11.2020
5816 Clouds 11 1031 87 10000 1.5 170 22:40 06.11.2020
5817 Clouds 11 1031 93 10000 1.5 140 22:18 06.11.2020
5818 Clouds 11 1031 93 10000 0.5 0 21:43 06.11.2020
5819 Clouds 11 1031 93 10000 1.5 90 21:21 06.11.2020
5820 Clouds 11 1032 87 10000 1.5 160 20:51 06.11.2020
5821 Clouds 11 1032 93 10000 0.5 0 20:20 06.11.2020
5822 Clouds 12 1032 93 10000 1 220 19:47 06.11.2020
5823 Clouds 12 1032 93 10000 1 220 19:29 06.11.2020
5824 Clouds 11 1032 93 10000 1.5 230 18:59 06.11.2020
5825 Clouds 11 1032 93 10000 1 240 18:40 06.11.2020
5826 Clouds 11 1032 93 10000 1 240 18:22 06.11.2020
5827 Clouds 12 1032 87 10000 1 0 17:50 06.11.2020
5828 Clouds 12 1032 87 10000 1.5 320 17:25 06.11.2020
5829 Clouds 12 1032 87 10000 1.5 300 16:48 06.11.2020
5830 Clouds 12 1033 87 10000 1.5 310 16:25 06.11.2020
5831 Clouds 12 1033 87 10000 2.6 290 15:49 06.11.2020
5832 Clouds 12 1033 87 10000 2.6 290 15:28 06.11.2020
5833 Clouds 13 1033 87 10000 2.1 280 14:53 06.11.2020
5834 Clouds 13 1033 87 10000 2.1 280 14:26 06.11.2020
5835 Clouds 12 1033 87 10000 3.1 280 13:46 06.11.2020
5836 Clouds 12 1033 87 10000 3.1 280 13:24 06.11.2020
5837 Clouds 12 1034 93 10000 2.6 260 12:46 06.11.2020
5838 Clouds 12 1034 93 10000 2.6 260 12:23 06.11.2020
5839 Clouds 11 1034 93 6000 2.6 250 11:55 06.11.2020
5840 Clouds 10 1034 93 6000 2.6 250 11:35 06.11.2020
5841 Mist 10 1034 93 4800 2.6 250 10:47 06.11.2020
5842 Mist 10 1034 93 4800 2.6 250 10:27 06.11.2020
5843 Drizzle 10 1034 93 4000 2.6 260 09:50 06.11.2020
5844 Drizzle 10 1034 93 3500 2.6 240 09:23 06.11.2020
5845 Drizzle 10 1034 93 3500 2.1 240 08:51 06.11.2020
5846 Drizzle 10 1034 93 3500 2.1 240 08:31 06.11.2020
5847 Drizzle 9 1034 100 3200 2.6 240 07:56 06.11.2020
5848 Drizzle 9 1034 100 3500 3.1 240 07:37 06.11.2020
5849 Drizzle 9 1034 100 2900 2.6 240 07:18 06.11.2020
5850 Drizzle 9 1034 100 2900 2.1 240 06:39 06.11.2020
5851 Drizzle 9 1034 100 4600 3.1 250 05:37 06.11.2020
5852 Clouds 10 1034 93 10000 3.1 250 01:56 06.11.2020
5853 Drizzle 10 1034 87 10000 3.1 250 00:24 06.11.2020
5854 Clouds 10 1034 87 10000 2.6 250 23:50 05.11.2020
5855 Clouds 10 1034 87 10000 3.6 270 23:20 05.11.2020
5856 Clouds 10 1034 87 10000 3.6 270 22:44 05.11.2020
5857 Clouds 10 1034 87 10000 3.6 260 22:25 05.11.2020
5858 Clouds 10 1034 87 10000 3.6 260 21:57 05.11.2020
5859 Clouds 10 1034 81 10000 4.1 250 21:38 05.11.2020
5860 Clouds 10 1034 81 10000 4.1 250 21:18 05.11.2020
5861 Clouds 10 1034 81 10000 4.1 250 20:43 05.11.2020
5862 Clouds 10 1034 81 10000 4.1 250 20:22 05.11.2020
5863 Clouds 10 1034 81 10000 4.1 250 19:44 05.11.2020
5864 Clouds 10 1034 81 10000 4.1 250 19:26 05.11.2020
5865 Clouds 10 1034 81 10000 4.1 250 18:57 05.11.2020
5866 Clouds 10 1034 81 10000 4.1 250 18:38 05.11.2020
5867 Clouds 10 1034 81 10000 4.1 250 18:20 05.11.2020
5868 Clouds 10 1034 81 10000 4.1 260 17:43 05.11.2020
5869 Clouds 10 1034 81 10000 5.7 250 17:25 05.11.2020
5870 Clouds 11 1034 76 10000 5.1 260 16:48 05.11.2020
5871 Clouds 11 1034 76 10000 5.1 260 16:27 05.11.2020
5872 Clouds 11 1034 76 10000 6.7 260 15:53 05.11.2020
5873 Clouds 11 1035 71 10000 5.1 260 15:27 05.11.2020
5874 Clouds 11 1035 76 10000 5.7 270 14:57 05.11.2020
5875 Clouds 11 1035 71 10000 4.6 250 14:39 05.11.2020
5876 Clouds 11 1035 76 10000 6.2 250 14:20 05.11.2020
5877 Clouds 11 1035 81 10000 6.2 260 13:40 05.11.2020
5878 Clouds 11 1035 76 10000 6.2 270 13:18 05.11.2020
5879 Clouds 11 1035 76 10000 5.7 260 12:41 05.11.2020
5880 Clouds 11 1035 76 10000 4.6 250 12:22 05.11.2020
5881 Clouds 10 1035 81 10000 4.1 240 11:41 05.11.2020
5882 Clouds 10 1035 81 10000 4.1 240 11:22 05.11.2020
5883 Clear 9 1036 81 10000 4.6 250 10:48 05.11.2020
5884 Clear 9 1036 81 10000 4.6 250 10:26 05.11.2020
5885 Clouds 6 1036 93 10000 3.1 220 09:49 05.11.2020
5886 Clouds 6 1036 93 10000 3.1 220 09:25 05.11.2020
5887 Clouds 5 1036 93 10000 3.1 220 08:51 05.11.2020
5888 Clouds 5 1035 100 10000 1.5 230 08:32 05.11.2020
5889 Clouds 5 1035 100 10000 2.6 230 07:58 05.11.2020
5890 Clouds 4 1035 100 10000 2.6 220 07:28 05.11.2020
5891 Clouds 5 1035 100 10000 3.1 220 06:50 05.11.2020
5892 Clouds 5 1035 100 10000 3.1 220 06:32 05.11.2020
5893 Clouds 5 1035 100 10000 2.1 240 03:45 05.11.2020
5894 Clouds 6 1034 93 10000 3.1 240 00:45 05.11.2020
5895 Clouds 6 1034 93 10000 2.6 250 00:20 05.11.2020
5896 Clouds 6 1034 93 10000 3.1 230 23:43 04.11.2020
5897 Clouds 6 1033 93 10000 3.1 230 23:24 04.11.2020
5898 Clouds 7 1033 87 10000 3.1 240 22:42 04.11.2020
5899 Clouds 7 1033 87 10000 3.1 240 22:22 04.11.2020
5900 Clouds 7 1033 87 10000 3.1 240 22:22 04.11.2020
5901 Clouds 7 1033 87 10000 3.1 240 21:47 04.11.2020
5902 Clouds 7 1033 87 10000 2.6 240 21:27 04.11.2020
5903 Clear 7 1032 87 10000 3.1 240 20:56 04.11.2020
5904 Clear 7 1032 87 10000 3.1 240 20:36 04.11.2020
5905 Clear 8 1032 81 10000 3.1 240 20:18 04.11.2020
5906 Clear 8 1032 81 10000 3.1 240 19:41 04.11.2020
5907 Clouds 8 1031 75 10000 2.6 240 19:23 04.11.2020
5908 Clouds 9 1031 76 10000 3.1 250 18:43 04.11.2020
5909 Rain 10 1031 81 10000 2.6 250 18:24 04.11.2020
5910 Clouds 10 1030 76 10000 2.1 260 17:54 04.11.2020
5911 Clouds 10 1030 76 10000 2.1 260 17:36 04.11.2020
5912 Clouds 10 1030 71 10000 4.1 260 17:18 04.11.2020
5913 Clouds 11 1030 71 10000 4.1 270 16:37 04.11.2020
5914 Clouds 11 1030 71 10000 4.1 250 16:18 04.11.2020
5915 Clouds 12 1029 66 10000 4.6 250 15:44 04.11.2020
5916 Clouds 12 1029 66 10000 4.6 250 15:24 04.11.2020
5917 Clouds 12 1029 71 10000 4.6 250 14:47 04.11.2020
5918 Clouds 12 1029 71 10000 4.6 250 14:26 04.11.2020
5919 Clouds 12 1029 71 10000 5.7 240 13:56 04.11.2020
5920 Clouds 12 1029 71 10000 4.6 250 13:37 04.11.2020
5921 Clouds 11 1028 71 10000 4.6 230 13:19 04.11.2020
5922 Clouds 11 1028 76 10000 5.1 230 12:47 04.11.2020
5923 Clouds 11 1028 76 10000 5.1 230 12:24 04.11.2020
5924 Clouds 10 1028 76 10000 6.2 240 11:48 04.11.2020
5925 Clouds 10 1028 81 10000 5.1 240 11:30 04.11.2020
5926 Clouds 9 1027 81 10000 5.7 240 10:58 04.11.2020
5927 Clouds 9 1027 81 10000 5.1 230 10:39 04.11.2020
5928 Clouds 9 1027 81 10000 5.1 230 10:21 04.11.2020
5929 Clouds 8 1025 81 10000 4.6 250 09:44 04.11.2020
5930 Clouds 8 1025 87 10000 5.1 240 09:20 04.11.2020
5931 Clouds 7 1024 87 10000 5.7 240 08:42 04.11.2020
5932 Clouds 7 1024 87 10000 5.1 250 08:18 04.11.2020
5933 Clouds 7 1024 87 10000 5.7 250 07:44 04.11.2020
5934 Clouds 7 1024 87 10000 5.7 250 07:25 04.11.2020
5935 Clouds 7 1023 87 10000 6.2 230 06:41 04.11.2020
5936 Clear 7 1023 81 10000 7.2 230 05:59 04.11.2020
5937 Clouds 8 1021 75 10000 7.2 230 02:32 04.11.2020
5938 Clear 7 1021 81 10000 5.1 230 01:40 04.11.2020
5939 Clear 8 1021 75 10000 5.1 230 00:41 04.11.2020
5940 Clouds 9 1021 70 10000 5.7 240 23:38 03.11.2020
5941 Clouds 9 1020 70 10000 6.7 240 23:20 03.11.2020
5942 Clouds 10 1020 71 10000 7.2 230 22:41 03.11.2020
5943 Clouds 9 1019 71 10000 5.1 200 22:20 03.11.2020
5944 Clouds 9 1019 71 10000 5.1 200 21:56 03.11.2020
5945 Clouds 9 1019 76 10000 5.7 170 21:37 03.11.2020
5946 Clouds 9 1019 76 10000 6.2 170 21:18 03.11.2020
5947 Clear 9 1019 81 10000 5.7 170 20:42 03.11.2020
5948 Clear 9 1019 81 10000 5.7 170 20:22 03.11.2020
5949 Clear 8 1019 76 10000 4.6 170 19:43 03.11.2020
5950 Clear 8 1019 76 10000 4.6 170 19:20 03.11.2020
5951 Clear 9 1019 76 10000 4.6 160 18:44 03.11.2020
5952 Clear 9 1019 70 10000 4.1 160 18:20 03.11.2020
5953 Clear 9 1019 70 10000 4.1 160 17:58 03.11.2020
5954 Clear 10 1019 66 10000 4.6 160 17:40 03.11.2020
5955 Clear 10 1020 66 10000 5.1 180 17:21 03.11.2020
5956 Clear 11 1020 66 10000 4.6 180 16:44 03.11.2020
5957 Clouds 12 1020 66 10000 4.1 220 16:22 03.11.2020
5958 Clouds 12 1020 62 10000 4.1 210 15:43 03.11.2020
5959 Clouds 12 1020 66 10000 4.6 230 15:24 03.11.2020
5960 Clouds 11 1020 66 10000 6.2 230 14:52 03.11.2020
5961 Clouds 11 1020 66 10000 6.2 230 14:33 03.11.2020
5962 Clouds 12 1021 62 10000 6.7 230 13:46 03.11.2020
5963 Clouds 12 1021 62 10000 6.7 230 13:23 03.11.2020
5964 Clouds 11 1021 66 10000 6.2 240 12:59 03.11.2020
5965 Clouds 12 1020 66 10000 6.2 240 12:37 03.11.2020
5966 Clouds 12 1020 71 10000 6.7 240 12:19 03.11.2020
5967 Clouds 12 1020 66 10000 6.7 250 11:42 03.11.2020
5968 Clouds 11 1020 71 10000 7.7 240 11:20 03.11.2020
5969 Clouds 11 1019 71 10000 7.2 230 10:40 03.11.2020
5970 Clouds 11 1019 76 10000 7.2 230 10:21 03.11.2020
5971 Clouds 11 1019 76 10000 7.2 230 09:59 03.11.2020
5972 Clouds 10 1019 76 10000 6.7 230 09:37 03.11.2020
5973 Clouds 10 1018 87 10000 6.2 230 09:18 03.11.2020
5974 Clouds 9 1018 81 10000 6.7 230 08:42 03.11.2020
5975 Clouds 9 1017 81 10000 5.7 230 08:23 03.11.2020
5976 Clouds 9 1017 87 10000 6.7 230 07:35 03.11.2020
5977 Clouds 10 1016 81 10000 6.2 230 06:53 03.11.2020
5978 Clouds 10 1016 81 10000 5.7 230 06:19 03.11.2020
5979 Clear 11 1014 87 10000 4.1 220 03:38 03.11.2020
5980 Clouds 12 1012 81 10000 5.7 240 00:43 03.11.2020
5981 Clouds 12 1012 81 10000 5.7 240 00:20 03.11.2020
5982 Clouds 12 1011 81 10000 3.1 240 23:41 02.11.2020
5983 Clouds 13 1011 76 10000 4.1 270 22:57 02.11.2020
5984 Clouds 13 1010 71 10000 5.7 270 22:39 02.11.2020
5985 Clouds 13 1009 67 10000 6.7 290 22:21 02.11.2020
5986 Clouds 14 1009 67 10000 7.2 280 21:39 02.11.2020
5987 Clouds 14 1009 67 10000 7.2 280 21:39 02.11.2020
5988 Clouds 14 1008 76 10000 7.2 280 21:20 02.11.2020
5989 Clouds 14 1008 76 10000 7.2 280 20:55 02.11.2020
5990 Clouds 15 1007 77 10000 7.2 260 20:36 02.11.2020
5991 Clouds 16 1006 87 10000 6.7 230 20:18 02.11.2020
5992 Clouds 16 1006 87 10000 7.2 230 19:42 02.11.2020
5993 Rain 16 1005 93 10000 6.7 230 19:22 02.11.2020
5994 Clouds 16 1005 88 10000 8.2 230 18:42 02.11.2020
5995 Rain 16 1005 88 10000 8.2 230 18:21 02.11.2020
5996 Rain 17 1004 88 6000 11.8 210 17:57 02.11.2020
5997 Rain 17 1004 88 6000 11.8 210 17:39 02.11.2020
5998 Rain 19 1004 72 10000 8.7 200 17:20 02.11.2020
5999 Rain 19 1004 72 10000 7.7 210 16:42 02.11.2020
6000 Clouds 19 1004 72 10000 9.3 210 16:23 02.11.2020
6001 Clouds 19 1004 72 10000 10.8 210 15:44 02.11.2020
6002 Clouds 19 1004 77 10000 8.7 220 15:24 02.11.2020
6003 Clouds 20 1003 72 10000 9.3 210 14:57 02.11.2020
6004 Clouds 20 1003 72 10000 9.3 210 14:37 02.11.2020
6005 Clouds 19 1004 77 10000 8.7 230 14:18 02.11.2020
6006 Clouds 19 1004 77 10000 8.7 230 13:42 02.11.2020
6007 Clouds 19 1003 77 10000 9.8 220 13:21 02.11.2020
6008 Clouds 20 1004 82 10000 9.3 220 12:42 02.11.2020
6009 Clouds 20 1004 82 10000 9.3 220 12:21 02.11.2020
6010 Clouds 19 1003 82 10000 10.3 220 11:45 02.11.2020
6011 Clouds 19 1003 82 10000 9.8 210 11:20 02.11.2020
6012 Clouds 19 1003 88 10000 8.2 210 10:45 02.11.2020
6013 Clouds 19 1003 88 10000 8.2 210 10:24 02.11.2020
6014 Clouds 18 1004 88 10000 8.7 210 09:55 02.11.2020
6015 Clouds 18 1003 88 10000 8.2 210 09:26 02.11.2020
6016 Clouds 17 1003 93 10000 7.7 220 08:48 02.11.2020
6017 Clouds 17 1003 93 10000 7.7 220 08:29 02.11.2020
6018 Clouds 17 1003 93 8000 7.7 210 07:55 02.11.2020
6019 Clouds 17 1003 93 10000 8.7 210 07:32 02.11.2020
6020 Rain 17 1003 93 10000 8.7 210 06:44 02.11.2020
6021 Clouds 17 1003 93 10000 9.3 210 04:59 02.11.2020
6022 Clouds 16 1004 88 10000 7.2 200 01:27 02.11.2020
6023 Rain 16 1005 93 10000 5.7 200 00:37 02.11.2020
6024 Rain 16 1005 93 9000 7.7 200 23:57 01.11.2020
6025 Rain 16 1005 93 10000 6.7 210 23:38 01.11.2020
6026 Rain 16 1005 87 10000 5.1 200 23:19 01.11.2020
6027 Rain 16 1005 87 10000 5.7 200 22:41 01.11.2020
6028 Rain 16 1005 87 10000 5.7 210 22:21 01.11.2020
6029 Clouds 15 1005 93 10000 4.6 180 21:43 01.11.2020
6030 Clouds 15 1005 93 10000 4.6 180 21:23 01.11.2020
6031 Drizzle 15 1005 87 10000 4.6 170 20:47 01.11.2020
6032 Drizzle 15 1005 87 10000 4.6 170 20:26 01.11.2020
6033 Clouds 15 1006 82 10000 7.7 200 19:48 01.11.2020
6034 Clouds 15 1006 82 10000 7.7 200 19:29 01.11.2020
6035 Clouds 15 1006 77 10000 7.7 190 18:59 01.11.2020
6036 Clouds 15 1006 77 10000 8.2 190 18:40 01.11.2020
6037 Clouds 15 1006 77 10000 5.1 180 18:19 01.11.2020
6038 Clouds 15 1006 67 10000 5.7 180 17:45 01.11.2020
6039 Clouds 15 1006 67 10000 5.7 180 17:27 01.11.2020
6040 Clouds 15 1007 77 10000 5.7 180 16:57 01.11.2020
6041 Clouds 15 1007 77 10000 5.7 180 16:38 01.11.2020
6042 Clouds 15 1007 72 10000 6.2 180 16:18 01.11.2020
6043 Clouds 15 1008 72 10000 6.2 190 15:39 01.11.2020
6044 Clouds 15 1008 72 10000 7.2 190 15:20 01.11.2020
6045 Clouds 15 1009 71 10000 6.2 190 14:48 01.11.2020
6046 Clouds 15 1009 71 10000 6.2 190 14:24 01.11.2020
6047 Clouds 15 1009 67 10000 6.7 200 13:59 01.11.2020
6048 Clouds 15 1009 71 10000 7.7 200 13:40 01.11.2020
6049 Clouds 15 1009 71 10000 7.7 200 13:40 01.11.2020
6050 Clouds 15 1010 67 10000 6.2 210 13:22 01.11.2020
6051 Clouds 15 1010 67 10000 6.2 210 12:43 01.11.2020
6052 Clouds 14 1011 71 10000 5.1 200 12:22 01.11.2020
6053 Clouds 14 1011 71 10000 5.1 200 11:49 01.11.2020
6054 Clouds 13 1011 87 10000 4.6 210 11:18 01.11.2020
6055 Clouds 12 1012 87 10000 4.1 190 10:43 01.11.2020
6056 Clouds 12 1012 87 10000 4.1 190 10:24 01.11.2020
6057 Clear 12 1012 93 10000 4.1 210 09:53 01.11.2020
6058 Clear 11 1012 93 10000 4.1 220 09:34 01.11.2020
6059 Clouds 11 1012 93 10000 3.1 220 08:46 01.11.2020
6060 Clouds 11 1012 93 10000 4.1 210 08:19 01.11.2020
6061 Clouds 11 1012 100 10000 3.1 220 07:35 01.11.2020
6062 Clouds 12 1012 93 10000 4.1 210 03:26 01.11.2020
6063 Clouds 12 1013 93 9000 5.1 210 01:47 01.11.2020
6064 Clouds 12 1012 82 10000 4.6 170 00:23 01.11.2020
6065 Clear 12 1013 87 10000 5.7 170 23:25 31.10.2020
6066 Clear 12 1013 87 10000 5.7 170 23:25 31.10.2020
6067 Clear 12 1013 87 10000 5.7 170 22:57 31.10.2020
6068 Clear 12 1013 87 10000 5.7 170 22:37 31.10.2020
6069 Clear 12 1013 82 10000 5.7 170 22:19 31.10.2020
6070 Clear 13 1014 82 10000 5.1 170 21:43 31.10.2020
6071 Clear 13 1014 82 10000 5.1 170 21:19 31.10.2020
6072 Clouds 13 1014 87 10000 6.7 170 20:38 31.10.2020
6073 Clouds 13 1014 87 10000 6.7 170 20:18 31.10.2020
6074 Clouds 14 1015 87 10000 6.2 160 19:41 31.10.2020
6075 Clouds 14 1015 87 10000 6.2 160 19:22 31.10.2020
6076 Clouds 14 1015 93 10000 5.1 150 18:47 31.10.2020
6077 Clouds 14 1015 93 10000 5.1 150 18:24 31.10.2020
6078 Clouds 14 1016 87 10000 4.1 160 17:41 31.10.2020
6079 Clouds 14 1017 87 10000 4.1 160 17:22 31.10.2020
6080 Clouds 14 1017 87 10000 3.1 170 16:46 31.10.2020
6081 Clouds 14 1017 87 10000 4.1 180 16:27 31.10.2020
6082 Clouds 14 1017 93 10000 4.1 180 15:54 31.10.2020
6083 Clouds 14 1017 93 10000 4.1 180 15:25 31.10.2020
6084 Clouds 14 1018 93 10000 4.1 180 14:53 31.10.2020
6085 Clouds 14 1018 93 10000 4.1 180 14:31 31.10.2020
6086 Clouds 14 1019 100 10000 4.1 190 13:52 31.10.2020
6087 Clouds 14 1019 100 10000 4.1 190 13:28 31.10.2020
6088 Clouds 14 1019 100 10000 5.1 210 12:55 31.10.2020
6089 Clouds 14 1019 100 10000 5.1 210 12:22 31.10.2020
6090 Clouds 14 1020 93 8000 3.6 210 11:41 31.10.2020
6091 Drizzle 14 1020 100 7000 3.6 210 11:22 31.10.2020
6092 Drizzle 14 1020 100 5000 3.6 220 10:42 31.10.2020
6093 Drizzle 14 1020 100 5000 3.1 220 10:19 31.10.2020
6094 Drizzle 14 1020 100 4500 3.6 220 09:39 31.10.2020
6095 Drizzle 14 1020 100 4500 3.6 220 09:20 31.10.2020
6096 Clouds 14 1020 100 3500 1.5 230 08:26 31.10.2020
6097 Rain 14 1020 100 5000 2.6 220 07:45 31.10.2020
6098 Drizzle 14 1020 100 5000 2.6 220 07:25 31.10.2020
6099 Drizzle 14 1020 100 6000 2.1 220 06:37 31.10.2020
6100 Drizzle 14 1019 100 6000 3.1 260 03:49 31.10.2020
6101 Drizzle 14 1019 100 6000 3.6 250 02:48 31.10.2020
6102 Drizzle 14 1019 100 4000 3.6 250 00:55 31.10.2020
6103 Rain 14 1018 100 4500 4.1 260 23:58 30.10.2020
6104 Drizzle 14 1018 100 3500 4.1 250 23:39 30.10.2020
6105 Drizzle 14 1018 100 4500 3.6 250 23:20 30.10.2020
6106 Drizzle 14 1017 100 4500 3.6 250 22:40 30.10.2020
6107 Drizzle 14 1017 100 4500 3.6 250 22:22 30.10.2020
6108 Clouds 14 1017 100 2800 3.6 250 21:50 30.10.2020
6109 Clouds 14 1017 100 2500 3.1 250 21:29 30.10.2020
6110 Clouds 14 1017 100 2500 3.1 250 20:58 30.10.2020
6111 Clouds 14 1017 100 2000 3.6 260 20:37 30.10.2020
6112 Clouds 14 1016 100 2800 3.1 260 20:18 30.10.2020
6113 Clouds 14 1016 100 2800 3.1 260 20:18 30.10.2020
6114 Clouds 14 1016 100 3500 3.6 270 19:44 30.10.2020
6115 Clouds 14 1016 100 4500 3.6 270 19:18 30.10.2020
6116 Clouds 14 1015 100 8000 3.6 260 18:45 30.10.2020
6117 Clouds 14 1015 100 4500 4.1 260 18:27 30.10.2020
6118 Clouds 14 1015 100 4500 4.1 260 17:48 30.10.2020
6119 Rain 14 1015 100 3200 4.6 260 17:22 30.10.2020
6120 Rain 14 1015 100 3200 4.6 260 17:22 30.10.2020
6121 Rain 14 1015 100 3200 4.6 260 16:57 30.10.2020
6122 Clouds 14 1014 100 4200 4.6 260 16:36 30.10.2020
6123 Clouds 14 1014 100 4200 4.6 260 16:36 30.10.2020
6124 Clouds 14 1014 100 3500 4.6 260 16:18 30.10.2020
6125 Rain 14 1014 100 5000 5.7 260 15:40 30.10.2020
6126 Clouds 14 1013 100 5000 4.6 260 15:19 30.10.2020
6127 Clouds 14 1013 100 3800 4.6 260 14:44 30.10.2020
6128 Clouds 14 1013 100 3500 5.7 260 14:25 30.10.2020
6129 Clouds 14 1013 100 4500 5.7 250 13:45 30.10.2020
6130 Clouds 14 1012 93 4800 5.7 250 13:21 30.10.2020
6131 Clouds 14 1012 93 4800 5.7 250 12:54 30.10.2020
6132 Clouds 14 1012 93 4200 5.1 250 12:22 30.10.2020
6133 Clouds 14 1012 93 4200 5.1 250 11:56 30.10.2020
6134 Clouds 14 1012 93 7000 5.1 250 11:23 30.10.2020
6135 Clouds 14 1012 93 7000 5.1 250 10:56 30.10.2020
6136 Drizzle 13 1011 100 4200 5.1 240 10:37 30.10.2020
6137 Clouds 13 1011 100 4200 4.6 240 10:19 30.10.2020
6138 Clouds 13 1011 100 4900 4.6 240 09:43 30.10.2020
6139 Rain 13 1011 100 7000 4.6 240 09:20 30.10.2020
6140 Rain 13 1011 100 7000 5.1 240 08:39 30.10.2020
6141 Rain 13 1010 93 4500 4.1 240 08:20 30.10.2020
6142 Rain 12 1010 100 3500 5.1 230 07:46 30.10.2020
6143 Drizzle 12 1010 100 3500 5.1 230 07:27 30.10.2020
6144 Clouds 11 1010 100 4900 5.1 220 06:34 30.10.2020
6145 Rain 10 1011 100 5000 3.6 160 04:28 30.10.2020
6146 Rain 9 1012 100 5000 4.1 150 01:43 30.10.2020
6147 Rain 9 1013 93 10000 3.6 180 00:39 30.10.2020
6148 Rain 9 1014 93 9000 5.1 210 23:48 29.10.2020
6149 Clouds 9 1014 93 10000 4.1 210 23:30 29.10.2020
6150 Rain 9 1014 93 10000 4.1 210 22:57 29.10.2020
6151 Rain 9 1014 87 10000 4.1 210 22:38 29.10.2020
6152 Rain 9 1014 87 10000 4.1 220 22:20 29.10.2020
6153 Rain 9 1014 87 10000 3.6 210 21:36 29.10.2020
6154 Clouds 9 1014 93 10000 3.1 210 21:18 29.10.2020
6155 Clouds 9 1014 87 10000 3.1 220 20:41 29.10.2020
6156 Clouds 9 1014 87 10000 4.1 220 20:19 29.10.2020
6157 Clear 9 1014 87 10000 4.1 230 19:43 29.10.2020
6158 Clear 9 1014 87 10000 4.1 230 19:22 29.10.2020
6159 Clouds 10 1013 81 10000 4.1 230 18:49 29.10.2020
6160 Clouds 10 1013 81 10000 4.1 230 18:29 29.10.2020
6161 Clouds 10 1013 87 10000 4.1 240 17:57 29.10.2020
6162 Rain 10 1013 87 10000 3.6 240 17:38 29.10.2020
6163 Clouds 10 1013 87 10000 4.1 240 17:19 29.10.2020
6164 Clouds 11 1013 87 10000 3.6 250 16:45 29.10.2020
6165 Rain 11 1012 76 10000 6.2 250 16:20 29.10.2020
6166 Rain 11 1012 76 10000 6.2 250 15:56 29.10.2020
6167 Clouds 11 1012 76 10000 5.7 260 15:38 29.10.2020
6168 Rain 12 1011 71 10000 6.7 250 15:19 29.10.2020
6169 Rain 12 1011 71 10000 6.7 250 14:45 29.10.2020
6170 Rain 12 1011 71 10000 6.2 260 14:23 29.10.2020
6171 Rain 12 1011 71 10000 6.2 260 14:23 29.10.2020
6172 Rain 12 1011 71 10000 6.2 260 13:48 29.10.2020
6173 Clouds 12 1010 76 10000 6.2 270 13:28 29.10.2020
6174 Clouds 11 1010 76 10000 7.2 250 12:44 29.10.2020
6175 Clouds 11 1010 81 10000 6.2 250 12:21 29.10.2020
6176 Clouds 11 1010 81 10000 6.2 250 11:58 29.10.2020
6177 Clouds 10 1009 81 10000 4.6 250 11:40 29.10.2020
6178 Clouds 10 1009 81 10000 4.6 250 11:40 29.10.2020
6179 Clouds 10 1009 87 10000 5.7 260 11:21 29.10.2020
6180 Clouds 9 1008 87 10000 5.1 260 10:37 29.10.2020
6181 Rain 9 1008 87 10000 6.2 240 10:19 29.10.2020
6182 Clouds 9 1007 93 10000 4.1 230 09:50 29.10.2020
6183 Clouds 9 1007 93 10000 4.1 230 09:27 29.10.2020
6184 Clouds 7 1006 93 10000 3.1 260 08:52 29.10.2020
6185 Clouds 7 1006 93 10000 3.1 260 08:26 29.10.2020
6186 Rain 8 1006 93 6000 6.2 250 07:53 29.10.2020
6187 Rain 8 1006 93 6000 6.2 250 07:24 29.10.2020
6188 Rain 8 1005 87 10000 5.1 250 06:55 29.10.2020
6189 Rain 10 1004 93 10000 5.7 220 04:51 29.10.2020
6190 Clouds 10 1003 93 10000 5.7 200 02:51 29.10.2020
6191 Rain 10 1001 77 8674 0.89 191 00:57 29.10.2020
6192 Rain 10 1001 76 10000 1.34 163 00:31 29.10.2020
6193 Clouds 10 1001 81 10000 1.79 204 23:46 28.10.2020
6194 Rain 10 1001 81 10000 1.34 200 23:21 28.10.2020
6195 Clouds 10 1006 87 10000 4.6 180 22:45 28.10.2020
6196 Clouds 9 1006 87 10000 4.6 180 22:26 28.10.2020
6197 Clouds 9 1006 87 10000 4.6 180 21:58 28.10.2020
6198 Clouds 9 1006 93 10000 3.6 170 21:40 28.10.2020
6199 Clouds 9 1006 93 10000 4.1 200 21:20 28.10.2020
6200 Rain 10 1006 81 10000 3.6 240 20:42 28.10.2020
6201 Rain 10 1006 81 10000 3.6 240 20:22 28.10.2020
6202 Rain 10 1006 81 10000 4.6 200 19:50 28.10.2020
6203 Rain 10 1006 81 10000 4.6 200 19:28 28.10.2020
6204 Rain 10 1006 87 10000 4.1 200 18:49 28.10.2020
6205 Clouds 10 1006 87 10000 4.1 210 18:21 28.10.2020
6206 Clouds 10 1006 87 10000 4.1 210 17:57 28.10.2020
6207 Clouds 10 1006 81 10000 4.1 210 17:39 28.10.2020
6208 Rain 11 1006 76 10000 6.2 210 17:18 28.10.2020
6209 Clouds 12 1006 71 10000 5.7 210 16:44 28.10.2020
6210 Clouds 13 1006 66 10000 7.2 220 16:22 28.10.2020
6211 Clouds 14 1006 62 10000 8.2 230 15:38 28.10.2020
6212 Clear 14 1005 68 10000 0.89 45 15:19 28.10.2020
6213 Clouds 14 1005 67 10000 8.7 220 14:43 28.10.2020
6214 Clouds 14 1005 67 10000 8.7 220 14:24 28.10.2020
6215 Clouds 14 1002 62 10000 3.13 215 12:49 28.10.2020
6216 Clouds 13 1002 62 10000 4.02 250 12:27 28.10.2020
6217 Clouds 13 1001 64 10000 2.24 196 11:58 28.10.2020
6218 Clouds 13 1001 63 10000 2.68 187 11:39 28.10.2020
6219 Clouds 13 1001 65 10000 2.68 204 11:19 28.10.2020
6220 Clouds 12 1005 81 10000 7.2 220 10:48 28.10.2020
6221 Clouds 12 1005 81 10000 7.2 220 10:29 28.10.2020
6222 Clouds 11 1005 87 10000 6.7 210 09:45 28.10.2020
6223 Clouds 11 1005 87 10000 6.7 210 09:24 28.10.2020
6224 Clouds 11 1004 87 10000 7.2 210 08:51 28.10.2020
6225 Clouds 11 1004 87 10000 5.7 210 08:32 28.10.2020
6226 Clouds 11 1003 93 10000 5.7 220 07:55 28.10.2020
6227 Clouds 10 1003 93 10000 5.1 210 07:37 28.10.2020
6228 Clouds 10 1003 93 10000 5.1 210 07:19 28.10.2020
6229 Clouds 11 1002 100 10000 6.7 220 06:39 28.10.2020
6230 Clouds 10 1001 93 5000 7.7 200 05:44 28.10.2020
6231 Clouds 10 1001 93 8000 6.7 200 04:52 28.10.2020
6232 Clouds 10 1001 87 10000 7.2 190 04:23 28.10.2020
6233 Clouds 10 1001 81 10000 7.2 160 02:25 28.10.2020
6234 Clouds 10 1002 76 10000 7.7 170 00:36 28.10.2020
6235 Clouds 10 1002 76 10000 7.7 170 23:51 27.10.2020
6236 Clouds 10 1003 76 10000 7.2 170 23:22 27.10.2020
6237 Clear 10 1003 81 10000 6.7 170 22:52 27.10.2020
6238 Clear 10 1003 81 10000 6.7 170 22:25 27.10.2020
6239 Clear 10 1003 81 10000 6.2 170 21:58 27.10.2020
6240 Clear 10 1003 81 10000 5.7 170 21:39 27.10.2020
6241 Clear 10 1003 81 10000 6.2 170 21:20 27.10.2020
6242 Clear 10 1003 81 10000 6.2 170 20:54 27.10.2020
6243 Clouds 10 1003 87 10000 5.1 170 20:36 27.10.2020
6244 Clouds 10 1003 81 10000 5.7 170 20:18 27.10.2020
6245 Clouds 11 1004 76 10000 6.2 180 19:39 27.10.2020
6246 Rain 11 1004 76 10000 5.7 180 19:20 27.10.2020
6247 Clouds 11 1004 76 10000 5.7 180 18:58 27.10.2020
6248 Clouds 11 1004 76 10000 5.7 180 18:58 27.10.2020
6249 Clouds 11 1003 76 10000 4.6 170 18:39 27.10.2020
6250 Clouds 11 1003 76 10000 6.2 180 18:18 27.10.2020
6251 Rain 11 1004 76 10000 5.1 190 17:43 27.10.2020
6252 Clouds 12 1004 66 10000 7.2 190 17:21 27.10.2020
6253 Clouds 12 1004 71 10000 5.7 190 16:48 27.10.2020
6254 Clouds 12 1004 66 10000 6.7 200 16:27 27.10.2020
6255 Clouds 12 1004 66 10000 7.2 210 15:55 27.10.2020
6256 Clouds 12 1004 66 10000 7.2 210 15:37 27.10.2020
6257 Clouds 12 1004 66 10000 8.2 210 15:18 27.10.2020
6258 Clouds 13 1004 66 10000 8.2 210 14:41 27.10.2020
6259 Clouds 12 1004 71 10000 6.2 210 14:22 27.10.2020
6260 Clouds 12 1004 71 10000 8.7 210 13:46 27.10.2020
6261 Clouds 12 1004 71 10000 8.7 210 13:22 27.10.2020
6262 Clouds 12 1004 76 10000 7.7 210 12:40 27.10.2020
6263 Clouds 12 1004 76 10000 8.7 210 12:22 27.10.2020
6264 Clouds 11 1004 76 10000 7.7 210 11:42 27.10.2020
6265 Clouds 11 1004 76 10000 7.7 210 11:24 27.10.2020
6266 Clouds 11 1004 76 10000 8.2 210 10:48 27.10.2020
6267 Clouds 11 1004 76 10000 6.2 190 10:30 27.10.2020
6268 Clouds 10 1003 81 10000 7.2 190 09:47 27.10.2020
6269 Clouds 10 1003 81 10000 7.2 190 09:26 27.10.2020
6270 Clouds 9 1003 81 10000 6.7 190 08:49 27.10.2020
6271 Clouds 9 1003 81 10000 6.7 190 08:26 27.10.2020
6272 Clouds 8 1003 81 10000 6.2 190 07:47 27.10.2020
6273 Clouds 8 1003 81 10000 6.2 190 07:29 27.10.2020
6274 Clouds 8 1002 81 10000 6.2 200 06:49 27.10.2020
6275 Clouds 9 1002 81 10000 6.7 210 06:19 27.10.2020
6276 Clouds 9 1002 81 10000 6.7 210 05:44 27.10.2020
6277 Clear 8 1002 81 10000 5.1 200 04:57 27.10.2020
6278 Clear 8 1002 81 10000 4.6 180 02:49 27.10.2020
6279 Clear 8 1002 76 10000 4.1 190 01:18 27.10.2020
6280 Clear 8 1002 81 10000 4.1 180 23:59 26.10.2020
6281 Clear 8 1002 76 10000 4.1 180 23:36 26.10.2020
6282 Clear 8 1002 76 10000 4.1 180 23:36 26.10.2020
6283 Clear 8 1002 76 10000 4.1 180 22:56 26.10.2020
6284 Clear 8 1002 81 10000 3.6 180 22:30 26.10.2020
6285 Clear 8 1002 87 10000 2.6 170 21:57 26.10.2020
6286 Clear 9 1002 81 10000 4.6 180 21:36 26.10.2020
6287 Clear 9 1001 87 10000 3.6 180 21:18 26.10.2020
6288 Clear 9 1001 87 10000 3.1 170 20:49 26.10.2020
6289 Clear 9 1001 87 10000 3.1 170 20:27 26.10.2020
6290 Clouds 10 1002 81 10000 3.6 180 19:49 26.10.2020
6291 Clouds 10 1002 81 10000 3.6 180 19:28 26.10.2020
6292 Clouds 10 1001 81 10000 4.1 200 18:59 26.10.2020
6293 Clouds 10 1001 76 10000 4.1 190 18:39 26.10.2020
6294 Clouds 11 1001 81 10000 4.6 200 18:20 26.10.2020
6295 Clouds 11 1001 81 10000 4.1 200 17:44 26.10.2020
6296 Clouds 11 1001 81 10000 4.6 210 17:23 26.10.2020
6297 Clouds 11 1001 81 10000 4.6 210 16:56 26.10.2020
6298 Clouds 11 1000 81 10000 6.2 210 16:37 26.10.2020
6299 Clouds 12 1000 76 10000 5.1 210 16:18 26.10.2020
6300 Clouds 12 1000 76 10000 5.1 200 15:39 26.10.2020
6301 Clouds 12 1000 76 10000 5.1 210 15:19 26.10.2020
6302 Clouds 12 1000 76 10000 4.6 210 14:45 26.10.2020
6303 Clouds 12 1001 81 10000 5.1 210 14:21 26.10.2020
6304 Clouds 12 1001 81 10000 6.7 200 13:42 26.10.2020
6305 Rain 12 1001 81 10000 5.7 210 13:23 26.10.2020
6306 Clouds 12 1001 81 10000 6.2 210 12:47 26.10.2020
6307 Clouds 12 1001 81 10000 6.2 210 12:27 26.10.2020
6308 Clouds 12 1001 87 10000 4.1 200 11:56 26.10.2020
6309 Clouds 12 1001 87 10000 4.1 190 11:37 26.10.2020
6310 Clouds 12 1000 87 10000 3.6 180 11:19 26.10.2020
6311 Clouds 11 1001 93 10000 4.1 170 10:44 26.10.2020
6312 Clouds 11 1001 93 10000 4.1 170 10:25 26.10.2020
6313 Clouds 11 1001 93 10000 3.6 170 09:48 26.10.2020
6314 Rain 11 1001 93 10000 3.6 170 09:26 26.10.2020
6315 Clouds 11 1001 93 10000 3.6 170 08:48 26.10.2020
6316 Clouds 11 1000 93 10000 4.1 160 08:22 26.10.2020
6317 Clouds 10 1000 93 10000 3.6 150 07:38 26.10.2020
6318 Clouds 10 1000 93 10000 3.1 160 07:18 26.10.2020
6319 Clouds 10 1001 93 10000 3.1 160 05:31 26.10.2020
6320 Clouds 10 1001 100 10000 2.6 170 04:19 26.10.2020
6321 Clouds 10 1001 93 10000 2.6 160 03:20 26.10.2020
6322 Clear 10 1001 93 10000 3.1 170 03:20 26.10.2020
6323 Clear 11 1001 93 10000 3.1 170 01:34 26.10.2020
6324 Clear 11 1001 93 10000 3.6 180 00:33 26.10.2020
6325 Rain 11 1001 87 10000 4.1 180 23:46 25.10.2020
6326 Clouds 12 1001 87 10000 4.1 180 23:25 25.10.2020
6327 Clouds 12 1001 93 10000 3.1 170 22:45 25.10.2020
6328 Rain 12 1001 93 10000 2.6 160 22:27 25.10.2020
6329 Clouds 12 1001 93 10000 2.6 160 21:51 25.10.2020
6330 Clouds 12 1002 93 10000 2.1 190 21:31 25.10.2020
6331 Rain 12 1002 93 10000 3.1 200 20:59 25.10.2020
6332 Rain 12 1002 93 10000 3.6 220 20:41 25.10.2020
6333 Rain 12 1002 93 10000 3.6 220 20:23 25.10.2020
6334 Clouds 12 1002 93 10000 3.1 200 19:55 25.10.2020
6335 Clouds 12 1002 93 10000 3.1 180 19:37 25.10.2020
6336 Rain 12 1002 93 10000 3.1 220 19:18 25.10.2020
6337 Rain 12 1001 93 10000 4.6 160 18:41 25.10.2020
6338 Rain 12 1002 100 10000 2.6 160 18:22 25.10.2020
6339 Rain 12 1002 100 10000 2.6 160 17:55 25.10.2020
6340 Rain 12 1002 93 8000 2.6 190 17:37 25.10.2020
6341 Rain 12 1002 100 4000 5.7 200 17:19 25.10.2020
6342 Rain 13 1002 87 6000 5.1 180 16:44 25.10.2020
6343 Rain 13 1002 87 10000 5.7 200 16:25 25.10.2020
6344 Rain 13 1001 76 10000 6.2 190 15:47 25.10.2020
6345 Rain 14 1001 76 10000 6.2 190 15:27 25.10.2020
6346 Rain 14 1002 72 10000 6.7 190 14:54 25.10.2020
6347 Rain 15 1002 72 10000 6.2 190 14:30 25.10.2020
6348 Rain 15 1001 72 10000 6.2 180 13:55 25.10.2020
6349 Clouds 15 1002 77 10000 5.7 180 13:37 25.10.2020
6350 Clouds 15 1002 77 10000 5.7 180 13:18 25.10.2020
6351 Clouds 15 1002 77 10000 5.7 160 12:40 25.10.2020
6352 Rain 15 1002 72 10000 6.2 180 12:22 25.10.2020
6353 Clouds 15 1002 72 10000 7.2 170 11:43 25.10.2020
6354 Clouds 15 1002 72 10000 6.2 180 11:21 25.10.2020
6355 Clouds 15 1002 72 10000 6.2 170 10:56 25.10.2020
6356 Clouds 15 1002 72 10000 6.2 170 10:38 25.10.2020
6357 Clouds 15 1002 76 10000 6.7 170 10:19 25.10.2020
6358 Clouds 14 1003 76 10000 5.7 180 09:39 25.10.2020
6359 Clouds 14 1002 76 10000 5.1 170 09:19 25.10.2020
6360 Clouds 14 1002 76 10000 5.1 170 09:19 25.10.2020
6361 Clouds 14 1002 76 10000 5.1 170 09:19 25.10.2020
6362 Clouds 14 1003 76 10000 5.1 160 08:41 25.10.2020
6363 Clouds 14 1003 76 10000 5.1 160 08:41 25.10.2020
6364 Clouds 14 1003 76 10000 5.7 170 08:22 25.10.2020
6365 Clouds 14 1003 76 10000 6.2 170 07:46 25.10.2020
6366 Clouds 14 1003 76 10000 6.2 170 07:24 25.10.2020
6367 Clouds 14 1003 76 10000 6.2 160 06:45 25.10.2020
6368 Clouds 14 1004 76 10000 7.2 170 05:36 25.10.2020
6369 Clouds 14 1004 76 10000 6.7 170 04:52 25.10.2020
6370 Clouds 14 1006 76 10000 6.2 180 02:56 25.10.2020
6371 Clouds 14 1006 76 10000 5.1 170 01:20 25.10.2020
6372 Clouds 14 1007 76 10000 6.2 180 00:42 25.10.2020
6373 Clouds 14 1007 76 10000 5.7 180 00:18 25.10.2020
6374 Clouds 14 1007 76 10000 5.7 180 23:43 24.10.2020
6375 Clouds 14 1007 76 10000 5.7 180 23:24 24.10.2020
6376 Clouds 14 1008 82 10000 6.2 180 22:42 24.10.2020
6377 Clouds 14 1008 82 10000 5.1 180 22:23 24.10.2020
6378 Clouds 14 1008 82 10000 5.1 180 21:57 24.10.2020
6379 Drizzle 13 1008 82 10000 6.7 190 21:38 24.10.2020
6380 Clouds 13 1008 87 10000 5.1 200 21:19 24.10.2020
6381 Clouds 13 1009 87 10000 5.7 210 20:45 24.10.2020
6382 Clouds 13 1009 87 10000 5.7 210 20:22 24.10.2020
6383 Clouds 13 1009 87 10000 6.7 210 19:45 24.10.2020
6384 Clouds 13 1009 87 10000 6.7 210 19:26 24.10.2020
6385 Drizzle 13 1009 93 10000 4.6 200 18:55 24.10.2020
6386 Drizzle 13 1009 93 10000 4.6 210 18:36 24.10.2020
6387 Drizzle 13 1009 93 5000 5.1 210 17:57 24.10.2020
6388 Drizzle 13 1009 93 6000 5.7 210 17:37 24.10.2020
6389 Drizzle 13 1009 93 6000 5.7 210 17:19 24.10.2020
6390 Drizzle 13 1010 93 10000 5.1 220 16:42 24.10.2020
6391 Drizzle 14 1010 93 10000 5.1 220 16:19 24.10.2020
6392 Clouds 15 1010 72 10000 7.7 220 15:39 24.10.2020
6393 Clouds 15 1010 72 10000 7.7 220 15:19 24.10.2020
6394 Clouds 15 1010 71 10000 7.2 220 14:46 24.10.2020
6395 Clouds 14 1010 71 10000 7.2 220 14:27 24.10.2020
6396 Clouds 15 1010 62 10000 8.7 240 13:46 24.10.2020
6397 Clouds 15 1010 62 10000 8.7 240 13:24 24.10.2020
6398 Clouds 14 1010 71 10000 7.2 240 12:46 24.10.2020
6399 Clouds 14 1010 71 10000 7.2 240 12:21 24.10.2020
6400 Clouds 14 1010 76 10000 6.7 240 11:53 24.10.2020
6401 Clouds 13 1010 82 10000 6.7 220 11:35 24.10.2020
6402 Clouds 12 1010 93 10000 5.1 220 10:54 24.10.2020
6403 Clouds 12 1010 93 10000 5.1 220 10:34 24.10.2020
6404 Clouds 12 1009 93 10000 5.7 220 09:56 24.10.2020
6405 Clouds 12 1009 93 10000 5.1 210 09:38 24.10.2020
6406 Clouds 12 1009 93 10000 5.1 210 09:19 24.10.2020
6407 Clouds 12 1009 87 10000 4.1 220 08:40 24.10.2020
6408 Clouds 12 1009 93 10000 4.1 220 08:18 24.10.2020
6409 Clouds 12 1009 93 10000 5.1 230 07:45 24.10.2020
6410 Clouds 12 1009 93 10000 5.1 230 07:19 24.10.2020
6411 Clouds 12 1008 87 10000 5.1 230 06:36 24.10.2020
6412 Mist 12 1008 100 5000 5.1 210 03:51 24.10.2020
6413 Mist 12 1009 100 5000 5.1 220 02:20 24.10.2020
6414 Clouds 11 1009 100 8000 2.1 180 00:44 24.10.2020
6415 Clouds 11 1009 100 8000 2.1 180 00:23 24.10.2020
6416 Clouds 11 1009 93 9000 3.1 160 23:59 23.10.2020
6417 Clouds 11 1009 93 10000 3.1 170 23:37 23.10.2020
6418 Clouds 11 1009 93 10000 3.1 170 23:18 23.10.2020
6419 Clouds 11 1009 93 10000 2.6 170 22:42 23.10.2020
6420 Clouds 12 1009 93 10000 2.6 170 22:21 23.10.2020
6421 Clouds 12 1009 93 10000 3.1 170 21:53 23.10.2020
6422 Clear 12 1009 93 10000 3.1 180 21:30 23.10.2020
6423 Clear 12 1009 93 10000 3.1 170 20:58 23.10.2020
6424 Clear 12 1009 93 10000 2.6 170 20:38 23.10.2020
6425 Clear 11 1009 93 10000 2.6 170 20:18 23.10.2020
6426 Clear 12 1009 87 10000 3.1 190 19:43 23.10.2020
6427 Clear 12 1009 81 10000 3.1 180 19:25 23.10.2020
6428 Clear 13 1009 82 10000 3.6 170 18:42 23.10.2020
6429 Clear 13 1009 82 10000 3.1 160 18:23 23.10.2020
6430 Clear 13 1009 76 10000 2.6 180 17:45 23.10.2020
6431 Rain 13 1009 76 10000 2.6 180 17:21 23.10.2020
6432 Rain 14 1009 76 10000 2.6 200 17:21 23.10.2020
6433 Clear 14 1009 76 10000 2.1 220 16:50 23.10.2020
6434 Rain 14 1009 76 10000 2.1 220 16:30 23.10.2020
6435 Clouds 14 1009 76 10000 2.6 220 15:56 23.10.2020
6436 Clouds 14 1009 71 10000 1 0 15:38 23.10.2020
6437 Clouds 14 1010 71 10000 2.6 250 15:19 23.10.2020
6438 Rain 14 1010 76 10000 3.1 230 14:45 23.10.2020
6439 Clouds 14 1010 76 10000 3.1 230 14:45 23.10.2020
6440 Clouds 14 1010 76 10000 3.1 230 14:45 23.10.2020
6441 Clouds 14 1010 76 10000 3.1 230 14:27 23.10.2020
6442 Clouds 13 1010 82 10000 4.1 210 13:42 23.10.2020
6443 Clouds 13 1010 82 10000 4.1 210 13:23 23.10.2020
6444 Clouds 13 1011 93 10000 2.6 220 12:50 23.10.2020
6445 Clouds 13 1011 93 10000 2.6 220 12:30 23.10.2020
6446 Clouds 12 1011 87 8000 3.1 230 11:50 23.10.2020
6447 Clouds 12 1011 93 7000 3.1 240 11:27 23.10.2020
6448 Clouds 11 1011 93 6000 4.1 230 10:55 23.10.2020
6449 Mist 11 1011 100 4500 5.1 220 10:37 23.10.2020
6450 Mist 11 1010 100 5000 3.6 220 10:19 23.10.2020
6451 Mist 10 1010 100 5000 2.6 210 09:43 23.10.2020
6452 Mist 10 1010 100 5000 2.6 210 09:23 23.10.2020
6453 Clouds 10 1010 100 6000 3.1 220 08:50 23.10.2020
6454 Clouds 10 1010 100 6000 3.1 220 08:26 23.10.2020
6455 Clouds 10 1010 100 7000 2.6 220 07:27 23.10.2020
6456 Clear 10 1010 93 10000 2.1 230 06:49 23.10.2020
6457 Clouds 11 1010 93 10000 2.6 240 06:20 23.10.2020
6458 Clouds 12 1010 87 10000 4.6 230 03:44 23.10.2020
6459 Clouds 12 1010 81 10000 4.6 220 02:27 23.10.2020
6460 Clear 12 1009 87 10000 4.1 230 00:54 23.10.2020
6461 Clear 12 1009 87 10000 3.6 220 00:32 23.10.2020
6462 Clear 12 1009 81 10000 3.6 230 23:38 22.10.2020
6463 Clear 12 1009 81 10000 3.1 240 23:19 22.10.2020
6464 Clear 13 1009 87 10000 2.1 250 22:45 22.10.2020
6465 Clear 13 1009 82 10000 3.1 240 22:26 22.10.2020
6466 Clear 13 1009 82 10000 3.1 240 21:58 22.10.2020
6467 Clouds 14 1008 82 10000 2.6 240 21:38 22.10.2020
6468 Clouds 14 1009 76 10000 3.6 230 21:18 22.10.2020
6469 Clouds 14 1009 82 10000 3.6 220 20:43 22.10.2020
6470 Clouds 14 1009 82 10000 3.6 220 20:24 22.10.2020
6471 Rain 15 1008 72 10000 3.1 230 19:43 22.10.2020
6472 Rain 15 1008 82 10000 3.1 220 19:21 22.10.2020
6473 Rain 15 1008 82 10000 3.1 220 18:58 22.10.2020
6474 Clouds 16 1008 72 10000 7.2 220 18:37 22.10.2020
6475 Clouds 17 1008 63 10000 6.2 220 18:18 22.10.2020
6476 Clouds 17 1009 63 10000 5.7 230 17:43 22.10.2020
6477 Clouds 18 1009 63 10000 7.2 220 17:20 22.10.2020
6478 Clouds 18 1009 59 10000 6.2 240 16:45 22.10.2020
6479 Clouds 18 1009 59 10000 6.2 240 16:24 22.10.2020
6480 Clouds 18 1009 59 10000 7.7 230 15:49 22.10.2020
6481 Clouds 18 1009 59 10000 7.7 230 15:27 22.10.2020
6482 Clouds 18 1009 67 10000 6.7 230 14:56 22.10.2020
6483 Clouds 18 1009 59 10000 8.2 230 14:37 22.10.2020
6484 Clouds 18 1009 67 10000 7.7 230 14:19 22.10.2020
6485 Clouds 18 1009 72 10000 6.7 230 13:42 22.10.2020
6486 Clouds 17 1009 77 10000 7.2 230 13:22 22.10.2020
6487 Clouds 16 1009 77 10000 7.7 230 12:43 22.10.2020
6488 Clouds 16 1009 77 10000 6.7 230 12:22 22.10.2020
6489 Clouds 16 1009 77 10000 6.2 220 11:45 22.10.2020
6490 Clouds 15 1009 82 10000 5.1 220 11:19 22.10.2020
6491 Clouds 15 1009 82 10000 5.7 230 10:49 22.10.2020
6492 Clouds 15 1009 82 10000 5.7 230 10:25 22.10.2020
6493 Clouds 15 1008 87 10000 4.6 230 09:44 22.10.2020
6494 Clouds 14 1008 87 10000 4.6 230 09:22 22.10.2020
6495 Clouds 14 1007 87 10000 4.6 210 08:43 22.10.2020
6496 Clouds 13 1007 93 10000 4.6 220 08:25 22.10.2020
6497 Clouds 14 1007 82 10000 4.6 230 07:43 22.10.2020
6498 Clouds 14 1006 82 10000 6.2 240 07:20 22.10.2020
6499 Clouds 15 1006 77 10000 7.7 230 06:46 22.10.2020
6500 Clouds 15 1006 77 10000 7.7 230 06:24 22.10.2020
6501 Clouds 15 1006 82 10000 6.7 240 05:39 22.10.2020
6502 Clouds 16 1004 77 10000 8.2 250 03:37 22.10.2020
6503 Clouds 18 1001 72 10000 7.7 220 01:35 22.10.2020
6504 Rain 17 1000 72 10000 11.3 210 00:25 22.10.2020
6505 Rain 18 1000 63 10000 10.8 200 23:47 21.10.2020
6506 Clouds 17 1000 63 10000 10.8 200 23:28 21.10.2020
6507 Clouds 16 1000 67 10000 6.7 190 22:40 21.10.2020
6508 Clouds 16 1000 67 10000 7.2 180 22:19 21.10.2020
6509 Clouds 16 1000 67 10000 7.2 180 21:56 21.10.2020
6510 Clouds 16 1000 67 10000 6.7 170 21:37 21.10.2020
6511 Clouds 16 1000 67 10000 6.2 180 21:18 21.10.2020
6512 Clouds 15 1000 72 10000 6.7 170 20:47 21.10.2020
6513 Clouds 15 1000 82 10000 6.2 170 20:19 21.10.2020
6514 Clouds 14 1000 82 10000 5.7 160 19:44 21.10.2020
6515 Clouds 14 1000 82 10000 5.7 160 19:26 21.10.2020
6516 Clouds 14 1000 82 10000 6.2 160 18:54 21.10.2020
6517 Clouds 14 1000 87 10000 5.7 160 18:33 21.10.2020
6518 Clouds 14 1000 87 10000 5.7 160 18:33 21.10.2020
6519 Clouds 14 1001 87 10000 7.2 160 17:57 21.10.2020
6520 Clouds 14 1001 87 10000 6.2 150 17:39 21.10.2020
6521 Clouds 14 1001 87 10000 5.7 150 17:19 21.10.2020
6522 Clouds 13 1002 93 10000 4.1 150 16:40 21.10.2020
6523 Clouds 13 1002 93 10000 4.1 150 16:21 21.10.2020
6524 Clouds 13 1002 93 10000 5.1 160 15:55 21.10.2020
6525 Clouds 13 1003 93 10000 5.1 160 15:36 21.10.2020
6526 Clouds 13 1003 93 10000 5.1 160 15:18 21.10.2020
6527 Clouds 13 1004 93 10000 5.1 170 14:42 21.10.2020
6528 Rain 13 1004 93 10000 5.1 170 14:23 21.10.2020
6529 Clouds 13 1004 93 10000 5.1 150 13:42 21.10.2020
6530 Rain 13 1005 93 10000 5.1 160 13:23 21.10.2020
6531 Rain 13 1005 93 10000 4.6 170 12:46 21.10.2020
6532 Rain 13 1005 93 10000 5.1 160 12:24 21.10.2020
6533 Rain 12 1005 100 7000 4.1 160 11:59 21.10.2020
6534 Rain 12 1005 100 7000 4.1 160 11:40 21.10.2020
6535 Rain 12 1005 100 5000 4.6 150 11:19 21.10.2020
6536 Rain 12 1006 100 7000 4.1 160 10:43 21.10.2020
6537 Rain 12 1006 93 7000 4.1 160 10:23 21.10.2020
6538 Rain 12 1006 93 6000 3.6 150 09:52 21.10.2020
6539 Rain 12 1006 93 6000 3.6 150 09:30 21.10.2020
6540 Rain 12 1006 93 8000 3.1 150 08:43 21.10.2020
6541 Rain 12 1006 93 10000 3.1 150 08:25 21.10.2020
6542 Rain 12 1006 93 10000 3.1 150 07:58 21.10.2020
6543 Clouds 12 1006 93 10000 3.1 140 07:31 21.10.2020
6544 Clouds 12 1006 93 10000 3.1 150 06:50 21.10.2020
6545 Rain 12 1006 93 10000 3.1 150 06:26 21.10.2020
6546 Clouds 13 1007 93 10000 3.1 170 04:47 21.10.2020
6547 Clouds 12 1008 100 10000 3.6 210 00:51 21.10.2020
6548 Clouds 12 1008 93 10000 4.1 210 23:49 20.10.2020
6549 Clouds 11 1008 100 10000 3.6 180 22:53 20.10.2020
6550 Rain 11 1008 93 10000 3.6 180 22:28 20.10.2020
6551 Rain 11 1008 93 10000 3.6 170 21:50 20.10.2020
6552 Rain 11 1008 93 10000 4.1 170 21:20 20.10.2020
6553 Rain 10 1008 93 10000 4.1 170 20:56 20.10.2020
6554 Rain 10 1008 93 10000 4.1 170 20:36 20.10.2020
6555 Clouds 10 1008 93 10000 4.6 160 20:18 20.10.2020
6556 Clouds 10 1008 93 10000 4.1 150 19:42 20.10.2020
6557 Clouds 10 1008 93 10000 4.1 150 19:22 20.10.2020
6558 Clouds 10 1008 93 10000 4.1 140 18:52 20.10.2020
6559 Rain 10 1009 87 10000 3.6 160 18:34 20.10.2020
6560 Rain 10 1009 87 10000 4.1 160 17:48 20.10.2020
6561 Rain 10 1009 87 10000 3.6 160 17:29 20.10.2020
6562 Rain 10 1009 81 10000 4.1 170 16:48 20.10.2020
6563 Rain 10 1009 76 10000 3.6 150 16:28 20.10.2020
6564 Rain 11 1009 76 10000 3.6 160 15:57 20.10.2020
6565 Rain 11 1009 76 10000 3.6 160 15:39 20.10.2020
6566 Rain 11 1009 76 10000 4.1 160 15:20 20.10.2020
6567 Rain 10 1009 71 10000 4.6 170 14:42 20.10.2020
6568 Clouds 10 1009 71 10000 5.1 150 14:24 20.10.2020
6569 Clouds 10 1010 70 10000 6.2 160 13:56 20.10.2020
6570 Clouds 10 1010 71 10000 3.6 140 13:37 20.10.2020
6571 Clouds 10 1010 70 10000 6.2 160 13:19 20.10.2020
6572 Clouds 10 1011 70 10000 6.2 160 12:40 20.10.2020
6573 Clouds 9 1011 75 10000 6.2 150 12:22 20.10.2020
6574 Clouds 8 1011 70 10000 6.2 150 11:45 20.10.2020
6575 Clouds 8 1011 70 10000 5.7 150 11:27 20.10.2020
6576 Clouds 8 1011 70 10000 6.7 150 10:40 20.10.2020
6577 Clouds 8 1011 70 10000 6.7 150 10:40 20.10.2020
6578 Clouds 8 1012 70 10000 6.7 140 10:21 20.10.2020
6579 Clouds 7 1012 75 10000 6.7 140 09:44 20.10.2020
6580 Clouds 7 1012 75 10000 4.6 140 09:19 20.10.2020
6581 Clouds 7 1013 75 10000 5.1 140 08:39 20.10.2020
6582 Rain 7 1014 81 10000 3.6 130 07:54 20.10.2020
6583 Clouds 6 1014 87 10000 4.1 130 07:26 20.10.2020
6584 Clouds 6 1014 93 10000 4.6 130 06:57 20.10.2020
6585 Clouds 6 1015 93 10000 4.1 150 06:19 20.10.2020
6586 Clouds 6 1017 93 10000 4.1 140 03:59 20.10.2020
6587 Clouds 7 1017 93 10000 3.1 140 02:30 20.10.2020
6588 Clouds 8 1018 93 10000 3.6 130 01:22 20.10.2020
6589 Clouds 8 1018 93 10000 3.6 140 00:51 20.10.2020
6590 Clouds 8 1019 87 10000 3.1 160 00:24 20.10.2020
6591 Clouds 9 1019 87 10000 4.6 160 23:51 19.10.2020
6592 Clouds 10 1019 81 10000 3.6 150 23:24 19.10.2020
6593 Clouds 10 1019 81 10000 3.6 160 22:54 19.10.2020
6594 Clouds 9 1019 81 10000 3.1 160 22:26 19.10.2020
6595 Clouds 9 1019 81 10000 2.6 160 21:55 19.10.2020
6596 Clouds 9 1019 81 10000 2.6 160 21:37 19.10.2020
6597 Clouds 9 1019 81 10000 2.6 160 21:18 19.10.2020
6598 Clouds 9 1019 87 10000 3.1 180 20:42 19.10.2020
6599 Clouds 9 1019 87 10000 3.1 180 20:24 19.10.2020
6600 Clouds 9 1019 81 10000 2.1 190 19:45 19.10.2020
6601 Clouds 9 1019 87 10000 3.6 200 19:19 19.10.2020
6602 Clouds 10 1019 81 10000 2.6 210 18:50 19.10.2020
6603 Clouds 11 1020 81 10000 3.1 220 18:24 19.10.2020
6604 Clouds 11 1020 76 10000 4.1 220 17:47 19.10.2020
6605 Clouds 11 1020 81 10000 4.6 220 17:27 19.10.2020
6606 Clouds 11 1020 76 10000 4.6 220 16:54 19.10.2020
6607 Clouds 12 1020 76 10000 4.1 230 16:29 19.10.2020
6608 Clouds 12 1017 68 10000 1.34 212 15:48 19.10.2020
6609 Clouds 12 1017 68 10000 1.34 198 15:26 19.10.2020
6610 Clouds 12 1017 67 10000 1.34 274 14:57 19.10.2020
6611 Clouds 12 1017 67 10000 1.34 274 14:57 19.10.2020
6612 Clouds 11 1017 67 10000 1.79 202 14:37 19.10.2020
6613 Clouds 12 1017 68 10000 0.89 270 14:19 19.10.2020
6614 Clouds 11 1017 70 10000 1.34 300 13:42 19.10.2020
6615 Clouds 11 1017 70 10000 0.89 270 13:22 19.10.2020
6616 Clouds 11 1017 67 10000 1.34 203 12:45 19.10.2020
6617 Clouds 11 1017 70 10000 0.89 266 12:25 19.10.2020
6618 Clouds 10 1020 87 10000 3.1 240 11:49 19.10.2020
6619 Clouds 10 1020 87 10000 3.1 240 11:22 19.10.2020
6620 Rain 9 1020 93 10000 3.6 230 10:45 19.10.2020
6621 Rain 8 1020 93 10000 2.6 230 10:24 19.10.2020
6622 Clouds 8 1020 93 10000 1.5 230 09:57 19.10.2020
6623 Clouds 8 1020 93 10000 1.5 230 09:37 19.10.2020
6624 Clouds 8 1020 93 10000 2.6 220 09:18 19.10.2020
6625 Rain 7 1020 93 10000 2.6 230 08:44 19.10.2020
6626 Clouds 7 1020 93 10000 2.6 240 08:21 19.10.2020
6627 Clouds 7 1020 87 10000 2.1 260 07:21 19.10.2020
6628 Clouds 7 1020 93 10000 1.5 250 06:45 19.10.2020
6629 Clouds 7 1020 87 10000 2.1 270 05:36 19.10.2020
6630 Clouds 7 1020 93 10000 2.1 250 03:46 19.10.2020
6631 Clouds 8 1019 93 10000 3.1 250 01:43 19.10.2020
6632 Clouds 8 1019 93 10000 2.1 260 00:43 19.10.2020
6633 Clouds 8 1019 93 10000 3.1 240 23:59 18.10.2020
6634 Clouds 8 1019 87 10000 3.6 240 23:40 18.10.2020
6635 Clouds 8 1019 93 10000 2.6 250 23:20 18.10.2020
6636 Clouds 8 1019 93 10000 3.1 240 22:45 18.10.2020
6637 Clouds 8 1018 87 10000 3.1 250 22:19 18.10.2020
6638 Clouds 8 1018 87 10000 3.1 250 21:48 18.10.2020
6639 Clouds 8 1019 87 10000 2.6 250 21:29 18.10.2020
6640 Clouds 8 1018 87 10000 2.6 250 20:47 18.10.2020
6641 Clouds 9 1018 87 10000 2.6 270 20:25 18.10.2020
6642 Clouds 9 1018 81 10000 2.6 270 19:57 18.10.2020
6643 Clouds 10 1018 81 10000 3.1 270 19:39 18.10.2020
6644 Rain 10 1017 71 10000 4.1 270 19:19 18.10.2020
6645 Clouds 11 1017 62 10000 3.6 280 18:46 18.10.2020
6646 Clouds 11 1017 62 10000 4.6 300 18:24 18.10.2020
6647 Clouds 11 1017 54 10000 6.2 280 17:42 18.10.2020
6648 Clouds 12 1017 54 10000 6.2 280 17:24 18.10.2020
6649 Clouds 12 1017 50 10000 5.7 280 16:44 18.10.2020
6650 Clouds 12 1017 54 10000 6.2 290 16:26 18.10.2020
6651 Clouds 12 1017 54 10000 6.2 290 15:57 18.10.2020
6652 Clouds 13 1017 54 10000 9.3 310 15:39 18.10.2020
6653 Clouds 12 1017 50 10000 7.7 310 15:18 18.10.2020
6654 Clouds 13 1017 50 10000 7.7 310 14:50 18.10.2020
6655 Clouds 13 1017 58 10000 6.2 290 14:27 18.10.2020
6656 Clouds 13 1017 54 10000 6.7 310 13:55 18.10.2020
6657 Clouds 12 1017 66 10000 5.7 280 13:36 18.10.2020
6658 Clouds 13 1017 66 10000 5.7 280 13:18 18.10.2020
6659 Clouds 11 1016 76 10000 5.1 280 12:41 18.10.2020
6660 Clouds 11 1016 81 10000 4.6 280 12:20 18.10.2020
6661 Clouds 10 1016 93 10000 3.6 280 11:41 18.10.2020
6662 Clouds 10 1016 93 10000 4.1 280 11:22 18.10.2020
6663 Clouds 9 1016 100 10000 3.6 270 10:40 18.10.2020
6664 Clouds 9 1016 100 6000 3.6 270 10:21 18.10.2020
6665 Clouds 9 1016 93 5000 3.6 260 09:51 18.10.2020
6666 Clouds 9 1016 93 5000 3.6 260 09:23 18.10.2020
6667 Clouds 9 1016 93 5000 3.6 260 09:23 18.10.2020
6668 Clouds 9 1016 93 3500 3.6 270 08:58 18.10.2020
6669 Clouds 9 1015 93 5000 4.1 260 08:38 18.10.2020
6670 Clouds 9 1015 93 5000 4.6 250 08:20 18.10.2020
6671 Clouds 9 1015 93 3500 4.6 260 07:30 18.10.2020
6672 Clouds 9 1016 87 10000 4.1 260 05:33 18.10.2020
6673 Clouds 8 1017 87 10000 3.6 260 02:56 18.10.2020
6674 Clouds 8 1017 87 10000 3.6 260 02:56 18.10.2020
6675 Clouds 6 1018 100 10000 2.6 250 01:41 18.10.2020
6676 Clouds 6 1018 93 10000 2.6 250 00:52 18.10.2020
6677 Clouds 6 1018 100 10000 2.6 250 00:34 18.10.2020
6678 Clouds 6 1018 93 10000 2.6 260 23:56 17.10.2020
6679 Fog 6 1018 100 10000 0.5 0 23:37 17.10.2020
6680 Fog 6 1018 100 10000 0.5 0 23:19 17.10.2020
6681 Fog 6 1018 93 10000 0.5 0 22:43 17.10.2020
6682 Fog 6 1018 100 10000 1 0 22:20 17.10.2020
6683 Fog 6 1018 100 10000 1 0 21:58 17.10.2020
6684 Fog 7 1019 93